<?xml version="1.0" encoding="UTF-8" standalone="no" ?>
<gpx xmlns="http://www.topografix.com/GPX/1/1" xmlns:xsi="http://www.w3.org/2001/XMLSchema-instance" xsi:schemaLocation="http://www.topografix.com/GPX/1/1 http://www.topografix.com/GPX/1/1/gpx.xsd" version="1.1" creator="VisuGPX - https://www.visugpx.com">
  <metadata>
    <name>Vtt moureze villeneuvette clermont</name>
    <desc><![CDATA[Sortie XC / AM sur le secteur Clermontais. L'essentiel est sur chemin et route pour les ascensions et on va chercher les singles ludiques pour les descentes.
Quelques petites cotes quand même en single technique avec un petit portage au col de porte. ]]></desc>
  </metadata>
  <trk>
    <name><![CDATA[Vtt moureze villeneuvette clermont_1]]></name>
    <trkseg>
      <trkpt lat="43.60947" lon="3.43583">
        <ele>164.6</ele>
        <time>2016-10-22T11:31:23Z</time>
      </trkpt>
      <trkpt lat="43.60947" lon="3.43583">
        <ele>164.6</ele>
        <time>2016-10-22T11:31:32Z</time>
      </trkpt>
      <trkpt lat="43.60953" lon="3.43575">
        <ele>168.4</ele>
        <time>2016-10-22T11:36:33Z</time>
      </trkpt>
      <trkpt lat="43.6095" lon="3.43574">
        <ele>168.9</ele>
        <time>2016-10-22T11:36:40Z</time>
      </trkpt>
      <trkpt lat="43.6095" lon="3.4357">
        <ele>169.6</ele>
        <time>2016-10-22T11:38:30Z</time>
      </trkpt>
      <trkpt lat="43.60948" lon="3.43568">
        <ele>167.1</ele>
        <time>2016-10-22T11:39:10Z</time>
      </trkpt>
      <trkpt lat="43.60955" lon="3.43566">
        <ele>167</ele>
        <time>2016-10-22T11:39:17Z</time>
      </trkpt>
      <trkpt lat="43.60948" lon="3.43558">
        <ele>167.3</ele>
        <time>2016-10-22T11:39:24Z</time>
      </trkpt>
      <trkpt lat="43.60939" lon="3.43557">
        <ele>167.2</ele>
        <time>2016-10-22T11:39:26Z</time>
      </trkpt>
      <trkpt lat="43.6093" lon="3.43556">
        <ele>166.8</ele>
        <time>2016-10-22T11:39:28Z</time>
      </trkpt>
      <trkpt lat="43.60919" lon="3.43555">
        <ele>167</ele>
        <time>2016-10-22T11:39:30Z</time>
      </trkpt>
      <trkpt lat="43.60907" lon="3.43554">
        <ele>168.2</ele>
        <time>2016-10-22T11:39:32Z</time>
      </trkpt>
      <trkpt lat="43.609" lon="3.43547">
        <ele>168.4</ele>
        <time>2016-10-22T11:39:34Z</time>
      </trkpt>
      <trkpt lat="43.60897" lon="3.43533">
        <ele>168.4</ele>
        <time>2016-10-22T11:39:36Z</time>
      </trkpt>
      <trkpt lat="43.60895" lon="3.43521">
        <ele>168.2</ele>
        <time>2016-10-22T11:39:38Z</time>
      </trkpt>
      <trkpt lat="43.60894" lon="3.43509">
        <ele>168</ele>
        <time>2016-10-22T11:39:40Z</time>
      </trkpt>
      <trkpt lat="43.60891" lon="3.43498">
        <ele>167.7</ele>
        <time>2016-10-22T11:39:42Z</time>
      </trkpt>
      <trkpt lat="43.60887" lon="3.43487">
        <ele>167.8</ele>
        <time>2016-10-22T11:39:44Z</time>
      </trkpt>
      <trkpt lat="43.60883" lon="3.43477">
        <ele>168.9</ele>
        <time>2016-10-22T11:39:46Z</time>
      </trkpt>
      <trkpt lat="43.60877" lon="3.43468">
        <ele>168.7</ele>
        <time>2016-10-22T11:39:48Z</time>
      </trkpt>
      <trkpt lat="43.60872" lon="3.4346">
        <ele>168.4</ele>
        <time>2016-10-22T11:39:50Z</time>
      </trkpt>
      <trkpt lat="43.60869" lon="3.4345">
        <ele>168.6</ele>
        <time>2016-10-22T11:39:52Z</time>
      </trkpt>
      <trkpt lat="43.60869" lon="3.43435">
        <ele>168.9</ele>
        <time>2016-10-22T11:39:55Z</time>
      </trkpt>
      <trkpt lat="43.6087" lon="3.43421">
        <ele>169.1</ele>
        <time>2016-10-22T11:39:58Z</time>
      </trkpt>
      <trkpt lat="43.6087" lon="3.43408">
        <ele>169.3</ele>
        <time>2016-10-22T11:40:01Z</time>
      </trkpt>
      <trkpt lat="43.6087" lon="3.43397">
        <ele>169.5</ele>
        <time>2016-10-22T11:40:04Z</time>
      </trkpt>
      <trkpt lat="43.60868" lon="3.43385">
        <ele>169.8</ele>
        <time>2016-10-22T11:40:07Z</time>
      </trkpt>
      <trkpt lat="43.60867" lon="3.43372">
        <ele>170.1</ele>
        <time>2016-10-22T11:40:11Z</time>
      </trkpt>
      <trkpt lat="43.60865" lon="3.43362">
        <ele>170.3</ele>
        <time>2016-10-22T11:40:12Z</time>
      </trkpt>
      <trkpt lat="43.60863" lon="3.43351">
        <ele>170.4</ele>
        <time>2016-10-22T11:40:15Z</time>
      </trkpt>
      <trkpt lat="43.6086" lon="3.4334">
        <ele>170.6</ele>
        <time>2016-10-22T11:40:18Z</time>
      </trkpt>
      <trkpt lat="43.60855" lon="3.4333">
        <ele>170.7</ele>
        <time>2016-10-22T11:40:21Z</time>
      </trkpt>
      <trkpt lat="43.60853" lon="3.43321">
        <ele>170.9</ele>
        <time>2016-10-22T11:40:24Z</time>
      </trkpt>
      <trkpt lat="43.60851" lon="3.43308">
        <ele>171.2</ele>
        <time>2016-10-22T11:40:28Z</time>
      </trkpt>
      <trkpt lat="43.60851" lon="3.43298">
        <ele>171.5</ele>
        <time>2016-10-22T11:40:31Z</time>
      </trkpt>
      <trkpt lat="43.60855" lon="3.43288">
        <ele>171.9</ele>
        <time>2016-10-22T11:40:35Z</time>
      </trkpt>
      <trkpt lat="43.60858" lon="3.43277">
        <ele>172.2</ele>
        <time>2016-10-22T11:40:39Z</time>
      </trkpt>
      <trkpt lat="43.60861" lon="3.43267">
        <ele>172.5</ele>
        <time>2016-10-22T11:40:42Z</time>
      </trkpt>
      <trkpt lat="43.60865" lon="3.43256">
        <ele>172.8</ele>
        <time>2016-10-22T11:40:46Z</time>
      </trkpt>
      <trkpt lat="43.60871" lon="3.43247">
        <ele>173.4</ele>
        <time>2016-10-22T11:40:50Z</time>
      </trkpt>
      <trkpt lat="43.60874" lon="3.43237">
        <ele>174</ele>
        <time>2016-10-22T11:40:55Z</time>
      </trkpt>
      <trkpt lat="43.60866" lon="3.43231">
        <ele>174.6</ele>
        <time>2016-10-22T11:40:59Z</time>
      </trkpt>
      <trkpt lat="43.60858" lon="3.43227">
        <ele>175.2</ele>
        <time>2016-10-22T11:41:02Z</time>
      </trkpt>
      <trkpt lat="43.60849" lon="3.4322">
        <ele>175.7</ele>
        <time>2016-10-22T11:41:05Z</time>
      </trkpt>
      <trkpt lat="43.60842" lon="3.43215">
        <ele>179.3</ele>
        <time>2016-10-22T11:41:07Z</time>
      </trkpt>
      <trkpt lat="43.60834" lon="3.43209">
        <ele>181.3</ele>
        <time>2016-10-22T11:41:09Z</time>
      </trkpt>
      <trkpt lat="43.60827" lon="3.43204">
        <ele>182.4</ele>
        <time>2016-10-22T11:41:11Z</time>
      </trkpt>
      <trkpt lat="43.6082" lon="3.43199">
        <ele>182.9</ele>
        <time>2016-10-22T11:41:13Z</time>
      </trkpt>
      <trkpt lat="43.60811" lon="3.43194">
        <ele>183.2</ele>
        <time>2016-10-22T11:41:15Z</time>
      </trkpt>
      <trkpt lat="43.60802" lon="3.43187">
        <ele>182.7</ele>
        <time>2016-10-22T11:41:17Z</time>
      </trkpt>
      <trkpt lat="43.60794" lon="3.43181">
        <ele>182.7</ele>
        <time>2016-10-22T11:41:19Z</time>
      </trkpt>
      <trkpt lat="43.60789" lon="3.43171">
        <ele>182.3</ele>
        <time>2016-10-22T11:41:21Z</time>
      </trkpt>
      <trkpt lat="43.60789" lon="3.4316">
        <ele>182.1</ele>
        <time>2016-10-22T11:41:23Z</time>
      </trkpt>
      <trkpt lat="43.60794" lon="3.43153">
        <ele>182.3</ele>
        <time>2016-10-22T11:41:25Z</time>
      </trkpt>
      <trkpt lat="43.60796" lon="3.4314">
        <ele>182.7</ele>
        <time>2016-10-22T11:41:31Z</time>
      </trkpt>
      <trkpt lat="43.60794" lon="3.4313">
        <ele>183.1</ele>
        <time>2016-10-22T11:41:36Z</time>
      </trkpt>
      <trkpt lat="43.60789" lon="3.43122">
        <ele>183.5</ele>
        <time>2016-10-22T11:41:39Z</time>
      </trkpt>
      <trkpt lat="43.6078" lon="3.43114">
        <ele>184.1</ele>
        <time>2016-10-22T11:41:42Z</time>
      </trkpt>
      <trkpt lat="43.60773" lon="3.43109">
        <ele>186.5</ele>
        <time>2016-10-22T11:41:44Z</time>
      </trkpt>
      <trkpt lat="43.60764" lon="3.43103">
        <ele>187.9</ele>
        <time>2016-10-22T11:41:46Z</time>
      </trkpt>
      <trkpt lat="43.60755" lon="3.43096">
        <ele>188.2</ele>
        <time>2016-10-22T11:41:48Z</time>
      </trkpt>
      <trkpt lat="43.60749" lon="3.43086">
        <ele>187.3</ele>
        <time>2016-10-22T11:41:50Z</time>
      </trkpt>
      <trkpt lat="43.60741" lon="3.43078">
        <ele>186.6</ele>
        <time>2016-10-22T11:41:52Z</time>
      </trkpt>
      <trkpt lat="43.60734" lon="3.43072">
        <ele>186.2</ele>
        <time>2016-10-22T11:41:54Z</time>
      </trkpt>
      <trkpt lat="43.60726" lon="3.43058">
        <ele>185.9</ele>
        <time>2016-10-22T11:41:56Z</time>
      </trkpt>
      <trkpt lat="43.60718" lon="3.43048">
        <ele>186.3</ele>
        <time>2016-10-22T11:41:58Z</time>
      </trkpt>
      <trkpt lat="43.60712" lon="3.43039">
        <ele>186.2</ele>
        <time>2016-10-22T11:42:00Z</time>
      </trkpt>
      <trkpt lat="43.60701" lon="3.43027">
        <ele>184.8</ele>
        <time>2016-10-22T11:42:02Z</time>
      </trkpt>
      <trkpt lat="43.60696" lon="3.43014">
        <ele>183.2</ele>
        <time>2016-10-22T11:42:04Z</time>
      </trkpt>
      <trkpt lat="43.60697" lon="3.42999">
        <ele>183.1</ele>
        <time>2016-10-22T11:42:06Z</time>
      </trkpt>
      <trkpt lat="43.607" lon="3.42985">
        <ele>182.8</ele>
        <time>2016-10-22T11:42:08Z</time>
      </trkpt>
      <trkpt lat="43.60704" lon="3.42975">
        <ele>182.6</ele>
        <time>2016-10-22T11:42:10Z</time>
      </trkpt>
      <trkpt lat="43.60708" lon="3.42963">
        <ele>182.4</ele>
        <time>2016-10-22T11:42:13Z</time>
      </trkpt>
      <trkpt lat="43.60709" lon="3.42952">
        <ele>181.9</ele>
        <time>2016-10-22T11:42:15Z</time>
      </trkpt>
      <trkpt lat="43.60712" lon="3.42938">
        <ele>181</ele>
        <time>2016-10-22T11:42:17Z</time>
      </trkpt>
      <trkpt lat="43.60716" lon="3.42927">
        <ele>180.7</ele>
        <time>2016-10-22T11:42:19Z</time>
      </trkpt>
      <trkpt lat="43.60719" lon="3.42917">
        <ele>180.7</ele>
        <time>2016-10-22T11:42:21Z</time>
      </trkpt>
      <trkpt lat="43.60723" lon="3.42906">
        <ele>180.7</ele>
        <time>2016-10-22T11:42:24Z</time>
      </trkpt>
      <trkpt lat="43.60716" lon="3.42908">
        <ele>181.8</ele>
        <time>2016-10-22T11:42:31Z</time>
      </trkpt>
      <trkpt lat="43.60708" lon="3.42908">
        <ele>183.1</ele>
        <time>2016-10-22T11:42:36Z</time>
      </trkpt>
      <trkpt lat="43.60699" lon="3.42899">
        <ele>183.5</ele>
        <time>2016-10-22T11:42:39Z</time>
      </trkpt>
      <trkpt lat="43.60695" lon="3.42888">
        <ele>184</ele>
        <time>2016-10-22T11:42:43Z</time>
      </trkpt>
      <trkpt lat="43.6069" lon="3.42879">
        <ele>184.6</ele>
        <time>2016-10-22T11:42:48Z</time>
      </trkpt>
      <trkpt lat="43.60686" lon="3.42868">
        <ele>185.3</ele>
        <time>2016-10-22T11:42:54Z</time>
      </trkpt>
      <trkpt lat="43.60694" lon="3.42866">
        <ele>185.4</ele>
        <time>2016-10-22T11:43:00Z</time>
      </trkpt>
      <trkpt lat="43.60703" lon="3.42865">
        <ele>185.8</ele>
        <time>2016-10-22T11:43:05Z</time>
      </trkpt>
      <trkpt lat="43.60711" lon="3.42863">
        <ele>186.1</ele>
        <time>2016-10-22T11:43:09Z</time>
      </trkpt>
      <trkpt lat="43.60718" lon="3.42858">
        <ele>186.5</ele>
        <time>2016-10-22T11:43:14Z</time>
      </trkpt>
      <trkpt lat="43.60725" lon="3.42856">
        <ele>186.8</ele>
        <time>2016-10-22T11:43:18Z</time>
      </trkpt>
      <trkpt lat="43.60733" lon="3.42852">
        <ele>187.4</ele>
        <time>2016-10-22T11:43:23Z</time>
      </trkpt>
      <trkpt lat="43.60739" lon="3.42848">
        <ele>187.9</ele>
        <time>2016-10-22T11:43:27Z</time>
      </trkpt>
      <trkpt lat="43.60746" lon="3.4284">
        <ele>188.6</ele>
        <time>2016-10-22T11:43:31Z</time>
      </trkpt>
      <trkpt lat="43.60753" lon="3.42833">
        <ele>189.5</ele>
        <time>2016-10-22T11:43:36Z</time>
      </trkpt>
      <trkpt lat="43.60759" lon="3.42827">
        <ele>190.3</ele>
        <time>2016-10-22T11:43:40Z</time>
      </trkpt>
      <trkpt lat="43.60765" lon="3.42819">
        <ele>190.9</ele>
        <time>2016-10-22T11:43:44Z</time>
      </trkpt>
      <trkpt lat="43.60772" lon="3.42812">
        <ele>191.8</ele>
        <time>2016-10-22T11:43:49Z</time>
      </trkpt>
      <trkpt lat="43.60777" lon="3.42803">
        <ele>192.7</ele>
        <time>2016-10-22T11:43:54Z</time>
      </trkpt>
      <trkpt lat="43.60782" lon="3.42793">
        <ele>193.7</ele>
        <time>2016-10-22T11:43:59Z</time>
      </trkpt>
      <trkpt lat="43.60787" lon="3.42783">
        <ele>194.5</ele>
        <time>2016-10-22T11:44:04Z</time>
      </trkpt>
      <trkpt lat="43.60793" lon="3.42775">
        <ele>195.1</ele>
        <time>2016-10-22T11:44:08Z</time>
      </trkpt>
      <trkpt lat="43.608" lon="3.4277">
        <ele>195.9</ele>
        <time>2016-10-22T11:44:12Z</time>
      </trkpt>
      <trkpt lat="43.60807" lon="3.42763">
        <ele>196.5</ele>
        <time>2016-10-22T11:44:16Z</time>
      </trkpt>
      <trkpt lat="43.60814" lon="3.42756">
        <ele>197</ele>
        <time>2016-10-22T11:44:19Z</time>
      </trkpt>
      <trkpt lat="43.6082" lon="3.42748">
        <ele>197.4</ele>
        <time>2016-10-22T11:44:22Z</time>
      </trkpt>
      <trkpt lat="43.60826" lon="3.4274">
        <ele>197.9</ele>
        <time>2016-10-22T11:44:25Z</time>
      </trkpt>
      <trkpt lat="43.60831" lon="3.42731">
        <ele>198.5</ele>
        <time>2016-10-22T11:44:29Z</time>
      </trkpt>
      <trkpt lat="43.60836" lon="3.4272">
        <ele>198.9</ele>
        <time>2016-10-22T11:44:33Z</time>
      </trkpt>
      <trkpt lat="43.60841" lon="3.42711">
        <ele>199.3</ele>
        <time>2016-10-22T11:44:36Z</time>
      </trkpt>
      <trkpt lat="43.60844" lon="3.42701">
        <ele>200.6</ele>
        <time>2016-10-22T11:44:38Z</time>
      </trkpt>
      <trkpt lat="43.60846" lon="3.42689">
        <ele>201</ele>
        <time>2016-10-22T11:44:40Z</time>
      </trkpt>
      <trkpt lat="43.60849" lon="3.42676">
        <ele>200.2</ele>
        <time>2016-10-22T11:44:42Z</time>
      </trkpt>
      <trkpt lat="43.60853" lon="3.4266">
        <ele>199</ele>
        <time>2016-10-22T11:44:44Z</time>
      </trkpt>
      <trkpt lat="43.60858" lon="3.42642">
        <ele>198</ele>
        <time>2016-10-22T11:44:46Z</time>
      </trkpt>
      <trkpt lat="43.60863" lon="3.42627">
        <ele>197.5</ele>
        <time>2016-10-22T11:44:48Z</time>
      </trkpt>
      <trkpt lat="43.60863" lon="3.42615">
        <ele>198.1</ele>
        <time>2016-10-22T11:44:50Z</time>
      </trkpt>
      <trkpt lat="43.60857" lon="3.42606">
        <ele>198.3</ele>
        <time>2016-10-22T11:44:54Z</time>
      </trkpt>
      <trkpt lat="43.6085" lon="3.42599">
        <ele>198.4</ele>
        <time>2016-10-22T11:44:57Z</time>
      </trkpt>
      <trkpt lat="43.60843" lon="3.42592">
        <ele>198.7</ele>
        <time>2016-10-22T11:45:01Z</time>
      </trkpt>
      <trkpt lat="43.60838" lon="3.42583">
        <ele>198.8</ele>
        <time>2016-10-22T11:45:05Z</time>
      </trkpt>
      <trkpt lat="43.60839" lon="3.42572">
        <ele>199.2</ele>
        <time>2016-10-22T11:45:08Z</time>
      </trkpt>
      <trkpt lat="43.6084" lon="3.4256">
        <ele>199.7</ele>
        <time>2016-10-22T11:45:12Z</time>
      </trkpt>
      <trkpt lat="43.60841" lon="3.42549">
        <ele>200</ele>
        <time>2016-10-22T11:45:15Z</time>
      </trkpt>
      <trkpt lat="43.60843" lon="3.42538">
        <ele>200.5</ele>
        <time>2016-10-22T11:45:19Z</time>
      </trkpt>
      <trkpt lat="43.60845" lon="3.42528">
        <ele>200.9</ele>
        <time>2016-10-22T11:45:22Z</time>
      </trkpt>
      <trkpt lat="43.60848" lon="3.42517">
        <ele>201.4</ele>
        <time>2016-10-22T11:45:26Z</time>
      </trkpt>
      <trkpt lat="43.60852" lon="3.42507">
        <ele>202</ele>
        <time>2016-10-22T11:45:30Z</time>
      </trkpt>
      <trkpt lat="43.60854" lon="3.42496">
        <ele>202.6</ele>
        <time>2016-10-22T11:45:34Z</time>
      </trkpt>
      <trkpt lat="43.60857" lon="3.42483">
        <ele>203.1</ele>
        <time>2016-10-22T11:45:38Z</time>
      </trkpt>
      <trkpt lat="43.60859" lon="3.42474">
        <ele>203.7</ele>
        <time>2016-10-22T11:45:41Z</time>
      </trkpt>
      <trkpt lat="43.60861" lon="3.42463">
        <ele>204.3</ele>
        <time>2016-10-22T11:45:44Z</time>
      </trkpt>
      <trkpt lat="43.60864" lon="3.42453">
        <ele>204.9</ele>
        <time>2016-10-22T11:45:47Z</time>
      </trkpt>
      <trkpt lat="43.60866" lon="3.42443">
        <ele>205.6</ele>
        <time>2016-10-22T11:45:50Z</time>
      </trkpt>
      <trkpt lat="43.60867" lon="3.42432">
        <ele>206.2</ele>
        <time>2016-10-22T11:45:54Z</time>
      </trkpt>
      <trkpt lat="43.6087" lon="3.42419">
        <ele>206.6</ele>
        <time>2016-10-22T11:45:58Z</time>
      </trkpt>
      <trkpt lat="43.60872" lon="3.42408">
        <ele>207</ele>
        <time>2016-10-22T11:46:01Z</time>
      </trkpt>
      <trkpt lat="43.60875" lon="3.42395">
        <ele>207.3</ele>
        <time>2016-10-22T11:46:04Z</time>
      </trkpt>
      <trkpt lat="43.60877" lon="3.42385">
        <ele>207.5</ele>
        <time>2016-10-22T11:46:07Z</time>
      </trkpt>
      <trkpt lat="43.6088" lon="3.42373">
        <ele>207.8</ele>
        <time>2016-10-22T11:46:10Z</time>
      </trkpt>
      <trkpt lat="43.60882" lon="3.42362">
        <ele>208</ele>
        <time>2016-10-22T11:46:13Z</time>
      </trkpt>
      <trkpt lat="43.60884" lon="3.42352">
        <ele>208.3</ele>
        <time>2016-10-22T11:46:16Z</time>
      </trkpt>
      <trkpt lat="43.60886" lon="3.42341">
        <ele>208.8</ele>
        <time>2016-10-22T11:46:19Z</time>
      </trkpt>
      <trkpt lat="43.60887" lon="3.4233">
        <ele>209.3</ele>
        <time>2016-10-22T11:46:23Z</time>
      </trkpt>
      <trkpt lat="43.60891" lon="3.42321">
        <ele>209.7</ele>
        <time>2016-10-22T11:46:26Z</time>
      </trkpt>
      <trkpt lat="43.60895" lon="3.42312">
        <ele>210.1</ele>
        <time>2016-10-22T11:46:29Z</time>
      </trkpt>
      <trkpt lat="43.609" lon="3.42305">
        <ele>210.4</ele>
        <time>2016-10-22T11:46:32Z</time>
      </trkpt>
      <trkpt lat="43.60904" lon="3.42295">
        <ele>211.2</ele>
        <time>2016-10-22T11:46:36Z</time>
      </trkpt>
      <trkpt lat="43.6091" lon="3.42285">
        <ele>212</ele>
        <time>2016-10-22T11:46:41Z</time>
      </trkpt>
      <trkpt lat="43.60916" lon="3.42279">
        <ele>212.3</ele>
        <time>2016-10-22T11:46:44Z</time>
      </trkpt>
      <trkpt lat="43.60923" lon="3.42275">
        <ele>212.6</ele>
        <time>2016-10-22T11:46:47Z</time>
      </trkpt>
      <trkpt lat="43.60931" lon="3.4227">
        <ele>212.9</ele>
        <time>2016-10-22T11:46:50Z</time>
      </trkpt>
      <trkpt lat="43.60938" lon="3.42264">
        <ele>213.5</ele>
        <time>2016-10-22T11:46:54Z</time>
      </trkpt>
      <trkpt lat="43.60947" lon="3.42259">
        <ele>214.1</ele>
        <time>2016-10-22T11:46:58Z</time>
      </trkpt>
      <trkpt lat="43.60955" lon="3.42257">
        <ele>214.7</ele>
        <time>2016-10-22T11:47:02Z</time>
      </trkpt>
      <trkpt lat="43.60964" lon="3.42252">
        <ele>215.3</ele>
        <time>2016-10-22T11:47:06Z</time>
      </trkpt>
      <trkpt lat="43.60972" lon="3.4225">
        <ele>215.8</ele>
        <time>2016-10-22T11:47:10Z</time>
      </trkpt>
      <trkpt lat="43.60978" lon="3.42241">
        <ele>216.4</ele>
        <time>2016-10-22T11:47:14Z</time>
      </trkpt>
      <trkpt lat="43.60984" lon="3.42233">
        <ele>217</ele>
        <time>2016-10-22T11:47:18Z</time>
      </trkpt>
      <trkpt lat="43.6099" lon="3.42225">
        <ele>217.7</ele>
        <time>2016-10-22T11:47:22Z</time>
      </trkpt>
      <trkpt lat="43.60997" lon="3.42221">
        <ele>218.3</ele>
        <time>2016-10-22T11:47:25Z</time>
      </trkpt>
      <trkpt lat="43.61005" lon="3.42217">
        <ele>218.9</ele>
        <time>2016-10-22T11:47:29Z</time>
      </trkpt>
      <trkpt lat="43.61013" lon="3.42212">
        <ele>219.5</ele>
        <time>2016-10-22T11:47:33Z</time>
      </trkpt>
      <trkpt lat="43.61021" lon="3.42207">
        <ele>220</ele>
        <time>2016-10-22T11:47:37Z</time>
      </trkpt>
      <trkpt lat="43.61026" lon="3.42201">
        <ele>220.6</ele>
        <time>2016-10-22T11:47:41Z</time>
      </trkpt>
      <trkpt lat="43.61033" lon="3.42193">
        <ele>221.3</ele>
        <time>2016-10-22T11:47:45Z</time>
      </trkpt>
      <trkpt lat="43.61039" lon="3.42184">
        <ele>222.1</ele>
        <time>2016-10-22T11:47:49Z</time>
      </trkpt>
      <trkpt lat="43.61044" lon="3.42175">
        <ele>222.6</ele>
        <time>2016-10-22T11:47:52Z</time>
      </trkpt>
      <trkpt lat="43.6105" lon="3.42167">
        <ele>223.1</ele>
        <time>2016-10-22T11:47:55Z</time>
      </trkpt>
      <trkpt lat="43.61055" lon="3.42157">
        <ele>223.7</ele>
        <time>2016-10-22T11:47:59Z</time>
      </trkpt>
      <trkpt lat="43.61059" lon="3.42148">
        <ele>224.2</ele>
        <time>2016-10-22T11:48:02Z</time>
      </trkpt>
      <trkpt lat="43.61064" lon="3.42139">
        <ele>224.9</ele>
        <time>2016-10-22T11:48:06Z</time>
      </trkpt>
      <trkpt lat="43.61068" lon="3.4213">
        <ele>225.7</ele>
        <time>2016-10-22T11:48:10Z</time>
      </trkpt>
      <trkpt lat="43.61072" lon="3.42121">
        <ele>226.4</ele>
        <time>2016-10-22T11:48:14Z</time>
      </trkpt>
      <trkpt lat="43.61076" lon="3.4211">
        <ele>227.2</ele>
        <time>2016-10-22T11:48:18Z</time>
      </trkpt>
      <trkpt lat="43.61079" lon="3.421">
        <ele>228.3</ele>
        <time>2016-10-22T11:48:22Z</time>
      </trkpt>
      <trkpt lat="43.61084" lon="3.42091">
        <ele>229.3</ele>
        <time>2016-10-22T11:48:26Z</time>
      </trkpt>
      <trkpt lat="43.6109" lon="3.42082">
        <ele>230</ele>
        <time>2016-10-22T11:48:30Z</time>
      </trkpt>
      <trkpt lat="43.61095" lon="3.42073">
        <ele>230.8</ele>
        <time>2016-10-22T11:48:34Z</time>
      </trkpt>
      <trkpt lat="43.611" lon="3.42063">
        <ele>231.7</ele>
        <time>2016-10-22T11:48:38Z</time>
      </trkpt>
      <trkpt lat="43.61104" lon="3.42054">
        <ele>232.6</ele>
        <time>2016-10-22T11:48:42Z</time>
      </trkpt>
      <trkpt lat="43.61109" lon="3.42044">
        <ele>233.5</ele>
        <time>2016-10-22T11:48:46Z</time>
      </trkpt>
      <trkpt lat="43.61114" lon="3.42036">
        <ele>234.2</ele>
        <time>2016-10-22T11:48:49Z</time>
      </trkpt>
      <trkpt lat="43.61118" lon="3.42027">
        <ele>235.1</ele>
        <time>2016-10-22T11:48:53Z</time>
      </trkpt>
      <trkpt lat="43.61123" lon="3.42018">
        <ele>236.1</ele>
        <time>2016-10-22T11:48:57Z</time>
      </trkpt>
      <trkpt lat="43.61127" lon="3.42009">
        <ele>236.8</ele>
        <time>2016-10-22T11:49:00Z</time>
      </trkpt>
      <trkpt lat="43.61133" lon="3.42">
        <ele>237.6</ele>
        <time>2016-10-22T11:49:04Z</time>
      </trkpt>
      <trkpt lat="43.61137" lon="3.4199">
        <ele>238.2</ele>
        <time>2016-10-22T11:49:08Z</time>
      </trkpt>
      <trkpt lat="43.61135" lon="3.4198">
        <ele>238.9</ele>
        <time>2016-10-22T11:49:12Z</time>
      </trkpt>
      <trkpt lat="43.61135" lon="3.41967">
        <ele>240</ele>
        <time>2016-10-22T11:49:17Z</time>
      </trkpt>
      <trkpt lat="43.61135" lon="3.41957">
        <ele>240.5</ele>
        <time>2016-10-22T11:49:20Z</time>
      </trkpt>
      <trkpt lat="43.61136" lon="3.41945">
        <ele>241.1</ele>
        <time>2016-10-22T11:49:24Z</time>
      </trkpt>
      <trkpt lat="43.61135" lon="3.41935">
        <ele>241.7</ele>
        <time>2016-10-22T11:49:27Z</time>
      </trkpt>
      <trkpt lat="43.61132" lon="3.41923">
        <ele>242.4</ele>
        <time>2016-10-22T11:49:31Z</time>
      </trkpt>
      <trkpt lat="43.61131" lon="3.4191">
        <ele>243.3</ele>
        <time>2016-10-22T11:49:36Z</time>
      </trkpt>
      <trkpt lat="43.61131" lon="3.41899">
        <ele>243.8</ele>
        <time>2016-10-22T11:49:39Z</time>
      </trkpt>
      <trkpt lat="43.61132" lon="3.41887">
        <ele>244.3</ele>
        <time>2016-10-22T11:49:42Z</time>
      </trkpt>
      <trkpt lat="43.61134" lon="3.41878">
        <ele>244.9</ele>
        <time>2016-10-22T11:49:47Z</time>
      </trkpt>
      <trkpt lat="43.61136" lon="3.41866">
        <ele>245.5</ele>
        <time>2016-10-22T11:49:51Z</time>
      </trkpt>
      <trkpt lat="43.61139" lon="3.41856">
        <ele>245.9</ele>
        <time>2016-10-22T11:49:55Z</time>
      </trkpt>
      <trkpt lat="43.61144" lon="3.41845">
        <ele>246.8</ele>
        <time>2016-10-22T11:50:00Z</time>
      </trkpt>
      <trkpt lat="43.61147" lon="3.41834">
        <ele>247.4</ele>
        <time>2016-10-22T11:50:05Z</time>
      </trkpt>
      <trkpt lat="43.61148" lon="3.41823">
        <ele>248.2</ele>
        <time>2016-10-22T11:50:09Z</time>
      </trkpt>
      <trkpt lat="43.61149" lon="3.41814">
        <ele>248.9</ele>
        <time>2016-10-22T11:50:13Z</time>
      </trkpt>
      <trkpt lat="43.61149" lon="3.41802">
        <ele>249.9</ele>
        <time>2016-10-22T11:50:18Z</time>
      </trkpt>
      <trkpt lat="43.61149" lon="3.41791">
        <ele>251.2</ele>
        <time>2016-10-22T11:50:23Z</time>
      </trkpt>
      <trkpt lat="43.61149" lon="3.41778">
        <ele>252.6</ele>
        <time>2016-10-22T11:50:29Z</time>
      </trkpt>
      <trkpt lat="43.61149" lon="3.41766">
        <ele>254</ele>
        <time>2016-10-22T11:50:35Z</time>
      </trkpt>
      <trkpt lat="43.6115" lon="3.41756">
        <ele>255.1</ele>
        <time>2016-10-22T11:50:40Z</time>
      </trkpt>
      <trkpt lat="43.61152" lon="3.41744">
        <ele>256.7</ele>
        <time>2016-10-22T11:50:46Z</time>
      </trkpt>
      <trkpt lat="43.61154" lon="3.41734">
        <ele>258</ele>
        <time>2016-10-22T11:50:51Z</time>
      </trkpt>
      <trkpt lat="43.61155" lon="3.41722">
        <ele>258.8</ele>
        <time>2016-10-22T11:50:55Z</time>
      </trkpt>
      <trkpt lat="43.61157" lon="3.41711">
        <ele>260</ele>
        <time>2016-10-22T11:51:00Z</time>
      </trkpt>
      <trkpt lat="43.6116" lon="3.41699">
        <ele>261.3</ele>
        <time>2016-10-22T11:51:05Z</time>
      </trkpt>
      <trkpt lat="43.61162" lon="3.41688">
        <ele>262.8</ele>
        <time>2016-10-22T11:51:11Z</time>
      </trkpt>
      <trkpt lat="43.61164" lon="3.41678">
        <ele>263.9</ele>
        <time>2016-10-22T11:51:15Z</time>
      </trkpt>
      <trkpt lat="43.61167" lon="3.41668">
        <ele>264.8</ele>
        <time>2016-10-22T11:51:19Z</time>
      </trkpt>
      <trkpt lat="43.6117" lon="3.41657">
        <ele>266.2</ele>
        <time>2016-10-22T11:51:24Z</time>
      </trkpt>
      <trkpt lat="43.61172" lon="3.41647">
        <ele>267.1</ele>
        <time>2016-10-22T11:51:28Z</time>
      </trkpt>
      <trkpt lat="43.61175" lon="3.41636">
        <ele>268.3</ele>
        <time>2016-10-22T11:51:33Z</time>
      </trkpt>
      <trkpt lat="43.61177" lon="3.41625">
        <ele>269.1</ele>
        <time>2016-10-22T11:51:37Z</time>
      </trkpt>
      <trkpt lat="43.6118" lon="3.41613">
        <ele>269.7</ele>
        <time>2016-10-22T11:51:41Z</time>
      </trkpt>
      <trkpt lat="43.61182" lon="3.41603">
        <ele>270.3</ele>
        <time>2016-10-22T11:51:45Z</time>
      </trkpt>
      <trkpt lat="43.61184" lon="3.41593">
        <ele>270.6</ele>
        <time>2016-10-22T11:51:48Z</time>
      </trkpt>
      <trkpt lat="43.61186" lon="3.4158">
        <ele>271</ele>
        <time>2016-10-22T11:51:51Z</time>
      </trkpt>
      <trkpt lat="43.61186" lon="3.41568">
        <ele>271.3</ele>
        <time>2016-10-22T11:51:54Z</time>
      </trkpt>
      <trkpt lat="43.61188" lon="3.41558">
        <ele>271.7</ele>
        <time>2016-10-22T11:51:57Z</time>
      </trkpt>
      <trkpt lat="43.61188" lon="3.41546">
        <ele>272.4</ele>
        <time>2016-10-22T11:52:01Z</time>
      </trkpt>
      <trkpt lat="43.6119" lon="3.41536">
        <ele>272.9</ele>
        <time>2016-10-22T11:52:04Z</time>
      </trkpt>
      <trkpt lat="43.61194" lon="3.41524">
        <ele>273.6</ele>
        <time>2016-10-22T11:52:08Z</time>
      </trkpt>
      <trkpt lat="43.61198" lon="3.41513">
        <ele>274.3</ele>
        <time>2016-10-22T11:52:12Z</time>
      </trkpt>
      <trkpt lat="43.61201" lon="3.41501">
        <ele>275</ele>
        <time>2016-10-22T11:52:16Z</time>
      </trkpt>
      <trkpt lat="43.61204" lon="3.4149">
        <ele>275.5</ele>
        <time>2016-10-22T11:52:20Z</time>
      </trkpt>
      <trkpt lat="43.61207" lon="3.41478">
        <ele>276.1</ele>
        <time>2016-10-22T11:52:24Z</time>
      </trkpt>
      <trkpt lat="43.61209" lon="3.41469">
        <ele>276.5</ele>
        <time>2016-10-22T11:52:27Z</time>
      </trkpt>
      <trkpt lat="43.61204" lon="3.41458">
        <ele>276.8</ele>
        <time>2016-10-22T11:52:31Z</time>
      </trkpt>
      <trkpt lat="43.61196" lon="3.41451">
        <ele>277.1</ele>
        <time>2016-10-22T11:52:35Z</time>
      </trkpt>
      <trkpt lat="43.61189" lon="3.41449">
        <ele>277.5</ele>
        <time>2016-10-22T11:52:39Z</time>
      </trkpt>
      <trkpt lat="43.61181" lon="3.41448">
        <ele>277.8</ele>
        <time>2016-10-22T11:52:43Z</time>
      </trkpt>
      <trkpt lat="43.61173" lon="3.41444">
        <ele>278.4</ele>
        <time>2016-10-22T11:52:48Z</time>
      </trkpt>
      <trkpt lat="43.61167" lon="3.41437">
        <ele>279.2</ele>
        <time>2016-10-22T11:52:53Z</time>
      </trkpt>
      <trkpt lat="43.61162" lon="3.41427">
        <ele>280.5</ele>
        <time>2016-10-22T11:52:59Z</time>
      </trkpt>
      <trkpt lat="43.61157" lon="3.41418">
        <ele>281.4</ele>
        <time>2016-10-22T11:53:03Z</time>
      </trkpt>
      <trkpt lat="43.61153" lon="3.41408">
        <ele>282.3</ele>
        <time>2016-10-22T11:53:08Z</time>
      </trkpt>
      <trkpt lat="43.61147" lon="3.41399">
        <ele>283.4</ele>
        <time>2016-10-22T11:53:14Z</time>
      </trkpt>
      <trkpt lat="43.61143" lon="3.41389">
        <ele>284.4</ele>
        <time>2016-10-22T11:53:19Z</time>
      </trkpt>
      <trkpt lat="43.61137" lon="3.4138">
        <ele>285.6</ele>
        <time>2016-10-22T11:53:24Z</time>
      </trkpt>
      <trkpt lat="43.6113" lon="3.41374">
        <ele>286.4</ele>
        <time>2016-10-22T11:53:28Z</time>
      </trkpt>
      <trkpt lat="43.61124" lon="3.41367">
        <ele>287.1</ele>
        <time>2016-10-22T11:53:33Z</time>
      </trkpt>
      <trkpt lat="43.61117" lon="3.41361">
        <ele>287.7</ele>
        <time>2016-10-22T11:53:37Z</time>
      </trkpt>
      <trkpt lat="43.6111" lon="3.41353">
        <ele>288.5</ele>
        <time>2016-10-22T11:53:41Z</time>
      </trkpt>
      <trkpt lat="43.61104" lon="3.41345">
        <ele>289.2</ele>
        <time>2016-10-22T11:53:45Z</time>
      </trkpt>
      <trkpt lat="43.61097" lon="3.41338">
        <ele>289.8</ele>
        <time>2016-10-22T11:53:49Z</time>
      </trkpt>
      <trkpt lat="43.6109" lon="3.41333">
        <ele>290.3</ele>
        <time>2016-10-22T11:53:52Z</time>
      </trkpt>
      <trkpt lat="43.61083" lon="3.41327">
        <ele>291.2</ele>
        <time>2016-10-22T11:53:56Z</time>
      </trkpt>
      <trkpt lat="43.61077" lon="3.41319">
        <ele>292</ele>
        <time>2016-10-22T11:54:00Z</time>
      </trkpt>
      <trkpt lat="43.61071" lon="3.4131">
        <ele>292.5</ele>
        <time>2016-10-22T11:54:03Z</time>
      </trkpt>
      <trkpt lat="43.61066" lon="3.41302">
        <ele>292.9</ele>
        <time>2016-10-22T11:54:06Z</time>
      </trkpt>
      <trkpt lat="43.6106" lon="3.41292">
        <ele>293.6</ele>
        <time>2016-10-22T11:54:10Z</time>
      </trkpt>
      <trkpt lat="43.61055" lon="3.41285">
        <ele>294</ele>
        <time>2016-10-22T11:54:13Z</time>
      </trkpt>
      <trkpt lat="43.61047" lon="3.41279">
        <ele>294.4</ele>
        <time>2016-10-22T11:54:17Z</time>
      </trkpt>
      <trkpt lat="43.6104" lon="3.41274">
        <ele>294.9</ele>
        <time>2016-10-22T11:54:21Z</time>
      </trkpt>
      <trkpt lat="43.61034" lon="3.41268">
        <ele>295.3</ele>
        <time>2016-10-22T11:54:25Z</time>
      </trkpt>
      <trkpt lat="43.61026" lon="3.41262">
        <ele>295.6</ele>
        <time>2016-10-22T11:54:29Z</time>
      </trkpt>
      <trkpt lat="43.61019" lon="3.41254">
        <ele>295.8</ele>
        <time>2016-10-22T11:54:33Z</time>
      </trkpt>
      <trkpt lat="43.61015" lon="3.41245">
        <ele>296.2</ele>
        <time>2016-10-22T11:54:36Z</time>
      </trkpt>
      <trkpt lat="43.61007" lon="3.41239">
        <ele>296.9</ele>
        <time>2016-10-22T11:54:40Z</time>
      </trkpt>
      <trkpt lat="43.60998" lon="3.41236">
        <ele>297.6</ele>
        <time>2016-10-22T11:54:44Z</time>
      </trkpt>
      <trkpt lat="43.6099" lon="3.41233">
        <ele>298.3</ele>
        <time>2016-10-22T11:54:48Z</time>
      </trkpt>
      <trkpt lat="43.60982" lon="3.41229">
        <ele>299</ele>
        <time>2016-10-22T11:54:52Z</time>
      </trkpt>
      <trkpt lat="43.60976" lon="3.41221">
        <ele>299.8</ele>
        <time>2016-10-22T11:54:56Z</time>
      </trkpt>
      <trkpt lat="43.60969" lon="3.41215">
        <ele>300.4</ele>
        <time>2016-10-22T11:55:00Z</time>
      </trkpt>
      <trkpt lat="43.60962" lon="3.41209">
        <ele>301</ele>
        <time>2016-10-22T11:55:04Z</time>
      </trkpt>
      <trkpt lat="43.60955" lon="3.41204">
        <ele>301.5</ele>
        <time>2016-10-22T11:55:08Z</time>
      </trkpt>
      <trkpt lat="43.60947" lon="3.41205">
        <ele>302</ele>
        <time>2016-10-22T11:55:12Z</time>
      </trkpt>
      <trkpt lat="43.60936" lon="3.41205">
        <ele>302.3</ele>
        <time>2016-10-22T11:55:15Z</time>
      </trkpt>
      <trkpt lat="43.60929" lon="3.41205">
        <ele>302.9</ele>
        <time>2016-10-22T11:55:17Z</time>
      </trkpt>
      <trkpt lat="43.6092" lon="3.41204">
        <ele>304</ele>
        <time>2016-10-22T11:55:19Z</time>
      </trkpt>
      <trkpt lat="43.6091" lon="3.41204">
        <ele>303.9</ele>
        <time>2016-10-22T11:55:21Z</time>
      </trkpt>
      <trkpt lat="43.60901" lon="3.41206">
        <ele>304.9</ele>
        <time>2016-10-22T11:55:23Z</time>
      </trkpt>
      <trkpt lat="43.60892" lon="3.41209">
        <ele>305.2</ele>
        <time>2016-10-22T11:55:26Z</time>
      </trkpt>
      <trkpt lat="43.60882" lon="3.41211">
        <ele>305.5</ele>
        <time>2016-10-22T11:55:28Z</time>
      </trkpt>
      <trkpt lat="43.60875" lon="3.41212">
        <ele>305.7</ele>
        <time>2016-10-22T11:55:30Z</time>
      </trkpt>
      <trkpt lat="43.60866" lon="3.41217">
        <ele>306.3</ele>
        <time>2016-10-22T11:55:32Z</time>
      </trkpt>
      <trkpt lat="43.60858" lon="3.41223">
        <ele>306.8</ele>
        <time>2016-10-22T11:55:34Z</time>
      </trkpt>
      <trkpt lat="43.6085" lon="3.41225">
        <ele>307.4</ele>
        <time>2016-10-22T11:55:36Z</time>
      </trkpt>
      <trkpt lat="43.60842" lon="3.41225">
        <ele>307.4</ele>
        <time>2016-10-22T11:55:39Z</time>
      </trkpt>
      <trkpt lat="43.60839" lon="3.41222">
        <ele>307</ele>
        <time>2016-10-22T11:55:46Z</time>
      </trkpt>
      <trkpt lat="43.6084" lon="3.4122">
        <ele>306</ele>
        <time>2016-10-22T11:55:56Z</time>
      </trkpt>
      <trkpt lat="43.60838" lon="3.41218">
        <ele>303.4</ele>
        <time>2016-10-22T11:56:13Z</time>
      </trkpt>
      <trkpt lat="43.60839" lon="3.41205">
        <ele>302.8</ele>
        <time>2016-10-22T11:56:20Z</time>
      </trkpt>
      <trkpt lat="43.60838" lon="3.41194">
        <ele>302.8</ele>
        <time>2016-10-22T11:56:24Z</time>
      </trkpt>
      <trkpt lat="43.60842" lon="3.41184">
        <ele>302.5</ele>
        <time>2016-10-22T11:56:27Z</time>
      </trkpt>
      <trkpt lat="43.60842" lon="3.41172">
        <ele>301.9</ele>
        <time>2016-10-22T11:56:30Z</time>
      </trkpt>
      <trkpt lat="43.60843" lon="3.41163">
        <ele>301</ele>
        <time>2016-10-22T11:56:34Z</time>
      </trkpt>
      <trkpt lat="43.60836" lon="3.41158">
        <ele>299.7</ele>
        <time>2016-10-22T11:56:38Z</time>
      </trkpt>
      <trkpt lat="43.60833" lon="3.41151">
        <ele>298</ele>
        <time>2016-10-22T11:56:45Z</time>
      </trkpt>
      <trkpt lat="43.60835" lon="3.41151">
        <ele>295.7</ele>
        <time>2016-10-22T11:56:52Z</time>
      </trkpt>
      <trkpt lat="43.60835" lon="3.4114">
        <ele>292.5</ele>
        <time>2016-10-22T11:57:06Z</time>
      </trkpt>
      <trkpt lat="43.60841" lon="3.41131">
        <ele>291.1</ele>
        <time>2016-10-22T11:57:10Z</time>
      </trkpt>
      <trkpt lat="43.60842" lon="3.41119">
        <ele>290</ele>
        <time>2016-10-22T11:57:13Z</time>
      </trkpt>
      <trkpt lat="43.60836" lon="3.41111">
        <ele>288</ele>
        <time>2016-10-22T11:57:18Z</time>
      </trkpt>
      <trkpt lat="43.60834" lon="3.41101">
        <ele>283.5</ele>
        <time>2016-10-22T11:57:20Z</time>
      </trkpt>
      <trkpt lat="43.60834" lon="3.41091">
        <ele>282.7</ele>
        <time>2016-10-22T11:57:22Z</time>
      </trkpt>
      <trkpt lat="43.60837" lon="3.4108">
        <ele>281.6</ele>
        <time>2016-10-22T11:57:25Z</time>
      </trkpt>
      <trkpt lat="43.60835" lon="3.41068">
        <ele>279.5</ele>
        <time>2016-10-22T11:57:31Z</time>
      </trkpt>
      <trkpt lat="43.60833" lon="3.41051">
        <ele>272.6</ele>
        <time>2016-10-22T11:57:33Z</time>
      </trkpt>
      <trkpt lat="43.60828" lon="3.41032">
        <ele>266.3</ele>
        <time>2016-10-22T11:57:35Z</time>
      </trkpt>
      <trkpt lat="43.60822" lon="3.41012">
        <ele>261</ele>
        <time>2016-10-22T11:57:37Z</time>
      </trkpt>
      <trkpt lat="43.6082" lon="3.41001">
        <ele>259</ele>
        <time>2016-10-22T11:57:38Z</time>
      </trkpt>
      <trkpt lat="43.60817" lon="3.4099">
        <ele>257.1</ele>
        <time>2016-10-22T11:57:39Z</time>
      </trkpt>
      <trkpt lat="43.60815" lon="3.4098">
        <ele>254.9</ele>
        <time>2016-10-22T11:57:40Z</time>
      </trkpt>
      <trkpt lat="43.60812" lon="3.40969">
        <ele>252.7</ele>
        <time>2016-10-22T11:57:41Z</time>
      </trkpt>
      <trkpt lat="43.60806" lon="3.40955">
        <ele>247.7</ele>
        <time>2016-10-22T11:57:43Z</time>
      </trkpt>
      <trkpt lat="43.60799" lon="3.40952">
        <ele>244.2</ele>
        <time>2016-10-22T11:57:45Z</time>
      </trkpt>
      <trkpt lat="43.60791" lon="3.40951">
        <ele>241.5</ele>
        <time>2016-10-22T11:57:47Z</time>
      </trkpt>
      <trkpt lat="43.60781" lon="3.40949">
        <ele>238.5</ele>
        <time>2016-10-22T11:57:49Z</time>
      </trkpt>
      <trkpt lat="43.60769" lon="3.4094">
        <ele>235.9</ele>
        <time>2016-10-22T11:57:51Z</time>
      </trkpt>
      <trkpt lat="43.60758" lon="3.4093">
        <ele>234</ele>
        <time>2016-10-22T11:57:53Z</time>
      </trkpt>
      <trkpt lat="43.60748" lon="3.40921">
        <ele>233</ele>
        <time>2016-10-22T11:57:55Z</time>
      </trkpt>
      <trkpt lat="43.60737" lon="3.40914">
        <ele>232.4</ele>
        <time>2016-10-22T11:57:57Z</time>
      </trkpt>
      <trkpt lat="43.60724" lon="3.40908">
        <ele>230.5</ele>
        <time>2016-10-22T11:57:59Z</time>
      </trkpt>
      <trkpt lat="43.60717" lon="3.40906">
        <ele>229.4</ele>
        <time>2016-10-22T11:58:00Z</time>
      </trkpt>
      <trkpt lat="43.6071" lon="3.40907">
        <ele>228.1</ele>
        <time>2016-10-22T11:58:01Z</time>
      </trkpt>
      <trkpt lat="43.60701" lon="3.4091">
        <ele>227.3</ele>
        <time>2016-10-22T11:58:02Z</time>
      </trkpt>
      <trkpt lat="43.60694" lon="3.40912">
        <ele>226.8</ele>
        <time>2016-10-22T11:58:03Z</time>
      </trkpt>
      <trkpt lat="43.60686" lon="3.40915">
        <ele>226.5</ele>
        <time>2016-10-22T11:58:04Z</time>
      </trkpt>
      <trkpt lat="43.60674" lon="3.4092">
        <ele>225.9</ele>
        <time>2016-10-22T11:58:06Z</time>
      </trkpt>
      <trkpt lat="43.60665" lon="3.40925">
        <ele>223.4</ele>
        <time>2016-10-22T11:58:08Z</time>
      </trkpt>
      <trkpt lat="43.60659" lon="3.40933">
        <ele>222.7</ele>
        <time>2016-10-22T11:58:10Z</time>
      </trkpt>
      <trkpt lat="43.60653" lon="3.40941">
        <ele>222.8</ele>
        <time>2016-10-22T11:58:12Z</time>
      </trkpt>
      <trkpt lat="43.60645" lon="3.40949">
        <ele>223.2</ele>
        <time>2016-10-22T11:58:14Z</time>
      </trkpt>
      <trkpt lat="43.60636" lon="3.40957">
        <ele>224</ele>
        <time>2016-10-22T11:58:16Z</time>
      </trkpt>
      <trkpt lat="43.60628" lon="3.40961">
        <ele>224.1</ele>
        <time>2016-10-22T11:58:18Z</time>
      </trkpt>
      <trkpt lat="43.60618" lon="3.40966">
        <ele>224.1</ele>
        <time>2016-10-22T11:58:21Z</time>
      </trkpt>
      <trkpt lat="43.60611" lon="3.40962">
        <ele>224.3</ele>
        <time>2016-10-22T11:58:23Z</time>
      </trkpt>
      <trkpt lat="43.60601" lon="3.40955">
        <ele>223.7</ele>
        <time>2016-10-22T11:58:25Z</time>
      </trkpt>
      <trkpt lat="43.60588" lon="3.40948">
        <ele>222.4</ele>
        <time>2016-10-22T11:58:27Z</time>
      </trkpt>
      <trkpt lat="43.60581" lon="3.40945">
        <ele>221.5</ele>
        <time>2016-10-22T11:58:28Z</time>
      </trkpt>
      <trkpt lat="43.6057" lon="3.40936">
        <ele>219.7</ele>
        <time>2016-10-22T11:58:30Z</time>
      </trkpt>
      <trkpt lat="43.60566" lon="3.40927">
        <ele>217.3</ele>
        <time>2016-10-22T11:58:32Z</time>
      </trkpt>
      <trkpt lat="43.60566" lon="3.40914">
        <ele>215.3</ele>
        <time>2016-10-22T11:58:34Z</time>
      </trkpt>
      <trkpt lat="43.60571" lon="3.40904">
        <ele>213.1</ele>
        <time>2016-10-22T11:58:36Z</time>
      </trkpt>
      <trkpt lat="43.60579" lon="3.40897">
        <ele>211.7</ele>
        <time>2016-10-22T11:58:39Z</time>
      </trkpt>
      <trkpt lat="43.60584" lon="3.40884">
        <ele>209.2</ele>
        <time>2016-10-22T11:58:41Z</time>
      </trkpt>
      <trkpt lat="43.60589" lon="3.4087">
        <ele>206.7</ele>
        <time>2016-10-22T11:58:43Z</time>
      </trkpt>
      <trkpt lat="43.60594" lon="3.40859">
        <ele>204.9</ele>
        <time>2016-10-22T11:58:45Z</time>
      </trkpt>
      <trkpt lat="43.60592" lon="3.40848">
        <ele>204.9</ele>
        <time>2016-10-22T11:58:47Z</time>
      </trkpt>
      <trkpt lat="43.60591" lon="3.40832">
        <ele>204</ele>
        <time>2016-10-22T11:58:49Z</time>
      </trkpt>
      <trkpt lat="43.60592" lon="3.4082">
        <ele>203.3</ele>
        <time>2016-10-22T11:58:51Z</time>
      </trkpt>
      <trkpt lat="43.60596" lon="3.40811">
        <ele>203</ele>
        <time>2016-10-22T11:58:53Z</time>
      </trkpt>
      <trkpt lat="43.60602" lon="3.40804">
        <ele>200</ele>
        <time>2016-10-22T11:58:55Z</time>
      </trkpt>
      <trkpt lat="43.60609" lon="3.40797">
        <ele>198.1</ele>
        <time>2016-10-22T11:58:57Z</time>
      </trkpt>
      <trkpt lat="43.60616" lon="3.40786">
        <ele>196.6</ele>
        <time>2016-10-22T11:58:59Z</time>
      </trkpt>
      <trkpt lat="43.60621" lon="3.40772">
        <ele>195.8</ele>
        <time>2016-10-22T11:59:01Z</time>
      </trkpt>
      <trkpt lat="43.60625" lon="3.40756">
        <ele>195.2</ele>
        <time>2016-10-22T11:59:03Z</time>
      </trkpt>
      <trkpt lat="43.60628" lon="3.40744">
        <ele>194.3</ele>
        <time>2016-10-22T11:59:05Z</time>
      </trkpt>
      <trkpt lat="43.6063" lon="3.40732">
        <ele>193.8</ele>
        <time>2016-10-22T11:59:07Z</time>
      </trkpt>
      <trkpt lat="43.60632" lon="3.4072">
        <ele>193.9</ele>
        <time>2016-10-22T11:59:09Z</time>
      </trkpt>
      <trkpt lat="43.60636" lon="3.40708">
        <ele>193.1</ele>
        <time>2016-10-22T11:59:11Z</time>
      </trkpt>
      <trkpt lat="43.6064" lon="3.40696">
        <ele>192.4</ele>
        <time>2016-10-22T11:59:13Z</time>
      </trkpt>
      <trkpt lat="43.60645" lon="3.40684">
        <ele>191.4</ele>
        <time>2016-10-22T11:59:15Z</time>
      </trkpt>
      <trkpt lat="43.60653" lon="3.40673">
        <ele>190.8</ele>
        <time>2016-10-22T11:59:17Z</time>
      </trkpt>
      <trkpt lat="43.60661" lon="3.40664">
        <ele>189.7</ele>
        <time>2016-10-22T11:59:19Z</time>
      </trkpt>
      <trkpt lat="43.60666" lon="3.40657">
        <ele>189.6</ele>
        <time>2016-10-22T11:59:21Z</time>
      </trkpt>
      <trkpt lat="43.6067" lon="3.40645">
        <ele>188.6</ele>
        <time>2016-10-22T11:59:23Z</time>
      </trkpt>
      <trkpt lat="43.60677" lon="3.40636">
        <ele>188.3</ele>
        <time>2016-10-22T11:59:25Z</time>
      </trkpt>
      <trkpt lat="43.60686" lon="3.40627">
        <ele>187.2</ele>
        <time>2016-10-22T11:59:27Z</time>
      </trkpt>
      <trkpt lat="43.60694" lon="3.40624">
        <ele>185</ele>
        <time>2016-10-22T11:59:29Z</time>
      </trkpt>
      <trkpt lat="43.60703" lon="3.40619">
        <ele>183.9</ele>
        <time>2016-10-22T11:59:31Z</time>
      </trkpt>
      <trkpt lat="43.60712" lon="3.40618">
        <ele>183.4</ele>
        <time>2016-10-22T11:59:33Z</time>
      </trkpt>
      <trkpt lat="43.60719" lon="3.40618">
        <ele>183.1</ele>
        <time>2016-10-22T11:59:36Z</time>
      </trkpt>
      <trkpt lat="43.60713" lon="3.4061">
        <ele>182.8</ele>
        <time>2016-10-22T11:59:42Z</time>
      </trkpt>
      <trkpt lat="43.60703" lon="3.40608">
        <ele>182.7</ele>
        <time>2016-10-22T11:59:45Z</time>
      </trkpt>
      <trkpt lat="43.60692" lon="3.40605">
        <ele>182.5</ele>
        <time>2016-10-22T11:59:48Z</time>
      </trkpt>
      <trkpt lat="43.60685" lon="3.40602">
        <ele>182.4</ele>
        <time>2016-10-22T11:59:50Z</time>
      </trkpt>
      <trkpt lat="43.60675" lon="3.40597">
        <ele>180.4</ele>
        <time>2016-10-22T11:59:52Z</time>
      </trkpt>
      <trkpt lat="43.60663" lon="3.40591">
        <ele>179.5</ele>
        <time>2016-10-22T11:59:54Z</time>
      </trkpt>
      <trkpt lat="43.60653" lon="3.40587">
        <ele>178.5</ele>
        <time>2016-10-22T11:59:56Z</time>
      </trkpt>
      <trkpt lat="43.60645" lon="3.40583">
        <ele>178.1</ele>
        <time>2016-10-22T11:59:59Z</time>
      </trkpt>
      <trkpt lat="43.60645" lon="3.40582">
        <ele>177.7</ele>
        <time>2016-10-22T12:00:06Z</time>
      </trkpt>
      <trkpt lat="43.60651" lon="3.4057">
        <ele>176.7</ele>
        <time>2016-10-22T12:00:15Z</time>
      </trkpt>
      <trkpt lat="43.60659" lon="3.40563">
        <ele>176.4</ele>
        <time>2016-10-22T12:00:19Z</time>
      </trkpt>
      <trkpt lat="43.60669" lon="3.40559">
        <ele>176.1</ele>
        <time>2016-10-22T12:00:22Z</time>
      </trkpt>
      <trkpt lat="43.60676" lon="3.40555">
        <ele>176</ele>
        <time>2016-10-22T12:00:24Z</time>
      </trkpt>
      <trkpt lat="43.60687" lon="3.40547">
        <ele>174.1</ele>
        <time>2016-10-22T12:00:27Z</time>
      </trkpt>
      <trkpt lat="43.60695" lon="3.40541">
        <ele>172.8</ele>
        <time>2016-10-22T12:00:29Z</time>
      </trkpt>
      <trkpt lat="43.60703" lon="3.40535">
        <ele>171.8</ele>
        <time>2016-10-22T12:00:31Z</time>
      </trkpt>
      <trkpt lat="43.6071" lon="3.40529">
        <ele>171.5</ele>
        <time>2016-10-22T12:00:33Z</time>
      </trkpt>
      <trkpt lat="43.6072" lon="3.40522">
        <ele>171.5</ele>
        <time>2016-10-22T12:00:36Z</time>
      </trkpt>
      <trkpt lat="43.60727" lon="3.40517">
        <ele>172.2</ele>
        <time>2016-10-22T12:00:38Z</time>
      </trkpt>
      <trkpt lat="43.60734" lon="3.40512">
        <ele>172.6</ele>
        <time>2016-10-22T12:00:40Z</time>
      </trkpt>
      <trkpt lat="43.60741" lon="3.40506">
        <ele>173.6</ele>
        <time>2016-10-22T12:00:42Z</time>
      </trkpt>
      <trkpt lat="43.60748" lon="3.40501">
        <ele>173.8</ele>
        <time>2016-10-22T12:00:44Z</time>
      </trkpt>
      <trkpt lat="43.60754" lon="3.40496">
        <ele>173.8</ele>
        <time>2016-10-22T12:00:46Z</time>
      </trkpt>
      <trkpt lat="43.60764" lon="3.4049">
        <ele>173.9</ele>
        <time>2016-10-22T12:00:49Z</time>
      </trkpt>
      <trkpt lat="43.60772" lon="3.40486">
        <ele>173.8</ele>
        <time>2016-10-22T12:00:52Z</time>
      </trkpt>
      <trkpt lat="43.60779" lon="3.40481">
        <ele>173.6</ele>
        <time>2016-10-22T12:00:54Z</time>
      </trkpt>
      <trkpt lat="43.60787" lon="3.40474">
        <ele>173.6</ele>
        <time>2016-10-22T12:00:56Z</time>
      </trkpt>
      <trkpt lat="43.60794" lon="3.40468">
        <ele>173.8</ele>
        <time>2016-10-22T12:00:58Z</time>
      </trkpt>
      <trkpt lat="43.60801" lon="3.40463">
        <ele>173.8</ele>
        <time>2016-10-22T12:01:00Z</time>
      </trkpt>
      <trkpt lat="43.60808" lon="3.40457">
        <ele>173.8</ele>
        <time>2016-10-22T12:01:02Z</time>
      </trkpt>
      <trkpt lat="43.60815" lon="3.4045">
        <ele>174.4</ele>
        <time>2016-10-22T12:01:04Z</time>
      </trkpt>
      <trkpt lat="43.60822" lon="3.40442">
        <ele>174.4</ele>
        <time>2016-10-22T12:01:06Z</time>
      </trkpt>
      <trkpt lat="43.60828" lon="3.40434">
        <ele>174.8</ele>
        <time>2016-10-22T12:01:08Z</time>
      </trkpt>
      <trkpt lat="43.60835" lon="3.40425">
        <ele>174.8</ele>
        <time>2016-10-22T12:01:11Z</time>
      </trkpt>
      <trkpt lat="43.60841" lon="3.40418">
        <ele>174.8</ele>
        <time>2016-10-22T12:01:13Z</time>
      </trkpt>
      <trkpt lat="43.6085" lon="3.40408">
        <ele>174.9</ele>
        <time>2016-10-22T12:01:16Z</time>
      </trkpt>
      <trkpt lat="43.60858" lon="3.40399">
        <ele>175</ele>
        <time>2016-10-22T12:01:19Z</time>
      </trkpt>
      <trkpt lat="43.60864" lon="3.40391">
        <ele>175</ele>
        <time>2016-10-22T12:01:21Z</time>
      </trkpt>
      <trkpt lat="43.6087" lon="3.40383">
        <ele>175.4</ele>
        <time>2016-10-22T12:01:24Z</time>
      </trkpt>
      <trkpt lat="43.60876" lon="3.40375">
        <ele>175.9</ele>
        <time>2016-10-22T12:01:27Z</time>
      </trkpt>
      <trkpt lat="43.60883" lon="3.40367">
        <ele>176.5</ele>
        <time>2016-10-22T12:01:30Z</time>
      </trkpt>
      <trkpt lat="43.60889" lon="3.40359">
        <ele>176.9</ele>
        <time>2016-10-22T12:01:33Z</time>
      </trkpt>
      <trkpt lat="43.60895" lon="3.40351">
        <ele>177.2</ele>
        <time>2016-10-22T12:01:36Z</time>
      </trkpt>
      <trkpt lat="43.60901" lon="3.40343">
        <ele>177.4</ele>
        <time>2016-10-22T12:01:39Z</time>
      </trkpt>
      <trkpt lat="43.60908" lon="3.40336">
        <ele>177.6</ele>
        <time>2016-10-22T12:01:42Z</time>
      </trkpt>
      <trkpt lat="43.60914" lon="3.40326">
        <ele>177.6</ele>
        <time>2016-10-22T12:01:46Z</time>
      </trkpt>
      <trkpt lat="43.6092" lon="3.40316">
        <ele>177.6</ele>
        <time>2016-10-22T12:01:49Z</time>
      </trkpt>
      <trkpt lat="43.60926" lon="3.40308">
        <ele>177.3</ele>
        <time>2016-10-22T12:01:52Z</time>
      </trkpt>
      <trkpt lat="43.60931" lon="3.40298">
        <ele>176.9</ele>
        <time>2016-10-22T12:01:55Z</time>
      </trkpt>
      <trkpt lat="43.60939" lon="3.40289">
        <ele>176.8</ele>
        <time>2016-10-22T12:01:58Z</time>
      </trkpt>
      <trkpt lat="43.60947" lon="3.4028">
        <ele>176.7</ele>
        <time>2016-10-22T12:02:01Z</time>
      </trkpt>
      <trkpt lat="43.60955" lon="3.4027">
        <ele>176.6</ele>
        <time>2016-10-22T12:02:04Z</time>
      </trkpt>
      <trkpt lat="43.60961" lon="3.40262">
        <ele>176.6</ele>
        <time>2016-10-22T12:02:07Z</time>
      </trkpt>
      <trkpt lat="43.60969" lon="3.40252">
        <ele>176.6</ele>
        <time>2016-10-22T12:02:10Z</time>
      </trkpt>
      <trkpt lat="43.60977" lon="3.40244">
        <ele>176.7</ele>
        <time>2016-10-22T12:02:13Z</time>
      </trkpt>
      <trkpt lat="43.60982" lon="3.40236">
        <ele>176.7</ele>
        <time>2016-10-22T12:02:16Z</time>
      </trkpt>
      <trkpt lat="43.60988" lon="3.40231">
        <ele>176.9</ele>
        <time>2016-10-22T12:02:19Z</time>
      </trkpt>
      <trkpt lat="43.60995" lon="3.40221">
        <ele>177.3</ele>
        <time>2016-10-22T12:02:23Z</time>
      </trkpt>
      <trkpt lat="43.61001" lon="3.40211">
        <ele>177.6</ele>
        <time>2016-10-22T12:02:26Z</time>
      </trkpt>
      <trkpt lat="43.61007" lon="3.40203">
        <ele>178</ele>
        <time>2016-10-22T12:02:29Z</time>
      </trkpt>
      <trkpt lat="43.61012" lon="3.40195">
        <ele>178.3</ele>
        <time>2016-10-22T12:02:32Z</time>
      </trkpt>
      <trkpt lat="43.61019" lon="3.40187">
        <ele>178.7</ele>
        <time>2016-10-22T12:02:35Z</time>
      </trkpt>
      <trkpt lat="43.61026" lon="3.40179">
        <ele>179.3</ele>
        <time>2016-10-22T12:02:39Z</time>
      </trkpt>
      <trkpt lat="43.61034" lon="3.40175">
        <ele>179.9</ele>
        <time>2016-10-22T12:02:43Z</time>
      </trkpt>
      <trkpt lat="43.6104" lon="3.40164">
        <ele>181</ele>
        <time>2016-10-22T12:02:47Z</time>
      </trkpt>
      <trkpt lat="43.61047" lon="3.40153">
        <ele>181.4</ele>
        <time>2016-10-22T12:02:50Z</time>
      </trkpt>
      <trkpt lat="43.6105" lon="3.40144">
        <ele>181.7</ele>
        <time>2016-10-22T12:02:52Z</time>
      </trkpt>
      <trkpt lat="43.61055" lon="3.40136">
        <ele>182.2</ele>
        <time>2016-10-22T12:02:55Z</time>
      </trkpt>
      <trkpt lat="43.61059" lon="3.40126">
        <ele>182.6</ele>
        <time>2016-10-22T12:02:58Z</time>
      </trkpt>
      <trkpt lat="43.61063" lon="3.40117">
        <ele>182.8</ele>
        <time>2016-10-22T12:03:00Z</time>
      </trkpt>
      <trkpt lat="43.61068" lon="3.40107">
        <ele>183.1</ele>
        <time>2016-10-22T12:03:03Z</time>
      </trkpt>
      <trkpt lat="43.61072" lon="3.40098">
        <ele>183.5</ele>
        <time>2016-10-22T12:03:05Z</time>
      </trkpt>
      <trkpt lat="43.61078" lon="3.40088">
        <ele>183.8</ele>
        <time>2016-10-22T12:03:07Z</time>
      </trkpt>
      <trkpt lat="43.61087" lon="3.40081">
        <ele>184.1</ele>
        <time>2016-10-22T12:03:10Z</time>
      </trkpt>
      <trkpt lat="43.61094" lon="3.40076">
        <ele>185</ele>
        <time>2016-10-22T12:03:12Z</time>
      </trkpt>
      <trkpt lat="43.61102" lon="3.40068">
        <ele>185.7</ele>
        <time>2016-10-22T12:03:15Z</time>
      </trkpt>
      <trkpt lat="43.6111" lon="3.40058">
        <ele>185.6</ele>
        <time>2016-10-22T12:03:18Z</time>
      </trkpt>
      <trkpt lat="43.61117" lon="3.40052">
        <ele>185.4</ele>
        <time>2016-10-22T12:03:21Z</time>
      </trkpt>
      <trkpt lat="43.61127" lon="3.4005">
        <ele>184.3</ele>
        <time>2016-10-22T12:03:24Z</time>
      </trkpt>
      <trkpt lat="43.61137" lon="3.40047">
        <ele>181.7</ele>
        <time>2016-10-22T12:03:26Z</time>
      </trkpt>
      <trkpt lat="43.61147" lon="3.40043">
        <ele>180.5</ele>
        <time>2016-10-22T12:03:28Z</time>
      </trkpt>
      <trkpt lat="43.61155" lon="3.40037">
        <ele>180.2</ele>
        <time>2016-10-22T12:03:30Z</time>
      </trkpt>
      <trkpt lat="43.61164" lon="3.40031">
        <ele>180.1</ele>
        <time>2016-10-22T12:03:32Z</time>
      </trkpt>
      <trkpt lat="43.61172" lon="3.40026">
        <ele>180.6</ele>
        <time>2016-10-22T12:03:34Z</time>
      </trkpt>
      <trkpt lat="43.61181" lon="3.40022">
        <ele>180.8</ele>
        <time>2016-10-22T12:03:36Z</time>
      </trkpt>
      <trkpt lat="43.61189" lon="3.40019">
        <ele>180.6</ele>
        <time>2016-10-22T12:03:38Z</time>
      </trkpt>
      <trkpt lat="43.61199" lon="3.40013">
        <ele>180.5</ele>
        <time>2016-10-22T12:03:41Z</time>
      </trkpt>
      <trkpt lat="43.61208" lon="3.40007">
        <ele>180.2</ele>
        <time>2016-10-22T12:03:44Z</time>
      </trkpt>
      <trkpt lat="43.61218" lon="3.40003">
        <ele>179.7</ele>
        <time>2016-10-22T12:03:47Z</time>
      </trkpt>
      <trkpt lat="43.61227" lon="3.39995">
        <ele>179.3</ele>
        <time>2016-10-22T12:03:50Z</time>
      </trkpt>
      <trkpt lat="43.61232" lon="3.39988">
        <ele>179.1</ele>
        <time>2016-10-22T12:03:52Z</time>
      </trkpt>
      <trkpt lat="43.61232" lon="3.39975">
        <ele>179</ele>
        <time>2016-10-22T12:03:56Z</time>
      </trkpt>
      <trkpt lat="43.61229" lon="3.39961">
        <ele>179.6</ele>
        <time>2016-10-22T12:03:59Z</time>
      </trkpt>
      <trkpt lat="43.61226" lon="3.39949">
        <ele>180.3</ele>
        <time>2016-10-22T12:04:02Z</time>
      </trkpt>
      <trkpt lat="43.61222" lon="3.39936">
        <ele>181</ele>
        <time>2016-10-22T12:04:05Z</time>
      </trkpt>
      <trkpt lat="43.61219" lon="3.39924">
        <ele>181.6</ele>
        <time>2016-10-22T12:04:08Z</time>
      </trkpt>
      <trkpt lat="43.61216" lon="3.39912">
        <ele>182.1</ele>
        <time>2016-10-22T12:04:11Z</time>
      </trkpt>
      <trkpt lat="43.61212" lon="3.39901">
        <ele>182.6</ele>
        <time>2016-10-22T12:04:14Z</time>
      </trkpt>
      <trkpt lat="43.61208" lon="3.3989">
        <ele>183.2</ele>
        <time>2016-10-22T12:04:17Z</time>
      </trkpt>
      <trkpt lat="43.61204" lon="3.39878">
        <ele>183.6</ele>
        <time>2016-10-22T12:04:20Z</time>
      </trkpt>
      <trkpt lat="43.61199" lon="3.39865">
        <ele>184.1</ele>
        <time>2016-10-22T12:04:23Z</time>
      </trkpt>
      <trkpt lat="43.61195" lon="3.39856">
        <ele>184.8</ele>
        <time>2016-10-22T12:04:26Z</time>
      </trkpt>
      <trkpt lat="43.61192" lon="3.39846">
        <ele>185.3</ele>
        <time>2016-10-22T12:04:29Z</time>
      </trkpt>
      <trkpt lat="43.61188" lon="3.39836">
        <ele>185.8</ele>
        <time>2016-10-22T12:04:32Z</time>
      </trkpt>
      <trkpt lat="43.61189" lon="3.39826">
        <ele>186.3</ele>
        <time>2016-10-22T12:04:36Z</time>
      </trkpt>
      <trkpt lat="43.61196" lon="3.3982">
        <ele>186.6</ele>
        <time>2016-10-22T12:04:39Z</time>
      </trkpt>
      <trkpt lat="43.61204" lon="3.39813">
        <ele>186.8</ele>
        <time>2016-10-22T12:04:43Z</time>
      </trkpt>
      <trkpt lat="43.61211" lon="3.39808">
        <ele>186.6</ele>
        <time>2016-10-22T12:04:46Z</time>
      </trkpt>
      <trkpt lat="43.61219" lon="3.39802">
        <ele>186.6</ele>
        <time>2016-10-22T12:04:49Z</time>
      </trkpt>
      <trkpt lat="43.61227" lon="3.39796">
        <ele>186.7</ele>
        <time>2016-10-22T12:04:52Z</time>
      </trkpt>
      <trkpt lat="43.61235" lon="3.39792">
        <ele>186.7</ele>
        <time>2016-10-22T12:04:55Z</time>
      </trkpt>
      <trkpt lat="43.61242" lon="3.39789">
        <ele>186.9</ele>
        <time>2016-10-22T12:04:58Z</time>
      </trkpt>
      <trkpt lat="43.61249" lon="3.39784">
        <ele>187.1</ele>
        <time>2016-10-22T12:05:01Z</time>
      </trkpt>
      <trkpt lat="43.61257" lon="3.39778">
        <ele>187.2</ele>
        <time>2016-10-22T12:05:04Z</time>
      </trkpt>
      <trkpt lat="43.61264" lon="3.39774">
        <ele>187.3</ele>
        <time>2016-10-22T12:05:07Z</time>
      </trkpt>
      <trkpt lat="43.61272" lon="3.39769">
        <ele>187.5</ele>
        <time>2016-10-22T12:05:10Z</time>
      </trkpt>
      <trkpt lat="43.61279" lon="3.39765">
        <ele>187.6</ele>
        <time>2016-10-22T12:05:13Z</time>
      </trkpt>
      <trkpt lat="43.61285" lon="3.3976">
        <ele>187.5</ele>
        <time>2016-10-22T12:05:16Z</time>
      </trkpt>
      <trkpt lat="43.61292" lon="3.39755">
        <ele>187.5</ele>
        <time>2016-10-22T12:05:20Z</time>
      </trkpt>
      <trkpt lat="43.61302" lon="3.39749">
        <ele>187.6</ele>
        <time>2016-10-22T12:05:24Z</time>
      </trkpt>
      <trkpt lat="43.6131" lon="3.39744">
        <ele>187.8</ele>
        <time>2016-10-22T12:05:28Z</time>
      </trkpt>
      <trkpt lat="43.61317" lon="3.39739">
        <ele>188.1</ele>
        <time>2016-10-22T12:05:33Z</time>
      </trkpt>
      <trkpt lat="43.61325" lon="3.39735">
        <ele>188.3</ele>
        <time>2016-10-22T12:05:37Z</time>
      </trkpt>
      <trkpt lat="43.61333" lon="3.39729">
        <ele>188.8</ele>
        <time>2016-10-22T12:05:41Z</time>
      </trkpt>
      <trkpt lat="43.61342" lon="3.39725">
        <ele>189.4</ele>
        <time>2016-10-22T12:05:45Z</time>
      </trkpt>
      <trkpt lat="43.61348" lon="3.3972">
        <ele>189.9</ele>
        <time>2016-10-22T12:05:49Z</time>
      </trkpt>
      <trkpt lat="43.61357" lon="3.39714">
        <ele>190.5</ele>
        <time>2016-10-22T12:05:53Z</time>
      </trkpt>
      <trkpt lat="43.61363" lon="3.3971">
        <ele>190.8</ele>
        <time>2016-10-22T12:05:56Z</time>
      </trkpt>
      <trkpt lat="43.61371" lon="3.39705">
        <ele>191.2</ele>
        <time>2016-10-22T12:06:00Z</time>
      </trkpt>
      <trkpt lat="43.61379" lon="3.39702">
        <ele>191.5</ele>
        <time>2016-10-22T12:06:03Z</time>
      </trkpt>
      <trkpt lat="43.61377" lon="3.39696">
        <ele>192.1</ele>
        <time>2016-10-22T12:06:10Z</time>
      </trkpt>
      <trkpt lat="43.61369" lon="3.39696">
        <ele>192.9</ele>
        <time>2016-10-22T12:06:15Z</time>
      </trkpt>
      <trkpt lat="43.61359" lon="3.39695">
        <ele>193.9</ele>
        <time>2016-10-22T12:06:19Z</time>
      </trkpt>
      <trkpt lat="43.6135" lon="3.39696">
        <ele>195.1</ele>
        <time>2016-10-22T12:06:23Z</time>
      </trkpt>
      <trkpt lat="43.61341" lon="3.39697">
        <ele>196</ele>
        <time>2016-10-22T12:06:27Z</time>
      </trkpt>
      <trkpt lat="43.61333" lon="3.39697">
        <ele>196.5</ele>
        <time>2016-10-22T12:06:31Z</time>
      </trkpt>
      <trkpt lat="43.61324" lon="3.39699">
        <ele>197.3</ele>
        <time>2016-10-22T12:06:36Z</time>
      </trkpt>
      <trkpt lat="43.61316" lon="3.39698">
        <ele>197.8</ele>
        <time>2016-10-22T12:06:40Z</time>
      </trkpt>
      <trkpt lat="43.61309" lon="3.39697">
        <ele>198.2</ele>
        <time>2016-10-22T12:06:44Z</time>
      </trkpt>
      <trkpt lat="43.61301" lon="3.39699">
        <ele>198.7</ele>
        <time>2016-10-22T12:06:48Z</time>
      </trkpt>
      <trkpt lat="43.61293" lon="3.39698">
        <ele>199.3</ele>
        <time>2016-10-22T12:06:52Z</time>
      </trkpt>
      <trkpt lat="43.61285" lon="3.39698">
        <ele>199.8</ele>
        <time>2016-10-22T12:06:56Z</time>
      </trkpt>
      <trkpt lat="43.61278" lon="3.397">
        <ele>200.6</ele>
        <time>2016-10-22T12:07:02Z</time>
      </trkpt>
      <trkpt lat="43.6127" lon="3.39696">
        <ele>201.3</ele>
        <time>2016-10-22T12:07:07Z</time>
      </trkpt>
      <trkpt lat="43.61262" lon="3.39695">
        <ele>202.3</ele>
        <time>2016-10-22T12:07:12Z</time>
      </trkpt>
      <trkpt lat="43.61255" lon="3.39692">
        <ele>203</ele>
        <time>2016-10-22T12:07:16Z</time>
      </trkpt>
      <trkpt lat="43.61248" lon="3.39686">
        <ele>204.2</ele>
        <time>2016-10-22T12:07:22Z</time>
      </trkpt>
      <trkpt lat="43.6124" lon="3.39684">
        <ele>205.1</ele>
        <time>2016-10-22T12:07:27Z</time>
      </trkpt>
      <trkpt lat="43.61234" lon="3.3968">
        <ele>205.9</ele>
        <time>2016-10-22T12:07:31Z</time>
      </trkpt>
      <trkpt lat="43.61227" lon="3.39674">
        <ele>206.8</ele>
        <time>2016-10-22T12:07:36Z</time>
      </trkpt>
      <trkpt lat="43.61222" lon="3.39666">
        <ele>207.6</ele>
        <time>2016-10-22T12:07:40Z</time>
      </trkpt>
      <trkpt lat="43.6122" lon="3.39656">
        <ele>208.3</ele>
        <time>2016-10-22T12:07:44Z</time>
      </trkpt>
      <trkpt lat="43.61226" lon="3.39648">
        <ele>209.1</ele>
        <time>2016-10-22T12:07:50Z</time>
      </trkpt>
      <trkpt lat="43.61231" lon="3.39641">
        <ele>209.8</ele>
        <time>2016-10-22T12:07:56Z</time>
      </trkpt>
      <trkpt lat="43.61234" lon="3.39634">
        <ele>210.7</ele>
        <time>2016-10-22T12:08:03Z</time>
      </trkpt>
      <trkpt lat="43.61232" lon="3.39623">
        <ele>211.9</ele>
        <time>2016-10-22T12:08:10Z</time>
      </trkpt>
      <trkpt lat="43.61234" lon="3.39614">
        <ele>213</ele>
        <time>2016-10-22T12:08:17Z</time>
      </trkpt>
      <trkpt lat="43.61241" lon="3.39606">
        <ele>213.6</ele>
        <time>2016-10-22T12:08:23Z</time>
      </trkpt>
      <trkpt lat="43.61245" lon="3.39596">
        <ele>214.6</ele>
        <time>2016-10-22T12:08:30Z</time>
      </trkpt>
      <trkpt lat="43.61247" lon="3.39586">
        <ele>215.5</ele>
        <time>2016-10-22T12:08:36Z</time>
      </trkpt>
      <trkpt lat="43.61249" lon="3.39575">
        <ele>216</ele>
        <time>2016-10-22T12:08:42Z</time>
      </trkpt>
      <trkpt lat="43.61254" lon="3.39566">
        <ele>216.7</ele>
        <time>2016-10-22T12:08:46Z</time>
      </trkpt>
      <trkpt lat="43.61263" lon="3.39565">
        <ele>217.3</ele>
        <time>2016-10-22T12:08:51Z</time>
      </trkpt>
      <trkpt lat="43.61271" lon="3.39565">
        <ele>218.2</ele>
        <time>2016-10-22T12:08:57Z</time>
      </trkpt>
      <trkpt lat="43.61279" lon="3.39562">
        <ele>218.9</ele>
        <time>2016-10-22T12:09:02Z</time>
      </trkpt>
      <trkpt lat="43.61288" lon="3.3956">
        <ele>219.6</ele>
        <time>2016-10-22T12:09:07Z</time>
      </trkpt>
      <trkpt lat="43.61295" lon="3.39559">
        <ele>220.3</ele>
        <time>2016-10-22T12:09:11Z</time>
      </trkpt>
      <trkpt lat="43.61303" lon="3.39561">
        <ele>221.4</ele>
        <time>2016-10-22T12:09:17Z</time>
      </trkpt>
      <trkpt lat="43.6131" lon="3.39561">
        <ele>222.2</ele>
        <time>2016-10-22T12:09:22Z</time>
      </trkpt>
      <trkpt lat="43.61318" lon="3.39558">
        <ele>222.9</ele>
        <time>2016-10-22T12:09:28Z</time>
      </trkpt>
      <trkpt lat="43.61323" lon="3.39549">
        <ele>223.2</ele>
        <time>2016-10-22T12:09:32Z</time>
      </trkpt>
      <trkpt lat="43.61326" lon="3.39538">
        <ele>223.9</ele>
        <time>2016-10-22T12:09:37Z</time>
      </trkpt>
      <trkpt lat="43.61329" lon="3.39527">
        <ele>224.5</ele>
        <time>2016-10-22T12:09:42Z</time>
      </trkpt>
      <trkpt lat="43.61333" lon="3.39516">
        <ele>225.3</ele>
        <time>2016-10-22T12:09:48Z</time>
      </trkpt>
      <trkpt lat="43.61335" lon="3.39506">
        <ele>226</ele>
        <time>2016-10-22T12:09:53Z</time>
      </trkpt>
      <trkpt lat="43.61336" lon="3.39495">
        <ele>226.8</ele>
        <time>2016-10-22T12:09:58Z</time>
      </trkpt>
      <trkpt lat="43.61335" lon="3.39484">
        <ele>227.7</ele>
        <time>2016-10-22T12:10:03Z</time>
      </trkpt>
      <trkpt lat="43.61335" lon="3.39472">
        <ele>228.5</ele>
        <time>2016-10-22T12:10:08Z</time>
      </trkpt>
      <trkpt lat="43.61333" lon="3.39462">
        <ele>229.5</ele>
        <time>2016-10-22T12:10:13Z</time>
      </trkpt>
      <trkpt lat="43.61333" lon="3.39451">
        <ele>230.8</ele>
        <time>2016-10-22T12:10:19Z</time>
      </trkpt>
      <trkpt lat="43.61336" lon="3.3944">
        <ele>232.3</ele>
        <time>2016-10-22T12:10:26Z</time>
      </trkpt>
      <trkpt lat="43.6134" lon="3.3943">
        <ele>233.8</ele>
        <time>2016-10-22T12:10:32Z</time>
      </trkpt>
      <trkpt lat="43.61342" lon="3.39419">
        <ele>234.9</ele>
        <time>2016-10-22T12:10:37Z</time>
      </trkpt>
      <trkpt lat="43.61344" lon="3.39409">
        <ele>235.8</ele>
        <time>2016-10-22T12:10:42Z</time>
      </trkpt>
      <trkpt lat="43.61343" lon="3.39397">
        <ele>237.4</ele>
        <time>2016-10-22T12:10:48Z</time>
      </trkpt>
      <trkpt lat="43.61342" lon="3.39387">
        <ele>238.7</ele>
        <time>2016-10-22T12:10:54Z</time>
      </trkpt>
      <trkpt lat="43.6134" lon="3.39375">
        <ele>239.7</ele>
        <time>2016-10-22T12:10:59Z</time>
      </trkpt>
      <trkpt lat="43.61337" lon="3.39361">
        <ele>240.6</ele>
        <time>2016-10-22T12:11:03Z</time>
      </trkpt>
      <trkpt lat="43.61337" lon="3.3935">
        <ele>241.3</ele>
        <time>2016-10-22T12:11:07Z</time>
      </trkpt>
      <trkpt lat="43.61339" lon="3.39337">
        <ele>241.7</ele>
        <time>2016-10-22T12:11:11Z</time>
      </trkpt>
      <trkpt lat="43.61341" lon="3.39327">
        <ele>242.1</ele>
        <time>2016-10-22T12:11:15Z</time>
      </trkpt>
      <trkpt lat="43.61343" lon="3.39317">
        <ele>242.4</ele>
        <time>2016-10-22T12:11:19Z</time>
      </trkpt>
      <trkpt lat="43.61347" lon="3.39308">
        <ele>242.7</ele>
        <time>2016-10-22T12:11:23Z</time>
      </trkpt>
      <trkpt lat="43.61351" lon="3.393">
        <ele>243</ele>
        <time>2016-10-22T12:11:27Z</time>
      </trkpt>
      <trkpt lat="43.61356" lon="3.3929">
        <ele>243.4</ele>
        <time>2016-10-22T12:11:31Z</time>
      </trkpt>
      <trkpt lat="43.61361" lon="3.39283">
        <ele>243.8</ele>
        <time>2016-10-22T12:11:35Z</time>
      </trkpt>
      <trkpt lat="43.61369" lon="3.39279">
        <ele>244.1</ele>
        <time>2016-10-22T12:11:39Z</time>
      </trkpt>
      <trkpt lat="43.61377" lon="3.39275">
        <ele>244.7</ele>
        <time>2016-10-22T12:11:44Z</time>
      </trkpt>
      <trkpt lat="43.61384" lon="3.39271">
        <ele>245</ele>
        <time>2016-10-22T12:11:48Z</time>
      </trkpt>
      <trkpt lat="43.61392" lon="3.39267">
        <ele>245.5</ele>
        <time>2016-10-22T12:11:52Z</time>
      </trkpt>
      <trkpt lat="43.61399" lon="3.39264">
        <ele>246.2</ele>
        <time>2016-10-22T12:11:56Z</time>
      </trkpt>
      <trkpt lat="43.61406" lon="3.39258">
        <ele>246.8</ele>
        <time>2016-10-22T12:12:00Z</time>
      </trkpt>
      <trkpt lat="43.61413" lon="3.39253">
        <ele>247.4</ele>
        <time>2016-10-22T12:12:04Z</time>
      </trkpt>
      <trkpt lat="43.6142" lon="3.3925">
        <ele>248.1</ele>
        <time>2016-10-22T12:12:08Z</time>
      </trkpt>
      <trkpt lat="43.61428" lon="3.39247">
        <ele>248.8</ele>
        <time>2016-10-22T12:12:12Z</time>
      </trkpt>
      <trkpt lat="43.61435" lon="3.39246">
        <ele>249.5</ele>
        <time>2016-10-22T12:12:16Z</time>
      </trkpt>
      <trkpt lat="43.61444" lon="3.39247">
        <ele>250.2</ele>
        <time>2016-10-22T12:12:20Z</time>
      </trkpt>
      <trkpt lat="43.61451" lon="3.39247">
        <ele>250.9</ele>
        <time>2016-10-22T12:12:24Z</time>
      </trkpt>
      <trkpt lat="43.61458" lon="3.39248">
        <ele>251.8</ele>
        <time>2016-10-22T12:12:28Z</time>
      </trkpt>
      <trkpt lat="43.61467" lon="3.39248">
        <ele>252.7</ele>
        <time>2016-10-22T12:12:33Z</time>
      </trkpt>
      <trkpt lat="43.61475" lon="3.3925">
        <ele>253.3</ele>
        <time>2016-10-22T12:12:37Z</time>
      </trkpt>
      <trkpt lat="43.61482" lon="3.39251">
        <ele>253.9</ele>
        <time>2016-10-22T12:12:41Z</time>
      </trkpt>
      <trkpt lat="43.61491" lon="3.39251">
        <ele>254.7</ele>
        <time>2016-10-22T12:12:46Z</time>
      </trkpt>
      <trkpt lat="43.615" lon="3.3925">
        <ele>255.6</ele>
        <time>2016-10-22T12:12:51Z</time>
      </trkpt>
      <trkpt lat="43.61505" lon="3.39244">
        <ele>256.1</ele>
        <time>2016-10-22T12:12:55Z</time>
      </trkpt>
      <trkpt lat="43.61511" lon="3.39236">
        <ele>256.7</ele>
        <time>2016-10-22T12:12:59Z</time>
      </trkpt>
      <trkpt lat="43.61517" lon="3.39231">
        <ele>257.1</ele>
        <time>2016-10-22T12:13:03Z</time>
      </trkpt>
      <trkpt lat="43.61524" lon="3.39224">
        <ele>257.5</ele>
        <time>2016-10-22T12:13:07Z</time>
      </trkpt>
      <trkpt lat="43.6153" lon="3.39218">
        <ele>257.8</ele>
        <time>2016-10-22T12:13:10Z</time>
      </trkpt>
      <trkpt lat="43.61538" lon="3.39213">
        <ele>258.1</ele>
        <time>2016-10-22T12:13:13Z</time>
      </trkpt>
      <trkpt lat="43.61546" lon="3.39206">
        <ele>258.5</ele>
        <time>2016-10-22T12:13:16Z</time>
      </trkpt>
      <trkpt lat="43.61554" lon="3.39199">
        <ele>258.9</ele>
        <time>2016-10-22T12:13:19Z</time>
      </trkpt>
      <trkpt lat="43.61562" lon="3.39193">
        <ele>259.2</ele>
        <time>2016-10-22T12:13:22Z</time>
      </trkpt>
      <trkpt lat="43.61571" lon="3.39188">
        <ele>259.4</ele>
        <time>2016-10-22T12:13:25Z</time>
      </trkpt>
      <trkpt lat="43.6158" lon="3.3918">
        <ele>260.2</ele>
        <time>2016-10-22T12:13:28Z</time>
      </trkpt>
      <trkpt lat="43.61587" lon="3.39173">
        <ele>261.8</ele>
        <time>2016-10-22T12:13:30Z</time>
      </trkpt>
      <trkpt lat="43.61593" lon="3.39166">
        <ele>262.9</ele>
        <time>2016-10-22T12:13:32Z</time>
      </trkpt>
      <trkpt lat="43.61599" lon="3.39159">
        <ele>263.1</ele>
        <time>2016-10-22T12:13:34Z</time>
      </trkpt>
      <trkpt lat="43.61605" lon="3.39152">
        <ele>263.1</ele>
        <time>2016-10-22T12:13:36Z</time>
      </trkpt>
      <trkpt lat="43.61613" lon="3.39145">
        <ele>263.2</ele>
        <time>2016-10-22T12:13:39Z</time>
      </trkpt>
      <trkpt lat="43.61622" lon="3.39137">
        <ele>263.3</ele>
        <time>2016-10-22T12:13:42Z</time>
      </trkpt>
      <trkpt lat="43.61631" lon="3.3913">
        <ele>263.5</ele>
        <time>2016-10-22T12:13:45Z</time>
      </trkpt>
      <trkpt lat="43.61638" lon="3.39125">
        <ele>263.6</ele>
        <time>2016-10-22T12:13:47Z</time>
      </trkpt>
      <trkpt lat="43.61647" lon="3.39118">
        <ele>263.8</ele>
        <time>2016-10-22T12:13:50Z</time>
      </trkpt>
      <trkpt lat="43.61656" lon="3.3911">
        <ele>264</ele>
        <time>2016-10-22T12:13:53Z</time>
      </trkpt>
      <trkpt lat="43.61663" lon="3.39105">
        <ele>264.1</ele>
        <time>2016-10-22T12:13:55Z</time>
      </trkpt>
      <trkpt lat="43.6167" lon="3.39102">
        <ele>264.6</ele>
        <time>2016-10-22T12:13:57Z</time>
      </trkpt>
      <trkpt lat="43.61678" lon="3.39097">
        <ele>265.3</ele>
        <time>2016-10-22T12:13:59Z</time>
      </trkpt>
      <trkpt lat="43.61686" lon="3.39093">
        <ele>265.4</ele>
        <time>2016-10-22T12:14:01Z</time>
      </trkpt>
      <trkpt lat="43.61693" lon="3.39088">
        <ele>265.6</ele>
        <time>2016-10-22T12:14:03Z</time>
      </trkpt>
      <trkpt lat="43.61702" lon="3.39084">
        <ele>265.3</ele>
        <time>2016-10-22T12:14:05Z</time>
      </trkpt>
      <trkpt lat="43.6171" lon="3.39077">
        <ele>265.2</ele>
        <time>2016-10-22T12:14:07Z</time>
      </trkpt>
      <trkpt lat="43.61717" lon="3.39072">
        <ele>265.2</ele>
        <time>2016-10-22T12:14:09Z</time>
      </trkpt>
      <trkpt lat="43.61724" lon="3.39065">
        <ele>265.3</ele>
        <time>2016-10-22T12:14:11Z</time>
      </trkpt>
      <trkpt lat="43.6173" lon="3.3906">
        <ele>265.3</ele>
        <time>2016-10-22T12:14:13Z</time>
      </trkpt>
      <trkpt lat="43.61738" lon="3.39055">
        <ele>265.4</ele>
        <time>2016-10-22T12:14:16Z</time>
      </trkpt>
      <trkpt lat="43.61745" lon="3.3905">
        <ele>265.5</ele>
        <time>2016-10-22T12:14:19Z</time>
      </trkpt>
      <trkpt lat="43.61753" lon="3.39043">
        <ele>265.8</ele>
        <time>2016-10-22T12:14:23Z</time>
      </trkpt>
      <trkpt lat="43.6176" lon="3.39035">
        <ele>266</ele>
        <time>2016-10-22T12:14:26Z</time>
      </trkpt>
      <trkpt lat="43.61767" lon="3.39027">
        <ele>266.1</ele>
        <time>2016-10-22T12:14:29Z</time>
      </trkpt>
      <trkpt lat="43.61775" lon="3.39019">
        <ele>266.3</ele>
        <time>2016-10-22T12:14:32Z</time>
      </trkpt>
      <trkpt lat="43.61781" lon="3.39013">
        <ele>266.5</ele>
        <time>2016-10-22T12:14:35Z</time>
      </trkpt>
      <trkpt lat="43.61789" lon="3.39007">
        <ele>267</ele>
        <time>2016-10-22T12:14:39Z</time>
      </trkpt>
      <trkpt lat="43.61795" lon="3.39001">
        <ele>267.4</ele>
        <time>2016-10-22T12:14:42Z</time>
      </trkpt>
      <trkpt lat="43.61802" lon="3.38995">
        <ele>267.8</ele>
        <time>2016-10-22T12:14:45Z</time>
      </trkpt>
      <trkpt lat="43.61809" lon="3.3899">
        <ele>268.1</ele>
        <time>2016-10-22T12:14:48Z</time>
      </trkpt>
      <trkpt lat="43.61815" lon="3.38986">
        <ele>268.4</ele>
        <time>2016-10-22T12:14:51Z</time>
      </trkpt>
      <trkpt lat="43.61822" lon="3.3898">
        <ele>268.7</ele>
        <time>2016-10-22T12:14:54Z</time>
      </trkpt>
      <trkpt lat="43.6183" lon="3.38976">
        <ele>269.2</ele>
        <time>2016-10-22T12:14:58Z</time>
      </trkpt>
      <trkpt lat="43.61841" lon="3.38975">
        <ele>270.1</ele>
        <time>2016-10-22T12:15:01Z</time>
      </trkpt>
      <trkpt lat="43.61849" lon="3.38971">
        <ele>271.2</ele>
        <time>2016-10-22T12:15:03Z</time>
      </trkpt>
      <trkpt lat="43.61859" lon="3.38963">
        <ele>271.5</ele>
        <time>2016-10-22T12:15:05Z</time>
      </trkpt>
      <trkpt lat="43.61869" lon="3.38953">
        <ele>271.1</ele>
        <time>2016-10-22T12:15:07Z</time>
      </trkpt>
      <trkpt lat="43.61882" lon="3.38941">
        <ele>270.7</ele>
        <time>2016-10-22T12:15:09Z</time>
      </trkpt>
      <trkpt lat="43.61889" lon="3.38934">
        <ele>270.2</ele>
        <time>2016-10-22T12:15:10Z</time>
      </trkpt>
      <trkpt lat="43.61896" lon="3.38928">
        <ele>269.5</ele>
        <time>2016-10-22T12:15:11Z</time>
      </trkpt>
      <trkpt lat="43.61904" lon="3.38924">
        <ele>269</ele>
        <time>2016-10-22T12:15:12Z</time>
      </trkpt>
      <trkpt lat="43.61912" lon="3.38921">
        <ele>268.4</ele>
        <time>2016-10-22T12:15:13Z</time>
      </trkpt>
      <trkpt lat="43.61924" lon="3.3891">
        <ele>266.9</ele>
        <time>2016-10-22T12:15:15Z</time>
      </trkpt>
      <trkpt lat="43.61931" lon="3.38904">
        <ele>266.2</ele>
        <time>2016-10-22T12:15:16Z</time>
      </trkpt>
      <trkpt lat="43.61938" lon="3.38898">
        <ele>265.6</ele>
        <time>2016-10-22T12:15:17Z</time>
      </trkpt>
      <trkpt lat="43.61944" lon="3.38892">
        <ele>265.2</ele>
        <time>2016-10-22T12:15:18Z</time>
      </trkpt>
      <trkpt lat="43.61951" lon="3.38886">
        <ele>264.6</ele>
        <time>2016-10-22T12:15:19Z</time>
      </trkpt>
      <trkpt lat="43.61957" lon="3.38879">
        <ele>264</ele>
        <time>2016-10-22T12:15:20Z</time>
      </trkpt>
      <trkpt lat="43.61963" lon="3.38873">
        <ele>263.7</ele>
        <time>2016-10-22T12:15:21Z</time>
      </trkpt>
      <trkpt lat="43.61969" lon="3.38866">
        <ele>263.5</ele>
        <time>2016-10-22T12:15:22Z</time>
      </trkpt>
      <trkpt lat="43.61976" lon="3.3886">
        <ele>263.2</ele>
        <time>2016-10-22T12:15:23Z</time>
      </trkpt>
      <trkpt lat="43.61983" lon="3.38854">
        <ele>263</ele>
        <time>2016-10-22T12:15:24Z</time>
      </trkpt>
      <trkpt lat="43.6199" lon="3.3885">
        <ele>262.8</ele>
        <time>2016-10-22T12:15:25Z</time>
      </trkpt>
      <trkpt lat="43.61999" lon="3.38847">
        <ele>262.6</ele>
        <time>2016-10-22T12:15:26Z</time>
      </trkpt>
      <trkpt lat="43.62007" lon="3.38845">
        <ele>262.5</ele>
        <time>2016-10-22T12:15:27Z</time>
      </trkpt>
      <trkpt lat="43.62014" lon="3.38846">
        <ele>262.2</ele>
        <time>2016-10-22T12:15:28Z</time>
      </trkpt>
      <trkpt lat="43.62027" lon="3.38845">
        <ele>262.3</ele>
        <time>2016-10-22T12:15:30Z</time>
      </trkpt>
      <trkpt lat="43.62034" lon="3.38838">
        <ele>262.3</ele>
        <time>2016-10-22T12:15:32Z</time>
      </trkpt>
      <trkpt lat="43.62039" lon="3.38827">
        <ele>262.1</ele>
        <time>2016-10-22T12:15:34Z</time>
      </trkpt>
      <trkpt lat="43.62042" lon="3.38813">
        <ele>260.5</ele>
        <time>2016-10-22T12:15:37Z</time>
      </trkpt>
      <trkpt lat="43.62046" lon="3.38803">
        <ele>260.4</ele>
        <time>2016-10-22T12:15:39Z</time>
      </trkpt>
      <trkpt lat="43.62049" lon="3.38792">
        <ele>260.3</ele>
        <time>2016-10-22T12:15:42Z</time>
      </trkpt>
      <trkpt lat="43.62053" lon="3.3878">
        <ele>260.3</ele>
        <time>2016-10-22T12:15:45Z</time>
      </trkpt>
      <trkpt lat="43.62057" lon="3.3877">
        <ele>260.3</ele>
        <time>2016-10-22T12:15:48Z</time>
      </trkpt>
      <trkpt lat="43.6206" lon="3.38758">
        <ele>260.4</ele>
        <time>2016-10-22T12:15:51Z</time>
      </trkpt>
      <trkpt lat="43.62064" lon="3.38747">
        <ele>260.4</ele>
        <time>2016-10-22T12:15:54Z</time>
      </trkpt>
      <trkpt lat="43.62068" lon="3.38738">
        <ele>260.5</ele>
        <time>2016-10-22T12:15:57Z</time>
      </trkpt>
      <trkpt lat="43.62073" lon="3.38726">
        <ele>260.8</ele>
        <time>2016-10-22T12:16:00Z</time>
      </trkpt>
      <trkpt lat="43.62079" lon="3.38715">
        <ele>260.9</ele>
        <time>2016-10-22T12:16:03Z</time>
      </trkpt>
      <trkpt lat="43.62082" lon="3.38706">
        <ele>261.1</ele>
        <time>2016-10-22T12:16:05Z</time>
      </trkpt>
      <trkpt lat="43.62086" lon="3.38696">
        <ele>260.6</ele>
        <time>2016-10-22T12:16:07Z</time>
      </trkpt>
      <trkpt lat="43.6209" lon="3.38686">
        <ele>260.2</ele>
        <time>2016-10-22T12:16:09Z</time>
      </trkpt>
      <trkpt lat="43.62092" lon="3.38676">
        <ele>259.6</ele>
        <time>2016-10-22T12:16:11Z</time>
      </trkpt>
      <trkpt lat="43.62096" lon="3.38663">
        <ele>259.3</ele>
        <time>2016-10-22T12:16:14Z</time>
      </trkpt>
      <trkpt lat="43.62092" lon="3.38652">
        <ele>261.2</ele>
        <time>2016-10-22T12:16:17Z</time>
      </trkpt>
      <trkpt lat="43.6208" lon="3.38649">
        <ele>262.8</ele>
        <time>2016-10-22T12:16:19Z</time>
      </trkpt>
      <trkpt lat="43.62068" lon="3.38652">
        <ele>263.9</ele>
        <time>2016-10-22T12:16:21Z</time>
      </trkpt>
      <trkpt lat="43.62056" lon="3.38655">
        <ele>264.3</ele>
        <time>2016-10-22T12:16:23Z</time>
      </trkpt>
      <trkpt lat="43.62042" lon="3.38655">
        <ele>264.7</ele>
        <time>2016-10-22T12:16:25Z</time>
      </trkpt>
      <trkpt lat="43.62032" lon="3.38647">
        <ele>264.7</ele>
        <time>2016-10-22T12:16:27Z</time>
      </trkpt>
      <trkpt lat="43.62027" lon="3.3863">
        <ele>264.4</ele>
        <time>2016-10-22T12:16:29Z</time>
      </trkpt>
      <trkpt lat="43.62026" lon="3.38611">
        <ele>262.9</ele>
        <time>2016-10-22T12:16:31Z</time>
      </trkpt>
      <trkpt lat="43.62028" lon="3.38591">
        <ele>261.2</ele>
        <time>2016-10-22T12:16:33Z</time>
      </trkpt>
      <trkpt lat="43.6203" lon="3.38571">
        <ele>259.6</ele>
        <time>2016-10-22T12:16:35Z</time>
      </trkpt>
      <trkpt lat="43.62031" lon="3.38561">
        <ele>259</ele>
        <time>2016-10-22T12:16:36Z</time>
      </trkpt>
      <trkpt lat="43.62032" lon="3.38551">
        <ele>258.5</ele>
        <time>2016-10-22T12:16:37Z</time>
      </trkpt>
      <trkpt lat="43.62033" lon="3.38541">
        <ele>258.1</ele>
        <time>2016-10-22T12:16:38Z</time>
      </trkpt>
      <trkpt lat="43.62033" lon="3.3853">
        <ele>257.8</ele>
        <time>2016-10-22T12:16:39Z</time>
      </trkpt>
      <trkpt lat="43.62034" lon="3.3852">
        <ele>257.6</ele>
        <time>2016-10-22T12:16:40Z</time>
      </trkpt>
      <trkpt lat="43.62034" lon="3.38509">
        <ele>257.3</ele>
        <time>2016-10-22T12:16:41Z</time>
      </trkpt>
      <trkpt lat="43.62035" lon="3.38499">
        <ele>257</ele>
        <time>2016-10-22T12:16:42Z</time>
      </trkpt>
      <trkpt lat="43.62035" lon="3.38489">
        <ele>256.7</ele>
        <time>2016-10-22T12:16:43Z</time>
      </trkpt>
      <trkpt lat="43.62034" lon="3.3847">
        <ele>255.9</ele>
        <time>2016-10-22T12:16:45Z</time>
      </trkpt>
      <trkpt lat="43.62034" lon="3.38452">
        <ele>254.4</ele>
        <time>2016-10-22T12:16:47Z</time>
      </trkpt>
      <trkpt lat="43.62035" lon="3.38436">
        <ele>253.8</ele>
        <time>2016-10-22T12:16:49Z</time>
      </trkpt>
      <trkpt lat="43.62035" lon="3.38424">
        <ele>253.6</ele>
        <time>2016-10-22T12:16:51Z</time>
      </trkpt>
      <trkpt lat="43.62036" lon="3.38412">
        <ele>253.9</ele>
        <time>2016-10-22T12:16:53Z</time>
      </trkpt>
      <trkpt lat="43.62037" lon="3.384">
        <ele>254.2</ele>
        <time>2016-10-22T12:16:55Z</time>
      </trkpt>
      <trkpt lat="43.62038" lon="3.38391">
        <ele>254</ele>
        <time>2016-10-22T12:16:57Z</time>
      </trkpt>
      <trkpt lat="43.62039" lon="3.3838">
        <ele>254.3</ele>
        <time>2016-10-22T12:16:59Z</time>
      </trkpt>
      <trkpt lat="43.6204" lon="3.3837">
        <ele>254.8</ele>
        <time>2016-10-22T12:17:01Z</time>
      </trkpt>
      <trkpt lat="43.62041" lon="3.38356">
        <ele>254.9</ele>
        <time>2016-10-22T12:17:04Z</time>
      </trkpt>
      <trkpt lat="43.62042" lon="3.38345">
        <ele>255.1</ele>
        <time>2016-10-22T12:17:06Z</time>
      </trkpt>
      <trkpt lat="43.62044" lon="3.38334">
        <ele>255.1</ele>
        <time>2016-10-22T12:17:08Z</time>
      </trkpt>
      <trkpt lat="43.62046" lon="3.38324">
        <ele>255.4</ele>
        <time>2016-10-22T12:17:10Z</time>
      </trkpt>
      <trkpt lat="43.62047" lon="3.38314">
        <ele>255.7</ele>
        <time>2016-10-22T12:17:12Z</time>
      </trkpt>
      <trkpt lat="43.62049" lon="3.383">
        <ele>255.8</ele>
        <time>2016-10-22T12:17:15Z</time>
      </trkpt>
      <trkpt lat="43.62052" lon="3.38287">
        <ele>255.8</ele>
        <time>2016-10-22T12:17:18Z</time>
      </trkpt>
      <trkpt lat="43.62055" lon="3.38274">
        <ele>255.8</ele>
        <time>2016-10-22T12:17:21Z</time>
      </trkpt>
      <trkpt lat="43.62057" lon="3.3826">
        <ele>255.8</ele>
        <time>2016-10-22T12:17:24Z</time>
      </trkpt>
      <trkpt lat="43.6206" lon="3.38248">
        <ele>255.7</ele>
        <time>2016-10-22T12:17:27Z</time>
      </trkpt>
      <trkpt lat="43.62064" lon="3.38234">
        <ele>255.7</ele>
        <time>2016-10-22T12:17:30Z</time>
      </trkpt>
      <trkpt lat="43.62068" lon="3.38223">
        <ele>255.8</ele>
        <time>2016-10-22T12:17:33Z</time>
      </trkpt>
      <trkpt lat="43.6207" lon="3.38212">
        <ele>255.9</ele>
        <time>2016-10-22T12:17:36Z</time>
      </trkpt>
      <trkpt lat="43.6207" lon="3.38199">
        <ele>256</ele>
        <time>2016-10-22T12:17:39Z</time>
      </trkpt>
      <trkpt lat="43.62069" lon="3.38189">
        <ele>256.3</ele>
        <time>2016-10-22T12:17:42Z</time>
      </trkpt>
      <trkpt lat="43.62068" lon="3.38176">
        <ele>256.5</ele>
        <time>2016-10-22T12:17:45Z</time>
      </trkpt>
      <trkpt lat="43.62066" lon="3.38165">
        <ele>257.1</ele>
        <time>2016-10-22T12:17:49Z</time>
      </trkpt>
      <trkpt lat="43.62064" lon="3.38152">
        <ele>257.6</ele>
        <time>2016-10-22T12:17:53Z</time>
      </trkpt>
      <trkpt lat="43.62063" lon="3.38141">
        <ele>258.2</ele>
        <time>2016-10-22T12:17:57Z</time>
      </trkpt>
      <trkpt lat="43.62061" lon="3.3813">
        <ele>258.8</ele>
        <time>2016-10-22T12:18:01Z</time>
      </trkpt>
      <trkpt lat="43.62061" lon="3.38118">
        <ele>259.7</ele>
        <time>2016-10-22T12:18:06Z</time>
      </trkpt>
      <trkpt lat="43.6206" lon="3.38107">
        <ele>260.5</ele>
        <time>2016-10-22T12:18:10Z</time>
      </trkpt>
      <trkpt lat="43.62059" lon="3.38096">
        <ele>261.2</ele>
        <time>2016-10-22T12:18:14Z</time>
      </trkpt>
      <trkpt lat="43.62057" lon="3.38085">
        <ele>261.8</ele>
        <time>2016-10-22T12:18:18Z</time>
      </trkpt>
      <trkpt lat="43.62055" lon="3.38075">
        <ele>262.2</ele>
        <time>2016-10-22T12:18:21Z</time>
      </trkpt>
      <trkpt lat="43.62054" lon="3.38065">
        <ele>262.5</ele>
        <time>2016-10-22T12:18:23Z</time>
      </trkpt>
      <trkpt lat="43.62053" lon="3.38053">
        <ele>264.3</ele>
        <time>2016-10-22T12:18:25Z</time>
      </trkpt>
      <trkpt lat="43.62051" lon="3.38043">
        <ele>267.1</ele>
        <time>2016-10-22T12:18:27Z</time>
      </trkpt>
      <trkpt lat="43.62049" lon="3.38032">
        <ele>268.7</ele>
        <time>2016-10-22T12:18:29Z</time>
      </trkpt>
      <trkpt lat="43.62046" lon="3.38021">
        <ele>269.4</ele>
        <time>2016-10-22T12:18:31Z</time>
      </trkpt>
      <trkpt lat="43.62042" lon="3.38009">
        <ele>269.4</ele>
        <time>2016-10-22T12:18:34Z</time>
      </trkpt>
      <trkpt lat="43.62038" lon="3.37999">
        <ele>269.5</ele>
        <time>2016-10-22T12:18:37Z</time>
      </trkpt>
      <trkpt lat="43.62033" lon="3.37988">
        <ele>269.5</ele>
        <time>2016-10-22T12:18:40Z</time>
      </trkpt>
      <trkpt lat="43.62028" lon="3.37977">
        <ele>269.5</ele>
        <time>2016-10-22T12:18:44Z</time>
      </trkpt>
      <trkpt lat="43.62025" lon="3.37969">
        <ele>269.5</ele>
        <time>2016-10-22T12:18:47Z</time>
      </trkpt>
      <trkpt lat="43.62021" lon="3.3796">
        <ele>269.5</ele>
        <time>2016-10-22T12:18:50Z</time>
      </trkpt>
      <trkpt lat="43.62018" lon="3.3795">
        <ele>269.5</ele>
        <time>2016-10-22T12:18:53Z</time>
      </trkpt>
      <trkpt lat="43.62014" lon="3.3794">
        <ele>269.7</ele>
        <time>2016-10-22T12:18:56Z</time>
      </trkpt>
      <trkpt lat="43.62011" lon="3.37929">
        <ele>269.9</ele>
        <time>2016-10-22T12:18:59Z</time>
      </trkpt>
      <trkpt lat="43.62009" lon="3.37917">
        <ele>269.9</ele>
        <time>2016-10-22T12:19:02Z</time>
      </trkpt>
      <trkpt lat="43.62007" lon="3.37904">
        <ele>270.1</ele>
        <time>2016-10-22T12:19:05Z</time>
      </trkpt>
      <trkpt lat="43.62005" lon="3.37892">
        <ele>270.2</ele>
        <time>2016-10-22T12:19:08Z</time>
      </trkpt>
      <trkpt lat="43.62003" lon="3.37881">
        <ele>270.5</ele>
        <time>2016-10-22T12:19:11Z</time>
      </trkpt>
      <trkpt lat="43.62001" lon="3.3787">
        <ele>270.7</ele>
        <time>2016-10-22T12:19:14Z</time>
      </trkpt>
      <trkpt lat="43.61999" lon="3.37858">
        <ele>271</ele>
        <time>2016-10-22T12:19:17Z</time>
      </trkpt>
      <trkpt lat="43.61997" lon="3.37846">
        <ele>271.3</ele>
        <time>2016-10-22T12:19:20Z</time>
      </trkpt>
      <trkpt lat="43.61996" lon="3.37834">
        <ele>271.5</ele>
        <time>2016-10-22T12:19:23Z</time>
      </trkpt>
      <trkpt lat="43.61993" lon="3.37825">
        <ele>271.9</ele>
        <time>2016-10-22T12:19:26Z</time>
      </trkpt>
      <trkpt lat="43.6199" lon="3.37814">
        <ele>272.4</ele>
        <time>2016-10-22T12:19:30Z</time>
      </trkpt>
      <trkpt lat="43.61985" lon="3.37804">
        <ele>273</ele>
        <time>2016-10-22T12:19:34Z</time>
      </trkpt>
      <trkpt lat="43.61981" lon="3.37793">
        <ele>273.6</ele>
        <time>2016-10-22T12:19:38Z</time>
      </trkpt>
      <trkpt lat="43.61977" lon="3.37784">
        <ele>274.1</ele>
        <time>2016-10-22T12:19:41Z</time>
      </trkpt>
      <trkpt lat="43.61974" lon="3.3777">
        <ele>276.7</ele>
        <time>2016-10-22T12:19:44Z</time>
      </trkpt>
      <trkpt lat="43.6197" lon="3.37759">
        <ele>279.4</ele>
        <time>2016-10-22T12:19:46Z</time>
      </trkpt>
      <trkpt lat="43.61964" lon="3.3775">
        <ele>280.8</ele>
        <time>2016-10-22T12:19:48Z</time>
      </trkpt>
      <trkpt lat="43.61956" lon="3.37742">
        <ele>281.7</ele>
        <time>2016-10-22T12:19:50Z</time>
      </trkpt>
      <trkpt lat="43.61948" lon="3.37734">
        <ele>282.8</ele>
        <time>2016-10-22T12:19:52Z</time>
      </trkpt>
      <trkpt lat="43.6194" lon="3.37725">
        <ele>282.6</ele>
        <time>2016-10-22T12:19:54Z</time>
      </trkpt>
      <trkpt lat="43.61931" lon="3.37717">
        <ele>282.2</ele>
        <time>2016-10-22T12:19:56Z</time>
      </trkpt>
      <trkpt lat="43.61921" lon="3.3771">
        <ele>281.8</ele>
        <time>2016-10-22T12:19:58Z</time>
      </trkpt>
      <trkpt lat="43.61911" lon="3.37703">
        <ele>281.6</ele>
        <time>2016-10-22T12:20:00Z</time>
      </trkpt>
      <trkpt lat="43.61902" lon="3.37696">
        <ele>282.1</ele>
        <time>2016-10-22T12:20:02Z</time>
      </trkpt>
      <trkpt lat="43.61894" lon="3.37689">
        <ele>282.3</ele>
        <time>2016-10-22T12:20:04Z</time>
      </trkpt>
      <trkpt lat="43.61886" lon="3.37682">
        <ele>282</ele>
        <time>2016-10-22T12:20:06Z</time>
      </trkpt>
      <trkpt lat="43.6188" lon="3.37672">
        <ele>281.6</ele>
        <time>2016-10-22T12:20:08Z</time>
      </trkpt>
      <trkpt lat="43.61876" lon="3.3766">
        <ele>281.3</ele>
        <time>2016-10-22T12:20:10Z</time>
      </trkpt>
      <trkpt lat="43.61873" lon="3.37644">
        <ele>281.5</ele>
        <time>2016-10-22T12:20:12Z</time>
      </trkpt>
      <trkpt lat="43.61874" lon="3.37626">
        <ele>281.3</ele>
        <time>2016-10-22T12:20:14Z</time>
      </trkpt>
      <trkpt lat="43.61874" lon="3.37607">
        <ele>280.5</ele>
        <time>2016-10-22T12:20:16Z</time>
      </trkpt>
      <trkpt lat="43.61874" lon="3.37597">
        <ele>279.9</ele>
        <time>2016-10-22T12:20:17Z</time>
      </trkpt>
      <trkpt lat="43.61873" lon="3.37587">
        <ele>279.3</ele>
        <time>2016-10-22T12:20:18Z</time>
      </trkpt>
      <trkpt lat="43.61872" lon="3.37576">
        <ele>278.7</ele>
        <time>2016-10-22T12:20:19Z</time>
      </trkpt>
      <trkpt lat="43.61869" lon="3.37567">
        <ele>278.1</ele>
        <time>2016-10-22T12:20:20Z</time>
      </trkpt>
      <trkpt lat="43.61864" lon="3.37558">
        <ele>277.5</ele>
        <time>2016-10-22T12:20:21Z</time>
      </trkpt>
      <trkpt lat="43.61859" lon="3.37548">
        <ele>276.7</ele>
        <time>2016-10-22T12:20:22Z</time>
      </trkpt>
      <trkpt lat="43.61853" lon="3.3754">
        <ele>275.8</ele>
        <time>2016-10-22T12:20:23Z</time>
      </trkpt>
      <trkpt lat="43.61847" lon="3.37533">
        <ele>274.9</ele>
        <time>2016-10-22T12:20:24Z</time>
      </trkpt>
      <trkpt lat="43.6184" lon="3.37528">
        <ele>274.3</ele>
        <time>2016-10-22T12:20:25Z</time>
      </trkpt>
      <trkpt lat="43.61833" lon="3.37523">
        <ele>273.9</ele>
        <time>2016-10-22T12:20:26Z</time>
      </trkpt>
      <trkpt lat="43.61826" lon="3.37518">
        <ele>273.6</ele>
        <time>2016-10-22T12:20:27Z</time>
      </trkpt>
      <trkpt lat="43.61821" lon="3.3751">
        <ele>273.1</ele>
        <time>2016-10-22T12:20:28Z</time>
      </trkpt>
      <trkpt lat="43.61815" lon="3.37501">
        <ele>272.9</ele>
        <time>2016-10-22T12:20:29Z</time>
      </trkpt>
      <trkpt lat="43.6181" lon="3.37492">
        <ele>272.5</ele>
        <time>2016-10-22T12:20:30Z</time>
      </trkpt>
      <trkpt lat="43.61805" lon="3.37483">
        <ele>272.3</ele>
        <time>2016-10-22T12:20:31Z</time>
      </trkpt>
      <trkpt lat="43.618" lon="3.37474">
        <ele>272.1</ele>
        <time>2016-10-22T12:20:32Z</time>
      </trkpt>
      <trkpt lat="43.61795" lon="3.37464">
        <ele>271.8</ele>
        <time>2016-10-22T12:20:33Z</time>
      </trkpt>
      <trkpt lat="43.61791" lon="3.37455">
        <ele>271.4</ele>
        <time>2016-10-22T12:20:34Z</time>
      </trkpt>
      <trkpt lat="43.61786" lon="3.37445">
        <ele>271.2</ele>
        <time>2016-10-22T12:20:35Z</time>
      </trkpt>
      <trkpt lat="43.61782" lon="3.37435">
        <ele>271.1</ele>
        <time>2016-10-22T12:20:36Z</time>
      </trkpt>
      <trkpt lat="43.61778" lon="3.37425">
        <ele>270.9</ele>
        <time>2016-10-22T12:20:37Z</time>
      </trkpt>
      <trkpt lat="43.61776" lon="3.37414">
        <ele>270.6</ele>
        <time>2016-10-22T12:20:38Z</time>
      </trkpt>
      <trkpt lat="43.61775" lon="3.37403">
        <ele>269.9</ele>
        <time>2016-10-22T12:20:39Z</time>
      </trkpt>
      <trkpt lat="43.61775" lon="3.37391">
        <ele>269.3</ele>
        <time>2016-10-22T12:20:40Z</time>
      </trkpt>
      <trkpt lat="43.61777" lon="3.3738">
        <ele>268.6</ele>
        <time>2016-10-22T12:20:41Z</time>
      </trkpt>
      <trkpt lat="43.61777" lon="3.37367">
        <ele>268</ele>
        <time>2016-10-22T12:20:42Z</time>
      </trkpt>
      <trkpt lat="43.61779" lon="3.37354">
        <ele>267.6</ele>
        <time>2016-10-22T12:20:43Z</time>
      </trkpt>
      <trkpt lat="43.61779" lon="3.37342">
        <ele>266.8</ele>
        <time>2016-10-22T12:20:44Z</time>
      </trkpt>
      <trkpt lat="43.61779" lon="3.37328">
        <ele>266.4</ele>
        <time>2016-10-22T12:20:45Z</time>
      </trkpt>
      <trkpt lat="43.61779" lon="3.37314">
        <ele>265.8</ele>
        <time>2016-10-22T12:20:46Z</time>
      </trkpt>
      <trkpt lat="43.61777" lon="3.37299">
        <ele>264.9</ele>
        <time>2016-10-22T12:20:47Z</time>
      </trkpt>
      <trkpt lat="43.61774" lon="3.37286">
        <ele>263.8</ele>
        <time>2016-10-22T12:20:48Z</time>
      </trkpt>
      <trkpt lat="43.6177" lon="3.37272">
        <ele>262.9</ele>
        <time>2016-10-22T12:20:49Z</time>
      </trkpt>
      <trkpt lat="43.61767" lon="3.37259">
        <ele>262.3</ele>
        <time>2016-10-22T12:20:50Z</time>
      </trkpt>
      <trkpt lat="43.61764" lon="3.37247">
        <ele>262.1</ele>
        <time>2016-10-22T12:20:51Z</time>
      </trkpt>
      <trkpt lat="43.61763" lon="3.37234">
        <ele>262</ele>
        <time>2016-10-22T12:20:52Z</time>
      </trkpt>
      <trkpt lat="43.61762" lon="3.37223">
        <ele>262</ele>
        <time>2016-10-22T12:20:53Z</time>
      </trkpt>
      <trkpt lat="43.61761" lon="3.37213">
        <ele>261.8</ele>
        <time>2016-10-22T12:20:54Z</time>
      </trkpt>
      <trkpt lat="43.6176" lon="3.37203">
        <ele>261.8</ele>
        <time>2016-10-22T12:20:55Z</time>
      </trkpt>
      <trkpt lat="43.61756" lon="3.37193">
        <ele>261.3</ele>
        <time>2016-10-22T12:20:56Z</time>
      </trkpt>
      <trkpt lat="43.61748" lon="3.37177">
        <ele>261.1</ele>
        <time>2016-10-22T12:20:58Z</time>
      </trkpt>
      <trkpt lat="43.61745" lon="3.37167">
        <ele>260.9</ele>
        <time>2016-10-22T12:20:59Z</time>
      </trkpt>
      <trkpt lat="43.61743" lon="3.37156">
        <ele>260.7</ele>
        <time>2016-10-22T12:21:00Z</time>
      </trkpt>
      <trkpt lat="43.61741" lon="3.37144">
        <ele>260.5</ele>
        <time>2016-10-22T12:21:01Z</time>
      </trkpt>
      <trkpt lat="43.61739" lon="3.37132">
        <ele>260.2</ele>
        <time>2016-10-22T12:21:02Z</time>
      </trkpt>
      <trkpt lat="43.61737" lon="3.37119">
        <ele>259.8</ele>
        <time>2016-10-22T12:21:03Z</time>
      </trkpt>
      <trkpt lat="43.61736" lon="3.37105">
        <ele>259.4</ele>
        <time>2016-10-22T12:21:04Z</time>
      </trkpt>
      <trkpt lat="43.61733" lon="3.37088">
        <ele>259.1</ele>
        <time>2016-10-22T12:21:05Z</time>
      </trkpt>
      <trkpt lat="43.6173" lon="3.37073">
        <ele>258.5</ele>
        <time>2016-10-22T12:21:06Z</time>
      </trkpt>
      <trkpt lat="43.61726" lon="3.37057">
        <ele>257.6</ele>
        <time>2016-10-22T12:21:07Z</time>
      </trkpt>
      <trkpt lat="43.61723" lon="3.37045">
        <ele>256.4</ele>
        <time>2016-10-22T12:21:08Z</time>
      </trkpt>
      <trkpt lat="43.6172" lon="3.37029">
        <ele>254.6</ele>
        <time>2016-10-22T12:21:09Z</time>
      </trkpt>
      <trkpt lat="43.61717" lon="3.37012">
        <ele>252.8</ele>
        <time>2016-10-22T12:21:10Z</time>
      </trkpt>
      <trkpt lat="43.61715" lon="3.36996">
        <ele>250.9</ele>
        <time>2016-10-22T12:21:11Z</time>
      </trkpt>
      <trkpt lat="43.61712" lon="3.3698">
        <ele>249.6</ele>
        <time>2016-10-22T12:21:12Z</time>
      </trkpt>
      <trkpt lat="43.6171" lon="3.36964">
        <ele>248.3</ele>
        <time>2016-10-22T12:21:13Z</time>
      </trkpt>
      <trkpt lat="43.61708" lon="3.3695">
        <ele>247.1</ele>
        <time>2016-10-22T12:21:14Z</time>
      </trkpt>
      <trkpt lat="43.61707" lon="3.36936">
        <ele>246.2</ele>
        <time>2016-10-22T12:21:15Z</time>
      </trkpt>
      <trkpt lat="43.61705" lon="3.36921">
        <ele>245.3</ele>
        <time>2016-10-22T12:21:16Z</time>
      </trkpt>
      <trkpt lat="43.61703" lon="3.36907">
        <ele>244.5</ele>
        <time>2016-10-22T12:21:17Z</time>
      </trkpt>
      <trkpt lat="43.61701" lon="3.36893">
        <ele>243.7</ele>
        <time>2016-10-22T12:21:18Z</time>
      </trkpt>
      <trkpt lat="43.61698" lon="3.3688">
        <ele>242.7</ele>
        <time>2016-10-22T12:21:19Z</time>
      </trkpt>
      <trkpt lat="43.61696" lon="3.36868">
        <ele>241.6</ele>
        <time>2016-10-22T12:21:20Z</time>
      </trkpt>
      <trkpt lat="43.61694" lon="3.36854">
        <ele>240.6</ele>
        <time>2016-10-22T12:21:21Z</time>
      </trkpt>
      <trkpt lat="43.61693" lon="3.36841">
        <ele>239.8</ele>
        <time>2016-10-22T12:21:22Z</time>
      </trkpt>
      <trkpt lat="43.61693" lon="3.36828">
        <ele>239.1</ele>
        <time>2016-10-22T12:21:23Z</time>
      </trkpt>
      <trkpt lat="43.61692" lon="3.36815">
        <ele>238.4</ele>
        <time>2016-10-22T12:21:24Z</time>
      </trkpt>
      <trkpt lat="43.61692" lon="3.368">
        <ele>237.9</ele>
        <time>2016-10-22T12:21:25Z</time>
      </trkpt>
      <trkpt lat="43.61693" lon="3.36787">
        <ele>237.2</ele>
        <time>2016-10-22T12:21:26Z</time>
      </trkpt>
      <trkpt lat="43.61693" lon="3.36775">
        <ele>236.5</ele>
        <time>2016-10-22T12:21:27Z</time>
      </trkpt>
      <trkpt lat="43.61694" lon="3.36762">
        <ele>235.7</ele>
        <time>2016-10-22T12:21:28Z</time>
      </trkpt>
      <trkpt lat="43.61694" lon="3.36752">
        <ele>235.2</ele>
        <time>2016-10-22T12:21:29Z</time>
      </trkpt>
      <trkpt lat="43.61694" lon="3.3674">
        <ele>235.2</ele>
        <time>2016-10-22T12:21:30Z</time>
      </trkpt>
      <trkpt lat="43.61691" lon="3.36726">
        <ele>235.2</ele>
        <time>2016-10-22T12:21:31Z</time>
      </trkpt>
      <trkpt lat="43.61689" lon="3.36714">
        <ele>235.1</ele>
        <time>2016-10-22T12:21:32Z</time>
      </trkpt>
      <trkpt lat="43.61685" lon="3.36703">
        <ele>235.3</ele>
        <time>2016-10-22T12:21:33Z</time>
      </trkpt>
      <trkpt lat="43.61681" lon="3.36694">
        <ele>235.1</ele>
        <time>2016-10-22T12:21:34Z</time>
      </trkpt>
      <trkpt lat="43.61675" lon="3.36687">
        <ele>235.4</ele>
        <time>2016-10-22T12:21:35Z</time>
      </trkpt>
      <trkpt lat="43.61666" lon="3.3668">
        <ele>235.7</ele>
        <time>2016-10-22T12:21:37Z</time>
      </trkpt>
      <trkpt lat="43.61659" lon="3.3667">
        <ele>235.6</ele>
        <time>2016-10-22T12:21:39Z</time>
      </trkpt>
      <trkpt lat="43.61658" lon="3.36659">
        <ele>235.6</ele>
        <time>2016-10-22T12:21:42Z</time>
      </trkpt>
      <trkpt lat="43.6166" lon="3.36649">
        <ele>235.7</ele>
        <time>2016-10-22T12:21:45Z</time>
      </trkpt>
      <trkpt lat="43.61663" lon="3.36636">
        <ele>235.6</ele>
        <time>2016-10-22T12:21:48Z</time>
      </trkpt>
      <trkpt lat="43.61667" lon="3.36624">
        <ele>235.6</ele>
        <time>2016-10-22T12:21:51Z</time>
      </trkpt>
      <trkpt lat="43.61671" lon="3.36611">
        <ele>235.5</ele>
        <time>2016-10-22T12:21:54Z</time>
      </trkpt>
      <trkpt lat="43.61675" lon="3.366">
        <ele>235.4</ele>
        <time>2016-10-22T12:21:57Z</time>
      </trkpt>
      <trkpt lat="43.61679" lon="3.36589">
        <ele>235.4</ele>
        <time>2016-10-22T12:22:00Z</time>
      </trkpt>
      <trkpt lat="43.61683" lon="3.36576">
        <ele>235.4</ele>
        <time>2016-10-22T12:22:03Z</time>
      </trkpt>
      <trkpt lat="43.61687" lon="3.36564">
        <ele>235.5</ele>
        <time>2016-10-22T12:22:06Z</time>
      </trkpt>
      <trkpt lat="43.61691" lon="3.36552">
        <ele>235.6</ele>
        <time>2016-10-22T12:22:09Z</time>
      </trkpt>
      <trkpt lat="43.61693" lon="3.36542">
        <ele>235.7</ele>
        <time>2016-10-22T12:22:12Z</time>
      </trkpt>
      <trkpt lat="43.61695" lon="3.36528">
        <ele>235.9</ele>
        <time>2016-10-22T12:22:15Z</time>
      </trkpt>
      <trkpt lat="43.61696" lon="3.36518">
        <ele>236</ele>
        <time>2016-10-22T12:22:17Z</time>
      </trkpt>
      <trkpt lat="43.61698" lon="3.36504">
        <ele>236.1</ele>
        <time>2016-10-22T12:22:20Z</time>
      </trkpt>
      <trkpt lat="43.61699" lon="3.3649">
        <ele>236.5</ele>
        <time>2016-10-22T12:22:23Z</time>
      </trkpt>
      <trkpt lat="43.617" lon="3.36479">
        <ele>236.7</ele>
        <time>2016-10-22T12:22:26Z</time>
      </trkpt>
      <trkpt lat="43.61701" lon="3.36468">
        <ele>236.7</ele>
        <time>2016-10-22T12:22:28Z</time>
      </trkpt>
      <trkpt lat="43.61703" lon="3.36458">
        <ele>236.9</ele>
        <time>2016-10-22T12:22:30Z</time>
      </trkpt>
      <trkpt lat="43.61704" lon="3.36448">
        <ele>237.1</ele>
        <time>2016-10-22T12:22:32Z</time>
      </trkpt>
      <trkpt lat="43.61705" lon="3.36436">
        <ele>237.2</ele>
        <time>2016-10-22T12:22:35Z</time>
      </trkpt>
      <trkpt lat="43.61706" lon="3.36424">
        <ele>237.4</ele>
        <time>2016-10-22T12:22:38Z</time>
      </trkpt>
      <trkpt lat="43.61705" lon="3.3641">
        <ele>237.6</ele>
        <time>2016-10-22T12:22:41Z</time>
      </trkpt>
      <trkpt lat="43.61703" lon="3.36399">
        <ele>237.8</ele>
        <time>2016-10-22T12:22:43Z</time>
      </trkpt>
      <trkpt lat="43.61701" lon="3.36385">
        <ele>238.1</ele>
        <time>2016-10-22T12:22:46Z</time>
      </trkpt>
      <trkpt lat="43.617" lon="3.36372">
        <ele>238.3</ele>
        <time>2016-10-22T12:22:49Z</time>
      </trkpt>
      <trkpt lat="43.61698" lon="3.36358">
        <ele>238.7</ele>
        <time>2016-10-22T12:22:52Z</time>
      </trkpt>
      <trkpt lat="43.617" lon="3.36342">
        <ele>239.1</ele>
        <time>2016-10-22T12:22:55Z</time>
      </trkpt>
      <trkpt lat="43.61703" lon="3.36332">
        <ele>240.4</ele>
        <time>2016-10-22T12:22:57Z</time>
      </trkpt>
      <trkpt lat="43.61708" lon="3.36322">
        <ele>240.6</ele>
        <time>2016-10-22T12:22:59Z</time>
      </trkpt>
      <trkpt lat="43.61713" lon="3.36314">
        <ele>241.5</ele>
        <time>2016-10-22T12:23:01Z</time>
      </trkpt>
      <trkpt lat="43.61718" lon="3.36307">
        <ele>242.4</ele>
        <time>2016-10-22T12:23:03Z</time>
      </trkpt>
      <trkpt lat="43.61724" lon="3.363">
        <ele>243.7</ele>
        <time>2016-10-22T12:23:05Z</time>
      </trkpt>
      <trkpt lat="43.61729" lon="3.36292">
        <ele>244.2</ele>
        <time>2016-10-22T12:23:07Z</time>
      </trkpt>
      <trkpt lat="43.61734" lon="3.36283">
        <ele>244.1</ele>
        <time>2016-10-22T12:23:09Z</time>
      </trkpt>
      <trkpt lat="43.61738" lon="3.36269">
        <ele>243.9</ele>
        <time>2016-10-22T12:23:12Z</time>
      </trkpt>
      <trkpt lat="43.61739" lon="3.36257">
        <ele>243.9</ele>
        <time>2016-10-22T12:23:14Z</time>
      </trkpt>
      <trkpt lat="43.61739" lon="3.36243">
        <ele>244</ele>
        <time>2016-10-22T12:23:17Z</time>
      </trkpt>
      <trkpt lat="43.61739" lon="3.36233">
        <ele>244.2</ele>
        <time>2016-10-22T12:23:19Z</time>
      </trkpt>
      <trkpt lat="43.61737" lon="3.36219">
        <ele>244.5</ele>
        <time>2016-10-22T12:23:22Z</time>
      </trkpt>
      <trkpt lat="43.61734" lon="3.36206">
        <ele>244.8</ele>
        <time>2016-10-22T12:23:25Z</time>
      </trkpt>
      <trkpt lat="43.61732" lon="3.36193">
        <ele>245.1</ele>
        <time>2016-10-22T12:23:28Z</time>
      </trkpt>
      <trkpt lat="43.61729" lon="3.36181">
        <ele>245.4</ele>
        <time>2016-10-22T12:23:31Z</time>
      </trkpt>
      <trkpt lat="43.61727" lon="3.36169">
        <ele>245.5</ele>
        <time>2016-10-22T12:23:34Z</time>
      </trkpt>
      <trkpt lat="43.61726" lon="3.36155">
        <ele>245.7</ele>
        <time>2016-10-22T12:23:37Z</time>
      </trkpt>
      <trkpt lat="43.61726" lon="3.36141">
        <ele>245.8</ele>
        <time>2016-10-22T12:23:40Z</time>
      </trkpt>
      <trkpt lat="43.61727" lon="3.3613">
        <ele>246</ele>
        <time>2016-10-22T12:23:43Z</time>
      </trkpt>
      <trkpt lat="43.61731" lon="3.36117">
        <ele>246.3</ele>
        <time>2016-10-22T12:23:46Z</time>
      </trkpt>
      <trkpt lat="43.61733" lon="3.36105">
        <ele>246.5</ele>
        <time>2016-10-22T12:23:49Z</time>
      </trkpt>
      <trkpt lat="43.61735" lon="3.36095">
        <ele>246.6</ele>
        <time>2016-10-22T12:23:51Z</time>
      </trkpt>
      <trkpt lat="43.61737" lon="3.36081">
        <ele>246.7</ele>
        <time>2016-10-22T12:23:54Z</time>
      </trkpt>
      <trkpt lat="43.61739" lon="3.36069">
        <ele>246.9</ele>
        <time>2016-10-22T12:23:57Z</time>
      </trkpt>
      <trkpt lat="43.61742" lon="3.36058">
        <ele>247.1</ele>
        <time>2016-10-22T12:24:00Z</time>
      </trkpt>
      <trkpt lat="43.61746" lon="3.36045">
        <ele>247.4</ele>
        <time>2016-10-22T12:24:03Z</time>
      </trkpt>
      <trkpt lat="43.61748" lon="3.36034">
        <ele>247.8</ele>
        <time>2016-10-22T12:24:06Z</time>
      </trkpt>
      <trkpt lat="43.61751" lon="3.3602">
        <ele>248.2</ele>
        <time>2016-10-22T12:24:09Z</time>
      </trkpt>
      <trkpt lat="43.61754" lon="3.36006">
        <ele>248.5</ele>
        <time>2016-10-22T12:24:12Z</time>
      </trkpt>
      <trkpt lat="43.61758" lon="3.35993">
        <ele>249</ele>
        <time>2016-10-22T12:24:15Z</time>
      </trkpt>
      <trkpt lat="43.6176" lon="3.35983">
        <ele>249.5</ele>
        <time>2016-10-22T12:24:18Z</time>
      </trkpt>
      <trkpt lat="43.61763" lon="3.35971">
        <ele>249.9</ele>
        <time>2016-10-22T12:24:21Z</time>
      </trkpt>
      <trkpt lat="43.61765" lon="3.35961">
        <ele>250.1</ele>
        <time>2016-10-22T12:24:23Z</time>
      </trkpt>
      <trkpt lat="43.61769" lon="3.3595">
        <ele>250.5</ele>
        <time>2016-10-22T12:24:26Z</time>
      </trkpt>
      <trkpt lat="43.61772" lon="3.35939">
        <ele>250.8</ele>
        <time>2016-10-22T12:24:29Z</time>
      </trkpt>
      <trkpt lat="43.61776" lon="3.35927">
        <ele>251.2</ele>
        <time>2016-10-22T12:24:32Z</time>
      </trkpt>
      <trkpt lat="43.61779" lon="3.35915">
        <ele>251.6</ele>
        <time>2016-10-22T12:24:35Z</time>
      </trkpt>
      <trkpt lat="43.61783" lon="3.35903">
        <ele>251.9</ele>
        <time>2016-10-22T12:24:38Z</time>
      </trkpt>
      <trkpt lat="43.61785" lon="3.35892">
        <ele>252.3</ele>
        <time>2016-10-22T12:24:41Z</time>
      </trkpt>
      <trkpt lat="43.61789" lon="3.35879">
        <ele>252.8</ele>
        <time>2016-10-22T12:24:44Z</time>
      </trkpt>
      <trkpt lat="43.61791" lon="3.35869">
        <ele>253.2</ele>
        <time>2016-10-22T12:24:47Z</time>
      </trkpt>
      <trkpt lat="43.61795" lon="3.35858">
        <ele>253.8</ele>
        <time>2016-10-22T12:24:50Z</time>
      </trkpt>
      <trkpt lat="43.61798" lon="3.35848">
        <ele>254</ele>
        <time>2016-10-22T12:24:52Z</time>
      </trkpt>
      <trkpt lat="43.61801" lon="3.35838">
        <ele>254.2</ele>
        <time>2016-10-22T12:24:54Z</time>
      </trkpt>
      <trkpt lat="43.61805" lon="3.35826">
        <ele>254.5</ele>
        <time>2016-10-22T12:24:57Z</time>
      </trkpt>
      <trkpt lat="43.6181" lon="3.35813">
        <ele>254.8</ele>
        <time>2016-10-22T12:25:00Z</time>
      </trkpt>
      <trkpt lat="43.61812" lon="3.35803">
        <ele>256.1</ele>
        <time>2016-10-22T12:25:03Z</time>
      </trkpt>
      <trkpt lat="43.61815" lon="3.35792">
        <ele>256.3</ele>
        <time>2016-10-22T12:25:06Z</time>
      </trkpt>
      <trkpt lat="43.6182" lon="3.35781">
        <ele>256.3</ele>
        <time>2016-10-22T12:25:09Z</time>
      </trkpt>
      <trkpt lat="43.61824" lon="3.35773">
        <ele>256.3</ele>
        <time>2016-10-22T12:25:11Z</time>
      </trkpt>
      <trkpt lat="43.61828" lon="3.35763">
        <ele>256.3</ele>
        <time>2016-10-22T12:25:13Z</time>
      </trkpt>
      <trkpt lat="43.61831" lon="3.35753">
        <ele>256.8</ele>
        <time>2016-10-22T12:25:16Z</time>
      </trkpt>
      <trkpt lat="43.61834" lon="3.35742">
        <ele>257.2</ele>
        <time>2016-10-22T12:25:19Z</time>
      </trkpt>
      <trkpt lat="43.61837" lon="3.3573">
        <ele>257.3</ele>
        <time>2016-10-22T12:25:22Z</time>
      </trkpt>
      <trkpt lat="43.6184" lon="3.35718">
        <ele>257.6</ele>
        <time>2016-10-22T12:25:25Z</time>
      </trkpt>
      <trkpt lat="43.61844" lon="3.35707">
        <ele>258.1</ele>
        <time>2016-10-22T12:25:29Z</time>
      </trkpt>
      <trkpt lat="43.61847" lon="3.35698">
        <ele>258.5</ele>
        <time>2016-10-22T12:25:32Z</time>
      </trkpt>
      <trkpt lat="43.6185" lon="3.35688">
        <ele>258.9</ele>
        <time>2016-10-22T12:25:35Z</time>
      </trkpt>
      <trkpt lat="43.61853" lon="3.35678">
        <ele>259.5</ele>
        <time>2016-10-22T12:25:38Z</time>
      </trkpt>
      <trkpt lat="43.61855" lon="3.35665">
        <ele>262.3</ele>
        <time>2016-10-22T12:25:42Z</time>
      </trkpt>
      <trkpt lat="43.61856" lon="3.35653">
        <ele>262.8</ele>
        <time>2016-10-22T12:25:45Z</time>
      </trkpt>
      <trkpt lat="43.61857" lon="3.35642">
        <ele>264.1</ele>
        <time>2016-10-22T12:25:47Z</time>
      </trkpt>
      <trkpt lat="43.61855" lon="3.35632">
        <ele>264.3</ele>
        <time>2016-10-22T12:25:49Z</time>
      </trkpt>
      <trkpt lat="43.61851" lon="3.3562">
        <ele>266.6</ele>
        <time>2016-10-22T12:25:51Z</time>
      </trkpt>
      <trkpt lat="43.61846" lon="3.35607">
        <ele>267.1</ele>
        <time>2016-10-22T12:25:53Z</time>
      </trkpt>
      <trkpt lat="43.61841" lon="3.35593">
        <ele>267</ele>
        <time>2016-10-22T12:25:55Z</time>
      </trkpt>
      <trkpt lat="43.61837" lon="3.3558">
        <ele>266.6</ele>
        <time>2016-10-22T12:25:57Z</time>
      </trkpt>
      <trkpt lat="43.61834" lon="3.35568">
        <ele>266.2</ele>
        <time>2016-10-22T12:25:59Z</time>
      </trkpt>
      <trkpt lat="43.61836" lon="3.35558">
        <ele>265.3</ele>
        <time>2016-10-22T12:26:01Z</time>
      </trkpt>
      <trkpt lat="43.61839" lon="3.35549">
        <ele>265.2</ele>
        <time>2016-10-22T12:26:03Z</time>
      </trkpt>
      <trkpt lat="43.61843" lon="3.35539">
        <ele>265.1</ele>
        <time>2016-10-22T12:26:06Z</time>
      </trkpt>
      <trkpt lat="43.61847" lon="3.35528">
        <ele>265.2</ele>
        <time>2016-10-22T12:26:11Z</time>
      </trkpt>
      <trkpt lat="43.61851" lon="3.35518">
        <ele>265.1</ele>
        <time>2016-10-22T12:26:15Z</time>
      </trkpt>
      <trkpt lat="43.61856" lon="3.35506">
        <ele>264.9</ele>
        <time>2016-10-22T12:26:19Z</time>
      </trkpt>
      <trkpt lat="43.61859" lon="3.35494">
        <ele>265</ele>
        <time>2016-10-22T12:26:23Z</time>
      </trkpt>
      <trkpt lat="43.61862" lon="3.35484">
        <ele>265.1</ele>
        <time>2016-10-22T12:26:26Z</time>
      </trkpt>
      <trkpt lat="43.61863" lon="3.35472">
        <ele>265.1</ele>
        <time>2016-10-22T12:26:29Z</time>
      </trkpt>
      <trkpt lat="43.61862" lon="3.35459">
        <ele>265.2</ele>
        <time>2016-10-22T12:26:32Z</time>
      </trkpt>
      <trkpt lat="43.61858" lon="3.35447">
        <ele>265.4</ele>
        <time>2016-10-22T12:26:35Z</time>
      </trkpt>
      <trkpt lat="43.61852" lon="3.35435">
        <ele>265.6</ele>
        <time>2016-10-22T12:26:38Z</time>
      </trkpt>
      <trkpt lat="43.61847" lon="3.35424">
        <ele>265.8</ele>
        <time>2016-10-22T12:26:41Z</time>
      </trkpt>
      <trkpt lat="43.61843" lon="3.35413">
        <ele>266.1</ele>
        <time>2016-10-22T12:26:44Z</time>
      </trkpt>
      <trkpt lat="43.6184" lon="3.35404">
        <ele>266.2</ele>
        <time>2016-10-22T12:26:47Z</time>
      </trkpt>
      <trkpt lat="43.61837" lon="3.35392">
        <ele>266.3</ele>
        <time>2016-10-22T12:26:50Z</time>
      </trkpt>
      <trkpt lat="43.61835" lon="3.35382">
        <ele>266.4</ele>
        <time>2016-10-22T12:26:53Z</time>
      </trkpt>
      <trkpt lat="43.61833" lon="3.35371">
        <ele>266.4</ele>
        <time>2016-10-22T12:26:56Z</time>
      </trkpt>
      <trkpt lat="43.61831" lon="3.35358">
        <ele>266.5</ele>
        <time>2016-10-22T12:26:59Z</time>
      </trkpt>
      <trkpt lat="43.61831" lon="3.35345">
        <ele>266.5</ele>
        <time>2016-10-22T12:27:02Z</time>
      </trkpt>
      <trkpt lat="43.61831" lon="3.35335">
        <ele>266.6</ele>
        <time>2016-10-22T12:27:05Z</time>
      </trkpt>
      <trkpt lat="43.6183" lon="3.35324">
        <ele>266.9</ele>
        <time>2016-10-22T12:27:08Z</time>
      </trkpt>
      <trkpt lat="43.6183" lon="3.35312">
        <ele>267.2</ele>
        <time>2016-10-22T12:27:11Z</time>
      </trkpt>
      <trkpt lat="43.6183" lon="3.35299">
        <ele>267.3</ele>
        <time>2016-10-22T12:27:14Z</time>
      </trkpt>
      <trkpt lat="43.6183" lon="3.35289">
        <ele>267.4</ele>
        <time>2016-10-22T12:27:16Z</time>
      </trkpt>
      <trkpt lat="43.61828" lon="3.35278">
        <ele>267.6</ele>
        <time>2016-10-22T12:27:19Z</time>
      </trkpt>
      <trkpt lat="43.61825" lon="3.35267">
        <ele>267.9</ele>
        <time>2016-10-22T12:27:22Z</time>
      </trkpt>
      <trkpt lat="43.6182" lon="3.35256">
        <ele>268.1</ele>
        <time>2016-10-22T12:27:26Z</time>
      </trkpt>
      <trkpt lat="43.61815" lon="3.35247">
        <ele>268.5</ele>
        <time>2016-10-22T12:27:29Z</time>
      </trkpt>
      <trkpt lat="43.61812" lon="3.35239">
        <ele>268.9</ele>
        <time>2016-10-22T12:27:32Z</time>
      </trkpt>
      <trkpt lat="43.61808" lon="3.35228">
        <ele>269.2</ele>
        <time>2016-10-22T12:27:35Z</time>
      </trkpt>
      <trkpt lat="43.61804" lon="3.3522">
        <ele>269.8</ele>
        <time>2016-10-22T12:27:39Z</time>
      </trkpt>
      <trkpt lat="43.61798" lon="3.3521">
        <ele>270.6</ele>
        <time>2016-10-22T12:27:43Z</time>
      </trkpt>
      <trkpt lat="43.61792" lon="3.35203">
        <ele>271.4</ele>
        <time>2016-10-22T12:27:48Z</time>
      </trkpt>
      <trkpt lat="43.61786" lon="3.35194">
        <ele>272</ele>
        <time>2016-10-22T12:27:53Z</time>
      </trkpt>
      <trkpt lat="43.6178" lon="3.35183">
        <ele>272.6</ele>
        <time>2016-10-22T12:27:57Z</time>
      </trkpt>
      <trkpt lat="43.61774" lon="3.3517">
        <ele>273</ele>
        <time>2016-10-22T12:28:00Z</time>
      </trkpt>
      <trkpt lat="43.61772" lon="3.35161">
        <ele>274.6</ele>
        <time>2016-10-22T12:28:02Z</time>
      </trkpt>
      <trkpt lat="43.61777" lon="3.35148">
        <ele>274.8</ele>
        <time>2016-10-22T12:28:05Z</time>
      </trkpt>
      <trkpt lat="43.61785" lon="3.35146">
        <ele>274.8</ele>
        <time>2016-10-22T12:28:08Z</time>
      </trkpt>
      <trkpt lat="43.61793" lon="3.35144">
        <ele>275</ele>
        <time>2016-10-22T12:28:12Z</time>
      </trkpt>
      <trkpt lat="43.618" lon="3.35141">
        <ele>275.1</ele>
        <time>2016-10-22T12:28:16Z</time>
      </trkpt>
      <trkpt lat="43.61806" lon="3.35135">
        <ele>275.4</ele>
        <time>2016-10-22T12:28:20Z</time>
      </trkpt>
      <trkpt lat="43.61813" lon="3.35128">
        <ele>275.8</ele>
        <time>2016-10-22T12:28:25Z</time>
      </trkpt>
      <trkpt lat="43.61821" lon="3.35121">
        <ele>276.2</ele>
        <time>2016-10-22T12:28:29Z</time>
      </trkpt>
      <trkpt lat="43.61828" lon="3.35119">
        <ele>276.7</ele>
        <time>2016-10-22T12:28:32Z</time>
      </trkpt>
      <trkpt lat="43.61835" lon="3.35115">
        <ele>277.3</ele>
        <time>2016-10-22T12:28:36Z</time>
      </trkpt>
      <trkpt lat="43.61843" lon="3.35109">
        <ele>277.8</ele>
        <time>2016-10-22T12:28:40Z</time>
      </trkpt>
      <trkpt lat="43.61851" lon="3.35103">
        <ele>278.2</ele>
        <time>2016-10-22T12:28:44Z</time>
      </trkpt>
      <trkpt lat="43.61859" lon="3.35098">
        <ele>278.4</ele>
        <time>2016-10-22T12:28:47Z</time>
      </trkpt>
      <trkpt lat="43.61867" lon="3.35093">
        <ele>278.7</ele>
        <time>2016-10-22T12:28:50Z</time>
      </trkpt>
      <trkpt lat="43.61876" lon="3.35086">
        <ele>279</ele>
        <time>2016-10-22T12:28:53Z</time>
      </trkpt>
      <trkpt lat="43.61885" lon="3.35078">
        <ele>279.2</ele>
        <time>2016-10-22T12:28:56Z</time>
      </trkpt>
      <trkpt lat="43.61892" lon="3.35071">
        <ele>279.5</ele>
        <time>2016-10-22T12:28:59Z</time>
      </trkpt>
      <trkpt lat="43.61898" lon="3.35063">
        <ele>279.9</ele>
        <time>2016-10-22T12:29:02Z</time>
      </trkpt>
      <trkpt lat="43.61904" lon="3.35057">
        <ele>280.3</ele>
        <time>2016-10-22T12:29:05Z</time>
      </trkpt>
      <trkpt lat="43.6191" lon="3.3505">
        <ele>280.5</ele>
        <time>2016-10-22T12:29:08Z</time>
      </trkpt>
      <trkpt lat="43.61919" lon="3.35047">
        <ele>280.8</ele>
        <time>2016-10-22T12:29:12Z</time>
      </trkpt>
      <trkpt lat="43.61926" lon="3.35049">
        <ele>281.2</ele>
        <time>2016-10-22T12:29:15Z</time>
      </trkpt>
      <trkpt lat="43.61935" lon="3.35051">
        <ele>282.1</ele>
        <time>2016-10-22T12:29:20Z</time>
      </trkpt>
      <trkpt lat="43.61944" lon="3.35054">
        <ele>282.7</ele>
        <time>2016-10-22T12:29:24Z</time>
      </trkpt>
      <trkpt lat="43.61953" lon="3.35055">
        <ele>283.4</ele>
        <time>2016-10-22T12:29:28Z</time>
      </trkpt>
      <trkpt lat="43.61962" lon="3.35055">
        <ele>283.9</ele>
        <time>2016-10-22T12:29:32Z</time>
      </trkpt>
      <trkpt lat="43.6197" lon="3.35054">
        <ele>284.2</ele>
        <time>2016-10-22T12:29:36Z</time>
      </trkpt>
      <trkpt lat="43.61978" lon="3.35054">
        <ele>284.7</ele>
        <time>2016-10-22T12:29:41Z</time>
      </trkpt>
      <trkpt lat="43.61986" lon="3.35051">
        <ele>285.1</ele>
        <time>2016-10-22T12:29:45Z</time>
      </trkpt>
      <trkpt lat="43.61993" lon="3.35048">
        <ele>285.5</ele>
        <time>2016-10-22T12:29:48Z</time>
      </trkpt>
      <trkpt lat="43.62001" lon="3.35045">
        <ele>285.9</ele>
        <time>2016-10-22T12:29:52Z</time>
      </trkpt>
      <trkpt lat="43.62008" lon="3.35044">
        <ele>286.2</ele>
        <time>2016-10-22T12:29:56Z</time>
      </trkpt>
      <trkpt lat="43.62017" lon="3.35046">
        <ele>286.7</ele>
        <time>2016-10-22T12:30:01Z</time>
      </trkpt>
      <trkpt lat="43.62026" lon="3.35047">
        <ele>287.4</ele>
        <time>2016-10-22T12:30:06Z</time>
      </trkpt>
      <trkpt lat="43.62033" lon="3.35046">
        <ele>288</ele>
        <time>2016-10-22T12:30:10Z</time>
      </trkpt>
      <trkpt lat="43.62042" lon="3.35047">
        <ele>288.9</ele>
        <time>2016-10-22T12:30:15Z</time>
      </trkpt>
      <trkpt lat="43.62049" lon="3.35048">
        <ele>289.6</ele>
        <time>2016-10-22T12:30:19Z</time>
      </trkpt>
      <trkpt lat="43.62058" lon="3.35047">
        <ele>290.3</ele>
        <time>2016-10-22T12:30:24Z</time>
      </trkpt>
      <trkpt lat="43.62065" lon="3.35041">
        <ele>291.1</ele>
        <time>2016-10-22T12:30:29Z</time>
      </trkpt>
      <trkpt lat="43.62072" lon="3.35036">
        <ele>291.9</ele>
        <time>2016-10-22T12:30:34Z</time>
      </trkpt>
      <trkpt lat="43.62078" lon="3.35027">
        <ele>292.9</ele>
        <time>2016-10-22T12:30:39Z</time>
      </trkpt>
      <trkpt lat="43.62083" lon="3.3502">
        <ele>293.7</ele>
        <time>2016-10-22T12:30:44Z</time>
      </trkpt>
      <trkpt lat="43.62087" lon="3.35011">
        <ele>294.3</ele>
        <time>2016-10-22T12:30:48Z</time>
      </trkpt>
      <trkpt lat="43.62094" lon="3.35002">
        <ele>295</ele>
        <time>2016-10-22T12:30:53Z</time>
      </trkpt>
      <trkpt lat="43.621" lon="3.34995">
        <ele>296</ele>
        <time>2016-10-22T12:30:58Z</time>
      </trkpt>
      <trkpt lat="43.62106" lon="3.34986">
        <ele>296.6</ele>
        <time>2016-10-22T12:31:03Z</time>
      </trkpt>
      <trkpt lat="43.6211" lon="3.34976">
        <ele>297.1</ele>
        <time>2016-10-22T12:31:09Z</time>
      </trkpt>
      <trkpt lat="43.62113" lon="3.34967">
        <ele>297.8</ele>
        <time>2016-10-22T12:31:14Z</time>
      </trkpt>
      <trkpt lat="43.62117" lon="3.34957">
        <ele>298.7</ele>
        <time>2016-10-22T12:31:20Z</time>
      </trkpt>
      <trkpt lat="43.62121" lon="3.34948">
        <ele>299.6</ele>
        <time>2016-10-22T12:31:26Z</time>
      </trkpt>
      <trkpt lat="43.62125" lon="3.34939">
        <ele>300.5</ele>
        <time>2016-10-22T12:31:31Z</time>
      </trkpt>
      <trkpt lat="43.62131" lon="3.34931">
        <ele>301.2</ele>
        <time>2016-10-22T12:31:35Z</time>
      </trkpt>
      <trkpt lat="43.62137" lon="3.34923">
        <ele>302</ele>
        <time>2016-10-22T12:31:40Z</time>
      </trkpt>
      <trkpt lat="43.62144" lon="3.34917">
        <ele>302.9</ele>
        <time>2016-10-22T12:31:45Z</time>
      </trkpt>
      <trkpt lat="43.62151" lon="3.34912">
        <ele>303.6</ele>
        <time>2016-10-22T12:31:50Z</time>
      </trkpt>
      <trkpt lat="43.62158" lon="3.34905">
        <ele>304.5</ele>
        <time>2016-10-22T12:31:55Z</time>
      </trkpt>
      <trkpt lat="43.62165" lon="3.34898">
        <ele>305.5</ele>
        <time>2016-10-22T12:32:01Z</time>
      </trkpt>
      <trkpt lat="43.62172" lon="3.34892">
        <ele>306.3</ele>
        <time>2016-10-22T12:32:06Z</time>
      </trkpt>
      <trkpt lat="43.62178" lon="3.34887">
        <ele>306.8</ele>
        <time>2016-10-22T12:32:10Z</time>
      </trkpt>
      <trkpt lat="43.62185" lon="3.34885">
        <ele>307.3</ele>
        <time>2016-10-22T12:32:13Z</time>
      </trkpt>
      <trkpt lat="43.62193" lon="3.34881">
        <ele>308.2</ele>
        <time>2016-10-22T12:32:17Z</time>
      </trkpt>
      <trkpt lat="43.62201" lon="3.34877">
        <ele>309</ele>
        <time>2016-10-22T12:32:21Z</time>
      </trkpt>
      <trkpt lat="43.62207" lon="3.34871">
        <ele>309.7</ele>
        <time>2016-10-22T12:32:26Z</time>
      </trkpt>
      <trkpt lat="43.62215" lon="3.34872">
        <ele>310.3</ele>
        <time>2016-10-22T12:32:30Z</time>
      </trkpt>
      <trkpt lat="43.62221" lon="3.34875">
        <ele>310.9</ele>
        <time>2016-10-22T12:32:34Z</time>
      </trkpt>
      <trkpt lat="43.62228" lon="3.3488">
        <ele>311.6</ele>
        <time>2016-10-22T12:32:38Z</time>
      </trkpt>
      <trkpt lat="43.62233" lon="3.34887">
        <ele>312.4</ele>
        <time>2016-10-22T12:32:43Z</time>
      </trkpt>
      <trkpt lat="43.62241" lon="3.34895">
        <ele>313.2</ele>
        <time>2016-10-22T12:32:47Z</time>
      </trkpt>
      <trkpt lat="43.62248" lon="3.34901">
        <ele>314.3</ele>
        <time>2016-10-22T12:32:52Z</time>
      </trkpt>
      <trkpt lat="43.62256" lon="3.34903">
        <ele>315.3</ele>
        <time>2016-10-22T12:32:58Z</time>
      </trkpt>
      <trkpt lat="43.62264" lon="3.34902">
        <ele>316.2</ele>
        <time>2016-10-22T12:33:03Z</time>
      </trkpt>
      <trkpt lat="43.62272" lon="3.34903">
        <ele>317.1</ele>
        <time>2016-10-22T12:33:08Z</time>
      </trkpt>
      <trkpt lat="43.62279" lon="3.349">
        <ele>318</ele>
        <time>2016-10-22T12:33:13Z</time>
      </trkpt>
      <trkpt lat="43.62287" lon="3.349">
        <ele>318.9</ele>
        <time>2016-10-22T12:33:17Z</time>
      </trkpt>
      <trkpt lat="43.62294" lon="3.34898">
        <ele>319.8</ele>
        <time>2016-10-22T12:33:22Z</time>
      </trkpt>
      <trkpt lat="43.623" lon="3.3489">
        <ele>320.5</ele>
        <time>2016-10-22T12:33:28Z</time>
      </trkpt>
      <trkpt lat="43.62306" lon="3.3488">
        <ele>321</ele>
        <time>2016-10-22T12:33:33Z</time>
      </trkpt>
      <trkpt lat="43.62312" lon="3.3487">
        <ele>321.6</ele>
        <time>2016-10-22T12:33:38Z</time>
      </trkpt>
      <trkpt lat="43.62317" lon="3.34861">
        <ele>322.2</ele>
        <time>2016-10-22T12:33:43Z</time>
      </trkpt>
      <trkpt lat="43.62324" lon="3.34853">
        <ele>322.7</ele>
        <time>2016-10-22T12:33:47Z</time>
      </trkpt>
      <trkpt lat="43.62331" lon="3.34845">
        <ele>323.3</ele>
        <time>2016-10-22T12:33:51Z</time>
      </trkpt>
      <trkpt lat="43.62337" lon="3.34839">
        <ele>323.6</ele>
        <time>2016-10-22T12:33:54Z</time>
      </trkpt>
      <trkpt lat="43.62344" lon="3.34834">
        <ele>323.8</ele>
        <time>2016-10-22T12:33:58Z</time>
      </trkpt>
      <trkpt lat="43.62352" lon="3.34832">
        <ele>324.2</ele>
        <time>2016-10-22T12:34:02Z</time>
      </trkpt>
      <trkpt lat="43.6236" lon="3.3483">
        <ele>324.5</ele>
        <time>2016-10-22T12:34:05Z</time>
      </trkpt>
      <trkpt lat="43.62368" lon="3.34827">
        <ele>324.7</ele>
        <time>2016-10-22T12:34:08Z</time>
      </trkpt>
      <trkpt lat="43.62375" lon="3.3482">
        <ele>325.1</ele>
        <time>2016-10-22T12:34:12Z</time>
      </trkpt>
      <trkpt lat="43.62381" lon="3.34812">
        <ele>325.3</ele>
        <time>2016-10-22T12:34:16Z</time>
      </trkpt>
      <trkpt lat="43.62387" lon="3.34802">
        <ele>325.6</ele>
        <time>2016-10-22T12:34:20Z</time>
      </trkpt>
      <trkpt lat="43.62394" lon="3.34797">
        <ele>325.9</ele>
        <time>2016-10-22T12:34:23Z</time>
      </trkpt>
      <trkpt lat="43.62401" lon="3.34789">
        <ele>326.3</ele>
        <time>2016-10-22T12:34:27Z</time>
      </trkpt>
      <trkpt lat="43.62408" lon="3.3478">
        <ele>326.7</ele>
        <time>2016-10-22T12:34:31Z</time>
      </trkpt>
      <trkpt lat="43.62415" lon="3.34772">
        <ele>327.1</ele>
        <time>2016-10-22T12:34:35Z</time>
      </trkpt>
      <trkpt lat="43.62422" lon="3.3477">
        <ele>327.9</ele>
        <time>2016-10-22T12:34:42Z</time>
      </trkpt>
      <trkpt lat="43.62431" lon="3.34773">
        <ele>328.2</ele>
        <time>2016-10-22T12:34:45Z</time>
      </trkpt>
      <trkpt lat="43.62441" lon="3.34773">
        <ele>328.8</ele>
        <time>2016-10-22T12:34:48Z</time>
      </trkpt>
      <trkpt lat="43.62448" lon="3.34775">
        <ele>330.1</ele>
        <time>2016-10-22T12:34:50Z</time>
      </trkpt>
      <trkpt lat="43.62456" lon="3.34778">
        <ele>330.2</ele>
        <time>2016-10-22T12:34:52Z</time>
      </trkpt>
      <trkpt lat="43.62463" lon="3.34784">
        <ele>330.3</ele>
        <time>2016-10-22T12:34:54Z</time>
      </trkpt>
      <trkpt lat="43.62471" lon="3.34789">
        <ele>330.3</ele>
        <time>2016-10-22T12:34:57Z</time>
      </trkpt>
      <trkpt lat="43.62479" lon="3.34798">
        <ele>330.4</ele>
        <time>2016-10-22T12:35:00Z</time>
      </trkpt>
      <trkpt lat="43.62486" lon="3.34803">
        <ele>330.7</ele>
        <time>2016-10-22T12:35:05Z</time>
      </trkpt>
      <trkpt lat="43.62494" lon="3.34807">
        <ele>331</ele>
        <time>2016-10-22T12:35:10Z</time>
      </trkpt>
      <trkpt lat="43.62502" lon="3.34808">
        <ele>331.4</ele>
        <time>2016-10-22T12:35:14Z</time>
      </trkpt>
      <trkpt lat="43.62512" lon="3.34806">
        <ele>331.6</ele>
        <time>2016-10-22T12:35:17Z</time>
      </trkpt>
      <trkpt lat="43.62522" lon="3.34814">
        <ele>332.9</ele>
        <time>2016-10-22T12:35:20Z</time>
      </trkpt>
      <trkpt lat="43.6253" lon="3.34818">
        <ele>333.5</ele>
        <time>2016-10-22T12:35:22Z</time>
      </trkpt>
      <trkpt lat="43.62538" lon="3.34821">
        <ele>334.2</ele>
        <time>2016-10-22T12:35:24Z</time>
      </trkpt>
      <trkpt lat="43.62545" lon="3.34827">
        <ele>334.3</ele>
        <time>2016-10-22T12:35:26Z</time>
      </trkpt>
      <trkpt lat="43.62552" lon="3.34833">
        <ele>334.3</ele>
        <time>2016-10-22T12:35:29Z</time>
      </trkpt>
      <trkpt lat="43.6256" lon="3.34834">
        <ele>334.4</ele>
        <time>2016-10-22T12:35:33Z</time>
      </trkpt>
      <trkpt lat="43.62569" lon="3.34833">
        <ele>334.5</ele>
        <time>2016-10-22T12:35:37Z</time>
      </trkpt>
      <trkpt lat="43.62577" lon="3.34828">
        <ele>334.5</ele>
        <time>2016-10-22T12:35:41Z</time>
      </trkpt>
      <trkpt lat="43.62585" lon="3.34824">
        <ele>334.4</ele>
        <time>2016-10-22T12:35:44Z</time>
      </trkpt>
      <trkpt lat="43.62593" lon="3.34825">
        <ele>334.5</ele>
        <time>2016-10-22T12:35:47Z</time>
      </trkpt>
      <trkpt lat="43.62601" lon="3.34832">
        <ele>334.5</ele>
        <time>2016-10-22T12:35:50Z</time>
      </trkpt>
      <trkpt lat="43.62605" lon="3.34841">
        <ele>334.7</ele>
        <time>2016-10-22T12:35:53Z</time>
      </trkpt>
      <trkpt lat="43.62605" lon="3.34852">
        <ele>335.1</ele>
        <time>2016-10-22T12:35:58Z</time>
      </trkpt>
      <trkpt lat="43.62607" lon="3.34862">
        <ele>335.4</ele>
        <time>2016-10-22T12:36:03Z</time>
      </trkpt>
      <trkpt lat="43.62608" lon="3.34873">
        <ele>335.9</ele>
        <time>2016-10-22T12:36:08Z</time>
      </trkpt>
      <trkpt lat="43.62611" lon="3.34888">
        <ele>336.1</ele>
        <time>2016-10-22T12:36:12Z</time>
      </trkpt>
      <trkpt lat="43.62614" lon="3.34897">
        <ele>337</ele>
        <time>2016-10-22T12:36:14Z</time>
      </trkpt>
      <trkpt lat="43.62622" lon="3.34907">
        <ele>337.3</ele>
        <time>2016-10-22T12:36:16Z</time>
      </trkpt>
      <trkpt lat="43.62629" lon="3.34915">
        <ele>336.7</ele>
        <time>2016-10-22T12:36:18Z</time>
      </trkpt>
      <trkpt lat="43.62635" lon="3.34926">
        <ele>336.6</ele>
        <time>2016-10-22T12:36:20Z</time>
      </trkpt>
      <trkpt lat="43.62642" lon="3.34936">
        <ele>336.1</ele>
        <time>2016-10-22T12:36:22Z</time>
      </trkpt>
      <trkpt lat="43.62649" lon="3.34942">
        <ele>336</ele>
        <time>2016-10-22T12:36:24Z</time>
      </trkpt>
      <trkpt lat="43.62657" lon="3.34948">
        <ele>336</ele>
        <time>2016-10-22T12:36:28Z</time>
      </trkpt>
      <trkpt lat="43.62666" lon="3.34952">
        <ele>336.1</ele>
        <time>2016-10-22T12:36:32Z</time>
      </trkpt>
      <trkpt lat="43.62674" lon="3.34956">
        <ele>336.1</ele>
        <time>2016-10-22T12:36:35Z</time>
      </trkpt>
      <trkpt lat="43.62682" lon="3.34963">
        <ele>336</ele>
        <time>2016-10-22T12:36:38Z</time>
      </trkpt>
      <trkpt lat="43.6269" lon="3.34967">
        <ele>336.1</ele>
        <time>2016-10-22T12:36:41Z</time>
      </trkpt>
      <trkpt lat="43.627" lon="3.34967">
        <ele>336.1</ele>
        <time>2016-10-22T12:36:44Z</time>
      </trkpt>
      <trkpt lat="43.62708" lon="3.34967">
        <ele>335.7</ele>
        <time>2016-10-22T12:36:46Z</time>
      </trkpt>
      <trkpt lat="43.62719" lon="3.34966">
        <ele>335.6</ele>
        <time>2016-10-22T12:36:49Z</time>
      </trkpt>
      <trkpt lat="43.62728" lon="3.34965">
        <ele>335.6</ele>
        <time>2016-10-22T12:36:52Z</time>
      </trkpt>
      <trkpt lat="43.62736" lon="3.34969">
        <ele>335.6</ele>
        <time>2016-10-22T12:36:56Z</time>
      </trkpt>
      <trkpt lat="43.62742" lon="3.34976">
        <ele>335.8</ele>
        <time>2016-10-22T12:37:00Z</time>
      </trkpt>
      <trkpt lat="43.62749" lon="3.34982">
        <ele>336.1</ele>
        <time>2016-10-22T12:37:05Z</time>
      </trkpt>
      <trkpt lat="43.62756" lon="3.34986">
        <ele>336.5</ele>
        <time>2016-10-22T12:37:11Z</time>
      </trkpt>
      <trkpt lat="43.62763" lon="3.3499">
        <ele>336.7</ele>
        <time>2016-10-22T12:37:15Z</time>
      </trkpt>
      <trkpt lat="43.6277" lon="3.34992">
        <ele>337</ele>
        <time>2016-10-22T12:37:20Z</time>
      </trkpt>
      <trkpt lat="43.62777" lon="3.34993">
        <ele>337.2</ele>
        <time>2016-10-22T12:37:24Z</time>
      </trkpt>
      <trkpt lat="43.62786" lon="3.34994">
        <ele>337.6</ele>
        <time>2016-10-22T12:37:30Z</time>
      </trkpt>
      <trkpt lat="43.62794" lon="3.34994">
        <ele>338.1</ele>
        <time>2016-10-22T12:37:34Z</time>
      </trkpt>
      <trkpt lat="43.62802" lon="3.34996">
        <ele>338.2</ele>
        <time>2016-10-22T12:37:37Z</time>
      </trkpt>
      <trkpt lat="43.62812" lon="3.34998">
        <ele>338.5</ele>
        <time>2016-10-22T12:37:41Z</time>
      </trkpt>
      <trkpt lat="43.62819" lon="3.35002">
        <ele>338.8</ele>
        <time>2016-10-22T12:37:45Z</time>
      </trkpt>
      <trkpt lat="43.62828" lon="3.35003">
        <ele>339.4</ele>
        <time>2016-10-22T12:37:49Z</time>
      </trkpt>
      <trkpt lat="43.62837" lon="3.35003">
        <ele>339.9</ele>
        <time>2016-10-22T12:37:53Z</time>
      </trkpt>
      <trkpt lat="43.62846" lon="3.35004">
        <ele>340.5</ele>
        <time>2016-10-22T12:37:58Z</time>
      </trkpt>
      <trkpt lat="43.62853" lon="3.35">
        <ele>341.2</ele>
        <time>2016-10-22T12:38:03Z</time>
      </trkpt>
      <trkpt lat="43.6286" lon="3.34997">
        <ele>341.5</ele>
        <time>2016-10-22T12:38:06Z</time>
      </trkpt>
      <trkpt lat="43.62866" lon="3.34996">
        <ele>342.1</ele>
        <time>2016-10-22T12:38:13Z</time>
      </trkpt>
      <trkpt lat="43.62873" lon="3.34998">
        <ele>342.8</ele>
        <time>2016-10-22T12:38:18Z</time>
      </trkpt>
      <trkpt lat="43.62881" lon="3.35002">
        <ele>343.5</ele>
        <time>2016-10-22T12:38:23Z</time>
      </trkpt>
      <trkpt lat="43.62888" lon="3.35008">
        <ele>344.3</ele>
        <time>2016-10-22T12:38:29Z</time>
      </trkpt>
      <trkpt lat="43.62892" lon="3.35018">
        <ele>345.5</ele>
        <time>2016-10-22T12:38:35Z</time>
      </trkpt>
      <trkpt lat="43.6289" lon="3.35029">
        <ele>346.3</ele>
        <time>2016-10-22T12:38:41Z</time>
      </trkpt>
      <trkpt lat="43.62888" lon="3.35042">
        <ele>346.9</ele>
        <time>2016-10-22T12:38:46Z</time>
      </trkpt>
      <trkpt lat="43.62887" lon="3.35052">
        <ele>347.4</ele>
        <time>2016-10-22T12:38:50Z</time>
      </trkpt>
      <trkpt lat="43.62887" lon="3.35064">
        <ele>347.9</ele>
        <time>2016-10-22T12:38:54Z</time>
      </trkpt>
      <trkpt lat="43.62887" lon="3.35076">
        <ele>348.7</ele>
        <time>2016-10-22T12:39:00Z</time>
      </trkpt>
      <trkpt lat="43.62887" lon="3.35086">
        <ele>349.2</ele>
        <time>2016-10-22T12:39:04Z</time>
      </trkpt>
      <trkpt lat="43.62881" lon="3.35091">
        <ele>350.2</ele>
        <time>2016-10-22T12:39:11Z</time>
      </trkpt>
      <trkpt lat="43.62878" lon="3.35093">
        <ele>351.2</ele>
        <time>2016-10-22T12:39:18Z</time>
      </trkpt>
      <trkpt lat="43.62879" lon="3.35099">
        <ele>351.6</ele>
        <time>2016-10-22T12:39:25Z</time>
      </trkpt>
      <trkpt lat="43.62879" lon="3.35111">
        <ele>352.1</ele>
        <time>2016-10-22T12:39:38Z</time>
      </trkpt>
      <trkpt lat="43.6288" lon="3.35124">
        <ele>352.4</ele>
        <time>2016-10-22T12:39:42Z</time>
      </trkpt>
      <trkpt lat="43.62883" lon="3.35128">
        <ele>353</ele>
        <time>2016-10-22T12:39:49Z</time>
      </trkpt>
      <trkpt lat="43.62885" lon="3.35137">
        <ele>353.6</ele>
        <time>2016-10-22T12:39:56Z</time>
      </trkpt>
      <trkpt lat="43.62887" lon="3.35146">
        <ele>354.2</ele>
        <time>2016-10-22T12:40:03Z</time>
      </trkpt>
      <trkpt lat="43.62889" lon="3.35153">
        <ele>355</ele>
        <time>2016-10-22T12:40:10Z</time>
      </trkpt>
      <trkpt lat="43.62891" lon="3.35161">
        <ele>355.6</ele>
        <time>2016-10-22T12:40:17Z</time>
      </trkpt>
      <trkpt lat="43.62895" lon="3.35168">
        <ele>356.7</ele>
        <time>2016-10-22T12:40:24Z</time>
      </trkpt>
      <trkpt lat="43.62899" lon="3.35175">
        <ele>357.3</ele>
        <time>2016-10-22T12:40:31Z</time>
      </trkpt>
      <trkpt lat="43.62904" lon="3.35184">
        <ele>358</ele>
        <time>2016-10-22T12:40:38Z</time>
      </trkpt>
      <trkpt lat="43.62908" lon="3.35186">
        <ele>359.1</ele>
        <time>2016-10-22T12:40:45Z</time>
      </trkpt>
      <trkpt lat="43.62912" lon="3.35188">
        <ele>360.2</ele>
        <time>2016-10-22T12:40:52Z</time>
      </trkpt>
      <trkpt lat="43.62918" lon="3.35188">
        <ele>361.4</ele>
        <time>2016-10-22T12:40:59Z</time>
      </trkpt>
      <trkpt lat="43.62925" lon="3.35186">
        <ele>362.3</ele>
        <time>2016-10-22T12:41:06Z</time>
      </trkpt>
      <trkpt lat="43.62931" lon="3.35186">
        <ele>363.2</ele>
        <time>2016-10-22T12:41:13Z</time>
      </trkpt>
      <trkpt lat="43.62937" lon="3.35183">
        <ele>364.1</ele>
        <time>2016-10-22T12:41:20Z</time>
      </trkpt>
      <trkpt lat="43.62941" lon="3.35183">
        <ele>365.1</ele>
        <time>2016-10-22T12:41:27Z</time>
      </trkpt>
      <trkpt lat="43.62943" lon="3.35183">
        <ele>365.9</ele>
        <time>2016-10-22T12:41:34Z</time>
      </trkpt>
      <trkpt lat="43.62947" lon="3.35181">
        <ele>367.4</ele>
        <time>2016-10-22T12:41:42Z</time>
      </trkpt>
      <trkpt lat="43.62954" lon="3.35179">
        <ele>368.6</ele>
        <time>2016-10-22T12:41:49Z</time>
      </trkpt>
      <trkpt lat="43.62956" lon="3.35183">
        <ele>368.8</ele>
        <time>2016-10-22T12:41:56Z</time>
      </trkpt>
      <trkpt lat="43.62958" lon="3.35186">
        <ele>369</ele>
        <time>2016-10-22T12:42:03Z</time>
      </trkpt>
      <trkpt lat="43.62965" lon="3.35191">
        <ele>369.6</ele>
        <time>2016-10-22T12:42:09Z</time>
      </trkpt>
      <trkpt lat="43.62972" lon="3.35197">
        <ele>370.1</ele>
        <time>2016-10-22T12:42:13Z</time>
      </trkpt>
      <trkpt lat="43.6298" lon="3.352">
        <ele>371.1</ele>
        <time>2016-10-22T12:42:19Z</time>
      </trkpt>
      <trkpt lat="43.62984" lon="3.35202">
        <ele>372.1</ele>
        <time>2016-10-22T12:42:26Z</time>
      </trkpt>
      <trkpt lat="43.62989" lon="3.35208">
        <ele>373</ele>
        <time>2016-10-22T12:42:33Z</time>
      </trkpt>
      <trkpt lat="43.62994" lon="3.35213">
        <ele>373.6</ele>
        <time>2016-10-22T12:42:40Z</time>
      </trkpt>
      <trkpt lat="43.63" lon="3.35216">
        <ele>374.4</ele>
        <time>2016-10-22T12:42:47Z</time>
      </trkpt>
      <trkpt lat="43.63003" lon="3.3522">
        <ele>375.5</ele>
        <time>2016-10-22T12:42:54Z</time>
      </trkpt>
      <trkpt lat="43.63007" lon="3.35224">
        <ele>376.3</ele>
        <time>2016-10-22T12:43:01Z</time>
      </trkpt>
      <trkpt lat="43.63012" lon="3.35227">
        <ele>377</ele>
        <time>2016-10-22T12:43:08Z</time>
      </trkpt>
      <trkpt lat="43.63014" lon="3.35232">
        <ele>377.8</ele>
        <time>2016-10-22T12:43:15Z</time>
      </trkpt>
      <trkpt lat="43.63018" lon="3.35234">
        <ele>378.5</ele>
        <time>2016-10-22T12:43:22Z</time>
      </trkpt>
      <trkpt lat="43.63022" lon="3.3524">
        <ele>378.9</ele>
        <time>2016-10-22T12:43:29Z</time>
      </trkpt>
      <trkpt lat="43.63024" lon="3.35245">
        <ele>379.5</ele>
        <time>2016-10-22T12:43:36Z</time>
      </trkpt>
      <trkpt lat="43.63027" lon="3.35247">
        <ele>380.8</ele>
        <time>2016-10-22T12:43:43Z</time>
      </trkpt>
      <trkpt lat="43.63027" lon="3.3525">
        <ele>382.2</ele>
        <time>2016-10-22T12:43:50Z</time>
      </trkpt>
      <trkpt lat="43.63032" lon="3.35254">
        <ele>383.3</ele>
        <time>2016-10-22T12:43:57Z</time>
      </trkpt>
      <trkpt lat="43.63038" lon="3.35254">
        <ele>384.3</ele>
        <time>2016-10-22T12:44:04Z</time>
      </trkpt>
      <trkpt lat="43.63042" lon="3.35253">
        <ele>385.7</ele>
        <time>2016-10-22T12:44:11Z</time>
      </trkpt>
      <trkpt lat="43.63047" lon="3.35254">
        <ele>387</ele>
        <time>2016-10-22T12:44:18Z</time>
      </trkpt>
      <trkpt lat="43.63051" lon="3.35263">
        <ele>387.7</ele>
        <time>2016-10-22T12:44:24Z</time>
      </trkpt>
      <trkpt lat="43.63053" lon="3.3527">
        <ele>388.6</ele>
        <time>2016-10-22T12:44:31Z</time>
      </trkpt>
      <trkpt lat="43.63053" lon="3.35273">
        <ele>389.8</ele>
        <time>2016-10-22T12:44:38Z</time>
      </trkpt>
      <trkpt lat="43.63053" lon="3.35284">
        <ele>390.6</ele>
        <time>2016-10-22T12:44:47Z</time>
      </trkpt>
      <trkpt lat="43.63053" lon="3.35295">
        <ele>391</ele>
        <time>2016-10-22T12:44:50Z</time>
      </trkpt>
      <trkpt lat="43.63054" lon="3.35305">
        <ele>391.6</ele>
        <time>2016-10-22T12:44:54Z</time>
      </trkpt>
      <trkpt lat="43.63058" lon="3.35311">
        <ele>393</ele>
        <time>2016-10-22T12:45:01Z</time>
      </trkpt>
      <trkpt lat="43.63065" lon="3.35316">
        <ele>395.7</ele>
        <time>2016-10-22T12:45:15Z</time>
      </trkpt>
      <trkpt lat="43.63068" lon="3.35319">
        <ele>397.1</ele>
        <time>2016-10-22T12:45:22Z</time>
      </trkpt>
      <trkpt lat="43.63072" lon="3.3532">
        <ele>398.4</ele>
        <time>2016-10-22T12:45:29Z</time>
      </trkpt>
      <trkpt lat="43.63078" lon="3.35316">
        <ele>399.6</ele>
        <time>2016-10-22T12:45:36Z</time>
      </trkpt>
      <trkpt lat="43.63085" lon="3.35319">
        <ele>400.8</ele>
        <time>2016-10-22T12:45:43Z</time>
      </trkpt>
      <trkpt lat="43.63084" lon="3.35332">
        <ele>401.7</ele>
        <time>2016-10-22T12:45:48Z</time>
      </trkpt>
      <trkpt lat="43.63085" lon="3.35344">
        <ele>402.7</ele>
        <time>2016-10-22T12:45:53Z</time>
      </trkpt>
      <trkpt lat="43.63085" lon="3.35351">
        <ele>404</ele>
        <time>2016-10-22T12:46:00Z</time>
      </trkpt>
      <trkpt lat="43.63084" lon="3.35362">
        <ele>407.2</ele>
        <time>2016-10-22T12:46:21Z</time>
      </trkpt>
      <trkpt lat="43.63084" lon="3.35368">
        <ele>408.9</ele>
        <time>2016-10-22T12:46:28Z</time>
      </trkpt>
      <trkpt lat="43.63084" lon="3.35378">
        <ele>410.3</ele>
        <time>2016-10-22T12:46:35Z</time>
      </trkpt>
      <trkpt lat="43.63083" lon="3.35384">
        <ele>411.4</ele>
        <time>2016-10-22T12:46:42Z</time>
      </trkpt>
      <trkpt lat="43.63086" lon="3.35387">
        <ele>412.1</ele>
        <time>2016-10-22T12:46:49Z</time>
      </trkpt>
      <trkpt lat="43.63089" lon="3.35391">
        <ele>413</ele>
        <time>2016-10-22T12:46:56Z</time>
      </trkpt>
      <trkpt lat="43.63087" lon="3.35391">
        <ele>413.9</ele>
        <time>2016-10-22T12:47:11Z</time>
      </trkpt>
      <trkpt lat="43.63088" lon="3.35394">
        <ele>414.5</ele>
        <time>2016-10-22T12:47:21Z</time>
      </trkpt>
      <trkpt lat="43.63095" lon="3.35398">
        <ele>415.1</ele>
        <time>2016-10-22T12:47:25Z</time>
      </trkpt>
      <trkpt lat="43.63103" lon="3.35404">
        <ele>415.7</ele>
        <time>2016-10-22T12:47:29Z</time>
      </trkpt>
      <trkpt lat="43.6311" lon="3.3541">
        <ele>416.4</ele>
        <time>2016-10-22T12:47:33Z</time>
      </trkpt>
      <trkpt lat="43.63113" lon="3.3542">
        <ele>417.2</ele>
        <time>2016-10-22T12:47:37Z</time>
      </trkpt>
      <trkpt lat="43.63113" lon="3.35431">
        <ele>418.3</ele>
        <time>2016-10-22T12:47:42Z</time>
      </trkpt>
      <trkpt lat="43.63118" lon="3.35439">
        <ele>419.4</ele>
        <time>2016-10-22T12:47:48Z</time>
      </trkpt>
      <trkpt lat="43.63124" lon="3.35445">
        <ele>420.6</ele>
        <time>2016-10-22T12:47:54Z</time>
      </trkpt>
      <trkpt lat="43.63127" lon="3.35454">
        <ele>421.9</ele>
        <time>2016-10-22T12:48:01Z</time>
      </trkpt>
      <trkpt lat="43.63128" lon="3.35466">
        <ele>425.6</ele>
        <time>2016-10-22T12:48:42Z</time>
      </trkpt>
      <trkpt lat="43.63131" lon="3.3548">
        <ele>427.7</ele>
        <time>2016-10-22T12:48:44Z</time>
      </trkpt>
      <trkpt lat="43.63139" lon="3.35494">
        <ele>429.2</ele>
        <time>2016-10-22T12:48:46Z</time>
      </trkpt>
      <trkpt lat="43.63142" lon="3.35503">
        <ele>429.2</ele>
        <time>2016-10-22T12:48:48Z</time>
      </trkpt>
      <trkpt lat="43.63151" lon="3.355">
        <ele>429.6</ele>
        <time>2016-10-22T12:48:51Z</time>
      </trkpt>
      <trkpt lat="43.63161" lon="3.35495">
        <ele>428.6</ele>
        <time>2016-10-22T12:48:53Z</time>
      </trkpt>
      <trkpt lat="43.63163" lon="3.3551">
        <ele>427.1</ele>
        <time>2016-10-22T12:48:57Z</time>
      </trkpt>
      <trkpt lat="43.63169" lon="3.35526">
        <ele>425</ele>
        <time>2016-10-22T12:48:59Z</time>
      </trkpt>
      <trkpt lat="43.63175" lon="3.35544">
        <ele>422.6</ele>
        <time>2016-10-22T12:49:01Z</time>
      </trkpt>
      <trkpt lat="43.63179" lon="3.35552">
        <ele>421.3</ele>
        <time>2016-10-22T12:49:02Z</time>
      </trkpt>
      <trkpt lat="43.63184" lon="3.35562">
        <ele>419.7</ele>
        <time>2016-10-22T12:49:03Z</time>
      </trkpt>
      <trkpt lat="43.6319" lon="3.35574">
        <ele>418.1</ele>
        <time>2016-10-22T12:49:04Z</time>
      </trkpt>
      <trkpt lat="43.63196" lon="3.35588">
        <ele>416.7</ele>
        <time>2016-10-22T12:49:05Z</time>
      </trkpt>
      <trkpt lat="43.63202" lon="3.356">
        <ele>415.2</ele>
        <time>2016-10-22T12:49:06Z</time>
      </trkpt>
      <trkpt lat="43.63208" lon="3.3561">
        <ele>413.4</ele>
        <time>2016-10-22T12:49:07Z</time>
      </trkpt>
      <trkpt lat="43.63213" lon="3.35622">
        <ele>411.2</ele>
        <time>2016-10-22T12:49:08Z</time>
      </trkpt>
      <trkpt lat="43.63217" lon="3.35634">
        <ele>409.2</ele>
        <time>2016-10-22T12:49:09Z</time>
      </trkpt>
      <trkpt lat="43.63221" lon="3.35646">
        <ele>407.6</ele>
        <time>2016-10-22T12:49:10Z</time>
      </trkpt>
      <trkpt lat="43.63224" lon="3.35657">
        <ele>405.8</ele>
        <time>2016-10-22T12:49:11Z</time>
      </trkpt>
      <trkpt lat="43.63225" lon="3.3567">
        <ele>404.1</ele>
        <time>2016-10-22T12:49:12Z</time>
      </trkpt>
      <trkpt lat="43.63227" lon="3.35684">
        <ele>402.4</ele>
        <time>2016-10-22T12:49:13Z</time>
      </trkpt>
      <trkpt lat="43.63228" lon="3.35695">
        <ele>400.5</ele>
        <time>2016-10-22T12:49:14Z</time>
      </trkpt>
      <trkpt lat="43.63229" lon="3.3571">
        <ele>398.6</ele>
        <time>2016-10-22T12:49:15Z</time>
      </trkpt>
      <trkpt lat="43.6323" lon="3.35725">
        <ele>396</ele>
        <time>2016-10-22T12:49:16Z</time>
      </trkpt>
      <trkpt lat="43.63231" lon="3.35739">
        <ele>393.5</ele>
        <time>2016-10-22T12:49:17Z</time>
      </trkpt>
      <trkpt lat="43.63231" lon="3.3575">
        <ele>391.1</ele>
        <time>2016-10-22T12:49:18Z</time>
      </trkpt>
      <trkpt lat="43.63231" lon="3.3576">
        <ele>389.1</ele>
        <time>2016-10-22T12:49:19Z</time>
      </trkpt>
      <trkpt lat="43.63237" lon="3.3575">
        <ele>384.3</ele>
        <time>2016-10-22T12:49:26Z</time>
      </trkpt>
      <trkpt lat="43.6324" lon="3.35741">
        <ele>382.4</ele>
        <time>2016-10-22T12:49:27Z</time>
      </trkpt>
      <trkpt lat="43.63245" lon="3.35733">
        <ele>381</ele>
        <time>2016-10-22T12:49:28Z</time>
      </trkpt>
      <trkpt lat="43.6325" lon="3.35724">
        <ele>379.5</ele>
        <time>2016-10-22T12:49:29Z</time>
      </trkpt>
      <trkpt lat="43.63256" lon="3.35715">
        <ele>377.7</ele>
        <time>2016-10-22T12:49:30Z</time>
      </trkpt>
      <trkpt lat="43.63263" lon="3.35704">
        <ele>376.3</ele>
        <time>2016-10-22T12:49:31Z</time>
      </trkpt>
      <trkpt lat="43.63269" lon="3.35694">
        <ele>374.8</ele>
        <time>2016-10-22T12:49:32Z</time>
      </trkpt>
      <trkpt lat="43.63276" lon="3.35682">
        <ele>373.5</ele>
        <time>2016-10-22T12:49:33Z</time>
      </trkpt>
      <trkpt lat="43.63281" lon="3.35673">
        <ele>372</ele>
        <time>2016-10-22T12:49:34Z</time>
      </trkpt>
      <trkpt lat="43.6329" lon="3.35668">
        <ele>368.4</ele>
        <time>2016-10-22T12:49:36Z</time>
      </trkpt>
      <trkpt lat="43.63298" lon="3.35673">
        <ele>365.9</ele>
        <time>2016-10-22T12:49:38Z</time>
      </trkpt>
      <trkpt lat="43.63305" lon="3.35677">
        <ele>365</ele>
        <time>2016-10-22T12:49:39Z</time>
      </trkpt>
      <trkpt lat="43.63312" lon="3.35682">
        <ele>363.9</ele>
        <time>2016-10-22T12:49:40Z</time>
      </trkpt>
      <trkpt lat="43.63319" lon="3.35686">
        <ele>362.3</ele>
        <time>2016-10-22T12:49:41Z</time>
      </trkpt>
      <trkpt lat="43.63326" lon="3.3569">
        <ele>360.7</ele>
        <time>2016-10-22T12:49:42Z</time>
      </trkpt>
      <trkpt lat="43.63337" lon="3.35704">
        <ele>357.5</ele>
        <time>2016-10-22T12:49:44Z</time>
      </trkpt>
      <trkpt lat="43.63346" lon="3.35711">
        <ele>355.5</ele>
        <time>2016-10-22T12:49:45Z</time>
      </trkpt>
      <trkpt lat="43.63355" lon="3.3572">
        <ele>353.8</ele>
        <time>2016-10-22T12:49:46Z</time>
      </trkpt>
      <trkpt lat="43.63364" lon="3.35728">
        <ele>352.5</ele>
        <time>2016-10-22T12:49:47Z</time>
      </trkpt>
      <trkpt lat="43.6337" lon="3.35734">
        <ele>351</ele>
        <time>2016-10-22T12:49:48Z</time>
      </trkpt>
      <trkpt lat="43.6338" lon="3.35744">
        <ele>348.2</ele>
        <time>2016-10-22T12:49:50Z</time>
      </trkpt>
      <trkpt lat="43.63388" lon="3.35757">
        <ele>345.8</ele>
        <time>2016-10-22T12:49:52Z</time>
      </trkpt>
      <trkpt lat="43.63399" lon="3.35766">
        <ele>343.5</ele>
        <time>2016-10-22T12:49:54Z</time>
      </trkpt>
      <trkpt lat="43.63406" lon="3.35772">
        <ele>342.5</ele>
        <time>2016-10-22T12:49:55Z</time>
      </trkpt>
      <trkpt lat="43.63418" lon="3.3578">
        <ele>340.3</ele>
        <time>2016-10-22T12:49:57Z</time>
      </trkpt>
      <trkpt lat="43.63431" lon="3.35786">
        <ele>337.8</ele>
        <time>2016-10-22T12:49:59Z</time>
      </trkpt>
      <trkpt lat="43.63438" lon="3.35791">
        <ele>336.4</ele>
        <time>2016-10-22T12:50:00Z</time>
      </trkpt>
      <trkpt lat="43.63453" lon="3.35799">
        <ele>332.8</ele>
        <time>2016-10-22T12:50:02Z</time>
      </trkpt>
      <trkpt lat="43.6346" lon="3.35802">
        <ele>331</ele>
        <time>2016-10-22T12:50:03Z</time>
      </trkpt>
      <trkpt lat="43.63468" lon="3.35814">
        <ele>328.5</ele>
        <time>2016-10-22T12:50:05Z</time>
      </trkpt>
      <trkpt lat="43.63466" lon="3.3583">
        <ele>326.2</ele>
        <time>2016-10-22T12:50:08Z</time>
      </trkpt>
      <trkpt lat="43.63465" lon="3.35844">
        <ele>324.7</ele>
        <time>2016-10-22T12:50:10Z</time>
      </trkpt>
      <trkpt lat="43.63465" lon="3.3586">
        <ele>323.6</ele>
        <time>2016-10-22T12:50:12Z</time>
      </trkpt>
      <trkpt lat="43.63465" lon="3.35877">
        <ele>322.8</ele>
        <time>2016-10-22T12:50:14Z</time>
      </trkpt>
      <trkpt lat="43.63466" lon="3.35897">
        <ele>321.6</ele>
        <time>2016-10-22T12:50:16Z</time>
      </trkpt>
      <trkpt lat="43.63466" lon="3.35907">
        <ele>320.9</ele>
        <time>2016-10-22T12:50:17Z</time>
      </trkpt>
      <trkpt lat="43.63465" lon="3.35927">
        <ele>319.3</ele>
        <time>2016-10-22T12:50:19Z</time>
      </trkpt>
      <trkpt lat="43.63465" lon="3.35938">
        <ele>318.7</ele>
        <time>2016-10-22T12:50:20Z</time>
      </trkpt>
      <trkpt lat="43.63467" lon="3.35949">
        <ele>317.7</ele>
        <time>2016-10-22T12:50:21Z</time>
      </trkpt>
      <trkpt lat="43.63469" lon="3.35968">
        <ele>315.7</ele>
        <time>2016-10-22T12:50:23Z</time>
      </trkpt>
      <trkpt lat="43.63471" lon="3.35986">
        <ele>312.5</ele>
        <time>2016-10-22T12:50:25Z</time>
      </trkpt>
      <trkpt lat="43.63479" lon="3.36">
        <ele>310.7</ele>
        <time>2016-10-22T12:50:27Z</time>
      </trkpt>
      <trkpt lat="43.63489" lon="3.36012">
        <ele>307.7</ele>
        <time>2016-10-22T12:50:29Z</time>
      </trkpt>
      <trkpt lat="43.63494" lon="3.36019">
        <ele>306.7</ele>
        <time>2016-10-22T12:50:30Z</time>
      </trkpt>
      <trkpt lat="43.63497" lon="3.36033">
        <ele>304.6</ele>
        <time>2016-10-22T12:50:32Z</time>
      </trkpt>
      <trkpt lat="43.63493" lon="3.36042">
        <ele>302.2</ele>
        <time>2016-10-22T12:50:34Z</time>
      </trkpt>
      <trkpt lat="43.63487" lon="3.3605">
        <ele>299.7</ele>
        <time>2016-10-22T12:50:36Z</time>
      </trkpt>
      <trkpt lat="43.63478" lon="3.36058">
        <ele>298.2</ele>
        <time>2016-10-22T12:50:38Z</time>
      </trkpt>
      <trkpt lat="43.63471" lon="3.36066">
        <ele>297.7</ele>
        <time>2016-10-22T12:50:40Z</time>
      </trkpt>
      <trkpt lat="43.63469" lon="3.3608">
        <ele>296.5</ele>
        <time>2016-10-22T12:50:42Z</time>
      </trkpt>
      <trkpt lat="43.63468" lon="3.36095">
        <ele>294.5</ele>
        <time>2016-10-22T12:50:44Z</time>
      </trkpt>
      <trkpt lat="43.63468" lon="3.36107">
        <ele>292.8</ele>
        <time>2016-10-22T12:50:46Z</time>
      </trkpt>
      <trkpt lat="43.63467" lon="3.3612">
        <ele>290.4</ele>
        <time>2016-10-22T12:50:48Z</time>
      </trkpt>
      <trkpt lat="43.63466" lon="3.36134">
        <ele>288.9</ele>
        <time>2016-10-22T12:50:50Z</time>
      </trkpt>
      <trkpt lat="43.63466" lon="3.3615">
        <ele>288.3</ele>
        <time>2016-10-22T12:50:52Z</time>
      </trkpt>
      <trkpt lat="43.63466" lon="3.36166">
        <ele>288</ele>
        <time>2016-10-22T12:50:54Z</time>
      </trkpt>
      <trkpt lat="43.63467" lon="3.36178">
        <ele>287.4</ele>
        <time>2016-10-22T12:50:56Z</time>
      </trkpt>
      <trkpt lat="43.63467" lon="3.36189">
        <ele>287.2</ele>
        <time>2016-10-22T12:50:58Z</time>
      </trkpt>
      <trkpt lat="43.63468" lon="3.36201">
        <ele>287.2</ele>
        <time>2016-10-22T12:51:00Z</time>
      </trkpt>
      <trkpt lat="43.63475" lon="3.36213">
        <ele>287.5</ele>
        <time>2016-10-22T12:51:03Z</time>
      </trkpt>
      <trkpt lat="43.63483" lon="3.36217">
        <ele>287.7</ele>
        <time>2016-10-22T12:51:05Z</time>
      </trkpt>
      <trkpt lat="43.63493" lon="3.36221">
        <ele>287.8</ele>
        <time>2016-10-22T12:51:07Z</time>
      </trkpt>
      <trkpt lat="43.63501" lon="3.36231">
        <ele>287.1</ele>
        <time>2016-10-22T12:51:09Z</time>
      </trkpt>
      <trkpt lat="43.63506" lon="3.3624">
        <ele>286.5</ele>
        <time>2016-10-22T12:51:10Z</time>
      </trkpt>
      <trkpt lat="43.63513" lon="3.36256">
        <ele>285.5</ele>
        <time>2016-10-22T12:51:12Z</time>
      </trkpt>
      <trkpt lat="43.63519" lon="3.36271">
        <ele>284.9</ele>
        <time>2016-10-22T12:51:14Z</time>
      </trkpt>
      <trkpt lat="43.63521" lon="3.36287">
        <ele>284.5</ele>
        <time>2016-10-22T12:51:16Z</time>
      </trkpt>
      <trkpt lat="43.63526" lon="3.36302">
        <ele>283.4</ele>
        <time>2016-10-22T12:51:18Z</time>
      </trkpt>
      <trkpt lat="43.6353" lon="3.3632">
        <ele>282.8</ele>
        <time>2016-10-22T12:51:20Z</time>
      </trkpt>
      <trkpt lat="43.6353" lon="3.36335">
        <ele>281.8</ele>
        <time>2016-10-22T12:51:22Z</time>
      </trkpt>
      <trkpt lat="43.6353" lon="3.36355">
        <ele>282.1</ele>
        <time>2016-10-22T12:51:24Z</time>
      </trkpt>
      <trkpt lat="43.63534" lon="3.36365">
        <ele>282.3</ele>
        <time>2016-10-22T12:51:25Z</time>
      </trkpt>
      <trkpt lat="43.63537" lon="3.36377">
        <ele>281.7</ele>
        <time>2016-10-22T12:51:26Z</time>
      </trkpt>
      <trkpt lat="43.6354" lon="3.36389">
        <ele>281.2</ele>
        <time>2016-10-22T12:51:27Z</time>
      </trkpt>
      <trkpt lat="43.63546" lon="3.36402">
        <ele>280.4</ele>
        <time>2016-10-22T12:51:28Z</time>
      </trkpt>
      <trkpt lat="43.6355" lon="3.36412">
        <ele>279.7</ele>
        <time>2016-10-22T12:51:29Z</time>
      </trkpt>
      <trkpt lat="43.63552" lon="3.36423">
        <ele>279.3</ele>
        <time>2016-10-22T12:51:30Z</time>
      </trkpt>
      <trkpt lat="43.63554" lon="3.36433">
        <ele>279</ele>
        <time>2016-10-22T12:51:31Z</time>
      </trkpt>
      <trkpt lat="43.63556" lon="3.36449">
        <ele>277.5</ele>
        <time>2016-10-22T12:51:33Z</time>
      </trkpt>
      <trkpt lat="43.63557" lon="3.36459">
        <ele>276.9</ele>
        <time>2016-10-22T12:51:34Z</time>
      </trkpt>
      <trkpt lat="43.63557" lon="3.36469">
        <ele>275.7</ele>
        <time>2016-10-22T12:51:35Z</time>
      </trkpt>
      <trkpt lat="43.63559" lon="3.36484">
        <ele>274.4</ele>
        <time>2016-10-22T12:51:37Z</time>
      </trkpt>
      <trkpt lat="43.63562" lon="3.36496">
        <ele>274.1</ele>
        <time>2016-10-22T12:51:39Z</time>
      </trkpt>
      <trkpt lat="43.63566" lon="3.36509">
        <ele>274.1</ele>
        <time>2016-10-22T12:51:41Z</time>
      </trkpt>
      <trkpt lat="43.63571" lon="3.3652">
        <ele>273.7</ele>
        <time>2016-10-22T12:51:43Z</time>
      </trkpt>
      <trkpt lat="43.63576" lon="3.36532">
        <ele>273.7</ele>
        <time>2016-10-22T12:51:45Z</time>
      </trkpt>
      <trkpt lat="43.6358" lon="3.36542">
        <ele>273.5</ele>
        <time>2016-10-22T12:51:47Z</time>
      </trkpt>
      <trkpt lat="43.63584" lon="3.3655">
        <ele>273.5</ele>
        <time>2016-10-22T12:51:49Z</time>
      </trkpt>
      <trkpt lat="43.63588" lon="3.36565">
        <ele>273.5</ele>
        <time>2016-10-22T12:51:52Z</time>
      </trkpt>
      <trkpt lat="43.6359" lon="3.36575">
        <ele>273.4</ele>
        <time>2016-10-22T12:51:54Z</time>
      </trkpt>
      <trkpt lat="43.63591" lon="3.36586">
        <ele>273.5</ele>
        <time>2016-10-22T12:51:57Z</time>
      </trkpt>
      <trkpt lat="43.63591" lon="3.366">
        <ele>273.6</ele>
        <time>2016-10-22T12:52:00Z</time>
      </trkpt>
      <trkpt lat="43.6359" lon="3.36613">
        <ele>273.7</ele>
        <time>2016-10-22T12:52:03Z</time>
      </trkpt>
      <trkpt lat="43.63589" lon="3.36626">
        <ele>274</ele>
        <time>2016-10-22T12:52:05Z</time>
      </trkpt>
      <trkpt lat="43.63587" lon="3.36637">
        <ele>274.2</ele>
        <time>2016-10-22T12:52:07Z</time>
      </trkpt>
      <trkpt lat="43.63584" lon="3.36648">
        <ele>274.2</ele>
        <time>2016-10-22T12:52:09Z</time>
      </trkpt>
      <trkpt lat="43.63582" lon="3.36659">
        <ele>272.9</ele>
        <time>2016-10-22T12:52:11Z</time>
      </trkpt>
      <trkpt lat="43.63579" lon="3.36677">
        <ele>271.7</ele>
        <time>2016-10-22T12:52:13Z</time>
      </trkpt>
      <trkpt lat="43.63576" lon="3.3669">
        <ele>271.6</ele>
        <time>2016-10-22T12:52:15Z</time>
      </trkpt>
      <trkpt lat="43.63578" lon="3.36708">
        <ele>270.2</ele>
        <time>2016-10-22T12:52:17Z</time>
      </trkpt>
      <trkpt lat="43.6358" lon="3.36726">
        <ele>268.6</ele>
        <time>2016-10-22T12:52:19Z</time>
      </trkpt>
      <trkpt lat="43.63583" lon="3.36735">
        <ele>267.8</ele>
        <time>2016-10-22T12:52:20Z</time>
      </trkpt>
      <trkpt lat="43.63589" lon="3.36752">
        <ele>267.8</ele>
        <time>2016-10-22T12:52:22Z</time>
      </trkpt>
      <trkpt lat="43.63595" lon="3.36769">
        <ele>266.9</ele>
        <time>2016-10-22T12:52:24Z</time>
      </trkpt>
      <trkpt lat="43.63595" lon="3.36789">
        <ele>266.9</ele>
        <time>2016-10-22T12:52:26Z</time>
      </trkpt>
      <trkpt lat="43.63594" lon="3.36804">
        <ele>267</ele>
        <time>2016-10-22T12:52:28Z</time>
      </trkpt>
      <trkpt lat="43.63592" lon="3.36816">
        <ele>267</ele>
        <time>2016-10-22T12:52:30Z</time>
      </trkpt>
      <trkpt lat="43.6359" lon="3.36827">
        <ele>267.8</ele>
        <time>2016-10-22T12:52:32Z</time>
      </trkpt>
      <trkpt lat="43.63588" lon="3.36841">
        <ele>268</ele>
        <time>2016-10-22T12:52:35Z</time>
      </trkpt>
      <trkpt lat="43.63587" lon="3.36852">
        <ele>268.2</ele>
        <time>2016-10-22T12:52:38Z</time>
      </trkpt>
      <trkpt lat="43.63587" lon="3.36864">
        <ele>268.4</ele>
        <time>2016-10-22T12:52:41Z</time>
      </trkpt>
      <trkpt lat="43.63586" lon="3.36877">
        <ele>268.7</ele>
        <time>2016-10-22T12:52:45Z</time>
      </trkpt>
      <trkpt lat="43.63586" lon="3.36889">
        <ele>269.1</ele>
        <time>2016-10-22T12:52:49Z</time>
      </trkpt>
      <trkpt lat="43.63585" lon="3.36902">
        <ele>269.7</ele>
        <time>2016-10-22T12:52:53Z</time>
      </trkpt>
      <trkpt lat="43.63581" lon="3.3691">
        <ele>270.1</ele>
        <time>2016-10-22T12:52:56Z</time>
      </trkpt>
      <trkpt lat="43.63579" lon="3.36923">
        <ele>270.5</ele>
        <time>2016-10-22T12:53:00Z</time>
      </trkpt>
      <trkpt lat="43.63577" lon="3.36932">
        <ele>270.8</ele>
        <time>2016-10-22T12:53:03Z</time>
      </trkpt>
      <trkpt lat="43.63576" lon="3.36945">
        <ele>271.3</ele>
        <time>2016-10-22T12:53:07Z</time>
      </trkpt>
      <trkpt lat="43.63573" lon="3.36954">
        <ele>271.8</ele>
        <time>2016-10-22T12:53:11Z</time>
      </trkpt>
      <trkpt lat="43.63571" lon="3.36965">
        <ele>272.5</ele>
        <time>2016-10-22T12:53:15Z</time>
      </trkpt>
      <trkpt lat="43.63569" lon="3.36977">
        <ele>273.1</ele>
        <time>2016-10-22T12:53:19Z</time>
      </trkpt>
      <trkpt lat="43.63565" lon="3.36989">
        <ele>273.7</ele>
        <time>2016-10-22T12:53:23Z</time>
      </trkpt>
      <trkpt lat="43.63561" lon="3.37001">
        <ele>274.3</ele>
        <time>2016-10-22T12:53:27Z</time>
      </trkpt>
      <trkpt lat="43.63557" lon="3.37011">
        <ele>274.9</ele>
        <time>2016-10-22T12:53:31Z</time>
      </trkpt>
      <trkpt lat="43.63553" lon="3.37023">
        <ele>275.6</ele>
        <time>2016-10-22T12:53:35Z</time>
      </trkpt>
      <trkpt lat="43.63549" lon="3.37035">
        <ele>276</ele>
        <time>2016-10-22T12:53:38Z</time>
      </trkpt>
      <trkpt lat="43.63546" lon="3.37047">
        <ele>277.4</ele>
        <time>2016-10-22T12:53:40Z</time>
      </trkpt>
      <trkpt lat="43.63543" lon="3.37059">
        <ele>278</ele>
        <time>2016-10-22T12:53:42Z</time>
      </trkpt>
      <trkpt lat="43.63539" lon="3.37075">
        <ele>278.2</ele>
        <time>2016-10-22T12:53:44Z</time>
      </trkpt>
      <trkpt lat="43.63535" lon="3.37091">
        <ele>278.5</ele>
        <time>2016-10-22T12:53:46Z</time>
      </trkpt>
      <trkpt lat="43.63531" lon="3.37107">
        <ele>278.8</ele>
        <time>2016-10-22T12:53:48Z</time>
      </trkpt>
      <trkpt lat="43.63524" lon="3.37124">
        <ele>277.9</ele>
        <time>2016-10-22T12:53:50Z</time>
      </trkpt>
      <trkpt lat="43.6352" lon="3.37133">
        <ele>277.9</ele>
        <time>2016-10-22T12:53:51Z</time>
      </trkpt>
      <trkpt lat="43.63516" lon="3.37143">
        <ele>278</ele>
        <time>2016-10-22T12:53:52Z</time>
      </trkpt>
      <trkpt lat="43.63513" lon="3.37154">
        <ele>277.7</ele>
        <time>2016-10-22T12:53:53Z</time>
      </trkpt>
      <trkpt lat="43.63509" lon="3.37164">
        <ele>276.7</ele>
        <time>2016-10-22T12:53:54Z</time>
      </trkpt>
      <trkpt lat="43.63506" lon="3.37174">
        <ele>275.8</ele>
        <time>2016-10-22T12:53:55Z</time>
      </trkpt>
      <trkpt lat="43.63504" lon="3.37184">
        <ele>275</ele>
        <time>2016-10-22T12:53:56Z</time>
      </trkpt>
      <trkpt lat="43.63506" lon="3.37194">
        <ele>273.9</ele>
        <time>2016-10-22T12:53:57Z</time>
      </trkpt>
      <trkpt lat="43.63509" lon="3.37205">
        <ele>273</ele>
        <time>2016-10-22T12:53:58Z</time>
      </trkpt>
      <trkpt lat="43.63512" lon="3.37215">
        <ele>272.9</ele>
        <time>2016-10-22T12:53:59Z</time>
      </trkpt>
      <trkpt lat="43.63513" lon="3.37226">
        <ele>272.9</ele>
        <time>2016-10-22T12:54:00Z</time>
      </trkpt>
      <trkpt lat="43.63515" lon="3.37235">
        <ele>272.9</ele>
        <time>2016-10-22T12:54:01Z</time>
      </trkpt>
      <trkpt lat="43.6352" lon="3.37245">
        <ele>272.7</ele>
        <time>2016-10-22T12:54:02Z</time>
      </trkpt>
      <trkpt lat="43.63525" lon="3.37254">
        <ele>272.6</ele>
        <time>2016-10-22T12:54:03Z</time>
      </trkpt>
      <trkpt lat="43.6353" lon="3.37263">
        <ele>272.4</ele>
        <time>2016-10-22T12:54:04Z</time>
      </trkpt>
      <trkpt lat="43.63535" lon="3.3727">
        <ele>271.9</ele>
        <time>2016-10-22T12:54:05Z</time>
      </trkpt>
      <trkpt lat="43.63541" lon="3.37279">
        <ele>272</ele>
        <time>2016-10-22T12:54:06Z</time>
      </trkpt>
      <trkpt lat="43.63545" lon="3.37288">
        <ele>271.8</ele>
        <time>2016-10-22T12:54:07Z</time>
      </trkpt>
      <trkpt lat="43.63545" lon="3.37299">
        <ele>271.6</ele>
        <time>2016-10-22T12:54:08Z</time>
      </trkpt>
      <trkpt lat="43.63545" lon="3.37311">
        <ele>271.4</ele>
        <time>2016-10-22T12:54:09Z</time>
      </trkpt>
      <trkpt lat="43.63544" lon="3.37323">
        <ele>271.1</ele>
        <time>2016-10-22T12:54:10Z</time>
      </trkpt>
      <trkpt lat="43.63542" lon="3.37334">
        <ele>269.9</ele>
        <time>2016-10-22T12:54:11Z</time>
      </trkpt>
      <trkpt lat="43.63541" lon="3.37347">
        <ele>269.2</ele>
        <time>2016-10-22T12:54:12Z</time>
      </trkpt>
      <trkpt lat="43.63539" lon="3.37359">
        <ele>268.5</ele>
        <time>2016-10-22T12:54:13Z</time>
      </trkpt>
      <trkpt lat="43.63537" lon="3.37372">
        <ele>267.6</ele>
        <time>2016-10-22T12:54:14Z</time>
      </trkpt>
      <trkpt lat="43.63538" lon="3.37384">
        <ele>267.4</ele>
        <time>2016-10-22T12:54:15Z</time>
      </trkpt>
      <trkpt lat="43.6354" lon="3.37395">
        <ele>266.5</ele>
        <time>2016-10-22T12:54:16Z</time>
      </trkpt>
      <trkpt lat="43.63542" lon="3.37408">
        <ele>265.7</ele>
        <time>2016-10-22T12:54:17Z</time>
      </trkpt>
      <trkpt lat="43.63546" lon="3.3742">
        <ele>265</ele>
        <time>2016-10-22T12:54:18Z</time>
      </trkpt>
      <trkpt lat="43.6355" lon="3.3743">
        <ele>264.1</ele>
        <time>2016-10-22T12:54:19Z</time>
      </trkpt>
      <trkpt lat="43.63554" lon="3.37442">
        <ele>263.3</ele>
        <time>2016-10-22T12:54:20Z</time>
      </trkpt>
      <trkpt lat="43.63559" lon="3.37453">
        <ele>262.7</ele>
        <time>2016-10-22T12:54:21Z</time>
      </trkpt>
      <trkpt lat="43.63563" lon="3.37466">
        <ele>262.3</ele>
        <time>2016-10-22T12:54:22Z</time>
      </trkpt>
      <trkpt lat="43.63566" lon="3.37479">
        <ele>261.8</ele>
        <time>2016-10-22T12:54:23Z</time>
      </trkpt>
      <trkpt lat="43.6357" lon="3.37491">
        <ele>261.2</ele>
        <time>2016-10-22T12:54:24Z</time>
      </trkpt>
      <trkpt lat="43.63572" lon="3.37501">
        <ele>260.4</ele>
        <time>2016-10-22T12:54:25Z</time>
      </trkpt>
      <trkpt lat="43.63575" lon="3.37511">
        <ele>259.8</ele>
        <time>2016-10-22T12:54:26Z</time>
      </trkpt>
      <trkpt lat="43.63576" lon="3.37521">
        <ele>259.3</ele>
        <time>2016-10-22T12:54:27Z</time>
      </trkpt>
      <trkpt lat="43.63576" lon="3.37532">
        <ele>257.5</ele>
        <time>2016-10-22T12:54:28Z</time>
      </trkpt>
      <trkpt lat="43.63575" lon="3.37544">
        <ele>256.1</ele>
        <time>2016-10-22T12:54:29Z</time>
      </trkpt>
      <trkpt lat="43.63575" lon="3.37558">
        <ele>255.1</ele>
        <time>2016-10-22T12:54:30Z</time>
      </trkpt>
      <trkpt lat="43.63576" lon="3.3757">
        <ele>254.1</ele>
        <time>2016-10-22T12:54:31Z</time>
      </trkpt>
      <trkpt lat="43.63577" lon="3.37583">
        <ele>253</ele>
        <time>2016-10-22T12:54:32Z</time>
      </trkpt>
      <trkpt lat="43.63579" lon="3.37596">
        <ele>252</ele>
        <time>2016-10-22T12:54:33Z</time>
      </trkpt>
      <trkpt lat="43.6358" lon="3.37609">
        <ele>251.3</ele>
        <time>2016-10-22T12:54:34Z</time>
      </trkpt>
      <trkpt lat="43.63582" lon="3.37623">
        <ele>250.7</ele>
        <time>2016-10-22T12:54:35Z</time>
      </trkpt>
      <trkpt lat="43.63587" lon="3.37635">
        <ele>249.8</ele>
        <time>2016-10-22T12:54:36Z</time>
      </trkpt>
      <trkpt lat="43.63594" lon="3.37645">
        <ele>249</ele>
        <time>2016-10-22T12:54:37Z</time>
      </trkpt>
      <trkpt lat="43.63601" lon="3.37654">
        <ele>247.9</ele>
        <time>2016-10-22T12:54:38Z</time>
      </trkpt>
      <trkpt lat="43.6361" lon="3.37659">
        <ele>246.9</ele>
        <time>2016-10-22T12:54:39Z</time>
      </trkpt>
      <trkpt lat="43.6362" lon="3.37665">
        <ele>246.1</ele>
        <time>2016-10-22T12:54:40Z</time>
      </trkpt>
      <trkpt lat="43.63629" lon="3.37671">
        <ele>245.4</ele>
        <time>2016-10-22T12:54:41Z</time>
      </trkpt>
      <trkpt lat="43.63638" lon="3.37676">
        <ele>244.8</ele>
        <time>2016-10-22T12:54:42Z</time>
      </trkpt>
      <trkpt lat="43.63645" lon="3.37681">
        <ele>244</ele>
        <time>2016-10-22T12:54:43Z</time>
      </trkpt>
      <trkpt lat="43.63651" lon="3.37689">
        <ele>243.3</ele>
        <time>2016-10-22T12:54:44Z</time>
      </trkpt>
      <trkpt lat="43.63655" lon="3.37698">
        <ele>242.4</ele>
        <time>2016-10-22T12:54:45Z</time>
      </trkpt>
      <trkpt lat="43.63656" lon="3.37709">
        <ele>241.3</ele>
        <time>2016-10-22T12:54:46Z</time>
      </trkpt>
      <trkpt lat="43.63658" lon="3.3772">
        <ele>240.3</ele>
        <time>2016-10-22T12:54:47Z</time>
      </trkpt>
      <trkpt lat="43.63659" lon="3.37731">
        <ele>239.6</ele>
        <time>2016-10-22T12:54:48Z</time>
      </trkpt>
      <trkpt lat="43.63661" lon="3.3775">
        <ele>238.1</ele>
        <time>2016-10-22T12:54:50Z</time>
      </trkpt>
      <trkpt lat="43.63662" lon="3.37768">
        <ele>237.1</ele>
        <time>2016-10-22T12:54:52Z</time>
      </trkpt>
      <trkpt lat="43.63662" lon="3.37784">
        <ele>236.2</ele>
        <time>2016-10-22T12:54:54Z</time>
      </trkpt>
      <trkpt lat="43.63661" lon="3.378">
        <ele>235.7</ele>
        <time>2016-10-22T12:54:56Z</time>
      </trkpt>
      <trkpt lat="43.63659" lon="3.37816">
        <ele>235.2</ele>
        <time>2016-10-22T12:54:58Z</time>
      </trkpt>
      <trkpt lat="43.63658" lon="3.37833">
        <ele>234.8</ele>
        <time>2016-10-22T12:55:00Z</time>
      </trkpt>
      <trkpt lat="43.63657" lon="3.3785">
        <ele>234.2</ele>
        <time>2016-10-22T12:55:02Z</time>
      </trkpt>
      <trkpt lat="43.63655" lon="3.37868">
        <ele>233.9</ele>
        <time>2016-10-22T12:55:04Z</time>
      </trkpt>
      <trkpt lat="43.63653" lon="3.37882">
        <ele>233.7</ele>
        <time>2016-10-22T12:55:06Z</time>
      </trkpt>
      <trkpt lat="43.63651" lon="3.37895">
        <ele>233.6</ele>
        <time>2016-10-22T12:55:08Z</time>
      </trkpt>
      <trkpt lat="43.63648" lon="3.37906">
        <ele>233.7</ele>
        <time>2016-10-22T12:55:10Z</time>
      </trkpt>
      <trkpt lat="43.63644" lon="3.37918">
        <ele>234.1</ele>
        <time>2016-10-22T12:55:12Z</time>
      </trkpt>
      <trkpt lat="43.6364" lon="3.37928">
        <ele>234.9</ele>
        <time>2016-10-22T12:55:14Z</time>
      </trkpt>
      <trkpt lat="43.63635" lon="3.37939">
        <ele>234.9</ele>
        <time>2016-10-22T12:55:16Z</time>
      </trkpt>
      <trkpt lat="43.63631" lon="3.37949">
        <ele>234.7</ele>
        <time>2016-10-22T12:55:18Z</time>
      </trkpt>
      <trkpt lat="43.63626" lon="3.37959">
        <ele>234.5</ele>
        <time>2016-10-22T12:55:20Z</time>
      </trkpt>
      <trkpt lat="43.63621" lon="3.37969">
        <ele>234.1</ele>
        <time>2016-10-22T12:55:22Z</time>
      </trkpt>
      <trkpt lat="43.63617" lon="3.3798">
        <ele>233.5</ele>
        <time>2016-10-22T12:55:24Z</time>
      </trkpt>
      <trkpt lat="43.63614" lon="3.37993">
        <ele>233.2</ele>
        <time>2016-10-22T12:55:26Z</time>
      </trkpt>
      <trkpt lat="43.63609" lon="3.38004">
        <ele>232.8</ele>
        <time>2016-10-22T12:55:28Z</time>
      </trkpt>
      <trkpt lat="43.63604" lon="3.38014">
        <ele>232.6</ele>
        <time>2016-10-22T12:55:30Z</time>
      </trkpt>
      <trkpt lat="43.63603" lon="3.38025">
        <ele>232.3</ele>
        <time>2016-10-22T12:55:32Z</time>
      </trkpt>
      <trkpt lat="43.63612" lon="3.38031">
        <ele>232.2</ele>
        <time>2016-10-22T12:55:36Z</time>
      </trkpt>
      <trkpt lat="43.6362" lon="3.38041">
        <ele>232.3</ele>
        <time>2016-10-22T12:55:39Z</time>
      </trkpt>
      <trkpt lat="43.63623" lon="3.38051">
        <ele>232.3</ele>
        <time>2016-10-22T12:55:41Z</time>
      </trkpt>
      <trkpt lat="43.63624" lon="3.38062">
        <ele>232.3</ele>
        <time>2016-10-22T12:55:44Z</time>
      </trkpt>
      <trkpt lat="43.63629" lon="3.38075">
        <ele>232.1</ele>
        <time>2016-10-22T12:55:47Z</time>
      </trkpt>
      <trkpt lat="43.63632" lon="3.38086">
        <ele>232.1</ele>
        <time>2016-10-22T12:55:49Z</time>
      </trkpt>
      <trkpt lat="43.63635" lon="3.38097">
        <ele>232.1</ele>
        <time>2016-10-22T12:55:51Z</time>
      </trkpt>
      <trkpt lat="43.63637" lon="3.38108">
        <ele>231.9</ele>
        <time>2016-10-22T12:55:53Z</time>
      </trkpt>
      <trkpt lat="43.6364" lon="3.38118">
        <ele>232.5</ele>
        <time>2016-10-22T12:55:55Z</time>
      </trkpt>
      <trkpt lat="43.63642" lon="3.38129">
        <ele>232.8</ele>
        <time>2016-10-22T12:55:57Z</time>
      </trkpt>
      <trkpt lat="43.63644" lon="3.38139">
        <ele>232.4</ele>
        <time>2016-10-22T12:55:59Z</time>
      </trkpt>
      <trkpt lat="43.63646" lon="3.38149">
        <ele>232.6</ele>
        <time>2016-10-22T12:56:01Z</time>
      </trkpt>
      <trkpt lat="43.63647" lon="3.38161">
        <ele>232.6</ele>
        <time>2016-10-22T12:56:03Z</time>
      </trkpt>
      <trkpt lat="43.63649" lon="3.38175">
        <ele>232.4</ele>
        <time>2016-10-22T12:56:05Z</time>
      </trkpt>
      <trkpt lat="43.63645" lon="3.38189">
        <ele>231.7</ele>
        <time>2016-10-22T12:56:07Z</time>
      </trkpt>
      <trkpt lat="43.63641" lon="3.38201">
        <ele>231</ele>
        <time>2016-10-22T12:56:09Z</time>
      </trkpt>
      <trkpt lat="43.6364" lon="3.38211">
        <ele>230</ele>
        <time>2016-10-22T12:56:11Z</time>
      </trkpt>
      <trkpt lat="43.6364" lon="3.38223">
        <ele>229.6</ele>
        <time>2016-10-22T12:56:13Z</time>
      </trkpt>
      <trkpt lat="43.63645" lon="3.38231">
        <ele>229.3</ele>
        <time>2016-10-22T12:56:15Z</time>
      </trkpt>
      <trkpt lat="43.63653" lon="3.38231">
        <ele>229</ele>
        <time>2016-10-22T12:56:17Z</time>
      </trkpt>
      <trkpt lat="43.63661" lon="3.38225">
        <ele>228.7</ele>
        <time>2016-10-22T12:56:19Z</time>
      </trkpt>
      <trkpt lat="43.63671" lon="3.38217">
        <ele>227.3</ele>
        <time>2016-10-22T12:56:21Z</time>
      </trkpt>
      <trkpt lat="43.63683" lon="3.38212">
        <ele>226.4</ele>
        <time>2016-10-22T12:56:23Z</time>
      </trkpt>
      <trkpt lat="43.63694" lon="3.38209">
        <ele>226.7</ele>
        <time>2016-10-22T12:56:25Z</time>
      </trkpt>
      <trkpt lat="43.63703" lon="3.38213">
        <ele>226.8</ele>
        <time>2016-10-22T12:56:26Z</time>
      </trkpt>
      <trkpt lat="43.63714" lon="3.38218">
        <ele>226.1</ele>
        <time>2016-10-22T12:56:28Z</time>
      </trkpt>
      <trkpt lat="43.63727" lon="3.38221">
        <ele>227.1</ele>
        <time>2016-10-22T12:56:30Z</time>
      </trkpt>
      <trkpt lat="43.6374" lon="3.38223">
        <ele>227.1</ele>
        <time>2016-10-22T12:56:32Z</time>
      </trkpt>
      <trkpt lat="43.63754" lon="3.3822">
        <ele>226.2</ele>
        <time>2016-10-22T12:56:34Z</time>
      </trkpt>
      <trkpt lat="43.63766" lon="3.3822">
        <ele>225.6</ele>
        <time>2016-10-22T12:56:36Z</time>
      </trkpt>
      <trkpt lat="43.63774" lon="3.38229">
        <ele>225.2</ele>
        <time>2016-10-22T12:56:38Z</time>
      </trkpt>
      <trkpt lat="43.63783" lon="3.38239">
        <ele>224.3</ele>
        <time>2016-10-22T12:56:40Z</time>
      </trkpt>
      <trkpt lat="43.63791" lon="3.38248">
        <ele>223.6</ele>
        <time>2016-10-22T12:56:42Z</time>
      </trkpt>
      <trkpt lat="43.63802" lon="3.38254">
        <ele>223.6</ele>
        <time>2016-10-22T12:56:45Z</time>
      </trkpt>
      <trkpt lat="43.63812" lon="3.38263">
        <ele>221.4</ele>
        <time>2016-10-22T12:56:47Z</time>
      </trkpt>
      <trkpt lat="43.63822" lon="3.38277">
        <ele>219.6</ele>
        <time>2016-10-22T12:56:49Z</time>
      </trkpt>
      <trkpt lat="43.63832" lon="3.38283">
        <ele>218.8</ele>
        <time>2016-10-22T12:56:51Z</time>
      </trkpt>
      <trkpt lat="43.63841" lon="3.38286">
        <ele>218.3</ele>
        <time>2016-10-22T12:56:53Z</time>
      </trkpt>
      <trkpt lat="43.63852" lon="3.38292">
        <ele>218.3</ele>
        <time>2016-10-22T12:56:55Z</time>
      </trkpt>
      <trkpt lat="43.6386" lon="3.38301">
        <ele>217.4</ele>
        <time>2016-10-22T12:56:57Z</time>
      </trkpt>
      <trkpt lat="43.63868" lon="3.38303">
        <ele>216.1</ele>
        <time>2016-10-22T12:56:59Z</time>
      </trkpt>
      <trkpt lat="43.63877" lon="3.38298">
        <ele>215.1</ele>
        <time>2016-10-22T12:57:01Z</time>
      </trkpt>
      <trkpt lat="43.63885" lon="3.38301">
        <ele>214</ele>
        <time>2016-10-22T12:57:03Z</time>
      </trkpt>
      <trkpt lat="43.63895" lon="3.38311">
        <ele>213.2</ele>
        <time>2016-10-22T12:57:05Z</time>
      </trkpt>
      <trkpt lat="43.63905" lon="3.38315">
        <ele>212.3</ele>
        <time>2016-10-22T12:57:07Z</time>
      </trkpt>
      <trkpt lat="43.63915" lon="3.38317">
        <ele>212.1</ele>
        <time>2016-10-22T12:57:09Z</time>
      </trkpt>
      <trkpt lat="43.63924" lon="3.38318">
        <ele>211.8</ele>
        <time>2016-10-22T12:57:11Z</time>
      </trkpt>
      <trkpt lat="43.63931" lon="3.38319">
        <ele>211.8</ele>
        <time>2016-10-22T12:57:15Z</time>
      </trkpt>
      <trkpt lat="43.6394" lon="3.38317">
        <ele>211.6</ele>
        <time>2016-10-22T12:57:18Z</time>
      </trkpt>
      <trkpt lat="43.63949" lon="3.38314">
        <ele>211.5</ele>
        <time>2016-10-22T12:57:21Z</time>
      </trkpt>
      <trkpt lat="43.63955" lon="3.38309">
        <ele>211.5</ele>
        <time>2016-10-22T12:57:24Z</time>
      </trkpt>
      <trkpt lat="43.63963" lon="3.38301">
        <ele>211.6</ele>
        <time>2016-10-22T12:57:28Z</time>
      </trkpt>
      <trkpt lat="43.63969" lon="3.38294">
        <ele>211.8</ele>
        <time>2016-10-22T12:57:30Z</time>
      </trkpt>
      <trkpt lat="43.6398" lon="3.38289">
        <ele>211.9</ele>
        <time>2016-10-22T12:57:32Z</time>
      </trkpt>
      <trkpt lat="43.6399" lon="3.38287">
        <ele>211.7</ele>
        <time>2016-10-22T12:57:34Z</time>
      </trkpt>
      <trkpt lat="43.64004" lon="3.38293">
        <ele>211.4</ele>
        <time>2016-10-22T12:57:36Z</time>
      </trkpt>
      <trkpt lat="43.64015" lon="3.38294">
        <ele>211</ele>
        <time>2016-10-22T12:57:38Z</time>
      </trkpt>
      <trkpt lat="43.64023" lon="3.38295">
        <ele>210.8</ele>
        <time>2016-10-22T12:57:39Z</time>
      </trkpt>
      <trkpt lat="43.64036" lon="3.38299">
        <ele>209.9</ele>
        <time>2016-10-22T12:57:41Z</time>
      </trkpt>
      <trkpt lat="43.64051" lon="3.38301">
        <ele>209</ele>
        <time>2016-10-22T12:57:43Z</time>
      </trkpt>
      <trkpt lat="43.64058" lon="3.38298">
        <ele>208.3</ele>
        <time>2016-10-22T12:57:44Z</time>
      </trkpt>
      <trkpt lat="43.64065" lon="3.38297">
        <ele>208</ele>
        <time>2016-10-22T12:57:45Z</time>
      </trkpt>
      <trkpt lat="43.64076" lon="3.38302">
        <ele>207.3</ele>
        <time>2016-10-22T12:57:47Z</time>
      </trkpt>
      <trkpt lat="43.64081" lon="3.38312">
        <ele>207</ele>
        <time>2016-10-22T12:57:49Z</time>
      </trkpt>
      <trkpt lat="43.64091" lon="3.38318">
        <ele>206.9</ele>
        <time>2016-10-22T12:57:51Z</time>
      </trkpt>
      <trkpt lat="43.64099" lon="3.38325">
        <ele>206.5</ele>
        <time>2016-10-22T12:57:53Z</time>
      </trkpt>
      <trkpt lat="43.6411" lon="3.38333">
        <ele>206.2</ele>
        <time>2016-10-22T12:57:55Z</time>
      </trkpt>
      <trkpt lat="43.6412" lon="3.38334">
        <ele>206.1</ele>
        <time>2016-10-22T12:57:57Z</time>
      </trkpt>
      <trkpt lat="43.6413" lon="3.38335">
        <ele>206.4</ele>
        <time>2016-10-22T12:57:59Z</time>
      </trkpt>
      <trkpt lat="43.64139" lon="3.38345">
        <ele>206.9</ele>
        <time>2016-10-22T12:58:01Z</time>
      </trkpt>
      <trkpt lat="43.64145" lon="3.3836">
        <ele>206.9</ele>
        <time>2016-10-22T12:58:03Z</time>
      </trkpt>
      <trkpt lat="43.64149" lon="3.38372">
        <ele>206.5</ele>
        <time>2016-10-22T12:58:05Z</time>
      </trkpt>
      <trkpt lat="43.64157" lon="3.38378">
        <ele>206.3</ele>
        <time>2016-10-22T12:58:07Z</time>
      </trkpt>
      <trkpt lat="43.64165" lon="3.38375">
        <ele>205.7</ele>
        <time>2016-10-22T12:58:10Z</time>
      </trkpt>
      <trkpt lat="43.64172" lon="3.3837">
        <ele>205.7</ele>
        <time>2016-10-22T12:58:14Z</time>
      </trkpt>
      <trkpt lat="43.64176" lon="3.38359">
        <ele>205</ele>
        <time>2016-10-22T12:58:17Z</time>
      </trkpt>
      <trkpt lat="43.64181" lon="3.38348">
        <ele>204.1</ele>
        <time>2016-10-22T12:58:19Z</time>
      </trkpt>
      <trkpt lat="43.64191" lon="3.38336">
        <ele>203.4</ele>
        <time>2016-10-22T12:58:21Z</time>
      </trkpt>
      <trkpt lat="43.64201" lon="3.38334">
        <ele>203.9</ele>
        <time>2016-10-22T12:58:23Z</time>
      </trkpt>
      <trkpt lat="43.64211" lon="3.3834">
        <ele>203.6</ele>
        <time>2016-10-22T12:58:25Z</time>
      </trkpt>
      <trkpt lat="43.64221" lon="3.3835">
        <ele>202.8</ele>
        <time>2016-10-22T12:58:27Z</time>
      </trkpt>
      <trkpt lat="43.64226" lon="3.38357">
        <ele>202.3</ele>
        <time>2016-10-22T12:58:28Z</time>
      </trkpt>
      <trkpt lat="43.64235" lon="3.38371">
        <ele>199.5</ele>
        <time>2016-10-22T12:58:30Z</time>
      </trkpt>
      <trkpt lat="43.64237" lon="3.38382">
        <ele>198.6</ele>
        <time>2016-10-22T12:58:31Z</time>
      </trkpt>
      <trkpt lat="43.64238" lon="3.38393">
        <ele>197.6</ele>
        <time>2016-10-22T12:58:32Z</time>
      </trkpt>
      <trkpt lat="43.64239" lon="3.38413">
        <ele>195.6</ele>
        <time>2016-10-22T12:58:34Z</time>
      </trkpt>
      <trkpt lat="43.64239" lon="3.3843">
        <ele>194</ele>
        <time>2016-10-22T12:58:36Z</time>
      </trkpt>
      <trkpt lat="43.64238" lon="3.38445">
        <ele>193.1</ele>
        <time>2016-10-22T12:58:38Z</time>
      </trkpt>
      <trkpt lat="43.64238" lon="3.38457">
        <ele>192.8</ele>
        <time>2016-10-22T12:58:40Z</time>
      </trkpt>
      <trkpt lat="43.64239" lon="3.38457">
        <ele>192.6</ele>
        <time>2016-10-22T12:58:47Z</time>
      </trkpt>
      <trkpt lat="43.64236" lon="3.38471">
        <ele>192.7</ele>
        <time>2016-10-22T12:58:52Z</time>
      </trkpt>
      <trkpt lat="43.64234" lon="3.38484">
        <ele>192.7</ele>
        <time>2016-10-22T12:58:55Z</time>
      </trkpt>
      <trkpt lat="43.64233" lon="3.38499">
        <ele>192.8</ele>
        <time>2016-10-22T12:58:58Z</time>
      </trkpt>
      <trkpt lat="43.64232" lon="3.38513">
        <ele>192.9</ele>
        <time>2016-10-22T12:59:01Z</time>
      </trkpt>
      <trkpt lat="43.64231" lon="3.38526">
        <ele>193</ele>
        <time>2016-10-22T12:59:04Z</time>
      </trkpt>
      <trkpt lat="43.6423" lon="3.38538">
        <ele>193.1</ele>
        <time>2016-10-22T12:59:07Z</time>
      </trkpt>
      <trkpt lat="43.6423" lon="3.38552">
        <ele>193.3</ele>
        <time>2016-10-22T12:59:10Z</time>
      </trkpt>
      <trkpt lat="43.64231" lon="3.38565">
        <ele>193.4</ele>
        <time>2016-10-22T12:59:13Z</time>
      </trkpt>
      <trkpt lat="43.64233" lon="3.38578">
        <ele>193.7</ele>
        <time>2016-10-22T12:59:16Z</time>
      </trkpt>
      <trkpt lat="43.64236" lon="3.38588">
        <ele>193.8</ele>
        <time>2016-10-22T12:59:18Z</time>
      </trkpt>
      <trkpt lat="43.6424" lon="3.38599">
        <ele>194.9</ele>
        <time>2016-10-22T12:59:20Z</time>
      </trkpt>
      <trkpt lat="43.64245" lon="3.38609">
        <ele>195.3</ele>
        <time>2016-10-22T12:59:22Z</time>
      </trkpt>
      <trkpt lat="43.6425" lon="3.38621">
        <ele>195.3</ele>
        <time>2016-10-22T12:59:24Z</time>
      </trkpt>
      <trkpt lat="43.64256" lon="3.38632">
        <ele>195.4</ele>
        <time>2016-10-22T12:59:26Z</time>
      </trkpt>
      <trkpt lat="43.64262" lon="3.38644">
        <ele>195.5</ele>
        <time>2016-10-22T12:59:28Z</time>
      </trkpt>
      <trkpt lat="43.64269" lon="3.38657">
        <ele>195.3</ele>
        <time>2016-10-22T12:59:30Z</time>
      </trkpt>
      <trkpt lat="43.64275" lon="3.38671">
        <ele>195</ele>
        <time>2016-10-22T12:59:32Z</time>
      </trkpt>
      <trkpt lat="43.6428" lon="3.38684">
        <ele>195</ele>
        <time>2016-10-22T12:59:34Z</time>
      </trkpt>
      <trkpt lat="43.64286" lon="3.38697">
        <ele>194.8</ele>
        <time>2016-10-22T12:59:36Z</time>
      </trkpt>
      <trkpt lat="43.64292" lon="3.3871">
        <ele>194.9</ele>
        <time>2016-10-22T12:59:38Z</time>
      </trkpt>
      <trkpt lat="43.64302" lon="3.38718">
        <ele>195.4</ele>
        <time>2016-10-22T12:59:40Z</time>
      </trkpt>
      <trkpt lat="43.6431" lon="3.38726">
        <ele>195.4</ele>
        <time>2016-10-22T12:59:42Z</time>
      </trkpt>
      <trkpt lat="43.64319" lon="3.38733">
        <ele>195.2</ele>
        <time>2016-10-22T12:59:44Z</time>
      </trkpt>
      <trkpt lat="43.64328" lon="3.38738">
        <ele>194.9</ele>
        <time>2016-10-22T12:59:46Z</time>
      </trkpt>
      <trkpt lat="43.64337" lon="3.38741">
        <ele>194.6</ele>
        <time>2016-10-22T12:59:48Z</time>
      </trkpt>
      <trkpt lat="43.64345" lon="3.38744">
        <ele>194.5</ele>
        <time>2016-10-22T12:59:50Z</time>
      </trkpt>
      <trkpt lat="43.64354" lon="3.38746">
        <ele>194.1</ele>
        <time>2016-10-22T12:59:52Z</time>
      </trkpt>
      <trkpt lat="43.64364" lon="3.3875">
        <ele>193.9</ele>
        <time>2016-10-22T12:59:54Z</time>
      </trkpt>
      <trkpt lat="43.64372" lon="3.38757">
        <ele>193.8</ele>
        <time>2016-10-22T12:59:56Z</time>
      </trkpt>
      <trkpt lat="43.6438" lon="3.38762">
        <ele>194.3</ele>
        <time>2016-10-22T12:59:58Z</time>
      </trkpt>
      <trkpt lat="43.64389" lon="3.38764">
        <ele>195</ele>
        <time>2016-10-22T13:00:00Z</time>
      </trkpt>
      <trkpt lat="43.64396" lon="3.38765">
        <ele>194.6</ele>
        <time>2016-10-22T13:00:02Z</time>
      </trkpt>
      <trkpt lat="43.64404" lon="3.38766">
        <ele>194.2</ele>
        <time>2016-10-22T13:00:04Z</time>
      </trkpt>
      <trkpt lat="43.64412" lon="3.38767">
        <ele>194.1</ele>
        <time>2016-10-22T13:00:06Z</time>
      </trkpt>
      <trkpt lat="43.6442" lon="3.38768">
        <ele>194.3</ele>
        <time>2016-10-22T13:00:08Z</time>
      </trkpt>
      <trkpt lat="43.64428" lon="3.38768">
        <ele>194.2</ele>
        <time>2016-10-22T13:00:10Z</time>
      </trkpt>
      <trkpt lat="43.64437" lon="3.38769">
        <ele>194.1</ele>
        <time>2016-10-22T13:00:12Z</time>
      </trkpt>
      <trkpt lat="43.64446" lon="3.3877">
        <ele>194.1</ele>
        <time>2016-10-22T13:00:14Z</time>
      </trkpt>
      <trkpt lat="43.64456" lon="3.38771">
        <ele>193.6</ele>
        <time>2016-10-22T13:00:16Z</time>
      </trkpt>
      <trkpt lat="43.64468" lon="3.38771">
        <ele>193.3</ele>
        <time>2016-10-22T13:00:18Z</time>
      </trkpt>
      <trkpt lat="43.64477" lon="3.38773">
        <ele>194.1</ele>
        <time>2016-10-22T13:00:20Z</time>
      </trkpt>
      <trkpt lat="43.64485" lon="3.38778">
        <ele>194.4</ele>
        <time>2016-10-22T13:00:22Z</time>
      </trkpt>
      <trkpt lat="43.64494" lon="3.38781">
        <ele>194.5</ele>
        <time>2016-10-22T13:00:25Z</time>
      </trkpt>
      <trkpt lat="43.64502" lon="3.38785">
        <ele>194.5</ele>
        <time>2016-10-22T13:00:28Z</time>
      </trkpt>
      <trkpt lat="43.64511" lon="3.38792">
        <ele>194.5</ele>
        <time>2016-10-22T13:00:31Z</time>
      </trkpt>
      <trkpt lat="43.6452" lon="3.38799">
        <ele>194.6</ele>
        <time>2016-10-22T13:00:34Z</time>
      </trkpt>
      <trkpt lat="43.64527" lon="3.38804">
        <ele>194.7</ele>
        <time>2016-10-22T13:00:37Z</time>
      </trkpt>
      <trkpt lat="43.64532" lon="3.38815">
        <ele>194.9</ele>
        <time>2016-10-22T13:00:41Z</time>
      </trkpt>
      <trkpt lat="43.64532" lon="3.38825">
        <ele>195.1</ele>
        <time>2016-10-22T13:00:44Z</time>
      </trkpt>
      <trkpt lat="43.6453" lon="3.38835">
        <ele>195.4</ele>
        <time>2016-10-22T13:00:47Z</time>
      </trkpt>
      <trkpt lat="43.64529" lon="3.38848">
        <ele>195.6</ele>
        <time>2016-10-22T13:00:50Z</time>
      </trkpt>
      <trkpt lat="43.64525" lon="3.38858">
        <ele>195.8</ele>
        <time>2016-10-22T13:00:53Z</time>
      </trkpt>
      <trkpt lat="43.6452" lon="3.3887">
        <ele>196</ele>
        <time>2016-10-22T13:00:56Z</time>
      </trkpt>
      <trkpt lat="43.64517" lon="3.3888">
        <ele>196.3</ele>
        <time>2016-10-22T13:00:59Z</time>
      </trkpt>
      <trkpt lat="43.64513" lon="3.38892">
        <ele>196.6</ele>
        <time>2016-10-22T13:01:02Z</time>
      </trkpt>
      <trkpt lat="43.64508" lon="3.38903">
        <ele>196.8</ele>
        <time>2016-10-22T13:01:05Z</time>
      </trkpt>
      <trkpt lat="43.64503" lon="3.38914">
        <ele>196.9</ele>
        <time>2016-10-22T13:01:08Z</time>
      </trkpt>
      <trkpt lat="43.64497" lon="3.38926">
        <ele>197.1</ele>
        <time>2016-10-22T13:01:11Z</time>
      </trkpt>
      <trkpt lat="43.64492" lon="3.38938">
        <ele>197.1</ele>
        <time>2016-10-22T13:01:14Z</time>
      </trkpt>
      <trkpt lat="43.64487" lon="3.3895">
        <ele>197.1</ele>
        <time>2016-10-22T13:01:17Z</time>
      </trkpt>
      <trkpt lat="43.64485" lon="3.38959">
        <ele>197.3</ele>
        <time>2016-10-22T13:01:19Z</time>
      </trkpt>
      <trkpt lat="43.64481" lon="3.3897">
        <ele>197.4</ele>
        <time>2016-10-22T13:01:22Z</time>
      </trkpt>
      <trkpt lat="43.64476" lon="3.38982">
        <ele>197.6</ele>
        <time>2016-10-22T13:01:25Z</time>
      </trkpt>
      <trkpt lat="43.64471" lon="3.38994">
        <ele>197.7</ele>
        <time>2016-10-22T13:01:28Z</time>
      </trkpt>
      <trkpt lat="43.64471" lon="3.39005">
        <ele>198</ele>
        <time>2016-10-22T13:01:31Z</time>
      </trkpt>
      <trkpt lat="43.64477" lon="3.39013">
        <ele>198.3</ele>
        <time>2016-10-22T13:01:34Z</time>
      </trkpt>
      <trkpt lat="43.64488" lon="3.39013">
        <ele>199.2</ele>
        <time>2016-10-22T13:01:37Z</time>
      </trkpt>
      <trkpt lat="43.64497" lon="3.39009">
        <ele>200.4</ele>
        <time>2016-10-22T13:01:39Z</time>
      </trkpt>
      <trkpt lat="43.64507" lon="3.39003">
        <ele>201.1</ele>
        <time>2016-10-22T13:01:41Z</time>
      </trkpt>
      <trkpt lat="43.64515" lon="3.38996">
        <ele>201</ele>
        <time>2016-10-22T13:01:43Z</time>
      </trkpt>
      <trkpt lat="43.64525" lon="3.38987">
        <ele>200.9</ele>
        <time>2016-10-22T13:01:45Z</time>
      </trkpt>
      <trkpt lat="43.64535" lon="3.38978">
        <ele>200.7</ele>
        <time>2016-10-22T13:01:47Z</time>
      </trkpt>
      <trkpt lat="43.64542" lon="3.38971">
        <ele>199.2</ele>
        <time>2016-10-22T13:01:49Z</time>
      </trkpt>
      <trkpt lat="43.64549" lon="3.38963">
        <ele>198.2</ele>
        <time>2016-10-22T13:01:51Z</time>
      </trkpt>
      <trkpt lat="43.64557" lon="3.38955">
        <ele>196.5</ele>
        <time>2016-10-22T13:01:53Z</time>
      </trkpt>
      <trkpt lat="43.64564" lon="3.38948">
        <ele>195.7</ele>
        <time>2016-10-22T13:01:55Z</time>
      </trkpt>
      <trkpt lat="43.64572" lon="3.38939">
        <ele>195.7</ele>
        <time>2016-10-22T13:01:57Z</time>
      </trkpt>
      <trkpt lat="43.64579" lon="3.38932">
        <ele>196</ele>
        <time>2016-10-22T13:01:59Z</time>
      </trkpt>
      <trkpt lat="43.64586" lon="3.38925">
        <ele>196.5</ele>
        <time>2016-10-22T13:02:01Z</time>
      </trkpt>
      <trkpt lat="43.64595" lon="3.38919">
        <ele>196.8</ele>
        <time>2016-10-22T13:02:03Z</time>
      </trkpt>
      <trkpt lat="43.64603" lon="3.38914">
        <ele>196.4</ele>
        <time>2016-10-22T13:02:05Z</time>
      </trkpt>
      <trkpt lat="43.64612" lon="3.3891">
        <ele>195.9</ele>
        <time>2016-10-22T13:02:07Z</time>
      </trkpt>
      <trkpt lat="43.6462" lon="3.38906">
        <ele>196.1</ele>
        <time>2016-10-22T13:02:09Z</time>
      </trkpt>
      <trkpt lat="43.64628" lon="3.38903">
        <ele>195.7</ele>
        <time>2016-10-22T13:02:11Z</time>
      </trkpt>
      <trkpt lat="43.64638" lon="3.38901">
        <ele>195.6</ele>
        <time>2016-10-22T13:02:14Z</time>
      </trkpt>
      <trkpt lat="43.64646" lon="3.389">
        <ele>195</ele>
        <time>2016-10-22T13:02:16Z</time>
      </trkpt>
      <trkpt lat="43.64655" lon="3.389">
        <ele>194.9</ele>
        <time>2016-10-22T13:02:19Z</time>
      </trkpt>
      <trkpt lat="43.64664" lon="3.38897">
        <ele>194.8</ele>
        <time>2016-10-22T13:02:22Z</time>
      </trkpt>
      <trkpt lat="43.64671" lon="3.38894">
        <ele>194.7</ele>
        <time>2016-10-22T13:02:24Z</time>
      </trkpt>
      <trkpt lat="43.64678" lon="3.38893">
        <ele>194.2</ele>
        <time>2016-10-22T13:02:26Z</time>
      </trkpt>
      <trkpt lat="43.64688" lon="3.38894">
        <ele>194.1</ele>
        <time>2016-10-22T13:02:28Z</time>
      </trkpt>
      <trkpt lat="43.64698" lon="3.38894">
        <ele>192.8</ele>
        <time>2016-10-22T13:02:30Z</time>
      </trkpt>
      <trkpt lat="43.64707" lon="3.38894">
        <ele>191.9</ele>
        <time>2016-10-22T13:02:32Z</time>
      </trkpt>
      <trkpt lat="43.64717" lon="3.38899">
        <ele>192.4</ele>
        <time>2016-10-22T13:02:34Z</time>
      </trkpt>
      <trkpt lat="43.64725" lon="3.38908">
        <ele>192.4</ele>
        <time>2016-10-22T13:02:36Z</time>
      </trkpt>
      <trkpt lat="43.64732" lon="3.38918">
        <ele>192.7</ele>
        <time>2016-10-22T13:02:38Z</time>
      </trkpt>
      <trkpt lat="43.64739" lon="3.38923">
        <ele>193.3</ele>
        <time>2016-10-22T13:02:40Z</time>
      </trkpt>
      <trkpt lat="43.64749" lon="3.38925">
        <ele>193.3</ele>
        <time>2016-10-22T13:02:43Z</time>
      </trkpt>
      <trkpt lat="43.64758" lon="3.3892">
        <ele>193.2</ele>
        <time>2016-10-22T13:02:46Z</time>
      </trkpt>
      <trkpt lat="43.64764" lon="3.38909">
        <ele>193.2</ele>
        <time>2016-10-22T13:02:49Z</time>
      </trkpt>
      <trkpt lat="43.6477" lon="3.38897">
        <ele>193.2</ele>
        <time>2016-10-22T13:02:52Z</time>
      </trkpt>
      <trkpt lat="43.64777" lon="3.38888">
        <ele>193.2</ele>
        <time>2016-10-22T13:02:55Z</time>
      </trkpt>
      <trkpt lat="43.64783" lon="3.38881">
        <ele>193.3</ele>
        <time>2016-10-22T13:02:58Z</time>
      </trkpt>
      <trkpt lat="43.64788" lon="3.38872">
        <ele>193.5</ele>
        <time>2016-10-22T13:03:02Z</time>
      </trkpt>
      <trkpt lat="43.64796" lon="3.38867">
        <ele>194.1</ele>
        <time>2016-10-22T13:03:18Z</time>
      </trkpt>
      <trkpt lat="43.648" lon="3.3886">
        <ele>194.3</ele>
        <time>2016-10-22T13:03:24Z</time>
      </trkpt>
      <trkpt lat="43.64806" lon="3.38853">
        <ele>194.7</ele>
        <time>2016-10-22T13:03:31Z</time>
      </trkpt>
      <trkpt lat="43.64811" lon="3.38861">
        <ele>194.8</ele>
        <time>2016-10-22T13:03:34Z</time>
      </trkpt>
      <trkpt lat="43.64813" lon="3.38872">
        <ele>194.8</ele>
        <time>2016-10-22T13:03:37Z</time>
      </trkpt>
      <trkpt lat="43.64819" lon="3.3888">
        <ele>195.1</ele>
        <time>2016-10-22T13:03:42Z</time>
      </trkpt>
      <trkpt lat="43.64826" lon="3.38885">
        <ele>195.3</ele>
        <time>2016-10-22T13:03:46Z</time>
      </trkpt>
      <trkpt lat="43.64832" lon="3.38892">
        <ele>195.6</ele>
        <time>2016-10-22T13:03:50Z</time>
      </trkpt>
      <trkpt lat="43.64839" lon="3.389">
        <ele>195.9</ele>
        <time>2016-10-22T13:03:55Z</time>
      </trkpt>
      <trkpt lat="43.64846" lon="3.38904">
        <ele>196.2</ele>
        <time>2016-10-22T13:03:59Z</time>
      </trkpt>
      <trkpt lat="43.64853" lon="3.38906">
        <ele>196.6</ele>
        <time>2016-10-22T13:04:03Z</time>
      </trkpt>
      <trkpt lat="43.64861" lon="3.38912">
        <ele>197</ele>
        <time>2016-10-22T13:04:08Z</time>
      </trkpt>
      <trkpt lat="43.64869" lon="3.38916">
        <ele>197.3</ele>
        <time>2016-10-22T13:04:12Z</time>
      </trkpt>
      <trkpt lat="43.64875" lon="3.38921">
        <ele>197.9</ele>
        <time>2016-10-22T13:04:16Z</time>
      </trkpt>
      <trkpt lat="43.64882" lon="3.38927">
        <ele>198.5</ele>
        <time>2016-10-22T13:04:21Z</time>
      </trkpt>
      <trkpt lat="43.64886" lon="3.38935">
        <ele>199.1</ele>
        <time>2016-10-22T13:04:25Z</time>
      </trkpt>
      <trkpt lat="43.64891" lon="3.38944">
        <ele>199.7</ele>
        <time>2016-10-22T13:04:29Z</time>
      </trkpt>
      <trkpt lat="43.64897" lon="3.38951">
        <ele>200.1</ele>
        <time>2016-10-22T13:04:33Z</time>
      </trkpt>
      <trkpt lat="43.64903" lon="3.38956">
        <ele>200.8</ele>
        <time>2016-10-22T13:04:38Z</time>
      </trkpt>
      <trkpt lat="43.64908" lon="3.38964">
        <ele>201.6</ele>
        <time>2016-10-22T13:04:43Z</time>
      </trkpt>
      <trkpt lat="43.64912" lon="3.38973">
        <ele>202.5</ele>
        <time>2016-10-22T13:04:48Z</time>
      </trkpt>
      <trkpt lat="43.64912" lon="3.38986">
        <ele>203</ele>
        <time>2016-10-22T13:04:51Z</time>
      </trkpt>
      <trkpt lat="43.6491" lon="3.38996">
        <ele>203.6</ele>
        <time>2016-10-22T13:04:54Z</time>
      </trkpt>
      <trkpt lat="43.64909" lon="3.39007">
        <ele>204.2</ele>
        <time>2016-10-22T13:04:58Z</time>
      </trkpt>
      <trkpt lat="43.64912" lon="3.39016">
        <ele>204.7</ele>
        <time>2016-10-22T13:05:02Z</time>
      </trkpt>
      <trkpt lat="43.6491" lon="3.39026">
        <ele>205.8</ele>
        <time>2016-10-22T13:05:07Z</time>
      </trkpt>
      <trkpt lat="43.6491" lon="3.39037">
        <ele>207</ele>
        <time>2016-10-22T13:05:12Z</time>
      </trkpt>
      <trkpt lat="43.64913" lon="3.39047">
        <ele>207.6</ele>
        <time>2016-10-22T13:05:15Z</time>
      </trkpt>
      <trkpt lat="43.6492" lon="3.39055">
        <ele>208.4</ele>
        <time>2016-10-22T13:05:19Z</time>
      </trkpt>
      <trkpt lat="43.64926" lon="3.39063">
        <ele>209.1</ele>
        <time>2016-10-22T13:05:23Z</time>
      </trkpt>
      <trkpt lat="43.64921" lon="3.39072">
        <ele>210.7</ele>
        <time>2016-10-22T13:05:30Z</time>
      </trkpt>
      <trkpt lat="43.64912" lon="3.39074">
        <ele>211.3</ele>
        <time>2016-10-22T13:05:33Z</time>
      </trkpt>
      <trkpt lat="43.64902" lon="3.39078">
        <ele>211.7</ele>
        <time>2016-10-22T13:05:36Z</time>
      </trkpt>
      <trkpt lat="43.64895" lon="3.39082">
        <ele>211.9</ele>
        <time>2016-10-22T13:05:38Z</time>
      </trkpt>
      <trkpt lat="43.64888" lon="3.39084">
        <ele>213.1</ele>
        <time>2016-10-22T13:05:40Z</time>
      </trkpt>
      <trkpt lat="43.6488" lon="3.39088">
        <ele>214.1</ele>
        <time>2016-10-22T13:05:42Z</time>
      </trkpt>
      <trkpt lat="43.64873" lon="3.39093">
        <ele>214.4</ele>
        <time>2016-10-22T13:05:44Z</time>
      </trkpt>
      <trkpt lat="43.64865" lon="3.39097">
        <ele>215.1</ele>
        <time>2016-10-22T13:05:46Z</time>
      </trkpt>
      <trkpt lat="43.64858" lon="3.39103">
        <ele>216.1</ele>
        <time>2016-10-22T13:05:48Z</time>
      </trkpt>
      <trkpt lat="43.64851" lon="3.39109">
        <ele>216.5</ele>
        <time>2016-10-22T13:05:50Z</time>
      </trkpt>
      <trkpt lat="43.64844" lon="3.39114">
        <ele>216.6</ele>
        <time>2016-10-22T13:05:52Z</time>
      </trkpt>
      <trkpt lat="43.64838" lon="3.39121">
        <ele>216.9</ele>
        <time>2016-10-22T13:05:54Z</time>
      </trkpt>
      <trkpt lat="43.64831" lon="3.39127">
        <ele>217.5</ele>
        <time>2016-10-22T13:05:56Z</time>
      </trkpt>
      <trkpt lat="43.64823" lon="3.39135">
        <ele>217.5</ele>
        <time>2016-10-22T13:05:58Z</time>
      </trkpt>
      <trkpt lat="43.64815" lon="3.39145">
        <ele>217.2</ele>
        <time>2016-10-22T13:06:00Z</time>
      </trkpt>
      <trkpt lat="43.64806" lon="3.39154">
        <ele>217</ele>
        <time>2016-10-22T13:06:02Z</time>
      </trkpt>
      <trkpt lat="43.64797" lon="3.39163">
        <ele>216.7</ele>
        <time>2016-10-22T13:06:04Z</time>
      </trkpt>
      <trkpt lat="43.64788" lon="3.39172">
        <ele>216.4</ele>
        <time>2016-10-22T13:06:06Z</time>
      </trkpt>
      <trkpt lat="43.64779" lon="3.39182">
        <ele>215.7</ele>
        <time>2016-10-22T13:06:08Z</time>
      </trkpt>
      <trkpt lat="43.64772" lon="3.39192">
        <ele>214.9</ele>
        <time>2016-10-22T13:06:10Z</time>
      </trkpt>
      <trkpt lat="43.64763" lon="3.39202">
        <ele>214.6</ele>
        <time>2016-10-22T13:06:12Z</time>
      </trkpt>
      <trkpt lat="43.64755" lon="3.39213">
        <ele>214.8</ele>
        <time>2016-10-22T13:06:14Z</time>
      </trkpt>
      <trkpt lat="43.64747" lon="3.39224">
        <ele>214.8</ele>
        <time>2016-10-22T13:06:16Z</time>
      </trkpt>
      <trkpt lat="43.64739" lon="3.39236">
        <ele>214.3</ele>
        <time>2016-10-22T13:06:18Z</time>
      </trkpt>
      <trkpt lat="43.64731" lon="3.39248">
        <ele>213.3</ele>
        <time>2016-10-22T13:06:20Z</time>
      </trkpt>
      <trkpt lat="43.64723" lon="3.39261">
        <ele>212.5</ele>
        <time>2016-10-22T13:06:22Z</time>
      </trkpt>
      <trkpt lat="43.64715" lon="3.39273">
        <ele>211.8</ele>
        <time>2016-10-22T13:06:24Z</time>
      </trkpt>
      <trkpt lat="43.64707" lon="3.39286">
        <ele>210.4</ele>
        <time>2016-10-22T13:06:26Z</time>
      </trkpt>
      <trkpt lat="43.64698" lon="3.393">
        <ele>208.9</ele>
        <time>2016-10-22T13:06:28Z</time>
      </trkpt>
      <trkpt lat="43.6469" lon="3.39313">
        <ele>207.7</ele>
        <time>2016-10-22T13:06:30Z</time>
      </trkpt>
      <trkpt lat="43.64681" lon="3.39326">
        <ele>207.2</ele>
        <time>2016-10-22T13:06:32Z</time>
      </trkpt>
      <trkpt lat="43.64673" lon="3.39339">
        <ele>206.7</ele>
        <time>2016-10-22T13:06:34Z</time>
      </trkpt>
      <trkpt lat="43.64665" lon="3.39352">
        <ele>206.2</ele>
        <time>2016-10-22T13:06:36Z</time>
      </trkpt>
      <trkpt lat="43.64657" lon="3.39364">
        <ele>205.4</ele>
        <time>2016-10-22T13:06:38Z</time>
      </trkpt>
      <trkpt lat="43.64649" lon="3.39376">
        <ele>206.4</ele>
        <time>2016-10-22T13:06:40Z</time>
      </trkpt>
      <trkpt lat="43.64641" lon="3.39387">
        <ele>207.4</ele>
        <time>2016-10-22T13:06:42Z</time>
      </trkpt>
      <trkpt lat="43.64634" lon="3.39398">
        <ele>207.6</ele>
        <time>2016-10-22T13:06:44Z</time>
      </trkpt>
      <trkpt lat="43.64629" lon="3.39408">
        <ele>206.8</ele>
        <time>2016-10-22T13:06:46Z</time>
      </trkpt>
      <trkpt lat="43.64623" lon="3.39417">
        <ele>206.6</ele>
        <time>2016-10-22T13:06:48Z</time>
      </trkpt>
      <trkpt lat="43.64617" lon="3.39426">
        <ele>206.4</ele>
        <time>2016-10-22T13:06:50Z</time>
      </trkpt>
      <trkpt lat="43.64611" lon="3.39436">
        <ele>205.6</ele>
        <time>2016-10-22T13:06:52Z</time>
      </trkpt>
      <trkpt lat="43.64606" lon="3.39444">
        <ele>205</ele>
        <time>2016-10-22T13:06:54Z</time>
      </trkpt>
      <trkpt lat="43.646" lon="3.39454">
        <ele>205.5</ele>
        <time>2016-10-22T13:06:56Z</time>
      </trkpt>
      <trkpt lat="43.64594" lon="3.39463">
        <ele>205.9</ele>
        <time>2016-10-22T13:06:58Z</time>
      </trkpt>
      <trkpt lat="43.64589" lon="3.39471">
        <ele>206.4</ele>
        <time>2016-10-22T13:07:00Z</time>
      </trkpt>
      <trkpt lat="43.64583" lon="3.39479">
        <ele>206.6</ele>
        <time>2016-10-22T13:07:02Z</time>
      </trkpt>
      <trkpt lat="43.64578" lon="3.39489">
        <ele>206.5</ele>
        <time>2016-10-22T13:07:04Z</time>
      </trkpt>
      <trkpt lat="43.64573" lon="3.39497">
        <ele>206.3</ele>
        <time>2016-10-22T13:07:06Z</time>
      </trkpt>
      <trkpt lat="43.64568" lon="3.39505">
        <ele>206.1</ele>
        <time>2016-10-22T13:07:08Z</time>
      </trkpt>
      <trkpt lat="43.64563" lon="3.39513">
        <ele>206.2</ele>
        <time>2016-10-22T13:07:10Z</time>
      </trkpt>
      <trkpt lat="43.64558" lon="3.39521">
        <ele>206.5</ele>
        <time>2016-10-22T13:07:12Z</time>
      </trkpt>
      <trkpt lat="43.64554" lon="3.3953">
        <ele>206.4</ele>
        <time>2016-10-22T13:07:14Z</time>
      </trkpt>
      <trkpt lat="43.64549" lon="3.39538">
        <ele>206.4</ele>
        <time>2016-10-22T13:07:16Z</time>
      </trkpt>
      <trkpt lat="43.64544" lon="3.3955">
        <ele>206.6</ele>
        <time>2016-10-22T13:07:19Z</time>
      </trkpt>
      <trkpt lat="43.64543" lon="3.39565">
        <ele>206.3</ele>
        <time>2016-10-22T13:07:22Z</time>
      </trkpt>
      <trkpt lat="43.64539" lon="3.39575">
        <ele>206.5</ele>
        <time>2016-10-22T13:07:24Z</time>
      </trkpt>
      <trkpt lat="43.64533" lon="3.39584">
        <ele>206.6</ele>
        <time>2016-10-22T13:07:26Z</time>
      </trkpt>
      <trkpt lat="43.64526" lon="3.39593">
        <ele>206.6</ele>
        <time>2016-10-22T13:07:28Z</time>
      </trkpt>
      <trkpt lat="43.64519" lon="3.39601">
        <ele>206.4</ele>
        <time>2016-10-22T13:07:30Z</time>
      </trkpt>
      <trkpt lat="43.64513" lon="3.3961">
        <ele>206.5</ele>
        <time>2016-10-22T13:07:32Z</time>
      </trkpt>
      <trkpt lat="43.64508" lon="3.39618">
        <ele>206.7</ele>
        <time>2016-10-22T13:07:34Z</time>
      </trkpt>
      <trkpt lat="43.64503" lon="3.39629">
        <ele>206.6</ele>
        <time>2016-10-22T13:07:36Z</time>
      </trkpt>
      <trkpt lat="43.64499" lon="3.3964">
        <ele>206.9</ele>
        <time>2016-10-22T13:07:39Z</time>
      </trkpt>
      <trkpt lat="43.64493" lon="3.39652">
        <ele>207</ele>
        <time>2016-10-22T13:07:42Z</time>
      </trkpt>
      <trkpt lat="43.64488" lon="3.3966">
        <ele>207.1</ele>
        <time>2016-10-22T13:07:44Z</time>
      </trkpt>
      <trkpt lat="43.64482" lon="3.39668">
        <ele>207.3</ele>
        <time>2016-10-22T13:07:46Z</time>
      </trkpt>
      <trkpt lat="43.64477" lon="3.39676">
        <ele>207.3</ele>
        <time>2016-10-22T13:07:48Z</time>
      </trkpt>
      <trkpt lat="43.64471" lon="3.39687">
        <ele>207.3</ele>
        <time>2016-10-22T13:07:51Z</time>
      </trkpt>
      <trkpt lat="43.64465" lon="3.39696">
        <ele>207.1</ele>
        <time>2016-10-22T13:07:53Z</time>
      </trkpt>
      <trkpt lat="43.64458" lon="3.39708">
        <ele>206.9</ele>
        <time>2016-10-22T13:07:56Z</time>
      </trkpt>
      <trkpt lat="43.6445" lon="3.39719">
        <ele>207.2</ele>
        <time>2016-10-22T13:07:59Z</time>
      </trkpt>
      <trkpt lat="43.64442" lon="3.39729">
        <ele>207.5</ele>
        <time>2016-10-22T13:08:02Z</time>
      </trkpt>
      <trkpt lat="43.64435" lon="3.39737">
        <ele>207.7</ele>
        <time>2016-10-22T13:08:05Z</time>
      </trkpt>
      <trkpt lat="43.64428" lon="3.39747">
        <ele>207.9</ele>
        <time>2016-10-22T13:08:08Z</time>
      </trkpt>
      <trkpt lat="43.64421" lon="3.39757">
        <ele>208.1</ele>
        <time>2016-10-22T13:08:11Z</time>
      </trkpt>
      <trkpt lat="43.64417" lon="3.39768">
        <ele>208.4</ele>
        <time>2016-10-22T13:08:14Z</time>
      </trkpt>
      <trkpt lat="43.64412" lon="3.39779">
        <ele>208.6</ele>
        <time>2016-10-22T13:08:17Z</time>
      </trkpt>
      <trkpt lat="43.64407" lon="3.39788">
        <ele>208.8</ele>
        <time>2016-10-22T13:08:20Z</time>
      </trkpt>
      <trkpt lat="43.64401" lon="3.39798">
        <ele>209.1</ele>
        <time>2016-10-22T13:08:23Z</time>
      </trkpt>
      <trkpt lat="43.64397" lon="3.39807">
        <ele>209.3</ele>
        <time>2016-10-22T13:08:26Z</time>
      </trkpt>
      <trkpt lat="43.64392" lon="3.39817">
        <ele>209.5</ele>
        <time>2016-10-22T13:08:29Z</time>
      </trkpt>
      <trkpt lat="43.64389" lon="3.39826">
        <ele>209.8</ele>
        <time>2016-10-22T13:08:32Z</time>
      </trkpt>
      <trkpt lat="43.64386" lon="3.39836">
        <ele>209.9</ele>
        <time>2016-10-22T13:08:35Z</time>
      </trkpt>
      <trkpt lat="43.64383" lon="3.39846">
        <ele>210.1</ele>
        <time>2016-10-22T13:08:38Z</time>
      </trkpt>
      <trkpt lat="43.64381" lon="3.39855">
        <ele>210.2</ele>
        <time>2016-10-22T13:08:41Z</time>
      </trkpt>
      <trkpt lat="43.64378" lon="3.39866">
        <ele>210.5</ele>
        <time>2016-10-22T13:08:44Z</time>
      </trkpt>
      <trkpt lat="43.64375" lon="3.39878">
        <ele>210.7</ele>
        <time>2016-10-22T13:08:47Z</time>
      </trkpt>
      <trkpt lat="43.64372" lon="3.39887">
        <ele>211</ele>
        <time>2016-10-22T13:08:50Z</time>
      </trkpt>
      <trkpt lat="43.64368" lon="3.39899">
        <ele>211.3</ele>
        <time>2016-10-22T13:08:53Z</time>
      </trkpt>
      <trkpt lat="43.64364" lon="3.3991">
        <ele>211.5</ele>
        <time>2016-10-22T13:08:56Z</time>
      </trkpt>
      <trkpt lat="43.64361" lon="3.39922">
        <ele>211.6</ele>
        <time>2016-10-22T13:08:59Z</time>
      </trkpt>
      <trkpt lat="43.64359" lon="3.39934">
        <ele>211.8</ele>
        <time>2016-10-22T13:09:02Z</time>
      </trkpt>
      <trkpt lat="43.64357" lon="3.39946">
        <ele>212</ele>
        <time>2016-10-22T13:09:05Z</time>
      </trkpt>
      <trkpt lat="43.64353" lon="3.39957">
        <ele>212.1</ele>
        <time>2016-10-22T13:09:08Z</time>
      </trkpt>
      <trkpt lat="43.6435" lon="3.39968">
        <ele>212.4</ele>
        <time>2016-10-22T13:09:11Z</time>
      </trkpt>
      <trkpt lat="43.64348" lon="3.39981">
        <ele>212.6</ele>
        <time>2016-10-22T13:09:14Z</time>
      </trkpt>
      <trkpt lat="43.64345" lon="3.39994">
        <ele>212.9</ele>
        <time>2016-10-22T13:09:17Z</time>
      </trkpt>
      <trkpt lat="43.64344" lon="3.40008">
        <ele>213.1</ele>
        <time>2016-10-22T13:09:20Z</time>
      </trkpt>
      <trkpt lat="43.64342" lon="3.40021">
        <ele>213.1</ele>
        <time>2016-10-22T13:09:23Z</time>
      </trkpt>
      <trkpt lat="43.64339" lon="3.40034">
        <ele>213.3</ele>
        <time>2016-10-22T13:09:26Z</time>
      </trkpt>
      <trkpt lat="43.64337" lon="3.40049">
        <ele>213.5</ele>
        <time>2016-10-22T13:09:29Z</time>
      </trkpt>
      <trkpt lat="43.64335" lon="3.40063">
        <ele>213.6</ele>
        <time>2016-10-22T13:09:32Z</time>
      </trkpt>
      <trkpt lat="43.64333" lon="3.40077">
        <ele>213.8</ele>
        <time>2016-10-22T13:09:35Z</time>
      </trkpt>
      <trkpt lat="43.6433" lon="3.40087">
        <ele>213.9</ele>
        <time>2016-10-22T13:09:37Z</time>
      </trkpt>
      <trkpt lat="43.64328" lon="3.40096">
        <ele>214.1</ele>
        <time>2016-10-22T13:09:39Z</time>
      </trkpt>
      <trkpt lat="43.64326" lon="3.40109">
        <ele>214.2</ele>
        <time>2016-10-22T13:09:42Z</time>
      </trkpt>
      <trkpt lat="43.64323" lon="3.40123">
        <ele>215</ele>
        <time>2016-10-22T13:09:45Z</time>
      </trkpt>
      <trkpt lat="43.6432" lon="3.40133">
        <ele>215.7</ele>
        <time>2016-10-22T13:09:47Z</time>
      </trkpt>
      <trkpt lat="43.64317" lon="3.40144">
        <ele>215.8</ele>
        <time>2016-10-22T13:09:49Z</time>
      </trkpt>
      <trkpt lat="43.64313" lon="3.40157">
        <ele>216</ele>
        <time>2016-10-22T13:09:52Z</time>
      </trkpt>
      <trkpt lat="43.64309" lon="3.40166">
        <ele>216.1</ele>
        <time>2016-10-22T13:09:54Z</time>
      </trkpt>
      <trkpt lat="43.64306" lon="3.40177">
        <ele>216.2</ele>
        <time>2016-10-22T13:09:57Z</time>
      </trkpt>
      <trkpt lat="43.64301" lon="3.40188">
        <ele>216.2</ele>
        <time>2016-10-22T13:10:00Z</time>
      </trkpt>
      <trkpt lat="43.64296" lon="3.40197">
        <ele>216.4</ele>
        <time>2016-10-22T13:10:03Z</time>
      </trkpt>
      <trkpt lat="43.64292" lon="3.40209">
        <ele>216.5</ele>
        <time>2016-10-22T13:10:06Z</time>
      </trkpt>
      <trkpt lat="43.6429" lon="3.40218">
        <ele>216.6</ele>
        <time>2016-10-22T13:10:09Z</time>
      </trkpt>
      <trkpt lat="43.64287" lon="3.40228">
        <ele>216.7</ele>
        <time>2016-10-22T13:10:12Z</time>
      </trkpt>
      <trkpt lat="43.64283" lon="3.40239">
        <ele>216.8</ele>
        <time>2016-10-22T13:10:15Z</time>
      </trkpt>
      <trkpt lat="43.6428" lon="3.4025">
        <ele>217</ele>
        <time>2016-10-22T13:10:18Z</time>
      </trkpt>
      <trkpt lat="43.64277" lon="3.40261">
        <ele>217.1</ele>
        <time>2016-10-22T13:10:21Z</time>
      </trkpt>
      <trkpt lat="43.64274" lon="3.40271">
        <ele>217.3</ele>
        <time>2016-10-22T13:10:24Z</time>
      </trkpt>
      <trkpt lat="43.6427" lon="3.40282">
        <ele>217.5</ele>
        <time>2016-10-22T13:10:27Z</time>
      </trkpt>
      <trkpt lat="43.64267" lon="3.40291">
        <ele>217.6</ele>
        <time>2016-10-22T13:10:30Z</time>
      </trkpt>
      <trkpt lat="43.64265" lon="3.40302">
        <ele>217.7</ele>
        <time>2016-10-22T13:10:33Z</time>
      </trkpt>
      <trkpt lat="43.64265" lon="3.40314">
        <ele>218</ele>
        <time>2016-10-22T13:10:37Z</time>
      </trkpt>
      <trkpt lat="43.64265" lon="3.40324">
        <ele>218.2</ele>
        <time>2016-10-22T13:10:40Z</time>
      </trkpt>
      <trkpt lat="43.64266" lon="3.40336">
        <ele>218.5</ele>
        <time>2016-10-22T13:10:44Z</time>
      </trkpt>
      <trkpt lat="43.64267" lon="3.40348">
        <ele>218.8</ele>
        <time>2016-10-22T13:10:48Z</time>
      </trkpt>
      <trkpt lat="43.64268" lon="3.4036">
        <ele>219</ele>
        <time>2016-10-22T13:10:52Z</time>
      </trkpt>
      <trkpt lat="43.64267" lon="3.40371">
        <ele>219.4</ele>
        <time>2016-10-22T13:10:55Z</time>
      </trkpt>
      <trkpt lat="43.64267" lon="3.40383">
        <ele>219.8</ele>
        <time>2016-10-22T13:10:59Z</time>
      </trkpt>
      <trkpt lat="43.64267" lon="3.40394">
        <ele>220</ele>
        <time>2016-10-22T13:11:03Z</time>
      </trkpt>
      <trkpt lat="43.64269" lon="3.40406">
        <ele>220.7</ele>
        <time>2016-10-22T13:11:07Z</time>
      </trkpt>
      <trkpt lat="43.64269" lon="3.40416">
        <ele>221.5</ele>
        <time>2016-10-22T13:11:11Z</time>
      </trkpt>
      <trkpt lat="43.64267" lon="3.40427">
        <ele>222.1</ele>
        <time>2016-10-22T13:11:15Z</time>
      </trkpt>
      <trkpt lat="43.64265" lon="3.40439">
        <ele>222.6</ele>
        <time>2016-10-22T13:11:20Z</time>
      </trkpt>
      <trkpt lat="43.64265" lon="3.40449">
        <ele>223.2</ele>
        <time>2016-10-22T13:11:25Z</time>
      </trkpt>
      <trkpt lat="43.64265" lon="3.4046">
        <ele>223.7</ele>
        <time>2016-10-22T13:11:29Z</time>
      </trkpt>
      <trkpt lat="43.64265" lon="3.40472">
        <ele>224.5</ele>
        <time>2016-10-22T13:11:34Z</time>
      </trkpt>
      <trkpt lat="43.64265" lon="3.40484">
        <ele>225.2</ele>
        <time>2016-10-22T13:11:38Z</time>
      </trkpt>
      <trkpt lat="43.64265" lon="3.40496">
        <ele>225.9</ele>
        <time>2016-10-22T13:11:42Z</time>
      </trkpt>
      <trkpt lat="43.64264" lon="3.40508">
        <ele>226.6</ele>
        <time>2016-10-22T13:11:46Z</time>
      </trkpt>
      <trkpt lat="43.64264" lon="3.40519">
        <ele>227.2</ele>
        <time>2016-10-22T13:11:50Z</time>
      </trkpt>
      <trkpt lat="43.64264" lon="3.40531">
        <ele>227.7</ele>
        <time>2016-10-22T13:11:54Z</time>
      </trkpt>
      <trkpt lat="43.64264" lon="3.40541">
        <ele>228.4</ele>
        <time>2016-10-22T13:11:58Z</time>
      </trkpt>
      <trkpt lat="43.64264" lon="3.40553">
        <ele>229</ele>
        <time>2016-10-22T13:12:02Z</time>
      </trkpt>
      <trkpt lat="43.64265" lon="3.40565">
        <ele>229.7</ele>
        <time>2016-10-22T13:12:06Z</time>
      </trkpt>
      <trkpt lat="43.64266" lon="3.40576">
        <ele>230.5</ele>
        <time>2016-10-22T13:12:10Z</time>
      </trkpt>
      <trkpt lat="43.64266" lon="3.40587">
        <ele>231.3</ele>
        <time>2016-10-22T13:12:14Z</time>
      </trkpt>
      <trkpt lat="43.64266" lon="3.40598">
        <ele>232.4</ele>
        <time>2016-10-22T13:12:18Z</time>
      </trkpt>
      <trkpt lat="43.64264" lon="3.4061">
        <ele>233.6</ele>
        <time>2016-10-22T13:12:23Z</time>
      </trkpt>
      <trkpt lat="43.64263" lon="3.4062">
        <ele>234.5</ele>
        <time>2016-10-22T13:12:27Z</time>
      </trkpt>
      <trkpt lat="43.64261" lon="3.40631">
        <ele>235.2</ele>
        <time>2016-10-22T13:12:30Z</time>
      </trkpt>
      <trkpt lat="43.6426" lon="3.40642">
        <ele>235.8</ele>
        <time>2016-10-22T13:12:34Z</time>
      </trkpt>
      <trkpt lat="43.64259" lon="3.40651">
        <ele>236.6</ele>
        <time>2016-10-22T13:12:37Z</time>
      </trkpt>
      <trkpt lat="43.64258" lon="3.40663">
        <ele>237.4</ele>
        <time>2016-10-22T13:12:40Z</time>
      </trkpt>
      <trkpt lat="43.64256" lon="3.40673">
        <ele>238.2</ele>
        <time>2016-10-22T13:12:44Z</time>
      </trkpt>
      <trkpt lat="43.64257" lon="3.40684">
        <ele>239.1</ele>
        <time>2016-10-22T13:12:49Z</time>
      </trkpt>
      <trkpt lat="43.64262" lon="3.40692">
        <ele>240.3</ele>
        <time>2016-10-22T13:12:54Z</time>
      </trkpt>
      <trkpt lat="43.64257" lon="3.407">
        <ele>241.8</ele>
        <time>2016-10-22T13:13:00Z</time>
      </trkpt>
      <trkpt lat="43.64252" lon="3.40708">
        <ele>242.4</ele>
        <time>2016-10-22T13:13:03Z</time>
      </trkpt>
      <trkpt lat="43.64247" lon="3.40716">
        <ele>243.3</ele>
        <time>2016-10-22T13:13:07Z</time>
      </trkpt>
      <trkpt lat="43.64244" lon="3.40727">
        <ele>244</ele>
        <time>2016-10-22T13:13:10Z</time>
      </trkpt>
      <trkpt lat="43.64241" lon="3.40738">
        <ele>244.6</ele>
        <time>2016-10-22T13:13:13Z</time>
      </trkpt>
      <trkpt lat="43.64238" lon="3.40751">
        <ele>245.3</ele>
        <time>2016-10-22T13:13:16Z</time>
      </trkpt>
      <trkpt lat="43.64235" lon="3.40763">
        <ele>245.8</ele>
        <time>2016-10-22T13:13:19Z</time>
      </trkpt>
      <trkpt lat="43.64233" lon="3.40773">
        <ele>246</ele>
        <time>2016-10-22T13:13:21Z</time>
      </trkpt>
      <trkpt lat="43.6423" lon="3.40785">
        <ele>246.5</ele>
        <time>2016-10-22T13:13:24Z</time>
      </trkpt>
      <trkpt lat="43.64226" lon="3.40799">
        <ele>246.8</ele>
        <time>2016-10-22T13:13:27Z</time>
      </trkpt>
      <trkpt lat="43.64224" lon="3.40808">
        <ele>247</ele>
        <time>2016-10-22T13:13:29Z</time>
      </trkpt>
      <trkpt lat="43.64221" lon="3.40822">
        <ele>247.3</ele>
        <time>2016-10-22T13:13:32Z</time>
      </trkpt>
      <trkpt lat="43.64218" lon="3.40835">
        <ele>247.6</ele>
        <time>2016-10-22T13:13:35Z</time>
      </trkpt>
      <trkpt lat="43.64216" lon="3.40849">
        <ele>247.9</ele>
        <time>2016-10-22T13:13:38Z</time>
      </trkpt>
      <trkpt lat="43.64213" lon="3.40862">
        <ele>248.2</ele>
        <time>2016-10-22T13:13:41Z</time>
      </trkpt>
      <trkpt lat="43.64209" lon="3.40871">
        <ele>250.1</ele>
        <time>2016-10-22T13:13:43Z</time>
      </trkpt>
      <trkpt lat="43.64204" lon="3.40882">
        <ele>251.4</ele>
        <time>2016-10-22T13:13:45Z</time>
      </trkpt>
      <trkpt lat="43.64199" lon="3.40892">
        <ele>251.1</ele>
        <time>2016-10-22T13:13:47Z</time>
      </trkpt>
      <trkpt lat="43.64194" lon="3.40903">
        <ele>251.1</ele>
        <time>2016-10-22T13:13:49Z</time>
      </trkpt>
      <trkpt lat="43.6419" lon="3.40915">
        <ele>251.3</ele>
        <time>2016-10-22T13:13:51Z</time>
      </trkpt>
      <trkpt lat="43.64186" lon="3.40928">
        <ele>250.8</ele>
        <time>2016-10-22T13:13:53Z</time>
      </trkpt>
      <trkpt lat="43.64183" lon="3.40942">
        <ele>250.7</ele>
        <time>2016-10-22T13:13:55Z</time>
      </trkpt>
      <trkpt lat="43.6418" lon="3.40956">
        <ele>250.5</ele>
        <time>2016-10-22T13:13:57Z</time>
      </trkpt>
      <trkpt lat="43.64174" lon="3.40967">
        <ele>250.1</ele>
        <time>2016-10-22T13:13:59Z</time>
      </trkpt>
      <trkpt lat="43.64168" lon="3.40979">
        <ele>249.1</ele>
        <time>2016-10-22T13:14:01Z</time>
      </trkpt>
      <trkpt lat="43.6416" lon="3.40989">
        <ele>248.3</ele>
        <time>2016-10-22T13:14:03Z</time>
      </trkpt>
      <trkpt lat="43.64151" lon="3.40999">
        <ele>248.5</ele>
        <time>2016-10-22T13:14:05Z</time>
      </trkpt>
      <trkpt lat="43.64143" lon="3.4101">
        <ele>248.7</ele>
        <time>2016-10-22T13:14:07Z</time>
      </trkpt>
      <trkpt lat="43.64135" lon="3.4102">
        <ele>248.5</ele>
        <time>2016-10-22T13:14:09Z</time>
      </trkpt>
      <trkpt lat="43.64126" lon="3.41032">
        <ele>247.5</ele>
        <time>2016-10-22T13:14:11Z</time>
      </trkpt>
      <trkpt lat="43.64119" lon="3.41045">
        <ele>247</ele>
        <time>2016-10-22T13:14:13Z</time>
      </trkpt>
      <trkpt lat="43.64113" lon="3.41058">
        <ele>246.8</ele>
        <time>2016-10-22T13:14:15Z</time>
      </trkpt>
      <trkpt lat="43.64107" lon="3.41073">
        <ele>245.9</ele>
        <time>2016-10-22T13:14:17Z</time>
      </trkpt>
      <trkpt lat="43.64102" lon="3.41089">
        <ele>245.8</ele>
        <time>2016-10-22T13:14:19Z</time>
      </trkpt>
      <trkpt lat="43.64097" lon="3.41106">
        <ele>246.2</ele>
        <time>2016-10-22T13:14:21Z</time>
      </trkpt>
      <trkpt lat="43.64092" lon="3.41123">
        <ele>246.4</ele>
        <time>2016-10-22T13:14:23Z</time>
      </trkpt>
      <trkpt lat="43.64089" lon="3.41133">
        <ele>246.1</ele>
        <time>2016-10-22T13:14:24Z</time>
      </trkpt>
      <trkpt lat="43.64087" lon="3.41143">
        <ele>246</ele>
        <time>2016-10-22T13:14:25Z</time>
      </trkpt>
      <trkpt lat="43.64081" lon="3.41161">
        <ele>245.6</ele>
        <time>2016-10-22T13:14:27Z</time>
      </trkpt>
      <trkpt lat="43.64077" lon="3.41178">
        <ele>244.9</ele>
        <time>2016-10-22T13:14:29Z</time>
      </trkpt>
      <trkpt lat="43.64072" lon="3.41196">
        <ele>244.2</ele>
        <time>2016-10-22T13:14:31Z</time>
      </trkpt>
      <trkpt lat="43.64067" lon="3.41213">
        <ele>243.9</ele>
        <time>2016-10-22T13:14:33Z</time>
      </trkpt>
      <trkpt lat="43.64062" lon="3.4123">
        <ele>243.7</ele>
        <time>2016-10-22T13:14:35Z</time>
      </trkpt>
      <trkpt lat="43.64057" lon="3.41246">
        <ele>242.8</ele>
        <time>2016-10-22T13:14:37Z</time>
      </trkpt>
      <trkpt lat="43.64052" lon="3.41262">
        <ele>241.7</ele>
        <time>2016-10-22T13:14:39Z</time>
      </trkpt>
      <trkpt lat="43.64049" lon="3.41272">
        <ele>240.9</ele>
        <time>2016-10-22T13:14:40Z</time>
      </trkpt>
      <trkpt lat="43.64044" lon="3.4129">
        <ele>240.2</ele>
        <time>2016-10-22T13:14:42Z</time>
      </trkpt>
      <trkpt lat="43.64038" lon="3.41308">
        <ele>239.3</ele>
        <time>2016-10-22T13:14:44Z</time>
      </trkpt>
      <trkpt lat="43.64029" lon="3.41321">
        <ele>238.3</ele>
        <time>2016-10-22T13:14:46Z</time>
      </trkpt>
      <trkpt lat="43.64018" lon="3.41333">
        <ele>238</ele>
        <time>2016-10-22T13:14:48Z</time>
      </trkpt>
      <trkpt lat="43.64007" lon="3.41344">
        <ele>238.9</ele>
        <time>2016-10-22T13:14:50Z</time>
      </trkpt>
      <trkpt lat="43.63998" lon="3.41358">
        <ele>239</ele>
        <time>2016-10-22T13:14:52Z</time>
      </trkpt>
      <trkpt lat="43.63994" lon="3.41375">
        <ele>237.5</ele>
        <time>2016-10-22T13:14:54Z</time>
      </trkpt>
      <trkpt lat="43.63994" lon="3.4139">
        <ele>236.6</ele>
        <time>2016-10-22T13:14:56Z</time>
      </trkpt>
      <trkpt lat="43.63996" lon="3.41408">
        <ele>236.3</ele>
        <time>2016-10-22T13:14:58Z</time>
      </trkpt>
      <trkpt lat="43.63999" lon="3.41425">
        <ele>235.5</ele>
        <time>2016-10-22T13:15:00Z</time>
      </trkpt>
      <trkpt lat="43.64002" lon="3.41443">
        <ele>235.9</ele>
        <time>2016-10-22T13:15:02Z</time>
      </trkpt>
      <trkpt lat="43.64005" lon="3.4146">
        <ele>235.8</ele>
        <time>2016-10-22T13:15:04Z</time>
      </trkpt>
      <trkpt lat="43.64007" lon="3.41476">
        <ele>236.1</ele>
        <time>2016-10-22T13:15:06Z</time>
      </trkpt>
      <trkpt lat="43.64009" lon="3.41493">
        <ele>236.7</ele>
        <time>2016-10-22T13:15:08Z</time>
      </trkpt>
      <trkpt lat="43.6401" lon="3.41511">
        <ele>236.6</ele>
        <time>2016-10-22T13:15:10Z</time>
      </trkpt>
      <trkpt lat="43.6401" lon="3.41527">
        <ele>236.6</ele>
        <time>2016-10-22T13:15:12Z</time>
      </trkpt>
      <trkpt lat="43.64011" lon="3.41542">
        <ele>237.3</ele>
        <time>2016-10-22T13:15:14Z</time>
      </trkpt>
      <trkpt lat="43.64012" lon="3.41557">
        <ele>238.3</ele>
        <time>2016-10-22T13:15:16Z</time>
      </trkpt>
      <trkpt lat="43.64014" lon="3.41572">
        <ele>238.6</ele>
        <time>2016-10-22T13:15:18Z</time>
      </trkpt>
      <trkpt lat="43.64018" lon="3.41588">
        <ele>239.9</ele>
        <time>2016-10-22T13:15:20Z</time>
      </trkpt>
      <trkpt lat="43.64022" lon="3.41602">
        <ele>240.5</ele>
        <time>2016-10-22T13:15:22Z</time>
      </trkpt>
      <trkpt lat="43.64026" lon="3.41616">
        <ele>241.8</ele>
        <time>2016-10-22T13:15:24Z</time>
      </trkpt>
      <trkpt lat="43.64031" lon="3.41629">
        <ele>243.4</ele>
        <time>2016-10-22T13:15:26Z</time>
      </trkpt>
      <trkpt lat="43.64036" lon="3.41642">
        <ele>244</ele>
        <time>2016-10-22T13:15:28Z</time>
      </trkpt>
      <trkpt lat="43.64041" lon="3.41655">
        <ele>243.9</ele>
        <time>2016-10-22T13:15:30Z</time>
      </trkpt>
      <trkpt lat="43.64046" lon="3.41669">
        <ele>243.6</ele>
        <time>2016-10-22T13:15:32Z</time>
      </trkpt>
      <trkpt lat="43.6405" lon="3.41683">
        <ele>243.7</ele>
        <time>2016-10-22T13:15:34Z</time>
      </trkpt>
      <trkpt lat="43.64054" lon="3.41697">
        <ele>243.6</ele>
        <time>2016-10-22T13:15:36Z</time>
      </trkpt>
      <trkpt lat="43.64057" lon="3.41712">
        <ele>243.4</ele>
        <time>2016-10-22T13:15:38Z</time>
      </trkpt>
      <trkpt lat="43.6406" lon="3.41728">
        <ele>242.8</ele>
        <time>2016-10-22T13:15:40Z</time>
      </trkpt>
      <trkpt lat="43.6406" lon="3.41744">
        <ele>241.8</ele>
        <time>2016-10-22T13:15:42Z</time>
      </trkpt>
      <trkpt lat="43.64057" lon="3.41759">
        <ele>241</ele>
        <time>2016-10-22T13:15:44Z</time>
      </trkpt>
      <trkpt lat="43.6405" lon="3.41773">
        <ele>241</ele>
        <time>2016-10-22T13:15:46Z</time>
      </trkpt>
      <trkpt lat="43.64042" lon="3.41784">
        <ele>241.5</ele>
        <time>2016-10-22T13:15:48Z</time>
      </trkpt>
      <trkpt lat="43.64032" lon="3.41795">
        <ele>241.2</ele>
        <time>2016-10-22T13:15:50Z</time>
      </trkpt>
      <trkpt lat="43.64022" lon="3.41807">
        <ele>240.6</ele>
        <time>2016-10-22T13:15:52Z</time>
      </trkpt>
      <trkpt lat="43.64011" lon="3.41818">
        <ele>240</ele>
        <time>2016-10-22T13:15:54Z</time>
      </trkpt>
      <trkpt lat="43.64005" lon="3.41825">
        <ele>239.6</ele>
        <time>2016-10-22T13:15:55Z</time>
      </trkpt>
      <trkpt lat="43.63999" lon="3.41831">
        <ele>239</ele>
        <time>2016-10-22T13:15:56Z</time>
      </trkpt>
      <trkpt lat="43.63993" lon="3.41839">
        <ele>238.3</ele>
        <time>2016-10-22T13:15:57Z</time>
      </trkpt>
      <trkpt lat="43.63986" lon="3.41846">
        <ele>237.8</ele>
        <time>2016-10-22T13:15:58Z</time>
      </trkpt>
      <trkpt lat="43.63979" lon="3.41852">
        <ele>237.3</ele>
        <time>2016-10-22T13:15:59Z</time>
      </trkpt>
      <trkpt lat="43.63971" lon="3.41857">
        <ele>236.8</ele>
        <time>2016-10-22T13:16:00Z</time>
      </trkpt>
      <trkpt lat="43.63962" lon="3.41859">
        <ele>236.3</ele>
        <time>2016-10-22T13:16:01Z</time>
      </trkpt>
      <trkpt lat="43.63954" lon="3.41861">
        <ele>235.9</ele>
        <time>2016-10-22T13:16:02Z</time>
      </trkpt>
      <trkpt lat="43.63945" lon="3.41861">
        <ele>235.4</ele>
        <time>2016-10-22T13:16:03Z</time>
      </trkpt>
      <trkpt lat="43.63935" lon="3.41861">
        <ele>234.9</ele>
        <time>2016-10-22T13:16:04Z</time>
      </trkpt>
      <trkpt lat="43.63926" lon="3.41861">
        <ele>234.4</ele>
        <time>2016-10-22T13:16:05Z</time>
      </trkpt>
      <trkpt lat="43.63917" lon="3.4186">
        <ele>233.9</ele>
        <time>2016-10-22T13:16:06Z</time>
      </trkpt>
      <trkpt lat="43.63908" lon="3.41858">
        <ele>233.6</ele>
        <time>2016-10-22T13:16:07Z</time>
      </trkpt>
      <trkpt lat="43.63898" lon="3.41857">
        <ele>233.3</ele>
        <time>2016-10-22T13:16:08Z</time>
      </trkpt>
      <trkpt lat="43.63889" lon="3.41856">
        <ele>232.9</ele>
        <time>2016-10-22T13:16:09Z</time>
      </trkpt>
      <trkpt lat="43.6388" lon="3.41856">
        <ele>232.5</ele>
        <time>2016-10-22T13:16:10Z</time>
      </trkpt>
      <trkpt lat="43.6387" lon="3.41854">
        <ele>231.8</ele>
        <time>2016-10-22T13:16:11Z</time>
      </trkpt>
      <trkpt lat="43.6386" lon="3.41854">
        <ele>231</ele>
        <time>2016-10-22T13:16:12Z</time>
      </trkpt>
      <trkpt lat="43.63851" lon="3.41853">
        <ele>230.3</ele>
        <time>2016-10-22T13:16:13Z</time>
      </trkpt>
      <trkpt lat="43.63842" lon="3.41852">
        <ele>228.7</ele>
        <time>2016-10-22T13:16:14Z</time>
      </trkpt>
      <trkpt lat="43.63832" lon="3.41851">
        <ele>227.8</ele>
        <time>2016-10-22T13:16:15Z</time>
      </trkpt>
      <trkpt lat="43.63822" lon="3.4185">
        <ele>227.1</ele>
        <time>2016-10-22T13:16:16Z</time>
      </trkpt>
      <trkpt lat="43.63813" lon="3.41849">
        <ele>226.7</ele>
        <time>2016-10-22T13:16:17Z</time>
      </trkpt>
      <trkpt lat="43.63803" lon="3.41848">
        <ele>226.3</ele>
        <time>2016-10-22T13:16:18Z</time>
      </trkpt>
      <trkpt lat="43.63792" lon="3.41847">
        <ele>225.5</ele>
        <time>2016-10-22T13:16:19Z</time>
      </trkpt>
      <trkpt lat="43.63783" lon="3.41846">
        <ele>224.7</ele>
        <time>2016-10-22T13:16:20Z</time>
      </trkpt>
      <trkpt lat="43.63773" lon="3.41846">
        <ele>223.8</ele>
        <time>2016-10-22T13:16:21Z</time>
      </trkpt>
      <trkpt lat="43.63763" lon="3.41846">
        <ele>223.2</ele>
        <time>2016-10-22T13:16:22Z</time>
      </trkpt>
      <trkpt lat="43.63753" lon="3.41845">
        <ele>222.5</ele>
        <time>2016-10-22T13:16:23Z</time>
      </trkpt>
      <trkpt lat="43.63743" lon="3.41844">
        <ele>221.7</ele>
        <time>2016-10-22T13:16:24Z</time>
      </trkpt>
      <trkpt lat="43.63734" lon="3.41844">
        <ele>221</ele>
        <time>2016-10-22T13:16:25Z</time>
      </trkpt>
      <trkpt lat="43.63725" lon="3.41843">
        <ele>219.7</ele>
        <time>2016-10-22T13:16:26Z</time>
      </trkpt>
      <trkpt lat="43.63716" lon="3.41842">
        <ele>218.8</ele>
        <time>2016-10-22T13:16:27Z</time>
      </trkpt>
      <trkpt lat="43.63706" lon="3.41842">
        <ele>217.8</ele>
        <time>2016-10-22T13:16:28Z</time>
      </trkpt>
      <trkpt lat="43.63698" lon="3.41841">
        <ele>216.6</ele>
        <time>2016-10-22T13:16:29Z</time>
      </trkpt>
      <trkpt lat="43.63689" lon="3.41839">
        <ele>215.9</ele>
        <time>2016-10-22T13:16:30Z</time>
      </trkpt>
      <trkpt lat="43.6368" lon="3.41839">
        <ele>215.4</ele>
        <time>2016-10-22T13:16:31Z</time>
      </trkpt>
      <trkpt lat="43.63671" lon="3.41838">
        <ele>214.6</ele>
        <time>2016-10-22T13:16:32Z</time>
      </trkpt>
      <trkpt lat="43.63663" lon="3.41838">
        <ele>213.8</ele>
        <time>2016-10-22T13:16:33Z</time>
      </trkpt>
      <trkpt lat="43.63655" lon="3.41837">
        <ele>213.3</ele>
        <time>2016-10-22T13:16:34Z</time>
      </trkpt>
      <trkpt lat="43.63647" lon="3.41837">
        <ele>213.3</ele>
        <time>2016-10-22T13:16:35Z</time>
      </trkpt>
      <trkpt lat="43.63638" lon="3.41837">
        <ele>213.1</ele>
        <time>2016-10-22T13:16:36Z</time>
      </trkpt>
      <trkpt lat="43.6363" lon="3.41837">
        <ele>213.1</ele>
        <time>2016-10-22T13:16:37Z</time>
      </trkpt>
      <trkpt lat="43.63621" lon="3.41837">
        <ele>212.9</ele>
        <time>2016-10-22T13:16:38Z</time>
      </trkpt>
      <trkpt lat="43.63613" lon="3.41838">
        <ele>212.8</ele>
        <time>2016-10-22T13:16:39Z</time>
      </trkpt>
      <trkpt lat="43.63605" lon="3.41838">
        <ele>212.6</ele>
        <time>2016-10-22T13:16:40Z</time>
      </trkpt>
      <trkpt lat="43.63597" lon="3.41839">
        <ele>212.2</ele>
        <time>2016-10-22T13:16:41Z</time>
      </trkpt>
      <trkpt lat="43.63589" lon="3.41839">
        <ele>211.9</ele>
        <time>2016-10-22T13:16:42Z</time>
      </trkpt>
      <trkpt lat="43.63575" lon="3.41837">
        <ele>211.7</ele>
        <time>2016-10-22T13:16:44Z</time>
      </trkpt>
      <trkpt lat="43.63568" lon="3.41836">
        <ele>211.2</ele>
        <time>2016-10-22T13:16:45Z</time>
      </trkpt>
      <trkpt lat="43.6356" lon="3.41835">
        <ele>210.8</ele>
        <time>2016-10-22T13:16:46Z</time>
      </trkpt>
      <trkpt lat="43.63552" lon="3.41832">
        <ele>210.9</ele>
        <time>2016-10-22T13:16:47Z</time>
      </trkpt>
      <trkpt lat="43.63544" lon="3.41829">
        <ele>210.9</ele>
        <time>2016-10-22T13:16:48Z</time>
      </trkpt>
      <trkpt lat="43.63537" lon="3.41828">
        <ele>210.5</ele>
        <time>2016-10-22T13:16:49Z</time>
      </trkpt>
      <trkpt lat="43.63523" lon="3.41827">
        <ele>209.2</ele>
        <time>2016-10-22T13:16:51Z</time>
      </trkpt>
      <trkpt lat="43.63515" lon="3.41826">
        <ele>208.8</ele>
        <time>2016-10-22T13:16:52Z</time>
      </trkpt>
      <trkpt lat="43.63506" lon="3.41825">
        <ele>208.3</ele>
        <time>2016-10-22T13:16:53Z</time>
      </trkpt>
      <trkpt lat="43.63497" lon="3.41824">
        <ele>207.6</ele>
        <time>2016-10-22T13:16:54Z</time>
      </trkpt>
      <trkpt lat="43.6349" lon="3.41824">
        <ele>207.4</ele>
        <time>2016-10-22T13:16:55Z</time>
      </trkpt>
      <trkpt lat="43.63482" lon="3.41823">
        <ele>207.5</ele>
        <time>2016-10-22T13:16:56Z</time>
      </trkpt>
      <trkpt lat="43.63474" lon="3.41823">
        <ele>207.4</ele>
        <time>2016-10-22T13:16:57Z</time>
      </trkpt>
      <trkpt lat="43.63458" lon="3.41822">
        <ele>206.8</ele>
        <time>2016-10-22T13:16:59Z</time>
      </trkpt>
      <trkpt lat="43.6345" lon="3.4182">
        <ele>206.3</ele>
        <time>2016-10-22T13:17:00Z</time>
      </trkpt>
      <trkpt lat="43.63443" lon="3.41815">
        <ele>206.1</ele>
        <time>2016-10-22T13:17:01Z</time>
      </trkpt>
      <trkpt lat="43.63436" lon="3.41809">
        <ele>205.9</ele>
        <time>2016-10-22T13:17:02Z</time>
      </trkpt>
      <trkpt lat="43.63429" lon="3.41804">
        <ele>206.2</ele>
        <time>2016-10-22T13:17:03Z</time>
      </trkpt>
      <trkpt lat="43.63421" lon="3.41802">
        <ele>206.2</ele>
        <time>2016-10-22T13:17:04Z</time>
      </trkpt>
      <trkpt lat="43.63413" lon="3.41799">
        <ele>206</ele>
        <time>2016-10-22T13:17:05Z</time>
      </trkpt>
      <trkpt lat="43.63405" lon="3.41798">
        <ele>205.6</ele>
        <time>2016-10-22T13:17:06Z</time>
      </trkpt>
      <trkpt lat="43.63397" lon="3.41797">
        <ele>205.1</ele>
        <time>2016-10-22T13:17:07Z</time>
      </trkpt>
      <trkpt lat="43.63389" lon="3.41795">
        <ele>204.8</ele>
        <time>2016-10-22T13:17:08Z</time>
      </trkpt>
      <trkpt lat="43.6338" lon="3.41794">
        <ele>204.4</ele>
        <time>2016-10-22T13:17:09Z</time>
      </trkpt>
      <trkpt lat="43.63371" lon="3.41793">
        <ele>204</ele>
        <time>2016-10-22T13:17:10Z</time>
      </trkpt>
      <trkpt lat="43.63362" lon="3.41793">
        <ele>203.6</ele>
        <time>2016-10-22T13:17:11Z</time>
      </trkpt>
      <trkpt lat="43.63353" lon="3.41793">
        <ele>203.4</ele>
        <time>2016-10-22T13:17:12Z</time>
      </trkpt>
      <trkpt lat="43.63345" lon="3.41792">
        <ele>203.2</ele>
        <time>2016-10-22T13:17:13Z</time>
      </trkpt>
      <trkpt lat="43.63338" lon="3.41791">
        <ele>202.7</ele>
        <time>2016-10-22T13:17:14Z</time>
      </trkpt>
      <trkpt lat="43.63331" lon="3.41787">
        <ele>202.4</ele>
        <time>2016-10-22T13:17:15Z</time>
      </trkpt>
      <trkpt lat="43.63317" lon="3.41776">
        <ele>201.9</ele>
        <time>2016-10-22T13:17:17Z</time>
      </trkpt>
      <trkpt lat="43.63311" lon="3.41771">
        <ele>201.8</ele>
        <time>2016-10-22T13:17:18Z</time>
      </trkpt>
      <trkpt lat="43.63305" lon="3.41765">
        <ele>201.4</ele>
        <time>2016-10-22T13:17:19Z</time>
      </trkpt>
      <trkpt lat="43.63298" lon="3.4176">
        <ele>200.8</ele>
        <time>2016-10-22T13:17:20Z</time>
      </trkpt>
      <trkpt lat="43.63291" lon="3.41756">
        <ele>200.2</ele>
        <time>2016-10-22T13:17:21Z</time>
      </trkpt>
      <trkpt lat="43.63284" lon="3.41755">
        <ele>199.6</ele>
        <time>2016-10-22T13:17:22Z</time>
      </trkpt>
      <trkpt lat="43.63277" lon="3.41756">
        <ele>199.2</ele>
        <time>2016-10-22T13:17:23Z</time>
      </trkpt>
      <trkpt lat="43.63269" lon="3.41758">
        <ele>199.1</ele>
        <time>2016-10-22T13:17:24Z</time>
      </trkpt>
      <trkpt lat="43.63256" lon="3.41763">
        <ele>199.1</ele>
        <time>2016-10-22T13:17:26Z</time>
      </trkpt>
      <trkpt lat="43.63245" lon="3.41773">
        <ele>199.2</ele>
        <time>2016-10-22T13:17:28Z</time>
      </trkpt>
      <trkpt lat="43.63235" lon="3.41782">
        <ele>199.4</ele>
        <time>2016-10-22T13:17:30Z</time>
      </trkpt>
      <trkpt lat="43.63224" lon="3.41793">
        <ele>198.6</ele>
        <time>2016-10-22T13:17:32Z</time>
      </trkpt>
      <trkpt lat="43.63215" lon="3.418">
        <ele>198.8</ele>
        <time>2016-10-22T13:17:34Z</time>
      </trkpt>
      <trkpt lat="43.63203" lon="3.41804">
        <ele>198.4</ele>
        <time>2016-10-22T13:17:36Z</time>
      </trkpt>
      <trkpt lat="43.6319" lon="3.41811">
        <ele>199</ele>
        <time>2016-10-22T13:17:38Z</time>
      </trkpt>
      <trkpt lat="43.63183" lon="3.41814">
        <ele>199.1</ele>
        <time>2016-10-22T13:17:39Z</time>
      </trkpt>
      <trkpt lat="43.63171" lon="3.41821">
        <ele>199.7</ele>
        <time>2016-10-22T13:17:41Z</time>
      </trkpt>
      <trkpt lat="43.63158" lon="3.41829">
        <ele>199.9</ele>
        <time>2016-10-22T13:17:43Z</time>
      </trkpt>
      <trkpt lat="43.63146" lon="3.41836">
        <ele>199.6</ele>
        <time>2016-10-22T13:17:45Z</time>
      </trkpt>
      <trkpt lat="43.63139" lon="3.41839">
        <ele>199.3</ele>
        <time>2016-10-22T13:17:46Z</time>
      </trkpt>
      <trkpt lat="43.63125" lon="3.41846">
        <ele>198.7</ele>
        <time>2016-10-22T13:17:48Z</time>
      </trkpt>
      <trkpt lat="43.63113" lon="3.41853">
        <ele>198.2</ele>
        <time>2016-10-22T13:17:50Z</time>
      </trkpt>
      <trkpt lat="43.63101" lon="3.41859">
        <ele>197.1</ele>
        <time>2016-10-22T13:17:52Z</time>
      </trkpt>
      <trkpt lat="43.6309" lon="3.41866">
        <ele>196</ele>
        <time>2016-10-22T13:17:54Z</time>
      </trkpt>
      <trkpt lat="43.63079" lon="3.41872">
        <ele>195.2</ele>
        <time>2016-10-22T13:17:56Z</time>
      </trkpt>
      <trkpt lat="43.63067" lon="3.41877">
        <ele>194.7</ele>
        <time>2016-10-22T13:17:58Z</time>
      </trkpt>
      <trkpt lat="43.63055" lon="3.41883">
        <ele>194.4</ele>
        <time>2016-10-22T13:18:00Z</time>
      </trkpt>
      <trkpt lat="43.63044" lon="3.4189">
        <ele>193.6</ele>
        <time>2016-10-22T13:18:02Z</time>
      </trkpt>
      <trkpt lat="43.63034" lon="3.41894">
        <ele>193.7</ele>
        <time>2016-10-22T13:18:04Z</time>
      </trkpt>
      <trkpt lat="43.63023" lon="3.419">
        <ele>194</ele>
        <time>2016-10-22T13:18:06Z</time>
      </trkpt>
      <trkpt lat="43.63012" lon="3.41904">
        <ele>194.3</ele>
        <time>2016-10-22T13:18:08Z</time>
      </trkpt>
      <trkpt lat="43.63002" lon="3.4191">
        <ele>194.5</ele>
        <time>2016-10-22T13:18:10Z</time>
      </trkpt>
      <trkpt lat="43.62992" lon="3.41916">
        <ele>194.8</ele>
        <time>2016-10-22T13:18:12Z</time>
      </trkpt>
      <trkpt lat="43.62982" lon="3.41921">
        <ele>194.7</ele>
        <time>2016-10-22T13:18:14Z</time>
      </trkpt>
      <trkpt lat="43.62969" lon="3.41925">
        <ele>194</ele>
        <time>2016-10-22T13:18:16Z</time>
      </trkpt>
      <trkpt lat="43.62958" lon="3.41933">
        <ele>192.6</ele>
        <time>2016-10-22T13:18:18Z</time>
      </trkpt>
      <trkpt lat="43.62948" lon="3.4194">
        <ele>191.4</ele>
        <time>2016-10-22T13:18:20Z</time>
      </trkpt>
      <trkpt lat="43.62938" lon="3.41948">
        <ele>191.1</ele>
        <time>2016-10-22T13:18:22Z</time>
      </trkpt>
      <trkpt lat="43.62927" lon="3.41956">
        <ele>190.4</ele>
        <time>2016-10-22T13:18:24Z</time>
      </trkpt>
      <trkpt lat="43.62916" lon="3.41963">
        <ele>189.2</ele>
        <time>2016-10-22T13:18:26Z</time>
      </trkpt>
      <trkpt lat="43.62905" lon="3.41974">
        <ele>188.3</ele>
        <time>2016-10-22T13:18:28Z</time>
      </trkpt>
      <trkpt lat="43.62895" lon="3.41987">
        <ele>187.8</ele>
        <time>2016-10-22T13:18:30Z</time>
      </trkpt>
      <trkpt lat="43.62886" lon="3.41999">
        <ele>187.7</ele>
        <time>2016-10-22T13:18:32Z</time>
      </trkpt>
      <trkpt lat="43.62881" lon="3.42006">
        <ele>187</ele>
        <time>2016-10-22T13:18:33Z</time>
      </trkpt>
      <trkpt lat="43.62872" lon="3.4202">
        <ele>186.2</ele>
        <time>2016-10-22T13:18:35Z</time>
      </trkpt>
      <trkpt lat="43.62866" lon="3.42028">
        <ele>186</ele>
        <time>2016-10-22T13:18:36Z</time>
      </trkpt>
      <trkpt lat="43.62861" lon="3.42036">
        <ele>186.3</ele>
        <time>2016-10-22T13:18:37Z</time>
      </trkpt>
      <trkpt lat="43.62857" lon="3.42045">
        <ele>186.3</ele>
        <time>2016-10-22T13:18:38Z</time>
      </trkpt>
      <trkpt lat="43.62851" lon="3.42053">
        <ele>186.2</ele>
        <time>2016-10-22T13:18:39Z</time>
      </trkpt>
      <trkpt lat="43.62845" lon="3.42061">
        <ele>185.8</ele>
        <time>2016-10-22T13:18:40Z</time>
      </trkpt>
      <trkpt lat="43.62836" lon="3.42076">
        <ele>183.8</ele>
        <time>2016-10-22T13:18:42Z</time>
      </trkpt>
      <trkpt lat="43.6283" lon="3.42085">
        <ele>182.5</ele>
        <time>2016-10-22T13:18:43Z</time>
      </trkpt>
      <trkpt lat="43.6282" lon="3.42098">
        <ele>182.4</ele>
        <time>2016-10-22T13:18:45Z</time>
      </trkpt>
      <trkpt lat="43.62811" lon="3.42111">
        <ele>182.9</ele>
        <time>2016-10-22T13:18:47Z</time>
      </trkpt>
      <trkpt lat="43.62803" lon="3.42126">
        <ele>183.2</ele>
        <time>2016-10-22T13:18:49Z</time>
      </trkpt>
      <trkpt lat="43.62796" lon="3.4214">
        <ele>183.9</ele>
        <time>2016-10-22T13:18:51Z</time>
      </trkpt>
      <trkpt lat="43.62791" lon="3.42149">
        <ele>184.2</ele>
        <time>2016-10-22T13:18:52Z</time>
      </trkpt>
      <trkpt lat="43.62783" lon="3.42164">
        <ele>184.2</ele>
        <time>2016-10-22T13:18:54Z</time>
      </trkpt>
      <trkpt lat="43.62774" lon="3.4218">
        <ele>183.8</ele>
        <time>2016-10-22T13:18:56Z</time>
      </trkpt>
      <trkpt lat="43.62765" lon="3.42194">
        <ele>183.3</ele>
        <time>2016-10-22T13:18:58Z</time>
      </trkpt>
      <trkpt lat="43.62757" lon="3.42209">
        <ele>182</ele>
        <time>2016-10-22T13:19:00Z</time>
      </trkpt>
      <trkpt lat="43.62753" lon="3.42218">
        <ele>181.4</ele>
        <time>2016-10-22T13:19:01Z</time>
      </trkpt>
      <trkpt lat="43.62747" lon="3.42227">
        <ele>180.5</ele>
        <time>2016-10-22T13:19:02Z</time>
      </trkpt>
      <trkpt lat="43.6274" lon="3.42242">
        <ele>179.3</ele>
        <time>2016-10-22T13:19:04Z</time>
      </trkpt>
      <trkpt lat="43.62735" lon="3.42251">
        <ele>178.7</ele>
        <time>2016-10-22T13:19:05Z</time>
      </trkpt>
      <trkpt lat="43.62731" lon="3.4226">
        <ele>178.8</ele>
        <time>2016-10-22T13:19:06Z</time>
      </trkpt>
      <trkpt lat="43.62726" lon="3.42269">
        <ele>178.4</ele>
        <time>2016-10-22T13:19:07Z</time>
      </trkpt>
      <trkpt lat="43.62719" lon="3.42282">
        <ele>179.4</ele>
        <time>2016-10-22T13:19:09Z</time>
      </trkpt>
      <trkpt lat="43.62715" lon="3.42291">
        <ele>179.3</ele>
        <time>2016-10-22T13:19:10Z</time>
      </trkpt>
      <trkpt lat="43.6271" lon="3.42301">
        <ele>178.9</ele>
        <time>2016-10-22T13:19:11Z</time>
      </trkpt>
      <trkpt lat="43.62705" lon="3.42311">
        <ele>178.4</ele>
        <time>2016-10-22T13:19:12Z</time>
      </trkpt>
      <trkpt lat="43.62701" lon="3.42321">
        <ele>177.8</ele>
        <time>2016-10-22T13:19:13Z</time>
      </trkpt>
      <trkpt lat="43.62697" lon="3.4233">
        <ele>176.9</ele>
        <time>2016-10-22T13:19:14Z</time>
      </trkpt>
      <trkpt lat="43.62693" lon="3.42339">
        <ele>175.5</ele>
        <time>2016-10-22T13:19:15Z</time>
      </trkpt>
      <trkpt lat="43.62685" lon="3.42357">
        <ele>172.9</ele>
        <time>2016-10-22T13:19:17Z</time>
      </trkpt>
      <trkpt lat="43.62681" lon="3.42365">
        <ele>172.3</ele>
        <time>2016-10-22T13:19:18Z</time>
      </trkpt>
      <trkpt lat="43.62677" lon="3.42373">
        <ele>171.3</ele>
        <time>2016-10-22T13:19:19Z</time>
      </trkpt>
      <trkpt lat="43.62673" lon="3.42383">
        <ele>170.8</ele>
        <time>2016-10-22T13:19:20Z</time>
      </trkpt>
      <trkpt lat="43.62669" lon="3.42393">
        <ele>170.4</ele>
        <time>2016-10-22T13:19:21Z</time>
      </trkpt>
      <trkpt lat="43.62664" lon="3.42404">
        <ele>169.5</ele>
        <time>2016-10-22T13:19:22Z</time>
      </trkpt>
      <trkpt lat="43.6266" lon="3.42413">
        <ele>169.2</ele>
        <time>2016-10-22T13:19:23Z</time>
      </trkpt>
      <trkpt lat="43.62656" lon="3.42422">
        <ele>169.1</ele>
        <time>2016-10-22T13:19:24Z</time>
      </trkpt>
      <trkpt lat="43.62652" lon="3.42431">
        <ele>169.3</ele>
        <time>2016-10-22T13:19:25Z</time>
      </trkpt>
      <trkpt lat="43.62645" lon="3.42447">
        <ele>169.7</ele>
        <time>2016-10-22T13:19:27Z</time>
      </trkpt>
      <trkpt lat="43.62641" lon="3.42457">
        <ele>169.7</ele>
        <time>2016-10-22T13:19:28Z</time>
      </trkpt>
      <trkpt lat="43.62638" lon="3.42466">
        <ele>169.5</ele>
        <time>2016-10-22T13:19:29Z</time>
      </trkpt>
      <trkpt lat="43.62632" lon="3.42485">
        <ele>169.3</ele>
        <time>2016-10-22T13:19:31Z</time>
      </trkpt>
      <trkpt lat="43.62629" lon="3.42495">
        <ele>169.1</ele>
        <time>2016-10-22T13:19:32Z</time>
      </trkpt>
      <trkpt lat="43.62626" lon="3.42505">
        <ele>168.7</ele>
        <time>2016-10-22T13:19:33Z</time>
      </trkpt>
      <trkpt lat="43.62624" lon="3.42515">
        <ele>168</ele>
        <time>2016-10-22T13:19:34Z</time>
      </trkpt>
      <trkpt lat="43.62621" lon="3.42525">
        <ele>167.6</ele>
        <time>2016-10-22T13:19:35Z</time>
      </trkpt>
      <trkpt lat="43.62618" lon="3.42535">
        <ele>167</ele>
        <time>2016-10-22T13:19:36Z</time>
      </trkpt>
      <trkpt lat="43.62608" lon="3.42549">
        <ele>166.4</ele>
        <time>2016-10-22T13:19:38Z</time>
      </trkpt>
      <trkpt lat="43.62598" lon="3.42555">
        <ele>166.1</ele>
        <time>2016-10-22T13:19:40Z</time>
      </trkpt>
      <trkpt lat="43.62588" lon="3.42559">
        <ele>165.6</ele>
        <time>2016-10-22T13:19:42Z</time>
      </trkpt>
      <trkpt lat="43.6258" lon="3.42554">
        <ele>164.5</ele>
        <time>2016-10-22T13:19:44Z</time>
      </trkpt>
      <trkpt lat="43.62575" lon="3.42542">
        <ele>163.9</ele>
        <time>2016-10-22T13:19:46Z</time>
      </trkpt>
      <trkpt lat="43.62574" lon="3.42531">
        <ele>163.8</ele>
        <time>2016-10-22T13:19:48Z</time>
      </trkpt>
      <trkpt lat="43.62574" lon="3.42521">
        <ele>164.9</ele>
        <time>2016-10-22T13:19:50Z</time>
      </trkpt>
      <trkpt lat="43.62574" lon="3.4251">
        <ele>165.3</ele>
        <time>2016-10-22T13:19:52Z</time>
      </trkpt>
      <trkpt lat="43.62574" lon="3.42497">
        <ele>165.9</ele>
        <time>2016-10-22T13:19:54Z</time>
      </trkpt>
      <trkpt lat="43.62574" lon="3.42486">
        <ele>166.9</ele>
        <time>2016-10-22T13:19:56Z</time>
      </trkpt>
      <trkpt lat="43.62574" lon="3.42475">
        <ele>166.9</ele>
        <time>2016-10-22T13:19:58Z</time>
      </trkpt>
      <trkpt lat="43.62574" lon="3.42462">
        <ele>167</ele>
        <time>2016-10-22T13:20:01Z</time>
      </trkpt>
      <trkpt lat="43.62574" lon="3.42447">
        <ele>167.2</ele>
        <time>2016-10-22T13:20:04Z</time>
      </trkpt>
      <trkpt lat="43.62574" lon="3.42433">
        <ele>167.5</ele>
        <time>2016-10-22T13:20:07Z</time>
      </trkpt>
      <trkpt lat="43.62574" lon="3.42421">
        <ele>167.6</ele>
        <time>2016-10-22T13:20:10Z</time>
      </trkpt>
      <trkpt lat="43.62575" lon="3.42411">
        <ele>167.7</ele>
        <time>2016-10-22T13:20:12Z</time>
      </trkpt>
      <trkpt lat="43.62573" lon="3.42397">
        <ele>168</ele>
        <time>2016-10-22T13:20:16Z</time>
      </trkpt>
      <trkpt lat="43.6257" lon="3.42386">
        <ele>168.4</ele>
        <time>2016-10-22T13:20:19Z</time>
      </trkpt>
      <trkpt lat="43.62566" lon="3.42377">
        <ele>168.7</ele>
        <time>2016-10-22T13:20:21Z</time>
      </trkpt>
      <trkpt lat="43.62563" lon="3.42366">
        <ele>169.1</ele>
        <time>2016-10-22T13:20:24Z</time>
      </trkpt>
      <trkpt lat="43.6256" lon="3.42356">
        <ele>169.6</ele>
        <time>2016-10-22T13:20:27Z</time>
      </trkpt>
      <trkpt lat="43.62555" lon="3.42347">
        <ele>170</ele>
        <time>2016-10-22T13:20:30Z</time>
      </trkpt>
      <trkpt lat="43.62552" lon="3.42336">
        <ele>170.6</ele>
        <time>2016-10-22T13:20:34Z</time>
      </trkpt>
      <trkpt lat="43.62548" lon="3.42324">
        <ele>171.1</ele>
        <time>2016-10-22T13:20:38Z</time>
      </trkpt>
      <trkpt lat="43.62545" lon="3.42315">
        <ele>171.6</ele>
        <time>2016-10-22T13:20:41Z</time>
      </trkpt>
      <trkpt lat="43.62542" lon="3.42305">
        <ele>172</ele>
        <time>2016-10-22T13:20:44Z</time>
      </trkpt>
      <trkpt lat="43.62539" lon="3.42295">
        <ele>172.5</ele>
        <time>2016-10-22T13:20:47Z</time>
      </trkpt>
      <trkpt lat="43.62535" lon="3.42285">
        <ele>173.2</ele>
        <time>2016-10-22T13:20:51Z</time>
      </trkpt>
      <trkpt lat="43.6253" lon="3.42277">
        <ele>173.7</ele>
        <time>2016-10-22T13:20:54Z</time>
      </trkpt>
      <trkpt lat="43.62525" lon="3.42266">
        <ele>174.1</ele>
        <time>2016-10-22T13:20:57Z</time>
      </trkpt>
      <trkpt lat="43.62519" lon="3.42256">
        <ele>174.6</ele>
        <time>2016-10-22T13:21:01Z</time>
      </trkpt>
      <trkpt lat="43.62515" lon="3.42247">
        <ele>175.2</ele>
        <time>2016-10-22T13:21:05Z</time>
      </trkpt>
      <trkpt lat="43.62508" lon="3.42239">
        <ele>175.7</ele>
        <time>2016-10-22T13:21:09Z</time>
      </trkpt>
      <trkpt lat="43.62503" lon="3.42231">
        <ele>176.6</ele>
        <time>2016-10-22T13:21:14Z</time>
      </trkpt>
      <trkpt lat="43.62496" lon="3.42226">
        <ele>177.4</ele>
        <time>2016-10-22T13:21:19Z</time>
      </trkpt>
      <trkpt lat="43.62488" lon="3.42219">
        <ele>177.8</ele>
        <time>2016-10-22T13:21:22Z</time>
      </trkpt>
      <trkpt lat="43.62479" lon="3.42212">
        <ele>178.2</ele>
        <time>2016-10-22T13:21:25Z</time>
      </trkpt>
      <trkpt lat="43.62473" lon="3.42207">
        <ele>178.4</ele>
        <time>2016-10-22T13:21:27Z</time>
      </trkpt>
      <trkpt lat="43.62466" lon="3.422">
        <ele>181</ele>
        <time>2016-10-22T13:21:29Z</time>
      </trkpt>
      <trkpt lat="43.6246" lon="3.42189">
        <ele>182.1</ele>
        <time>2016-10-22T13:21:32Z</time>
      </trkpt>
      <trkpt lat="43.62459" lon="3.42179">
        <ele>182.4</ele>
        <time>2016-10-22T13:21:35Z</time>
      </trkpt>
      <trkpt lat="43.62457" lon="3.42165">
        <ele>182.9</ele>
        <time>2016-10-22T13:21:38Z</time>
      </trkpt>
      <trkpt lat="43.62456" lon="3.42153">
        <ele>183.2</ele>
        <time>2016-10-22T13:21:40Z</time>
      </trkpt>
      <trkpt lat="43.62455" lon="3.42142">
        <ele>183.3</ele>
        <time>2016-10-22T13:21:42Z</time>
      </trkpt>
      <trkpt lat="43.62453" lon="3.42128">
        <ele>183.4</ele>
        <time>2016-10-22T13:21:45Z</time>
      </trkpt>
      <trkpt lat="43.62452" lon="3.42117">
        <ele>183.4</ele>
        <time>2016-10-22T13:21:47Z</time>
      </trkpt>
      <trkpt lat="43.6245" lon="3.42103">
        <ele>183.9</ele>
        <time>2016-10-22T13:21:50Z</time>
      </trkpt>
      <trkpt lat="43.62449" lon="3.42093">
        <ele>184.2</ele>
        <time>2016-10-22T13:21:52Z</time>
      </trkpt>
      <trkpt lat="43.62446" lon="3.42081">
        <ele>184.2</ele>
        <time>2016-10-22T13:21:55Z</time>
      </trkpt>
      <trkpt lat="43.62443" lon="3.42066">
        <ele>184.5</ele>
        <time>2016-10-22T13:21:58Z</time>
      </trkpt>
      <trkpt lat="43.62441" lon="3.42055">
        <ele>184.6</ele>
        <time>2016-10-22T13:22:00Z</time>
      </trkpt>
      <trkpt lat="43.62438" lon="3.42046">
        <ele>184.6</ele>
        <time>2016-10-22T13:22:02Z</time>
      </trkpt>
      <trkpt lat="43.62434" lon="3.42035">
        <ele>184.7</ele>
        <time>2016-10-22T13:22:06Z</time>
      </trkpt>
      <trkpt lat="43.62431" lon="3.42024">
        <ele>184.9</ele>
        <time>2016-10-22T13:22:10Z</time>
      </trkpt>
      <trkpt lat="43.62426" lon="3.42017">
        <ele>185</ele>
        <time>2016-10-22T13:22:14Z</time>
      </trkpt>
      <trkpt lat="43.62421" lon="3.42009">
        <ele>185.1</ele>
        <time>2016-10-22T13:22:18Z</time>
      </trkpt>
      <trkpt lat="43.62415" lon="3.41999">
        <ele>185.4</ele>
        <time>2016-10-22T13:22:22Z</time>
      </trkpt>
      <trkpt lat="43.62412" lon="3.4199">
        <ele>185.8</ele>
        <time>2016-10-22T13:22:25Z</time>
      </trkpt>
      <trkpt lat="43.62409" lon="3.41978">
        <ele>186.2</ele>
        <time>2016-10-22T13:22:29Z</time>
      </trkpt>
      <trkpt lat="43.62405" lon="3.41965">
        <ele>186.4</ele>
        <time>2016-10-22T13:22:32Z</time>
      </trkpt>
      <trkpt lat="43.62404" lon="3.41955">
        <ele>186.7</ele>
        <time>2016-10-22T13:22:35Z</time>
      </trkpt>
      <trkpt lat="43.62404" lon="3.41942">
        <ele>187</ele>
        <time>2016-10-22T13:22:38Z</time>
      </trkpt>
      <trkpt lat="43.62404" lon="3.41928">
        <ele>187.5</ele>
        <time>2016-10-22T13:22:42Z</time>
      </trkpt>
      <trkpt lat="43.62399" lon="3.41917">
        <ele>187.9</ele>
        <time>2016-10-22T13:22:46Z</time>
      </trkpt>
      <trkpt lat="43.62393" lon="3.4191">
        <ele>188.2</ele>
        <time>2016-10-22T13:22:49Z</time>
      </trkpt>
      <trkpt lat="43.62386" lon="3.41904">
        <ele>188.5</ele>
        <time>2016-10-22T13:22:52Z</time>
      </trkpt>
      <trkpt lat="43.62378" lon="3.41902">
        <ele>188.8</ele>
        <time>2016-10-22T13:22:55Z</time>
      </trkpt>
      <trkpt lat="43.62369" lon="3.419">
        <ele>189</ele>
        <time>2016-10-22T13:22:59Z</time>
      </trkpt>
      <trkpt lat="43.6236" lon="3.41897">
        <ele>189.2</ele>
        <time>2016-10-22T13:23:03Z</time>
      </trkpt>
      <trkpt lat="43.62352" lon="3.41894">
        <ele>189.6</ele>
        <time>2016-10-22T13:23:07Z</time>
      </trkpt>
      <trkpt lat="43.62344" lon="3.41893">
        <ele>190</ele>
        <time>2016-10-22T13:23:10Z</time>
      </trkpt>
      <trkpt lat="43.62336" lon="3.4189">
        <ele>190.5</ele>
        <time>2016-10-22T13:23:14Z</time>
      </trkpt>
      <trkpt lat="43.62328" lon="3.41885">
        <ele>191</ele>
        <time>2016-10-22T13:23:18Z</time>
      </trkpt>
      <trkpt lat="43.6232" lon="3.41879">
        <ele>191.6</ele>
        <time>2016-10-22T13:23:22Z</time>
      </trkpt>
      <trkpt lat="43.62312" lon="3.41876">
        <ele>192.3</ele>
        <time>2016-10-22T13:23:26Z</time>
      </trkpt>
      <trkpt lat="43.62304" lon="3.41875">
        <ele>192.9</ele>
        <time>2016-10-22T13:23:29Z</time>
      </trkpt>
      <trkpt lat="43.62297" lon="3.41871">
        <ele>193.6</ele>
        <time>2016-10-22T13:23:33Z</time>
      </trkpt>
      <trkpt lat="43.6229" lon="3.41866">
        <ele>194.4</ele>
        <time>2016-10-22T13:23:37Z</time>
      </trkpt>
      <trkpt lat="43.62282" lon="3.41862">
        <ele>195.1</ele>
        <time>2016-10-22T13:23:41Z</time>
      </trkpt>
      <trkpt lat="43.62276" lon="3.41858">
        <ele>195.4</ele>
        <time>2016-10-22T13:23:44Z</time>
      </trkpt>
      <trkpt lat="43.62267" lon="3.41854">
        <ele>196</ele>
        <time>2016-10-22T13:23:48Z</time>
      </trkpt>
      <trkpt lat="43.6226" lon="3.41849">
        <ele>196.5</ele>
        <time>2016-10-22T13:23:51Z</time>
      </trkpt>
      <trkpt lat="43.62254" lon="3.41844">
        <ele>197</ele>
        <time>2016-10-22T13:23:54Z</time>
      </trkpt>
      <trkpt lat="43.62246" lon="3.4184">
        <ele>197.8</ele>
        <time>2016-10-22T13:23:58Z</time>
      </trkpt>
      <trkpt lat="43.6224" lon="3.41837">
        <ele>198.6</ele>
        <time>2016-10-22T13:24:02Z</time>
      </trkpt>
      <trkpt lat="43.62231" lon="3.41833">
        <ele>199.6</ele>
        <time>2016-10-22T13:24:06Z</time>
      </trkpt>
      <trkpt lat="43.62225" lon="3.41827">
        <ele>200.4</ele>
        <time>2016-10-22T13:24:10Z</time>
      </trkpt>
      <trkpt lat="43.62218" lon="3.41821">
        <ele>201.2</ele>
        <time>2016-10-22T13:24:14Z</time>
      </trkpt>
      <trkpt lat="43.62211" lon="3.41817">
        <ele>201.9</ele>
        <time>2016-10-22T13:24:18Z</time>
      </trkpt>
      <trkpt lat="43.62203" lon="3.41812">
        <ele>202.6</ele>
        <time>2016-10-22T13:24:22Z</time>
      </trkpt>
      <trkpt lat="43.62196" lon="3.41807">
        <ele>203.5</ele>
        <time>2016-10-22T13:24:26Z</time>
      </trkpt>
      <trkpt lat="43.62187" lon="3.41801">
        <ele>204</ele>
        <time>2016-10-22T13:24:30Z</time>
      </trkpt>
      <trkpt lat="43.6218" lon="3.41795">
        <ele>204.7</ele>
        <time>2016-10-22T13:24:34Z</time>
      </trkpt>
      <trkpt lat="43.62174" lon="3.41788">
        <ele>205.6</ele>
        <time>2016-10-22T13:24:38Z</time>
      </trkpt>
      <trkpt lat="43.62166" lon="3.4178">
        <ele>206.5</ele>
        <time>2016-10-22T13:24:42Z</time>
      </trkpt>
      <trkpt lat="43.62159" lon="3.41773">
        <ele>207.4</ele>
        <time>2016-10-22T13:24:46Z</time>
      </trkpt>
      <trkpt lat="43.62152" lon="3.41765">
        <ele>208.3</ele>
        <time>2016-10-22T13:24:50Z</time>
      </trkpt>
      <trkpt lat="43.62146" lon="3.41757">
        <ele>209.1</ele>
        <time>2016-10-22T13:24:54Z</time>
      </trkpt>
      <trkpt lat="43.6214" lon="3.41749">
        <ele>209.8</ele>
        <time>2016-10-22T13:24:58Z</time>
      </trkpt>
      <trkpt lat="43.62133" lon="3.41741">
        <ele>210.4</ele>
        <time>2016-10-22T13:25:02Z</time>
      </trkpt>
      <trkpt lat="43.62125" lon="3.41734">
        <ele>211</ele>
        <time>2016-10-22T13:25:06Z</time>
      </trkpt>
      <trkpt lat="43.62119" lon="3.41727">
        <ele>211.6</ele>
        <time>2016-10-22T13:25:10Z</time>
      </trkpt>
      <trkpt lat="43.62112" lon="3.41719">
        <ele>212.2</ele>
        <time>2016-10-22T13:25:14Z</time>
      </trkpt>
      <trkpt lat="43.62106" lon="3.41712">
        <ele>212.8</ele>
        <time>2016-10-22T13:25:18Z</time>
      </trkpt>
      <trkpt lat="43.621" lon="3.41706">
        <ele>213.4</ele>
        <time>2016-10-22T13:25:21Z</time>
      </trkpt>
      <trkpt lat="43.62093" lon="3.41699">
        <ele>213.9</ele>
        <time>2016-10-22T13:25:24Z</time>
      </trkpt>
      <trkpt lat="43.62086" lon="3.41691">
        <ele>214.7</ele>
        <time>2016-10-22T13:25:28Z</time>
      </trkpt>
      <trkpt lat="43.62079" lon="3.41684">
        <ele>215.3</ele>
        <time>2016-10-22T13:25:31Z</time>
      </trkpt>
      <trkpt lat="43.62073" lon="3.41678">
        <ele>215.8</ele>
        <time>2016-10-22T13:25:34Z</time>
      </trkpt>
      <trkpt lat="43.62066" lon="3.41671">
        <ele>216.1</ele>
        <time>2016-10-22T13:25:37Z</time>
      </trkpt>
      <trkpt lat="43.62059" lon="3.41664">
        <ele>216.4</ele>
        <time>2016-10-22T13:25:40Z</time>
      </trkpt>
      <trkpt lat="43.62054" lon="3.41658">
        <ele>216.9</ele>
        <time>2016-10-22T13:25:43Z</time>
      </trkpt>
      <trkpt lat="43.62047" lon="3.41652">
        <ele>217.3</ele>
        <time>2016-10-22T13:25:46Z</time>
      </trkpt>
      <trkpt lat="43.6204" lon="3.41646">
        <ele>217.6</ele>
        <time>2016-10-22T13:25:49Z</time>
      </trkpt>
      <trkpt lat="43.62034" lon="3.4164">
        <ele>217.9</ele>
        <time>2016-10-22T13:25:52Z</time>
      </trkpt>
      <trkpt lat="43.62027" lon="3.41633">
        <ele>218.2</ele>
        <time>2016-10-22T13:25:55Z</time>
      </trkpt>
      <trkpt lat="43.6202" lon="3.41626">
        <ele>218.6</ele>
        <time>2016-10-22T13:25:58Z</time>
      </trkpt>
      <trkpt lat="43.62014" lon="3.41618">
        <ele>218.8</ele>
        <time>2016-10-22T13:26:01Z</time>
      </trkpt>
      <trkpt lat="43.62008" lon="3.4161">
        <ele>219.2</ele>
        <time>2016-10-22T13:26:04Z</time>
      </trkpt>
      <trkpt lat="43.62003" lon="3.41602">
        <ele>219.4</ele>
        <time>2016-10-22T13:26:07Z</time>
      </trkpt>
      <trkpt lat="43.61997" lon="3.41592">
        <ele>219.7</ele>
        <time>2016-10-22T13:26:10Z</time>
      </trkpt>
      <trkpt lat="43.61993" lon="3.41584">
        <ele>220.1</ele>
        <time>2016-10-22T13:26:13Z</time>
      </trkpt>
      <trkpt lat="43.61986" lon="3.41575">
        <ele>220.5</ele>
        <time>2016-10-22T13:26:16Z</time>
      </trkpt>
      <trkpt lat="43.6198" lon="3.41566">
        <ele>220.9</ele>
        <time>2016-10-22T13:26:19Z</time>
      </trkpt>
      <trkpt lat="43.61973" lon="3.41559">
        <ele>221.3</ele>
        <time>2016-10-22T13:26:22Z</time>
      </trkpt>
      <trkpt lat="43.61967" lon="3.41552">
        <ele>221.8</ele>
        <time>2016-10-22T13:26:25Z</time>
      </trkpt>
      <trkpt lat="43.61962" lon="3.41546">
        <ele>222.2</ele>
        <time>2016-10-22T13:26:28Z</time>
      </trkpt>
      <trkpt lat="43.61955" lon="3.41538">
        <ele>222.5</ele>
        <time>2016-10-22T13:26:31Z</time>
      </trkpt>
      <trkpt lat="43.6195" lon="3.41529">
        <ele>222.9</ele>
        <time>2016-10-22T13:26:34Z</time>
      </trkpt>
      <trkpt lat="43.61943" lon="3.41521">
        <ele>223.2</ele>
        <time>2016-10-22T13:26:37Z</time>
      </trkpt>
      <trkpt lat="43.61936" lon="3.41514">
        <ele>223.5</ele>
        <time>2016-10-22T13:26:40Z</time>
      </trkpt>
      <trkpt lat="43.61929" lon="3.41509">
        <ele>223.9</ele>
        <time>2016-10-22T13:26:43Z</time>
      </trkpt>
      <trkpt lat="43.61921" lon="3.41504">
        <ele>224.3</ele>
        <time>2016-10-22T13:26:46Z</time>
      </trkpt>
      <trkpt lat="43.61914" lon="3.41497">
        <ele>224.9</ele>
        <time>2016-10-22T13:26:50Z</time>
      </trkpt>
      <trkpt lat="43.61905" lon="3.41496">
        <ele>225.7</ele>
        <time>2016-10-22T13:26:54Z</time>
      </trkpt>
      <trkpt lat="43.61898" lon="3.41504">
        <ele>226.3</ele>
        <time>2016-10-22T13:26:58Z</time>
      </trkpt>
      <trkpt lat="43.61895" lon="3.41514">
        <ele>226.9</ele>
        <time>2016-10-22T13:27:02Z</time>
      </trkpt>
      <trkpt lat="43.61887" lon="3.41523">
        <ele>227.8</ele>
        <time>2016-10-22T13:27:07Z</time>
      </trkpt>
      <trkpt lat="43.61883" lon="3.41532">
        <ele>228.3</ele>
        <time>2016-10-22T13:27:10Z</time>
      </trkpt>
      <trkpt lat="43.61883" lon="3.41543">
        <ele>229.1</ele>
        <time>2016-10-22T13:27:14Z</time>
      </trkpt>
      <trkpt lat="43.61884" lon="3.41556">
        <ele>229.8</ele>
        <time>2016-10-22T13:27:18Z</time>
      </trkpt>
      <trkpt lat="43.61887" lon="3.41568">
        <ele>230.6</ele>
        <time>2016-10-22T13:27:22Z</time>
      </trkpt>
      <trkpt lat="43.6189" lon="3.41579">
        <ele>231.2</ele>
        <time>2016-10-22T13:27:26Z</time>
      </trkpt>
      <trkpt lat="43.61895" lon="3.41588">
        <ele>231.6</ele>
        <time>2016-10-22T13:27:29Z</time>
      </trkpt>
      <trkpt lat="43.61898" lon="3.41599">
        <ele>232</ele>
        <time>2016-10-22T13:27:32Z</time>
      </trkpt>
      <trkpt lat="43.61901" lon="3.41609">
        <ele>232.6</ele>
        <time>2016-10-22T13:27:35Z</time>
      </trkpt>
      <trkpt lat="43.61897" lon="3.41618">
        <ele>233.5</ele>
        <time>2016-10-22T13:27:39Z</time>
      </trkpt>
      <trkpt lat="43.61888" lon="3.41616">
        <ele>234.2</ele>
        <time>2016-10-22T13:27:43Z</time>
      </trkpt>
      <trkpt lat="43.61881" lon="3.4161">
        <ele>234.9</ele>
        <time>2016-10-22T13:27:47Z</time>
      </trkpt>
      <trkpt lat="43.61874" lon="3.41603">
        <ele>235.5</ele>
        <time>2016-10-22T13:27:50Z</time>
      </trkpt>
      <trkpt lat="43.61869" lon="3.41596">
        <ele>236</ele>
        <time>2016-10-22T13:27:53Z</time>
      </trkpt>
      <trkpt lat="43.61864" lon="3.41588">
        <ele>236.7</ele>
        <time>2016-10-22T13:27:57Z</time>
      </trkpt>
      <trkpt lat="43.61857" lon="3.41579">
        <ele>237.5</ele>
        <time>2016-10-22T13:28:01Z</time>
      </trkpt>
      <trkpt lat="43.6185" lon="3.41582">
        <ele>238.3</ele>
        <time>2016-10-22T13:28:06Z</time>
      </trkpt>
      <trkpt lat="43.61852" lon="3.41593">
        <ele>239.1</ele>
        <time>2016-10-22T13:28:10Z</time>
      </trkpt>
      <trkpt lat="43.61859" lon="3.416">
        <ele>239.8</ele>
        <time>2016-10-22T13:28:14Z</time>
      </trkpt>
      <trkpt lat="43.61865" lon="3.4161">
        <ele>240.6</ele>
        <time>2016-10-22T13:28:19Z</time>
      </trkpt>
      <trkpt lat="43.61869" lon="3.41621">
        <ele>241.2</ele>
        <time>2016-10-22T13:28:22Z</time>
      </trkpt>
      <trkpt lat="43.61873" lon="3.41632">
        <ele>242.4</ele>
        <time>2016-10-22T13:28:27Z</time>
      </trkpt>
      <trkpt lat="43.61877" lon="3.4164">
        <ele>243</ele>
        <time>2016-10-22T13:28:30Z</time>
      </trkpt>
      <trkpt lat="43.61882" lon="3.41649">
        <ele>243.7</ele>
        <time>2016-10-22T13:28:34Z</time>
      </trkpt>
      <trkpt lat="43.61888" lon="3.41657">
        <ele>244.5</ele>
        <time>2016-10-22T13:28:38Z</time>
      </trkpt>
      <trkpt lat="43.61893" lon="3.41665">
        <ele>245.3</ele>
        <time>2016-10-22T13:28:42Z</time>
      </trkpt>
      <trkpt lat="43.61898" lon="3.41673">
        <ele>245.8</ele>
        <time>2016-10-22T13:28:45Z</time>
      </trkpt>
      <trkpt lat="43.61904" lon="3.4168">
        <ele>246.6</ele>
        <time>2016-10-22T13:28:49Z</time>
      </trkpt>
      <trkpt lat="43.6191" lon="3.41688">
        <ele>247.1</ele>
        <time>2016-10-22T13:28:53Z</time>
      </trkpt>
      <trkpt lat="43.61917" lon="3.41696">
        <ele>247.6</ele>
        <time>2016-10-22T13:28:57Z</time>
      </trkpt>
      <trkpt lat="43.61923" lon="3.41704">
        <ele>248.1</ele>
        <time>2016-10-22T13:29:01Z</time>
      </trkpt>
      <trkpt lat="43.6193" lon="3.41712">
        <ele>248.8</ele>
        <time>2016-10-22T13:29:05Z</time>
      </trkpt>
      <trkpt lat="43.61936" lon="3.41722">
        <ele>249.6</ele>
        <time>2016-10-22T13:29:09Z</time>
      </trkpt>
      <trkpt lat="43.61942" lon="3.4173">
        <ele>250.2</ele>
        <time>2016-10-22T13:29:12Z</time>
      </trkpt>
      <trkpt lat="43.61948" lon="3.41738">
        <ele>251.1</ele>
        <time>2016-10-22T13:29:16Z</time>
      </trkpt>
      <trkpt lat="43.61952" lon="3.41746">
        <ele>251.6</ele>
        <time>2016-10-22T13:29:19Z</time>
      </trkpt>
      <trkpt lat="43.61958" lon="3.41756">
        <ele>252.5</ele>
        <time>2016-10-22T13:29:24Z</time>
      </trkpt>
      <trkpt lat="43.61964" lon="3.41767">
        <ele>253.5</ele>
        <time>2016-10-22T13:29:28Z</time>
      </trkpt>
      <trkpt lat="43.61968" lon="3.41775">
        <ele>254</ele>
        <time>2016-10-22T13:29:31Z</time>
      </trkpt>
      <trkpt lat="43.61972" lon="3.41785">
        <ele>254.7</ele>
        <time>2016-10-22T13:29:35Z</time>
      </trkpt>
      <trkpt lat="43.61978" lon="3.41793">
        <ele>255.7</ele>
        <time>2016-10-22T13:29:39Z</time>
      </trkpt>
      <trkpt lat="43.61983" lon="3.41803">
        <ele>256.7</ele>
        <time>2016-10-22T13:29:43Z</time>
      </trkpt>
      <trkpt lat="43.61988" lon="3.41812">
        <ele>257.7</ele>
        <time>2016-10-22T13:29:47Z</time>
      </trkpt>
      <trkpt lat="43.61993" lon="3.41823">
        <ele>258.6</ele>
        <time>2016-10-22T13:29:52Z</time>
      </trkpt>
      <trkpt lat="43.61998" lon="3.41834">
        <ele>259.2</ele>
        <time>2016-10-22T13:29:55Z</time>
      </trkpt>
      <trkpt lat="43.62003" lon="3.41846">
        <ele>259.8</ele>
        <time>2016-10-22T13:29:59Z</time>
      </trkpt>
      <trkpt lat="43.62007" lon="3.41855">
        <ele>260.6</ele>
        <time>2016-10-22T13:30:03Z</time>
      </trkpt>
      <trkpt lat="43.62009" lon="3.41866">
        <ele>261.3</ele>
        <time>2016-10-22T13:30:07Z</time>
      </trkpt>
      <trkpt lat="43.6201" lon="3.41879">
        <ele>262.2</ele>
        <time>2016-10-22T13:30:11Z</time>
      </trkpt>
      <trkpt lat="43.62008" lon="3.41891">
        <ele>262.9</ele>
        <time>2016-10-22T13:30:15Z</time>
      </trkpt>
      <trkpt lat="43.62004" lon="3.419">
        <ele>263.6</ele>
        <time>2016-10-22T13:30:19Z</time>
      </trkpt>
      <trkpt lat="43.61998" lon="3.41908">
        <ele>264.1</ele>
        <time>2016-10-22T13:30:22Z</time>
      </trkpt>
      <trkpt lat="43.61992" lon="3.41915">
        <ele>264.7</ele>
        <time>2016-10-22T13:30:26Z</time>
      </trkpt>
      <trkpt lat="43.61985" lon="3.4192">
        <ele>265.2</ele>
        <time>2016-10-22T13:30:29Z</time>
      </trkpt>
      <trkpt lat="43.61977" lon="3.41926">
        <ele>265.7</ele>
        <time>2016-10-22T13:30:33Z</time>
      </trkpt>
      <trkpt lat="43.61969" lon="3.4193">
        <ele>266.4</ele>
        <time>2016-10-22T13:30:37Z</time>
      </trkpt>
      <trkpt lat="43.61961" lon="3.41934">
        <ele>267.2</ele>
        <time>2016-10-22T13:30:41Z</time>
      </trkpt>
      <trkpt lat="43.61953" lon="3.4194">
        <ele>267.8</ele>
        <time>2016-10-22T13:30:45Z</time>
      </trkpt>
      <trkpt lat="43.61949" lon="3.4195">
        <ele>268.5</ele>
        <time>2016-10-22T13:30:49Z</time>
      </trkpt>
      <trkpt lat="43.6195" lon="3.41961">
        <ele>269.1</ele>
        <time>2016-10-22T13:30:52Z</time>
      </trkpt>
      <trkpt lat="43.61955" lon="3.41971">
        <ele>269.7</ele>
        <time>2016-10-22T13:30:56Z</time>
      </trkpt>
      <trkpt lat="43.6196" lon="3.41978">
        <ele>270</ele>
        <time>2016-10-22T13:30:59Z</time>
      </trkpt>
      <trkpt lat="43.61967" lon="3.41985">
        <ele>270.3</ele>
        <time>2016-10-22T13:31:02Z</time>
      </trkpt>
      <trkpt lat="43.61974" lon="3.41991">
        <ele>270.9</ele>
        <time>2016-10-22T13:31:05Z</time>
      </trkpt>
      <trkpt lat="43.6198" lon="3.41999">
        <ele>271.6</ele>
        <time>2016-10-22T13:31:08Z</time>
      </trkpt>
      <trkpt lat="43.61986" lon="3.42007">
        <ele>272</ele>
        <time>2016-10-22T13:31:11Z</time>
      </trkpt>
      <trkpt lat="43.61992" lon="3.42014">
        <ele>272.5</ele>
        <time>2016-10-22T13:31:14Z</time>
      </trkpt>
      <trkpt lat="43.61997" lon="3.42022">
        <ele>273</ele>
        <time>2016-10-22T13:31:17Z</time>
      </trkpt>
      <trkpt lat="43.62003" lon="3.42028">
        <ele>273.3</ele>
        <time>2016-10-22T13:31:20Z</time>
      </trkpt>
      <trkpt lat="43.6201" lon="3.42035">
        <ele>273.7</ele>
        <time>2016-10-22T13:31:23Z</time>
      </trkpt>
      <trkpt lat="43.62017" lon="3.42039">
        <ele>274.1</ele>
        <time>2016-10-22T13:31:27Z</time>
      </trkpt>
      <trkpt lat="43.62025" lon="3.42044">
        <ele>274.5</ele>
        <time>2016-10-22T13:31:30Z</time>
      </trkpt>
      <trkpt lat="43.62032" lon="3.42049">
        <ele>274.9</ele>
        <time>2016-10-22T13:31:33Z</time>
      </trkpt>
      <trkpt lat="43.62039" lon="3.42053">
        <ele>275.5</ele>
        <time>2016-10-22T13:31:36Z</time>
      </trkpt>
      <trkpt lat="43.62047" lon="3.42058">
        <ele>276.1</ele>
        <time>2016-10-22T13:31:39Z</time>
      </trkpt>
      <trkpt lat="43.62054" lon="3.42062">
        <ele>276.6</ele>
        <time>2016-10-22T13:31:42Z</time>
      </trkpt>
      <trkpt lat="43.62063" lon="3.42066">
        <ele>277.3</ele>
        <time>2016-10-22T13:31:46Z</time>
      </trkpt>
      <trkpt lat="43.62073" lon="3.4207">
        <ele>277.7</ele>
        <time>2016-10-22T13:31:49Z</time>
      </trkpt>
      <trkpt lat="43.6208" lon="3.42076">
        <ele>278.2</ele>
        <time>2016-10-22T13:31:52Z</time>
      </trkpt>
      <trkpt lat="43.62089" lon="3.42081">
        <ele>278.8</ele>
        <time>2016-10-22T13:31:56Z</time>
      </trkpt>
      <trkpt lat="43.62096" lon="3.42086">
        <ele>279.3</ele>
        <time>2016-10-22T13:31:59Z</time>
      </trkpt>
      <trkpt lat="43.62102" lon="3.42092">
        <ele>279.9</ele>
        <time>2016-10-22T13:32:02Z</time>
      </trkpt>
      <trkpt lat="43.62108" lon="3.42099">
        <ele>280.3</ele>
        <time>2016-10-22T13:32:05Z</time>
      </trkpt>
      <trkpt lat="43.62113" lon="3.42107">
        <ele>280.7</ele>
        <time>2016-10-22T13:32:08Z</time>
      </trkpt>
      <trkpt lat="43.62119" lon="3.42115">
        <ele>281</ele>
        <time>2016-10-22T13:32:11Z</time>
      </trkpt>
      <trkpt lat="43.62124" lon="3.42125">
        <ele>281.7</ele>
        <time>2016-10-22T13:32:15Z</time>
      </trkpt>
      <trkpt lat="43.62127" lon="3.42134">
        <ele>282.2</ele>
        <time>2016-10-22T13:32:18Z</time>
      </trkpt>
      <trkpt lat="43.62129" lon="3.42144">
        <ele>282.9</ele>
        <time>2016-10-22T13:32:21Z</time>
      </trkpt>
      <trkpt lat="43.6212" lon="3.42144">
        <ele>284.2</ele>
        <time>2016-10-22T13:32:28Z</time>
      </trkpt>
      <trkpt lat="43.62112" lon="3.42141">
        <ele>284.9</ele>
        <time>2016-10-22T13:32:33Z</time>
      </trkpt>
      <trkpt lat="43.62103" lon="3.42138">
        <ele>285.9</ele>
        <time>2016-10-22T13:32:37Z</time>
      </trkpt>
      <trkpt lat="43.62095" lon="3.42134">
        <ele>286.6</ele>
        <time>2016-10-22T13:32:41Z</time>
      </trkpt>
      <trkpt lat="43.62088" lon="3.42132">
        <ele>287.3</ele>
        <time>2016-10-22T13:32:45Z</time>
      </trkpt>
      <trkpt lat="43.62079" lon="3.4213">
        <ele>288.2</ele>
        <time>2016-10-22T13:32:50Z</time>
      </trkpt>
      <trkpt lat="43.62071" lon="3.42128">
        <ele>288.8</ele>
        <time>2016-10-22T13:32:53Z</time>
      </trkpt>
      <trkpt lat="43.62063" lon="3.42125">
        <ele>289.5</ele>
        <time>2016-10-22T13:32:56Z</time>
      </trkpt>
      <trkpt lat="43.62055" lon="3.42124">
        <ele>290.3</ele>
        <time>2016-10-22T13:33:00Z</time>
      </trkpt>
      <trkpt lat="43.62047" lon="3.42122">
        <ele>290.9</ele>
        <time>2016-10-22T13:33:03Z</time>
      </trkpt>
      <trkpt lat="43.62039" lon="3.42122">
        <ele>291.4</ele>
        <time>2016-10-22T13:33:06Z</time>
      </trkpt>
      <trkpt lat="43.6203" lon="3.42121">
        <ele>292.2</ele>
        <time>2016-10-22T13:33:10Z</time>
      </trkpt>
      <trkpt lat="43.62021" lon="3.4212">
        <ele>292.7</ele>
        <time>2016-10-22T13:33:14Z</time>
      </trkpt>
      <trkpt lat="43.62012" lon="3.42119">
        <ele>293.2</ele>
        <time>2016-10-22T13:33:18Z</time>
      </trkpt>
      <trkpt lat="43.62005" lon="3.42117">
        <ele>293.6</ele>
        <time>2016-10-22T13:33:21Z</time>
      </trkpt>
      <trkpt lat="43.61997" lon="3.42113">
        <ele>294.4</ele>
        <time>2016-10-22T13:33:25Z</time>
      </trkpt>
      <trkpt lat="43.61989" lon="3.42111">
        <ele>295.2</ele>
        <time>2016-10-22T13:33:29Z</time>
      </trkpt>
      <trkpt lat="43.61981" lon="3.42107">
        <ele>295.8</ele>
        <time>2016-10-22T13:33:33Z</time>
      </trkpt>
      <trkpt lat="43.61973" lon="3.42104">
        <ele>296.5</ele>
        <time>2016-10-22T13:33:37Z</time>
      </trkpt>
      <trkpt lat="43.61965" lon="3.42098">
        <ele>297.1</ele>
        <time>2016-10-22T13:33:41Z</time>
      </trkpt>
      <trkpt lat="43.61956" lon="3.42093">
        <ele>297.7</ele>
        <time>2016-10-22T13:33:45Z</time>
      </trkpt>
      <trkpt lat="43.61949" lon="3.42088">
        <ele>298.4</ele>
        <time>2016-10-22T13:33:49Z</time>
      </trkpt>
      <trkpt lat="43.61941" lon="3.42082">
        <ele>299.1</ele>
        <time>2016-10-22T13:33:53Z</time>
      </trkpt>
      <trkpt lat="43.61934" lon="3.42077">
        <ele>299.4</ele>
        <time>2016-10-22T13:33:56Z</time>
      </trkpt>
      <trkpt lat="43.61927" lon="3.42071">
        <ele>300</ele>
        <time>2016-10-22T13:34:00Z</time>
      </trkpt>
      <trkpt lat="43.6192" lon="3.42064">
        <ele>300.7</ele>
        <time>2016-10-22T13:34:04Z</time>
      </trkpt>
      <trkpt lat="43.61912" lon="3.42057">
        <ele>301.1</ele>
        <time>2016-10-22T13:34:07Z</time>
      </trkpt>
      <trkpt lat="43.61905" lon="3.42052">
        <ele>301.9</ele>
        <time>2016-10-22T13:34:11Z</time>
      </trkpt>
      <trkpt lat="43.61899" lon="3.42047">
        <ele>302.6</ele>
        <time>2016-10-22T13:34:14Z</time>
      </trkpt>
      <trkpt lat="43.61892" lon="3.42043">
        <ele>303.2</ele>
        <time>2016-10-22T13:34:17Z</time>
      </trkpt>
      <trkpt lat="43.61884" lon="3.4204">
        <ele>303.8</ele>
        <time>2016-10-22T13:34:21Z</time>
      </trkpt>
      <trkpt lat="43.61878" lon="3.42034">
        <ele>304.4</ele>
        <time>2016-10-22T13:34:24Z</time>
      </trkpt>
      <trkpt lat="43.61872" lon="3.42027">
        <ele>305.4</ele>
        <time>2016-10-22T13:34:28Z</time>
      </trkpt>
      <trkpt lat="43.61865" lon="3.42019">
        <ele>306.3</ele>
        <time>2016-10-22T13:34:32Z</time>
      </trkpt>
      <trkpt lat="43.61858" lon="3.42012">
        <ele>306.9</ele>
        <time>2016-10-22T13:34:36Z</time>
      </trkpt>
      <trkpt lat="43.61851" lon="3.42005">
        <ele>307.6</ele>
        <time>2016-10-22T13:34:40Z</time>
      </trkpt>
      <trkpt lat="43.61844" lon="3.42">
        <ele>308.1</ele>
        <time>2016-10-22T13:34:43Z</time>
      </trkpt>
      <trkpt lat="43.61837" lon="3.41995">
        <ele>308.5</ele>
        <time>2016-10-22T13:34:46Z</time>
      </trkpt>
      <trkpt lat="43.6183" lon="3.41988">
        <ele>309</ele>
        <time>2016-10-22T13:34:50Z</time>
      </trkpt>
      <trkpt lat="43.61824" lon="3.4198">
        <ele>309.6</ele>
        <time>2016-10-22T13:34:54Z</time>
      </trkpt>
      <trkpt lat="43.61819" lon="3.41971">
        <ele>310</ele>
        <time>2016-10-22T13:34:57Z</time>
      </trkpt>
      <trkpt lat="43.61816" lon="3.41959">
        <ele>310.4</ele>
        <time>2016-10-22T13:35:01Z</time>
      </trkpt>
      <trkpt lat="43.61816" lon="3.41946">
        <ele>310.8</ele>
        <time>2016-10-22T13:35:04Z</time>
      </trkpt>
      <trkpt lat="43.61816" lon="3.41936">
        <ele>311.2</ele>
        <time>2016-10-22T13:35:07Z</time>
      </trkpt>
      <trkpt lat="43.61818" lon="3.41923">
        <ele>311.7</ele>
        <time>2016-10-22T13:35:11Z</time>
      </trkpt>
      <trkpt lat="43.61819" lon="3.41911">
        <ele>312.2</ele>
        <time>2016-10-22T13:35:15Z</time>
      </trkpt>
      <trkpt lat="43.6182" lon="3.419">
        <ele>312.8</ele>
        <time>2016-10-22T13:35:19Z</time>
      </trkpt>
      <trkpt lat="43.6182" lon="3.41888">
        <ele>313.4</ele>
        <time>2016-10-22T13:35:23Z</time>
      </trkpt>
      <trkpt lat="43.61818" lon="3.41878">
        <ele>314.1</ele>
        <time>2016-10-22T13:35:27Z</time>
      </trkpt>
      <trkpt lat="43.61814" lon="3.41869">
        <ele>314.7</ele>
        <time>2016-10-22T13:35:30Z</time>
      </trkpt>
      <trkpt lat="43.61812" lon="3.41859">
        <ele>315.2</ele>
        <time>2016-10-22T13:35:33Z</time>
      </trkpt>
      <trkpt lat="43.61807" lon="3.4185">
        <ele>315.7</ele>
        <time>2016-10-22T13:35:36Z</time>
      </trkpt>
      <trkpt lat="43.61803" lon="3.41843">
        <ele>316.1</ele>
        <time>2016-10-22T13:35:39Z</time>
      </trkpt>
      <trkpt lat="43.61797" lon="3.41835">
        <ele>316.5</ele>
        <time>2016-10-22T13:35:42Z</time>
      </trkpt>
      <trkpt lat="43.61792" lon="3.41827">
        <ele>317</ele>
        <time>2016-10-22T13:35:45Z</time>
      </trkpt>
      <trkpt lat="43.61786" lon="3.41819">
        <ele>317.6</ele>
        <time>2016-10-22T13:35:48Z</time>
      </trkpt>
      <trkpt lat="43.61781" lon="3.41812">
        <ele>318.2</ele>
        <time>2016-10-22T13:35:51Z</time>
      </trkpt>
      <trkpt lat="43.61774" lon="3.41802">
        <ele>318.7</ele>
        <time>2016-10-22T13:35:54Z</time>
      </trkpt>
      <trkpt lat="43.61768" lon="3.41794">
        <ele>319.3</ele>
        <time>2016-10-22T13:35:57Z</time>
      </trkpt>
      <trkpt lat="43.61762" lon="3.41785">
        <ele>319.8</ele>
        <time>2016-10-22T13:36:00Z</time>
      </trkpt>
      <trkpt lat="43.61755" lon="3.41778">
        <ele>320.3</ele>
        <time>2016-10-22T13:36:03Z</time>
      </trkpt>
      <trkpt lat="43.61748" lon="3.4177">
        <ele>320.9</ele>
        <time>2016-10-22T13:36:06Z</time>
      </trkpt>
      <trkpt lat="43.61741" lon="3.41762">
        <ele>321.5</ele>
        <time>2016-10-22T13:36:09Z</time>
      </trkpt>
      <trkpt lat="43.61734" lon="3.41755">
        <ele>322</ele>
        <time>2016-10-22T13:36:12Z</time>
      </trkpt>
      <trkpt lat="43.61726" lon="3.41747">
        <ele>322.6</ele>
        <time>2016-10-22T13:36:15Z</time>
      </trkpt>
      <trkpt lat="43.61718" lon="3.41741">
        <ele>323.3</ele>
        <time>2016-10-22T13:36:18Z</time>
      </trkpt>
      <trkpt lat="43.61708" lon="3.4174">
        <ele>323.8</ele>
        <time>2016-10-22T13:36:21Z</time>
      </trkpt>
      <trkpt lat="43.61701" lon="3.41744">
        <ele>324.3</ele>
        <time>2016-10-22T13:36:24Z</time>
      </trkpt>
      <trkpt lat="43.61694" lon="3.41751">
        <ele>324.8</ele>
        <time>2016-10-22T13:36:27Z</time>
      </trkpt>
      <trkpt lat="43.61687" lon="3.4176">
        <ele>325.4</ele>
        <time>2016-10-22T13:36:30Z</time>
      </trkpt>
      <trkpt lat="43.61681" lon="3.41769">
        <ele>325.9</ele>
        <time>2016-10-22T13:36:33Z</time>
      </trkpt>
      <trkpt lat="43.61674" lon="3.41779">
        <ele>326.4</ele>
        <time>2016-10-22T13:36:36Z</time>
      </trkpt>
      <trkpt lat="43.61668" lon="3.41785">
        <ele>326.7</ele>
        <time>2016-10-22T13:36:38Z</time>
      </trkpt>
      <trkpt lat="43.61658" lon="3.41792">
        <ele>330.2</ele>
        <time>2016-10-22T13:36:41Z</time>
      </trkpt>
      <trkpt lat="43.6165" lon="3.41797">
        <ele>331.6</ele>
        <time>2016-10-22T13:36:43Z</time>
      </trkpt>
      <trkpt lat="43.6164" lon="3.41803">
        <ele>332</ele>
        <time>2016-10-22T13:36:45Z</time>
      </trkpt>
      <trkpt lat="43.6163" lon="3.41809">
        <ele>331.8</ele>
        <time>2016-10-22T13:36:47Z</time>
      </trkpt>
      <trkpt lat="43.6162" lon="3.41817">
        <ele>332</ele>
        <time>2016-10-22T13:36:49Z</time>
      </trkpt>
      <trkpt lat="43.6161" lon="3.41826">
        <ele>331.2</ele>
        <time>2016-10-22T13:36:51Z</time>
      </trkpt>
      <trkpt lat="43.61601" lon="3.41833">
        <ele>331</ele>
        <time>2016-10-22T13:36:53Z</time>
      </trkpt>
      <trkpt lat="43.61591" lon="3.41839">
        <ele>331.2</ele>
        <time>2016-10-22T13:36:55Z</time>
      </trkpt>
      <trkpt lat="43.6158" lon="3.41844">
        <ele>330.8</ele>
        <time>2016-10-22T13:36:57Z</time>
      </trkpt>
      <trkpt lat="43.61569" lon="3.41846">
        <ele>330</ele>
        <time>2016-10-22T13:36:59Z</time>
      </trkpt>
      <trkpt lat="43.61557" lon="3.41843">
        <ele>328.9</ele>
        <time>2016-10-22T13:37:01Z</time>
      </trkpt>
      <trkpt lat="43.61547" lon="3.41837">
        <ele>328</ele>
        <time>2016-10-22T13:37:03Z</time>
      </trkpt>
      <trkpt lat="43.61537" lon="3.41828">
        <ele>327.1</ele>
        <time>2016-10-22T13:37:05Z</time>
      </trkpt>
      <trkpt lat="43.61529" lon="3.41815">
        <ele>326.9</ele>
        <time>2016-10-22T13:37:07Z</time>
      </trkpt>
      <trkpt lat="43.61522" lon="3.41801">
        <ele>326.8</ele>
        <time>2016-10-22T13:37:09Z</time>
      </trkpt>
      <trkpt lat="43.61518" lon="3.41783">
        <ele>326.3</ele>
        <time>2016-10-22T13:37:11Z</time>
      </trkpt>
      <trkpt lat="43.61516" lon="3.41766">
        <ele>325</ele>
        <time>2016-10-22T13:37:13Z</time>
      </trkpt>
      <trkpt lat="43.61516" lon="3.41749">
        <ele>323.9</ele>
        <time>2016-10-22T13:37:15Z</time>
      </trkpt>
      <trkpt lat="43.61516" lon="3.41731">
        <ele>322.5</ele>
        <time>2016-10-22T13:37:17Z</time>
      </trkpt>
      <trkpt lat="43.61515" lon="3.41713">
        <ele>321.2</ele>
        <time>2016-10-22T13:37:19Z</time>
      </trkpt>
      <trkpt lat="43.61511" lon="3.41695">
        <ele>320.2</ele>
        <time>2016-10-22T13:37:21Z</time>
      </trkpt>
      <trkpt lat="43.61501" lon="3.41683">
        <ele>319.6</ele>
        <time>2016-10-22T13:37:23Z</time>
      </trkpt>
      <trkpt lat="43.61489" lon="3.4168">
        <ele>318.7</ele>
        <time>2016-10-22T13:37:25Z</time>
      </trkpt>
      <trkpt lat="43.61477" lon="3.41674">
        <ele>317.4</ele>
        <time>2016-10-22T13:37:27Z</time>
      </trkpt>
      <trkpt lat="43.61468" lon="3.41664">
        <ele>316.2</ele>
        <time>2016-10-22T13:37:29Z</time>
      </trkpt>
      <trkpt lat="43.61462" lon="3.41652">
        <ele>316.3</ele>
        <time>2016-10-22T13:37:31Z</time>
      </trkpt>
      <trkpt lat="43.61457" lon="3.41637">
        <ele>316.2</ele>
        <time>2016-10-22T13:37:33Z</time>
      </trkpt>
      <trkpt lat="43.61451" lon="3.41621">
        <ele>316.1</ele>
        <time>2016-10-22T13:37:35Z</time>
      </trkpt>
      <trkpt lat="43.61443" lon="3.41607">
        <ele>316.3</ele>
        <time>2016-10-22T13:37:37Z</time>
      </trkpt>
      <trkpt lat="43.61432" lon="3.41598">
        <ele>316.7</ele>
        <time>2016-10-22T13:37:39Z</time>
      </trkpt>
      <trkpt lat="43.6142" lon="3.4159">
        <ele>316.4</ele>
        <time>2016-10-22T13:37:41Z</time>
      </trkpt>
      <trkpt lat="43.61406" lon="3.41583">
        <ele>315.6</ele>
        <time>2016-10-22T13:37:43Z</time>
      </trkpt>
      <trkpt lat="43.614" lon="3.41579">
        <ele>315.5</ele>
        <time>2016-10-22T13:37:44Z</time>
      </trkpt>
      <trkpt lat="43.61392" lon="3.41576">
        <ele>315.3</ele>
        <time>2016-10-22T13:37:45Z</time>
      </trkpt>
      <trkpt lat="43.61382" lon="3.41576">
        <ele>314.5</ele>
        <time>2016-10-22T13:37:47Z</time>
      </trkpt>
      <trkpt lat="43.61375" lon="3.41586">
        <ele>313.2</ele>
        <time>2016-10-22T13:37:49Z</time>
      </trkpt>
      <trkpt lat="43.61371" lon="3.41599">
        <ele>311.4</ele>
        <time>2016-10-22T13:37:51Z</time>
      </trkpt>
      <trkpt lat="43.61368" lon="3.41611">
        <ele>309.8</ele>
        <time>2016-10-22T13:37:53Z</time>
      </trkpt>
      <trkpt lat="43.61365" lon="3.41623">
        <ele>309</ele>
        <time>2016-10-22T13:37:55Z</time>
      </trkpt>
      <trkpt lat="43.61363" lon="3.41634">
        <ele>308.6</ele>
        <time>2016-10-22T13:37:57Z</time>
      </trkpt>
      <trkpt lat="43.61359" lon="3.41647">
        <ele>308</ele>
        <time>2016-10-22T13:37:59Z</time>
      </trkpt>
      <trkpt lat="43.61356" lon="3.41659">
        <ele>307.6</ele>
        <time>2016-10-22T13:38:01Z</time>
      </trkpt>
      <trkpt lat="43.61352" lon="3.41672">
        <ele>307.4</ele>
        <time>2016-10-22T13:38:03Z</time>
      </trkpt>
      <trkpt lat="43.61348" lon="3.41684">
        <ele>307.1</ele>
        <time>2016-10-22T13:38:05Z</time>
      </trkpt>
      <trkpt lat="43.61345" lon="3.41695">
        <ele>307.1</ele>
        <time>2016-10-22T13:38:07Z</time>
      </trkpt>
      <trkpt lat="43.61341" lon="3.41707">
        <ele>307.1</ele>
        <time>2016-10-22T13:38:09Z</time>
      </trkpt>
      <trkpt lat="43.61338" lon="3.41719">
        <ele>306.6</ele>
        <time>2016-10-22T13:38:11Z</time>
      </trkpt>
      <trkpt lat="43.61336" lon="3.4173">
        <ele>306.2</ele>
        <time>2016-10-22T13:38:13Z</time>
      </trkpt>
      <trkpt lat="43.61335" lon="3.41745">
        <ele>306.1</ele>
        <time>2016-10-22T13:38:16Z</time>
      </trkpt>
      <trkpt lat="43.61334" lon="3.41757">
        <ele>306.1</ele>
        <time>2016-10-22T13:38:19Z</time>
      </trkpt>
      <trkpt lat="43.61334" lon="3.41771">
        <ele>306</ele>
        <time>2016-10-22T13:38:22Z</time>
      </trkpt>
      <trkpt lat="43.61335" lon="3.41785">
        <ele>306</ele>
        <time>2016-10-22T13:38:25Z</time>
      </trkpt>
      <trkpt lat="43.61337" lon="3.41797">
        <ele>306</ele>
        <time>2016-10-22T13:38:28Z</time>
      </trkpt>
      <trkpt lat="43.61339" lon="3.41809">
        <ele>306</ele>
        <time>2016-10-22T13:38:31Z</time>
      </trkpt>
      <trkpt lat="43.61342" lon="3.41821">
        <ele>306</ele>
        <time>2016-10-22T13:38:34Z</time>
      </trkpt>
      <trkpt lat="43.61346" lon="3.41833">
        <ele>306</ele>
        <time>2016-10-22T13:38:37Z</time>
      </trkpt>
      <trkpt lat="43.6135" lon="3.41844">
        <ele>306.1</ele>
        <time>2016-10-22T13:38:40Z</time>
      </trkpt>
      <trkpt lat="43.61354" lon="3.41854">
        <ele>306.2</ele>
        <time>2016-10-22T13:38:43Z</time>
      </trkpt>
      <trkpt lat="43.61359" lon="3.41864">
        <ele>306.3</ele>
        <time>2016-10-22T13:38:46Z</time>
      </trkpt>
      <trkpt lat="43.61362" lon="3.41875">
        <ele>306.5</ele>
        <time>2016-10-22T13:38:49Z</time>
      </trkpt>
      <trkpt lat="43.61366" lon="3.41885">
        <ele>306.6</ele>
        <time>2016-10-22T13:38:52Z</time>
      </trkpt>
      <trkpt lat="43.61371" lon="3.41896">
        <ele>306.7</ele>
        <time>2016-10-22T13:38:55Z</time>
      </trkpt>
      <trkpt lat="43.61375" lon="3.41907">
        <ele>306.8</ele>
        <time>2016-10-22T13:38:58Z</time>
      </trkpt>
      <trkpt lat="43.6138" lon="3.41919">
        <ele>306.9</ele>
        <time>2016-10-22T13:39:01Z</time>
      </trkpt>
      <trkpt lat="43.61385" lon="3.41928">
        <ele>307</ele>
        <time>2016-10-22T13:39:04Z</time>
      </trkpt>
      <trkpt lat="43.6139" lon="3.41939">
        <ele>307.1</ele>
        <time>2016-10-22T13:39:07Z</time>
      </trkpt>
      <trkpt lat="43.61397" lon="3.41948">
        <ele>307.2</ele>
        <time>2016-10-22T13:39:10Z</time>
      </trkpt>
      <trkpt lat="43.61403" lon="3.41955">
        <ele>307.3</ele>
        <time>2016-10-22T13:39:13Z</time>
      </trkpt>
      <trkpt lat="43.6141" lon="3.41961">
        <ele>307.4</ele>
        <time>2016-10-22T13:39:16Z</time>
      </trkpt>
      <trkpt lat="43.61418" lon="3.41967">
        <ele>307.5</ele>
        <time>2016-10-22T13:39:20Z</time>
      </trkpt>
      <trkpt lat="43.61425" lon="3.41973">
        <ele>307.7</ele>
        <time>2016-10-22T13:39:23Z</time>
      </trkpt>
      <trkpt lat="43.6143" lon="3.41983">
        <ele>307.8</ele>
        <time>2016-10-22T13:39:26Z</time>
      </trkpt>
      <trkpt lat="43.61435" lon="3.41994">
        <ele>308.1</ele>
        <time>2016-10-22T13:39:30Z</time>
      </trkpt>
      <trkpt lat="43.61438" lon="3.42005">
        <ele>308.3</ele>
        <time>2016-10-22T13:39:33Z</time>
      </trkpt>
      <trkpt lat="43.61441" lon="3.42016">
        <ele>308.6</ele>
        <time>2016-10-22T13:39:36Z</time>
      </trkpt>
      <trkpt lat="43.61444" lon="3.42029">
        <ele>309</ele>
        <time>2016-10-22T13:39:40Z</time>
      </trkpt>
      <trkpt lat="43.61446" lon="3.4204">
        <ele>309.5</ele>
        <time>2016-10-22T13:39:44Z</time>
      </trkpt>
      <trkpt lat="43.61449" lon="3.42051">
        <ele>309.8</ele>
        <time>2016-10-22T13:39:47Z</time>
      </trkpt>
      <trkpt lat="43.61451" lon="3.42062">
        <ele>310.3</ele>
        <time>2016-10-22T13:39:51Z</time>
      </trkpt>
      <trkpt lat="43.61454" lon="3.42073">
        <ele>310.9</ele>
        <time>2016-10-22T13:39:55Z</time>
      </trkpt>
      <trkpt lat="43.61456" lon="3.42083">
        <ele>311.3</ele>
        <time>2016-10-22T13:39:58Z</time>
      </trkpt>
      <trkpt lat="43.61458" lon="3.42094">
        <ele>311.7</ele>
        <time>2016-10-22T13:40:01Z</time>
      </trkpt>
      <trkpt lat="43.61461" lon="3.42104">
        <ele>312</ele>
        <time>2016-10-22T13:40:04Z</time>
      </trkpt>
      <trkpt lat="43.61463" lon="3.42114">
        <ele>312.5</ele>
        <time>2016-10-22T13:40:07Z</time>
      </trkpt>
      <trkpt lat="43.61465" lon="3.42126">
        <ele>313.1</ele>
        <time>2016-10-22T13:40:11Z</time>
      </trkpt>
      <trkpt lat="43.61468" lon="3.42139">
        <ele>313.6</ele>
        <time>2016-10-22T13:40:15Z</time>
      </trkpt>
      <trkpt lat="43.6147" lon="3.4215">
        <ele>314.1</ele>
        <time>2016-10-22T13:40:18Z</time>
      </trkpt>
      <trkpt lat="43.61472" lon="3.42161">
        <ele>314.8</ele>
        <time>2016-10-22T13:40:22Z</time>
      </trkpt>
      <trkpt lat="43.61474" lon="3.42171">
        <ele>315.5</ele>
        <time>2016-10-22T13:40:26Z</time>
      </trkpt>
      <trkpt lat="43.61477" lon="3.42182">
        <ele>316.2</ele>
        <time>2016-10-22T13:40:30Z</time>
      </trkpt>
      <trkpt lat="43.6148" lon="3.42193">
        <ele>317.2</ele>
        <time>2016-10-22T13:40:35Z</time>
      </trkpt>
      <trkpt lat="43.61482" lon="3.42203">
        <ele>318</ele>
        <time>2016-10-22T13:40:39Z</time>
      </trkpt>
      <trkpt lat="43.61484" lon="3.42214">
        <ele>318.6</ele>
        <time>2016-10-22T13:40:43Z</time>
      </trkpt>
      <trkpt lat="43.61483" lon="3.42226">
        <ele>319.2</ele>
        <time>2016-10-22T13:40:47Z</time>
      </trkpt>
      <trkpt lat="43.61483" lon="3.42236">
        <ele>319.6</ele>
        <time>2016-10-22T13:40:50Z</time>
      </trkpt>
      <trkpt lat="43.61483" lon="3.42237">
        <ele>319.8</ele>
        <time>2016-10-22T13:40:57Z</time>
      </trkpt>
      <trkpt lat="43.61482" lon="3.4225">
        <ele>320.6</ele>
        <time>2016-10-22T13:41:16Z</time>
      </trkpt>
      <trkpt lat="43.61482" lon="3.42264">
        <ele>321.1</ele>
        <time>2016-10-22T13:41:19Z</time>
      </trkpt>
      <trkpt lat="43.61482" lon="3.42276">
        <ele>321.5</ele>
        <time>2016-10-22T13:41:21Z</time>
      </trkpt>
      <trkpt lat="43.61482" lon="3.42287">
        <ele>321.7</ele>
        <time>2016-10-22T13:41:23Z</time>
      </trkpt>
      <trkpt lat="43.61476" lon="3.42299">
        <ele>322</ele>
        <time>2016-10-22T13:41:26Z</time>
      </trkpt>
      <trkpt lat="43.61468" lon="3.42306">
        <ele>321.6</ele>
        <time>2016-10-22T13:41:28Z</time>
      </trkpt>
      <trkpt lat="43.61458" lon="3.42315">
        <ele>320.1</ele>
        <time>2016-10-22T13:41:30Z</time>
      </trkpt>
      <trkpt lat="43.61447" lon="3.42322">
        <ele>318.7</ele>
        <time>2016-10-22T13:41:32Z</time>
      </trkpt>
      <trkpt lat="43.61439" lon="3.4232">
        <ele>317.8</ele>
        <time>2016-10-22T13:41:34Z</time>
      </trkpt>
      <trkpt lat="43.6143" lon="3.42323">
        <ele>316.8</ele>
        <time>2016-10-22T13:41:36Z</time>
      </trkpt>
      <trkpt lat="43.61422" lon="3.42331">
        <ele>316.5</ele>
        <time>2016-10-22T13:41:39Z</time>
      </trkpt>
      <trkpt lat="43.61414" lon="3.4233">
        <ele>314.4</ele>
        <time>2016-10-22T13:41:41Z</time>
      </trkpt>
      <trkpt lat="43.61406" lon="3.42331">
        <ele>314.2</ele>
        <time>2016-10-22T13:41:43Z</time>
      </trkpt>
      <trkpt lat="43.614" lon="3.42323">
        <ele>313.8</ele>
        <time>2016-10-22T13:41:46Z</time>
      </trkpt>
      <trkpt lat="43.61395" lon="3.42312">
        <ele>311.1</ele>
        <time>2016-10-22T13:41:48Z</time>
      </trkpt>
      <trkpt lat="43.61389" lon="3.42306">
        <ele>310</ele>
        <time>2016-10-22T13:41:50Z</time>
      </trkpt>
      <trkpt lat="43.61378" lon="3.42309">
        <ele>306.2</ele>
        <time>2016-10-22T13:41:53Z</time>
      </trkpt>
      <trkpt lat="43.61369" lon="3.4231">
        <ele>303.3</ele>
        <time>2016-10-22T13:41:55Z</time>
      </trkpt>
      <trkpt lat="43.61363" lon="3.42317">
        <ele>301.1</ele>
        <time>2016-10-22T13:41:57Z</time>
      </trkpt>
      <trkpt lat="43.61359" lon="3.42326">
        <ele>300.9</ele>
        <time>2016-10-22T13:41:59Z</time>
      </trkpt>
      <trkpt lat="43.61352" lon="3.42338">
        <ele>299.1</ele>
        <time>2016-10-22T13:42:02Z</time>
      </trkpt>
      <trkpt lat="43.61344" lon="3.42347">
        <ele>297.1</ele>
        <time>2016-10-22T13:42:05Z</time>
      </trkpt>
      <trkpt lat="43.61338" lon="3.42352">
        <ele>296.4</ele>
        <time>2016-10-22T13:42:09Z</time>
      </trkpt>
      <trkpt lat="43.61333" lon="3.42362">
        <ele>295.6</ele>
        <time>2016-10-22T13:42:12Z</time>
      </trkpt>
      <trkpt lat="43.61329" lon="3.42371">
        <ele>294.7</ele>
        <time>2016-10-22T13:42:16Z</time>
      </trkpt>
      <trkpt lat="43.61318" lon="3.42372">
        <ele>293.4</ele>
        <time>2016-10-22T13:42:20Z</time>
      </trkpt>
      <trkpt lat="43.6131" lon="3.42379">
        <ele>292.4</ele>
        <time>2016-10-22T13:42:23Z</time>
      </trkpt>
      <trkpt lat="43.61301" lon="3.42379">
        <ele>291</ele>
        <time>2016-10-22T13:42:27Z</time>
      </trkpt>
      <trkpt lat="43.61294" lon="3.42382">
        <ele>289.9</ele>
        <time>2016-10-22T13:42:30Z</time>
      </trkpt>
      <trkpt lat="43.61288" lon="3.42389">
        <ele>285.9</ele>
        <time>2016-10-22T13:42:32Z</time>
      </trkpt>
      <trkpt lat="43.61281" lon="3.42399">
        <ele>279.3</ele>
        <time>2016-10-22T13:42:34Z</time>
      </trkpt>
      <trkpt lat="43.61273" lon="3.42409">
        <ele>274.3</ele>
        <time>2016-10-22T13:42:36Z</time>
      </trkpt>
      <trkpt lat="43.61268" lon="3.42422">
        <ele>270</ele>
        <time>2016-10-22T13:42:38Z</time>
      </trkpt>
      <trkpt lat="43.61263" lon="3.42437">
        <ele>266.3</ele>
        <time>2016-10-22T13:42:40Z</time>
      </trkpt>
      <trkpt lat="43.6126" lon="3.42447">
        <ele>264.7</ele>
        <time>2016-10-22T13:42:43Z</time>
      </trkpt>
      <trkpt lat="43.61257" lon="3.42463">
        <ele>262.4</ele>
        <time>2016-10-22T13:42:46Z</time>
      </trkpt>
      <trkpt lat="43.61251" lon="3.42476">
        <ele>259.5</ele>
        <time>2016-10-22T13:42:48Z</time>
      </trkpt>
      <trkpt lat="43.61244" lon="3.42487">
        <ele>257.4</ele>
        <time>2016-10-22T13:42:50Z</time>
      </trkpt>
      <trkpt lat="43.61237" lon="3.42502">
        <ele>255.3</ele>
        <time>2016-10-22T13:42:52Z</time>
      </trkpt>
      <trkpt lat="43.61229" lon="3.42518">
        <ele>253</ele>
        <time>2016-10-22T13:42:54Z</time>
      </trkpt>
      <trkpt lat="43.61223" lon="3.42527">
        <ele>252.1</ele>
        <time>2016-10-22T13:42:55Z</time>
      </trkpt>
      <trkpt lat="43.61219" lon="3.42535">
        <ele>251.3</ele>
        <time>2016-10-22T13:42:56Z</time>
      </trkpt>
      <trkpt lat="43.61214" lon="3.42543">
        <ele>250.7</ele>
        <time>2016-10-22T13:42:57Z</time>
      </trkpt>
      <trkpt lat="43.61204" lon="3.42557">
        <ele>249.1</ele>
        <time>2016-10-22T13:42:59Z</time>
      </trkpt>
      <trkpt lat="43.61198" lon="3.42564">
        <ele>248.3</ele>
        <time>2016-10-22T13:43:00Z</time>
      </trkpt>
      <trkpt lat="43.61192" lon="3.42571">
        <ele>247.6</ele>
        <time>2016-10-22T13:43:01Z</time>
      </trkpt>
      <trkpt lat="43.61185" lon="3.42577">
        <ele>246.9</ele>
        <time>2016-10-22T13:43:02Z</time>
      </trkpt>
      <trkpt lat="43.61177" lon="3.4259">
        <ele>245.7</ele>
        <time>2016-10-22T13:43:04Z</time>
      </trkpt>
      <trkpt lat="43.61176" lon="3.426">
        <ele>244.3</ele>
        <time>2016-10-22T13:43:06Z</time>
      </trkpt>
      <trkpt lat="43.61177" lon="3.42611">
        <ele>243.2</ele>
        <time>2016-10-22T13:43:08Z</time>
      </trkpt>
      <trkpt lat="43.61178" lon="3.42621">
        <ele>242.1</ele>
        <time>2016-10-22T13:43:10Z</time>
      </trkpt>
      <trkpt lat="43.61176" lon="3.42631">
        <ele>241.5</ele>
        <time>2016-10-22T13:43:12Z</time>
      </trkpt>
      <trkpt lat="43.61169" lon="3.42638">
        <ele>241.5</ele>
        <time>2016-10-22T13:43:15Z</time>
      </trkpt>
      <trkpt lat="43.61164" lon="3.42646">
        <ele>241.4</ele>
        <time>2016-10-22T13:43:18Z</time>
      </trkpt>
      <trkpt lat="43.61157" lon="3.42653">
        <ele>241.4</ele>
        <time>2016-10-22T13:43:21Z</time>
      </trkpt>
      <trkpt lat="43.61151" lon="3.42661">
        <ele>241.4</ele>
        <time>2016-10-22T13:43:24Z</time>
      </trkpt>
      <trkpt lat="43.61143" lon="3.42661">
        <ele>241.4</ele>
        <time>2016-10-22T13:43:28Z</time>
      </trkpt>
      <trkpt lat="43.61135" lon="3.42663">
        <ele>241.4</ele>
        <time>2016-10-22T13:43:31Z</time>
      </trkpt>
      <trkpt lat="43.61127" lon="3.42667">
        <ele>241.5</ele>
        <time>2016-10-22T13:43:34Z</time>
      </trkpt>
      <trkpt lat="43.61119" lon="3.42673">
        <ele>241.5</ele>
        <time>2016-10-22T13:43:37Z</time>
      </trkpt>
      <trkpt lat="43.61112" lon="3.42681">
        <ele>241.6</ele>
        <time>2016-10-22T13:43:41Z</time>
      </trkpt>
      <trkpt lat="43.61106" lon="3.4269">
        <ele>241.7</ele>
        <time>2016-10-22T13:43:45Z</time>
      </trkpt>
      <trkpt lat="43.611" lon="3.42696">
        <ele>241.9</ele>
        <time>2016-10-22T13:43:48Z</time>
      </trkpt>
      <trkpt lat="43.61096" lon="3.42705">
        <ele>242</ele>
        <time>2016-10-22T13:43:51Z</time>
      </trkpt>
      <trkpt lat="43.61089" lon="3.42714">
        <ele>242</ele>
        <time>2016-10-22T13:43:55Z</time>
      </trkpt>
      <trkpt lat="43.61084" lon="3.42721">
        <ele>242.1</ele>
        <time>2016-10-22T13:43:58Z</time>
      </trkpt>
      <trkpt lat="43.61076" lon="3.42727">
        <ele>242.3</ele>
        <time>2016-10-22T13:44:02Z</time>
      </trkpt>
      <trkpt lat="43.61072" lon="3.42736">
        <ele>242.3</ele>
        <time>2016-10-22T13:44:05Z</time>
      </trkpt>
      <trkpt lat="43.6107" lon="3.42748">
        <ele>242.5</ele>
        <time>2016-10-22T13:44:09Z</time>
      </trkpt>
      <trkpt lat="43.61064" lon="3.42758">
        <ele>242.6</ele>
        <time>2016-10-22T13:44:13Z</time>
      </trkpt>
      <trkpt lat="43.6106" lon="3.42767">
        <ele>242.7</ele>
        <time>2016-10-22T13:44:16Z</time>
      </trkpt>
      <trkpt lat="43.61056" lon="3.42775">
        <ele>242.9</ele>
        <time>2016-10-22T13:44:19Z</time>
      </trkpt>
      <trkpt lat="43.61051" lon="3.42781">
        <ele>243</ele>
        <time>2016-10-22T13:44:22Z</time>
      </trkpt>
      <trkpt lat="43.61043" lon="3.42791">
        <ele>243.2</ele>
        <time>2016-10-22T13:44:26Z</time>
      </trkpt>
      <trkpt lat="43.61036" lon="3.42802">
        <ele>243.4</ele>
        <time>2016-10-22T13:44:29Z</time>
      </trkpt>
      <trkpt lat="43.61032" lon="3.42812">
        <ele>243.5</ele>
        <time>2016-10-22T13:44:31Z</time>
      </trkpt>
      <trkpt lat="43.61027" lon="3.42824">
        <ele>243.7</ele>
        <time>2016-10-22T13:44:34Z</time>
      </trkpt>
      <trkpt lat="43.61022" lon="3.42834">
        <ele>243.8</ele>
        <time>2016-10-22T13:44:37Z</time>
      </trkpt>
      <trkpt lat="43.61016" lon="3.42845">
        <ele>244.1</ele>
        <time>2016-10-22T13:44:40Z</time>
      </trkpt>
      <trkpt lat="43.6101" lon="3.42853">
        <ele>244.2</ele>
        <time>2016-10-22T13:44:43Z</time>
      </trkpt>
      <trkpt lat="43.61005" lon="3.42861">
        <ele>244.6</ele>
        <time>2016-10-22T13:44:45Z</time>
      </trkpt>
      <trkpt lat="43.60998" lon="3.42868">
        <ele>244.2</ele>
        <time>2016-10-22T13:44:47Z</time>
      </trkpt>
      <trkpt lat="43.60991" lon="3.42876">
        <ele>243.3</ele>
        <time>2016-10-22T13:44:49Z</time>
      </trkpt>
      <trkpt lat="43.60981" lon="3.42883">
        <ele>243.4</ele>
        <time>2016-10-22T13:44:51Z</time>
      </trkpt>
      <trkpt lat="43.60971" lon="3.42892">
        <ele>244.6</ele>
        <time>2016-10-22T13:44:53Z</time>
      </trkpt>
      <trkpt lat="43.60964" lon="3.42905">
        <ele>244.5</ele>
        <time>2016-10-22T13:44:55Z</time>
      </trkpt>
      <trkpt lat="43.60957" lon="3.4291">
        <ele>244.1</ele>
        <time>2016-10-22T13:44:57Z</time>
      </trkpt>
      <trkpt lat="43.6095" lon="3.42914">
        <ele>243.4</ele>
        <time>2016-10-22T13:44:59Z</time>
      </trkpt>
      <trkpt lat="43.60939" lon="3.4292">
        <ele>242.2</ele>
        <time>2016-10-22T13:45:01Z</time>
      </trkpt>
      <trkpt lat="43.6093" lon="3.42928">
        <ele>240.8</ele>
        <time>2016-10-22T13:45:03Z</time>
      </trkpt>
      <trkpt lat="43.60922" lon="3.42937">
        <ele>239.6</ele>
        <time>2016-10-22T13:45:05Z</time>
      </trkpt>
      <trkpt lat="43.60911" lon="3.42948">
        <ele>238.6</ele>
        <time>2016-10-22T13:45:07Z</time>
      </trkpt>
      <trkpt lat="43.609" lon="3.42955">
        <ele>237.5</ele>
        <time>2016-10-22T13:45:09Z</time>
      </trkpt>
      <trkpt lat="43.60892" lon="3.42963">
        <ele>235.9</ele>
        <time>2016-10-22T13:45:11Z</time>
      </trkpt>
      <trkpt lat="43.60883" lon="3.42966">
        <ele>233.7</ele>
        <time>2016-10-22T13:45:13Z</time>
      </trkpt>
      <trkpt lat="43.60875" lon="3.42967">
        <ele>232.3</ele>
        <time>2016-10-22T13:45:16Z</time>
      </trkpt>
      <trkpt lat="43.60865" lon="3.42971">
        <ele>230.4</ele>
        <time>2016-10-22T13:45:18Z</time>
      </trkpt>
      <trkpt lat="43.60856" lon="3.42974">
        <ele>228.3</ele>
        <time>2016-10-22T13:45:20Z</time>
      </trkpt>
      <trkpt lat="43.60848" lon="3.42974">
        <ele>225.8</ele>
        <time>2016-10-22T13:45:22Z</time>
      </trkpt>
      <trkpt lat="43.60838" lon="3.42973">
        <ele>225.4</ele>
        <time>2016-10-22T13:45:25Z</time>
      </trkpt>
      <trkpt lat="43.60829" lon="3.4297">
        <ele>225</ele>
        <time>2016-10-22T13:45:28Z</time>
      </trkpt>
      <trkpt lat="43.6082" lon="3.42968">
        <ele>224.4</ele>
        <time>2016-10-22T13:45:31Z</time>
      </trkpt>
      <trkpt lat="43.60813" lon="3.42957">
        <ele>223.7</ele>
        <time>2016-10-22T13:45:34Z</time>
      </trkpt>
      <trkpt lat="43.60808" lon="3.42946">
        <ele>223</ele>
        <time>2016-10-22T13:45:37Z</time>
      </trkpt>
      <trkpt lat="43.608" lon="3.42949">
        <ele>221.3</ele>
        <time>2016-10-22T13:45:43Z</time>
      </trkpt>
      <trkpt lat="43.60795" lon="3.4296">
        <ele>220.1</ele>
        <time>2016-10-22T13:45:46Z</time>
      </trkpt>
      <trkpt lat="43.60787" lon="3.42958">
        <ele>218</ele>
        <time>2016-10-22T13:45:53Z</time>
      </trkpt>
      <trkpt lat="43.60778" lon="3.42954">
        <ele>216.9</ele>
        <time>2016-10-22T13:45:57Z</time>
      </trkpt>
      <trkpt lat="43.6077" lon="3.42953">
        <ele>215.9</ele>
        <time>2016-10-22T13:46:00Z</time>
      </trkpt>
      <trkpt lat="43.60763" lon="3.42959">
        <ele>214.5</ele>
        <time>2016-10-22T13:46:04Z</time>
      </trkpt>
      <trkpt lat="43.60753" lon="3.42955">
        <ele>213</ele>
        <time>2016-10-22T13:46:08Z</time>
      </trkpt>
      <trkpt lat="43.60746" lon="3.42948">
        <ele>211.8</ele>
        <time>2016-10-22T13:46:11Z</time>
      </trkpt>
      <trkpt lat="43.60739" lon="3.42956">
        <ele>210.1</ele>
        <time>2016-10-22T13:46:15Z</time>
      </trkpt>
      <trkpt lat="43.60736" lon="3.42965">
        <ele>208.8</ele>
        <time>2016-10-22T13:46:18Z</time>
      </trkpt>
      <trkpt lat="43.60733" lon="3.42977">
        <ele>207.1</ele>
        <time>2016-10-22T13:46:22Z</time>
      </trkpt>
      <trkpt lat="43.60733" lon="3.42992">
        <ele>202.2</ele>
        <time>2016-10-22T13:46:26Z</time>
      </trkpt>
      <trkpt lat="43.60738" lon="3.43002">
        <ele>199.2</ele>
        <time>2016-10-22T13:46:28Z</time>
      </trkpt>
      <trkpt lat="43.6074" lon="3.43017">
        <ele>195.2</ele>
        <time>2016-10-22T13:46:31Z</time>
      </trkpt>
      <trkpt lat="43.60741" lon="3.43029">
        <ele>192.4</ele>
        <time>2016-10-22T13:46:33Z</time>
      </trkpt>
      <trkpt lat="43.60743" lon="3.43045">
        <ele>189.9</ele>
        <time>2016-10-22T13:46:35Z</time>
      </trkpt>
      <trkpt lat="43.60745" lon="3.43055">
        <ele>189</ele>
        <time>2016-10-22T13:46:36Z</time>
      </trkpt>
      <trkpt lat="43.60747" lon="3.43073">
        <ele>187.1</ele>
        <time>2016-10-22T13:46:38Z</time>
      </trkpt>
      <trkpt lat="43.60752" lon="3.43085">
        <ele>185.3</ele>
        <time>2016-10-22T13:46:40Z</time>
      </trkpt>
      <trkpt lat="43.60757" lon="3.43095">
        <ele>184.8</ele>
        <time>2016-10-22T13:46:42Z</time>
      </trkpt>
      <trkpt lat="43.60762" lon="3.43102">
        <ele>185.2</ele>
        <time>2016-10-22T13:46:44Z</time>
      </trkpt>
      <trkpt lat="43.60772" lon="3.43107">
        <ele>185.3</ele>
        <time>2016-10-22T13:46:47Z</time>
      </trkpt>
      <trkpt lat="43.60779" lon="3.43112">
        <ele>185.2</ele>
        <time>2016-10-22T13:46:50Z</time>
      </trkpt>
      <trkpt lat="43.60787" lon="3.43118">
        <ele>185</ele>
        <time>2016-10-22T13:46:53Z</time>
      </trkpt>
      <trkpt lat="43.60794" lon="3.43124">
        <ele>184.9</ele>
        <time>2016-10-22T13:46:56Z</time>
      </trkpt>
      <trkpt lat="43.60801" lon="3.43131">
        <ele>184.8</ele>
        <time>2016-10-22T13:46:59Z</time>
      </trkpt>
      <trkpt lat="43.60808" lon="3.43138">
        <ele>184.8</ele>
        <time>2016-10-22T13:47:02Z</time>
      </trkpt>
      <trkpt lat="43.60816" lon="3.43142">
        <ele>184.7</ele>
        <time>2016-10-22T13:47:05Z</time>
      </trkpt>
      <trkpt lat="43.60824" lon="3.43148">
        <ele>184.8</ele>
        <time>2016-10-22T13:47:09Z</time>
      </trkpt>
      <trkpt lat="43.60831" lon="3.43155">
        <ele>184.9</ele>
        <time>2016-10-22T13:47:12Z</time>
      </trkpt>
      <trkpt lat="43.60838" lon="3.4316">
        <ele>184.9</ele>
        <time>2016-10-22T13:47:15Z</time>
      </trkpt>
      <trkpt lat="43.60846" lon="3.43164">
        <ele>185.1</ele>
        <time>2016-10-22T13:47:18Z</time>
      </trkpt>
      <trkpt lat="43.60855" lon="3.43168">
        <ele>185.2</ele>
        <time>2016-10-22T13:47:21Z</time>
      </trkpt>
      <trkpt lat="43.60863" lon="3.43173">
        <ele>185.4</ele>
        <time>2016-10-22T13:47:24Z</time>
      </trkpt>
      <trkpt lat="43.60871" lon="3.43179">
        <ele>185.5</ele>
        <time>2016-10-22T13:47:27Z</time>
      </trkpt>
      <trkpt lat="43.60879" lon="3.43183">
        <ele>185.6</ele>
        <time>2016-10-22T13:47:30Z</time>
      </trkpt>
      <trkpt lat="43.60886" lon="3.43187">
        <ele>186</ele>
        <time>2016-10-22T13:47:34Z</time>
      </trkpt>
      <trkpt lat="43.60887" lon="3.432">
        <ele>186.4</ele>
        <time>2016-10-22T13:47:38Z</time>
      </trkpt>
      <trkpt lat="43.60884" lon="3.43211">
        <ele>186.8</ele>
        <time>2016-10-22T13:47:40Z</time>
      </trkpt>
      <trkpt lat="43.60878" lon="3.43228">
        <ele>186.6</ele>
        <time>2016-10-22T13:47:42Z</time>
      </trkpt>
      <trkpt lat="43.60871" lon="3.43244">
        <ele>184.7</ele>
        <time>2016-10-22T13:47:44Z</time>
      </trkpt>
      <trkpt lat="43.60866" lon="3.43255">
        <ele>183.8</ele>
        <time>2016-10-22T13:47:45Z</time>
      </trkpt>
      <trkpt lat="43.60861" lon="3.43265">
        <ele>182.7</ele>
        <time>2016-10-22T13:47:46Z</time>
      </trkpt>
      <trkpt lat="43.60856" lon="3.43276">
        <ele>181.8</ele>
        <time>2016-10-22T13:47:47Z</time>
      </trkpt>
      <trkpt lat="43.60854" lon="3.43288">
        <ele>180.9</ele>
        <time>2016-10-22T13:47:48Z</time>
      </trkpt>
      <trkpt lat="43.60852" lon="3.43302">
        <ele>180.3</ele>
        <time>2016-10-22T13:47:49Z</time>
      </trkpt>
      <trkpt lat="43.60853" lon="3.43315">
        <ele>179.6</ele>
        <time>2016-10-22T13:47:50Z</time>
      </trkpt>
      <trkpt lat="43.60854" lon="3.43328">
        <ele>178.6</ele>
        <time>2016-10-22T13:47:51Z</time>
      </trkpt>
      <trkpt lat="43.60857" lon="3.43344">
        <ele>178.1</ele>
        <time>2016-10-22T13:47:52Z</time>
      </trkpt>
      <trkpt lat="43.60859" lon="3.43356">
        <ele>177.3</ele>
        <time>2016-10-22T13:47:53Z</time>
      </trkpt>
      <trkpt lat="43.60863" lon="3.43369">
        <ele>176.2</ele>
        <time>2016-10-22T13:47:54Z</time>
      </trkpt>
      <trkpt lat="43.60865" lon="3.43384">
        <ele>175.4</ele>
        <time>2016-10-22T13:47:55Z</time>
      </trkpt>
      <trkpt lat="43.60865" lon="3.43397">
        <ele>174.9</ele>
        <time>2016-10-22T13:47:56Z</time>
      </trkpt>
      <trkpt lat="43.60866" lon="3.43413">
        <ele>174.1</ele>
        <time>2016-10-22T13:47:57Z</time>
      </trkpt>
      <trkpt lat="43.60865" lon="3.43426">
        <ele>173.1</ele>
        <time>2016-10-22T13:47:58Z</time>
      </trkpt>
      <trkpt lat="43.60865" lon="3.4344">
        <ele>171.6</ele>
        <time>2016-10-22T13:47:59Z</time>
      </trkpt>
      <trkpt lat="43.60867" lon="3.4345">
        <ele>170</ele>
        <time>2016-10-22T13:48:00Z</time>
      </trkpt>
      <trkpt lat="43.60872" lon="3.43461">
        <ele>168.6</ele>
        <time>2016-10-22T13:48:01Z</time>
      </trkpt>
      <trkpt lat="43.60877" lon="3.43471">
        <ele>167.7</ele>
        <time>2016-10-22T13:48:02Z</time>
      </trkpt>
      <trkpt lat="43.60882" lon="3.43479">
        <ele>167.3</ele>
        <time>2016-10-22T13:48:03Z</time>
      </trkpt>
      <trkpt lat="43.60886" lon="3.43488">
        <ele>167</ele>
        <time>2016-10-22T13:48:04Z</time>
      </trkpt>
      <trkpt lat="43.60889" lon="3.43498">
        <ele>166.8</ele>
        <time>2016-10-22T13:48:05Z</time>
      </trkpt>
      <trkpt lat="43.60893" lon="3.43517">
        <ele>166.2</ele>
        <time>2016-10-22T13:48:07Z</time>
      </trkpt>
      <trkpt lat="43.60894" lon="3.43526">
        <ele>165.9</ele>
        <time>2016-10-22T13:48:08Z</time>
      </trkpt>
      <trkpt lat="43.60895" lon="3.43536">
        <ele>165.5</ele>
        <time>2016-10-22T13:48:09Z</time>
      </trkpt>
      <trkpt lat="43.60898" lon="3.43545">
        <ele>165.1</ele>
        <time>2016-10-22T13:48:10Z</time>
      </trkpt>
      <trkpt lat="43.60907" lon="3.43553">
        <ele>164.2</ele>
        <time>2016-10-22T13:48:12Z</time>
      </trkpt>
      <trkpt lat="43.60916" lon="3.43556">
        <ele>163.7</ele>
        <time>2016-10-22T13:48:14Z</time>
      </trkpt>
      <trkpt lat="43.60924" lon="3.43557">
        <ele>163.6</ele>
        <time>2016-10-22T13:48:16Z</time>
      </trkpt>
      <trkpt lat="43.60934" lon="3.43558">
        <ele>163.7</ele>
        <time>2016-10-22T13:48:19Z</time>
      </trkpt>
      <trkpt lat="43.60941" lon="3.43559">
        <ele>163.9</ele>
        <time>2016-10-22T13:48:22Z</time>
      </trkpt>
      <trkpt lat="43.6095" lon="3.43561">
        <ele>164.1</ele>
        <time>2016-10-22T13:48:26Z</time>
      </trkpt>
      <trkpt lat="43.60955" lon="3.43569">
        <ele>164.4</ele>
        <time>2016-10-22T13:48:33Z</time>
      </trkpt>
      <trkpt lat="43.60951" lon="3.43572">
        <ele>164.8</ele>
        <time>2016-10-22T13:48:40Z</time>
      </trkpt>
    </trkseg>
  </trk>
</gpx>